Wetterdaten: aktuell Freitag, 08.05.2026 06:08
Datum Zeit Temp. 2m Luftfeuchte Luftdruck Regen Wind Richtung Richtung Sonnenschein ET UV Solar Taupunkt Windchill Windböen Empfang
08.05.2026 06:08 6,0 °C 94 % 1017,0 hPa 0,0 l/m² 0,0 km/h (0 Bft) N 0 ° 0 min 0,000 mm 0,0 UV-I 25 W/m² 5,1 °C 6,0 °C 0,0 km/h (0 Bft) 100,00 %
08.05.2026 06:07 5,9 °C 94 % 1017,1 hPa 0,0 l/m² 0,0 km/h (0 Bft) N 0 ° 0 min 0,000 mm 0,0 UV-I 23 W/m² 5,0 °C 5,9 °C 0,0 km/h (0 Bft) 100,00 %
08.05.2026 06:06 5,9 °C 94 % 1017,1 hPa 0,0 l/m² 0,0 km/h (0 Bft) N 0 ° 0 min 0,000 mm 0,0 UV-I 23 W/m² 5,0 °C 5,9 °C 0,0 km/h (0 Bft) 100,00 %
08.05.2026 06:05 6,0 °C 94 % 1017,1 hPa 0,0 l/m² 0,0 km/h (0 Bft) N 0 ° 0 min 0,000 mm 0,0 UV-I 21 W/m² 5,1 °C 6,0 °C 0,0 km/h (0 Bft) 95,65 %
08.05.2026 06:04 5,9 °C 94 % 1017,1 hPa 0,0 l/m² 0,0 km/h (0 Bft) N 0 ° 0 min 0,000 mm 0,0 UV-I 19 W/m² 5,0 °C 5,9 °C 0,0 km/h (0 Bft) 100,00 %
08.05.2026 06:03 5,9 °C 94 % 1017,0 hPa 0,0 l/m² 0,0 km/h (0 Bft) N 0 ° 0 min 0,000 mm 0,0 UV-I 18 W/m² 5,0 °C 5,9 °C 0,0 km/h (0 Bft) 95,65 %
08.05.2026 06:02 5,9 °C 94 % 1017,0 hPa 0,0 l/m² 0,0 km/h (0 Bft) N 0 ° 0 min 0,000 mm 0,0 UV-I 18 W/m² 5,0 °C 5,9 °C 0,0 km/h (0 Bft) 95,65 %
08.05.2026 06:01 6,0 °C 94 % 1017,0 hPa 0,0 l/m² 0,0 km/h (0 Bft) N 0 ° 0 min 0,000 mm 0,0 UV-I 16 W/m² 5,1 °C 6,0 °C 0,0 km/h (0 Bft) 100,00 %
08.05.2026 06:00 6,1 °C 94 % 1017,0 hPa 0,0 l/m² 0,0 km/h (0 Bft) W 270 ° 0 min 0,000 mm 0,0 UV-I 16 W/m² 5,2 °C 6,1 °C 1,6 km/h (1 Bft) 100,00 %
08.05.2026 05:59 6,2 °C 94 % 1017,0 hPa 0,0 l/m² 0,0 km/h (0 Bft) N 0 ° 0 min 0,000 mm 0,0 UV-I 16 W/m² 5,3 °C 6,2 °C 0,0 km/h (0 Bft) 100,00 %
08.05.2026 05:58 6,2 °C 94 % 1017,0 hPa 0,0 l/m² 0,0 km/h (0 Bft) N 0 ° 0 min 0,000 mm 0,0 UV-I 14 W/m² 5,3 °C 6,2 °C 0,0 km/h (0 Bft) 100,00 %
08.05.2026 05:57 6,3 °C 94 % 1016,9 hPa 0,0 l/m² 0,0 km/h (0 Bft) N 0 ° 0 min 0,000 mm 0,0 UV-I 14 W/m² 5,4 °C 6,3 °C 0,0 km/h (0 Bft) 100,00 %
08.05.2026 05:56 6,2 °C 94 % 1017,0 hPa 0,0 l/m² 0,0 km/h (0 Bft) N 0 ° 0 min 0,000 mm 0,0 UV-I 12 W/m² 5,3 °C 6,2 °C 0,0 km/h (0 Bft) 100,00 %
08.05.2026 05:55 6,3 °C 94 % 1017,0 hPa 0,0 l/m² 0,0 km/h (0 Bft) N 0 ° 0 min 0,000 mm 0,0 UV-I 12 W/m² 5,4 °C 6,3 °C 0,0 km/h (0 Bft) 91,30 %
08.05.2026 05:54 6,3 °C 94 % 1017,0 hPa 0,0 l/m² 0,0 km/h (0 Bft) N 0 ° 0 min 0,000 mm 0,0 UV-I 12 W/m² 5,4 °C 6,3 °C 0,0 km/h (0 Bft) 95,65 %
08.05.2026 05:53 6,2 °C 94 % 1016,9 hPa 0,0 l/m² 0,0 km/h (0 Bft) N 0 ° 0 min 0,000 mm 0,0 UV-I 12 W/m² 5,3 °C 6,2 °C 0,0 km/h (0 Bft) 95,65 %
08.05.2026 05:52 6,2 °C 94 % 1016,8 hPa 0,0 l/m² 0,0 km/h (0 Bft) N 0 ° 0 min 0,000 mm 0,0 UV-I 11 W/m² 5,3 °C 6,2 °C 0,0 km/h (0 Bft) 95,65 %
08.05.2026 05:51 6,2 °C 94 % 1016,8 hPa 0,0 l/m² 0,0 km/h (0 Bft) N 0 ° 0 min 0,000 mm 0,0 UV-I 11 W/m² 5,3 °C 6,2 °C 0,0 km/h (0 Bft) 100,00 %
08.05.2026 05:50 6,2 °C 94 % 1016,8 hPa 0,0 l/m² 0,0 km/h (0 Bft) N 0 ° 0 min 0,000 mm 0,0 UV-I 11 W/m² 5,3 °C 6,2 °C 0,0 km/h (0 Bft) 100,00 %
08.05.2026 05:49 6,2 °C 94 % 1016,9 hPa 0,0 l/m² 0,0 km/h (0 Bft) N 0 ° 0 min 0,000 mm 0,0 UV-I 9 W/m² 5,3 °C 6,2 °C 0,0 km/h (0 Bft) 95,65 %
08.05.2026 05:48 6,2 °C 94 % 1016,8 hPa 0,0 l/m² 0,0 km/h (0 Bft) N 0 ° 0 min 0,000 mm 0,0 UV-I 9 W/m² 5,3 °C 6,2 °C 0,0 km/h (0 Bft) 95,65 %
08.05.2026 05:47 6,2 °C 94 % 1016,8 hPa 0,0 l/m² 0,0 km/h (0 Bft) N 0 ° 0 min 0,000 mm 0,0 UV-I 9 W/m² 5,3 °C 6,2 °C 0,0 km/h (0 Bft) 95,65 %
08.05.2026 05:46 6,2 °C 94 % 1016,8 hPa 0,0 l/m² 0,0 km/h (0 Bft) N 0 ° 0 min 0,000 mm 0,0 UV-I 9 W/m² 5,3 °C 6,2 °C 0,0 km/h (0 Bft) 95,65 %
08.05.2026 05:45 6,2 °C 94 % 1016,8 hPa 0,0 l/m² 0,0 km/h (0 Bft) N 0 ° 0 min 0,000 mm 0,0 UV-I 7 W/m² 5,3 °C 6,2 °C 0,0 km/h (0 Bft) 95,65 %
08.05.2026 05:44 6,2 °C 94 % 1016,8 hPa 0,0 l/m² 0,0 km/h (0 Bft) N 0 ° 0 min 0,000 mm 0,0 UV-I 7 W/m² 5,3 °C 6,2 °C 0,0 km/h (0 Bft) 100,00 %
08.05.2026 05:43 6,1 °C 94 % 1016,6 hPa 0,0 l/m² 0,0 km/h (0 Bft) N 0 ° 0 min 0,000 mm 0,0 UV-I 7 W/m² 5,2 °C 6,1 °C 0,0 km/h (0 Bft) 100,00 %
08.05.2026 05:42 6,1 °C 94 % 1016,7 hPa 0,0 l/m² 0,0 km/h (0 Bft) N 0 ° 0 min 0,000 mm 0,0 UV-I 7 W/m² 5,2 °C 6,1 °C 0,0 km/h (0 Bft) 100,00 %
08.05.2026 05:41 6,0 °C 94 % 1016,7 hPa 0,0 l/m² 0,0 km/h (0 Bft) N 0 ° 0 min 0,000 mm 0,0 UV-I 5 W/m² 5,1 °C 6,0 °C 0,0 km/h (0 Bft) 95,65 %
08.05.2026 05:40 5,9 °C 94 % 1016,7 hPa 0,0 l/m² 0,0 km/h (0 Bft) N 0 ° 0 min 0,000 mm 0,0 UV-I 5 W/m² 5,0 °C 5,9 °C 0,0 km/h (0 Bft) 100,00 %
08.05.2026 05:39 5,9 °C 94 % 1016,7 hPa 0,0 l/m² 0,0 km/h (0 Bft) N 0 ° 0 min 0,000 mm 0,0 UV-I 5 W/m² 5,0 °C 5,9 °C 0,0 km/h (0 Bft) 100,00 %
08.05.2026 05:38 5,9 °C 94 % 1016,7 hPa 0,0 l/m² 0,0 km/h (0 Bft) N 0 ° 0 min 0,000 mm 0,0 UV-I 5 W/m² 5,0 °C 5,9 °C 0,0 km/h (0 Bft) 100,00 %
08.05.2026 05:37 5,9 °C 93 % 1016,7 hPa 0,0 l/m² 0,0 km/h (0 Bft) N 0 ° 0 min 0,000 mm 0,0 UV-I 5 W/m² 4,9 °C 5,9 °C 0,0 km/h (0 Bft) 100,00 %
08.05.2026 05:36 5,9 °C 93 % 1016,6 hPa 0,0 l/m² 0,0 km/h (0 Bft) N 0 ° 0 min 0,000 mm 0,0 UV-I 0 W/m² 4,9 °C 5,9 °C 0,0 km/h (0 Bft) 100,00 %
08.05.2026 05:35 6,0 °C 93 % 1016,7 hPa 0,0 l/m² 0,0 km/h (0 Bft) N 0 ° 0 min 0,000 mm 0,0 UV-I 0 W/m² 5,0 °C 6,0 °C 0,0 km/h (0 Bft) 100,00 %
08.05.2026 05:34 6,1 °C 94 % 1016,6 hPa 0,0 l/m² 0,0 km/h (0 Bft) N 0 ° 0 min 0,000 mm 0,0 UV-I 0 W/m² 5,2 °C 6,1 °C 0,0 km/h (0 Bft) 95,65 %
08.05.2026 05:33 6,3 °C 94 % 1016,7 hPa 0,0 l/m² 0,0 km/h (0 Bft) N 0 ° 0 min 0,000 mm 0,0 UV-I 0 W/m² 5,4 °C 6,3 °C 0,0 km/h (0 Bft) 100,00 %
08.05.2026 05:32 6,5 °C 94 % 1016,6 hPa 0,0 l/m² 0,0 km/h (0 Bft) N 0 ° 0 min 0,000 mm 0,0 UV-I 0 W/m² 5,6 °C 6,5 °C 0,0 km/h (0 Bft) 100,00 %
08.05.2026 05:31 6,5 °C 94 % 1016,7 hPa 0,0 l/m² 0,0 km/h (0 Bft) N 0 ° 0 min 0,000 mm 0,0 UV-I 0 W/m² 5,6 °C 6,5 °C 0,0 km/h (0 Bft) 95,65 %
08.05.2026 05:30 6,5 °C 94 % 1016,6 hPa 0,0 l/m² 0,0 km/h (0 Bft) N 0 ° 0 min 0,000 mm 0,0 UV-I 0 W/m² 5,6 °C 6,5 °C 0,0 km/h (0 Bft) 95,65 %
08.05.2026 05:29 6,5 °C 94 % 1016,6 hPa 0,0 l/m² 0,0 km/h (0 Bft) N 0 ° 0 min 0,000 mm 0,0 UV-I 0 W/m² 5,6 °C 6,5 °C 0,0 km/h (0 Bft) 100,00 %
08.05.2026 05:28 6,6 °C 94 % 1016,7 hPa 0,0 l/m² 0,0 km/h (0 Bft) N 0 ° 0 min 0,000 mm 0,0 UV-I 0 W/m² 5,7 °C 6,6 °C 0,0 km/h (0 Bft) 95,65 %
08.05.2026 05:27 6,6 °C 94 % 1016,6 hPa 0,0 l/m² 0,0 km/h (0 Bft) N 0 ° 0 min 0,000 mm 0,0 UV-I 0 W/m² 5,7 °C 6,6 °C 0,0 km/h (0 Bft) 95,65 %
08.05.2026 05:26 6,6 °C 94 % 1016,6 hPa 0,0 l/m² 0,0 km/h (0 Bft) N 0 ° 0 min 0,000 mm 0,0 UV-I 0 W/m² 5,7 °C 6,6 °C 0,0 km/h (0 Bft) 100,00 %
08.05.2026 05:25 6,6 °C 94 % 1016,7 hPa 0,0 l/m² 0,0 km/h (0 Bft) N 0 ° 0 min 0,000 mm 0,0 UV-I 0 W/m² 5,7 °C 6,6 °C 0,0 km/h (0 Bft) 100,00 %
08.05.2026 05:24 6,5 °C 94 % 1016,6 hPa 0,0 l/m² 0,0 km/h (0 Bft) N 0 ° 0 min 0,000 mm 0,0 UV-I 0 W/m² 5,6 °C 6,5 °C 0,0 km/h (0 Bft) 95,65 %
08.05.2026 05:23 6,5 °C 94 % 1016,6 hPa 0,0 l/m² 0,0 km/h (0 Bft) N 0 ° 0 min 0,000 mm 0,0 UV-I 0 W/m² 5,6 °C 6,5 °C 0,0 km/h (0 Bft) 100,00 %
08.05.2026 05:22 6,4 °C 94 % 1016,6 hPa 0,0 l/m² 0,0 km/h (0 Bft) N 0 ° 0 min 0,000 mm 0,0 UV-I 0 W/m² 5,5 °C 6,4 °C 0,0 km/h (0 Bft) 95,65 %
08.05.2026 05:21 6,4 °C 94 % 1016,7 hPa 0,0 l/m² 0,0 km/h (0 Bft) N 0 ° 0 min 0,000 mm 0,0 UV-I 0 W/m² 5,5 °C 6,4 °C 0,0 km/h (0 Bft) 100,00 %
08.05.2026 05:20 6,4 °C 94 % 1016,7 hPa 0,0 l/m² 0,0 km/h (0 Bft) N 0 ° 0 min 0,000 mm 0,0 UV-I 0 W/m² 5,5 °C 6,4 °C 0,0 km/h (0 Bft) 95,65 %
08.05.2026 05:19 6,4 °C 94 % 1016,7 hPa 0,0 l/m² 0,0 km/h (0 Bft) N 0 ° 0 min 0,000 mm 0,0 UV-I 0 W/m² 5,5 °C 6,4 °C 0,0 km/h (0 Bft) 100,00 %
08.05.2026 05:18 6,3 °C 94 % 1016,7 hPa 0,0 l/m² 0,0 km/h (0 Bft) N 0 ° 0 min 0,000 mm 0,0 UV-I 0 W/m² 5,4 °C 6,3 °C 0,0 km/h (0 Bft) 95,65 %
08.05.2026 05:17 6,3 °C 94 % 1016,7 hPa 0,0 l/m² 0,0 km/h (0 Bft) N 0 ° 0 min 0,000 mm 0,0 UV-I 0 W/m² 5,4 °C 6,3 °C 0,0 km/h (0 Bft) 100,00 %
08.05.2026 05:16 6,3 °C 94 % 1016,7 hPa 0,0 l/m² 0,0 km/h (0 Bft) N 0 ° 0 min 0,000 mm 0,0 UV-I 0 W/m² 5,4 °C 6,3 °C 0,0 km/h (0 Bft) 100,00 %
08.05.2026 05:15 6,4 °C 94 % 1016,6 hPa 0,0 l/m² 0,0 km/h (0 Bft) N 0 ° 0 min 0,000 mm 0,0 UV-I 0 W/m² 5,5 °C 6,4 °C 0,0 km/h (0 Bft) 100,00 %
08.05.2026 05:14 6,4 °C 94 % 1016,7 hPa 0,0 l/m² 0,0 km/h (0 Bft) N 0 ° 0 min 0,000 mm 0,0 UV-I 0 W/m² 5,5 °C 6,4 °C 0,0 km/h (0 Bft) 100,00 %
08.05.2026 05:13 6,4 °C 94 % 1016,7 hPa 0,0 l/m² 0,0 km/h (0 Bft) N 0 ° 0 min 0,000 mm 0,0 UV-I 0 W/m² 5,5 °C 6,4 °C 0,0 km/h (0 Bft) 95,65 %
08.05.2026 05:12 6,5 °C 94 % 1016,7 hPa 0,0 l/m² 0,0 km/h (0 Bft) N 0 ° 0 min 0,000 mm 0,0 UV-I 0 W/m² 5,6 °C 6,5 °C 0,0 km/h (0 Bft) 95,65 %
08.05.2026 05:11 6,5 °C 94 % 1016,6 hPa 0,0 l/m² 0,0 km/h (0 Bft) N 0 ° 0 min 0,000 mm 0,0 UV-I 0 W/m² 5,6 °C 6,5 °C 0,0 km/h (0 Bft) 100,00 %
08.05.2026 05:10 6,5 °C 94 % 1016,7 hPa 0,0 l/m² 0,0 km/h (0 Bft) N 0 ° 0 min 0,000 mm 0,0 UV-I 0 W/m² 5,6 °C 6,5 °C 0,0 km/h (0 Bft) 100,00 %
08.05.2026 05:09 6,6 °C 94 % 1016,6 hPa 0,0 l/m² 0,0 km/h (0 Bft) N 0 ° 0 min 0,000 mm 0,0 UV-I 0 W/m² 5,7 °C 6,6 °C 0,0 km/h (0 Bft) 100,00 %
08.05.2026 05:08 6,5 °C 94 % 1016,6 hPa 0,0 l/m² 0,0 km/h (0 Bft) N 0 ° 0 min 0,000 mm 0,0 UV-I 0 W/m² 5,6 °C 6,5 °C 0,0 km/h (0 Bft) 100,00 %
08.05.2026 05:07 6,5 °C 94 % 1016,7 hPa 0,0 l/m² 0,0 km/h (0 Bft) N 0 ° 0 min 0,000 mm 0,0 UV-I 0 W/m² 5,6 °C 6,5 °C 0,0 km/h (0 Bft) 95,65 %
08.05.2026 05:06 6,4 °C 94 % 1016,7 hPa 0,0 l/m² 0,0 km/h (0 Bft) N 0 ° 0 min 0,000 mm 0,0 UV-I 0 W/m² 5,5 °C 6,4 °C 0,0 km/h (0 Bft) 91,30 %
08.05.2026 05:05 6,5 °C 94 % 1016,7 hPa 0,0 l/m² 0,0 km/h (0 Bft) N 0 ° 0 min 0,000 mm 0,0 UV-I 0 W/m² 5,6 °C 6,5 °C 0,0 km/h (0 Bft) 100,00 %
08.05.2026 05:04 6,5 °C 94 % 1016,6 hPa 0,0 l/m² 0,0 km/h (0 Bft) N 0 ° 0 min 0,000 mm 0,0 UV-I 0 W/m² 5,6 °C 6,5 °C 0,0 km/h (0 Bft) 100,00 %
08.05.2026 05:03 6,6 °C 94 % 1016,6 hPa 0,0 l/m² 0,0 km/h (0 Bft) N 0 ° 0 min 0,000 mm 0,0 UV-I 0 W/m² 5,7 °C 6,6 °C 0,0 km/h (0 Bft) 95,65 %
08.05.2026 05:02 6,5 °C 94 % 1016,6 hPa 0,0 l/m² 0,0 km/h (0 Bft) N 0 ° 0 min 0,000 mm 0,0 UV-I 0 W/m² 5,6 °C 6,5 °C 0,0 km/h (0 Bft) 91,30 %
08.05.2026 05:01 6,5 °C 94 % 1016,6 hPa 0,0 l/m² 0,0 km/h (0 Bft) N 0 ° 0 min 0,000 mm 0,0 UV-I 0 W/m² 5,6 °C 6,5 °C 0,0 km/h (0 Bft) 100,00 %
08.05.2026 05:00 6,5 °C 94 % 1016,7 hPa 0,0 l/m² 0,0 km/h (0 Bft) N 0 ° 0 min 0,000 mm 0,0 UV-I 0 W/m² 5,6 °C 6,5 °C 0,0 km/h (0 Bft) 95,65 %
08.05.2026 04:59 6,5 °C 94 % 1016,6 hPa 0,0 l/m² 0,0 km/h (0 Bft) N 0 ° 0 min 0,000 mm 0,0 UV-I 0 W/m² 5,6 °C 6,5 °C 0,0 km/h (0 Bft) 95,65 %
08.05.2026 04:58 6,5 °C 94 % 1016,6 hPa 0,0 l/m² 0,0 km/h (0 Bft) N 0 ° 0 min 0,000 mm 0,0 UV-I 0 W/m² 5,6 °C 6,5 °C 0,0 km/h (0 Bft) 100,00 %
08.05.2026 04:57 6,5 °C 94 % 1016,6 hPa 0,0 l/m² 0,0 km/h (0 Bft) N 0 ° 0 min 0,000 mm 0,0 UV-I 0 W/m² 5,6 °C 6,5 °C 0,0 km/h (0 Bft) 100,00 %
08.05.2026 04:56 6,5 °C 94 % 1016,6 hPa 0,0 l/m² 0,0 km/h (0 Bft) N 0 ° 0 min 0,000 mm 0,0 UV-I 0 W/m² 5,6 °C 6,5 °C 0,0 km/h (0 Bft) 100,00 %
08.05.2026 04:55 6,6 °C 94 % 1016,6 hPa 0,0 l/m² 0,0 km/h (0 Bft) N 0 ° 0 min 0,000 mm 0,0 UV-I 0 W/m² 5,7 °C 6,6 °C 0,0 km/h (0 Bft) 100,00 %
08.05.2026 04:54 6,6 °C 94 % 1016,5 hPa 0,0 l/m² 0,0 km/h (0 Bft) N 0 ° 0 min 0,000 mm 0,0 UV-I 0 W/m² 5,7 °C 6,6 °C 0,0 km/h (0 Bft) 100,00 %
08.05.2026 04:53 6,6 °C 94 % 1016,6 hPa 0,0 l/m² 0,0 km/h (0 Bft) N 0 ° 0 min 0,000 mm 0,0 UV-I 0 W/m² 5,7 °C 6,6 °C 0,0 km/h (0 Bft) 95,65 %
08.05.2026 04:52 6,6 °C 94 % 1016,6 hPa 0,0 l/m² 0,0 km/h (0 Bft) N 0 ° 0 min 0,000 mm 0,0 UV-I 0 W/m² 5,7 °C 6,6 °C 0,0 km/h (0 Bft) 95,65 %
08.05.2026 04:51 6,6 °C 94 % 1016,7 hPa 0,0 l/m² 0,0 km/h (0 Bft) N 0 ° 0 min 0,000 mm 0,0 UV-I 0 W/m² 5,7 °C 6,6 °C 0,0 km/h (0 Bft) 100,00 %
08.05.2026 04:50 6,5 °C 94 % 1016,6 hPa 0,0 l/m² 0,0 km/h (0 Bft) N 0 ° 0 min 0,000 mm 0,0 UV-I 0 W/m² 5,6 °C 6,5 °C 0,0 km/h (0 Bft) 100,00 %
08.05.2026 04:49 6,4 °C 94 % 1016,7 hPa 0,0 l/m² 0,0 km/h (0 Bft) N 0 ° 0 min 0,000 mm 0,0 UV-I 0 W/m² 5,5 °C 6,4 °C 0,0 km/h (0 Bft) 100,00 %
08.05.2026 04:48 6,4 °C 94 % 1016,6 hPa 0,0 l/m² 0,0 km/h (0 Bft) N 0 ° 0 min 0,000 mm 0,0 UV-I 0 W/m² 5,5 °C 6,4 °C 0,0 km/h (0 Bft) 100,00 %
08.05.2026 04:47 6,4 °C 94 % 1016,6 hPa 0,0 l/m² 0,0 km/h (0 Bft) N 0 ° 0 min 0,000 mm 0,0 UV-I 0 W/m² 5,5 °C 6,4 °C 0,0 km/h (0 Bft) 95,65 %
08.05.2026 04:46 6,4 °C 94 % 1016,6 hPa 0,0 l/m² 0,0 km/h (0 Bft) N 0 ° 0 min 0,000 mm 0,0 UV-I 0 W/m² 5,5 °C 6,4 °C 0,0 km/h (0 Bft) 100,00 %
08.05.2026 04:45 6,5 °C 94 % 1016,5 hPa 0,0 l/m² 0,0 km/h (0 Bft) N 0 ° 0 min 0,000 mm 0,0 UV-I 0 W/m² 5,6 °C 6,5 °C 0,0 km/h (0 Bft) 95,65 %
08.05.2026 04:44 6,5 °C 93 % 1016,6 hPa 0,0 l/m² 0,0 km/h (0 Bft) N 0 ° 0 min 0,000 mm 0,0 UV-I 0 W/m² 5,5 °C 6,5 °C 0,0 km/h (0 Bft) 100,00 %
08.05.2026 04:43 6,5 °C 94 % 1016,5 hPa 0,0 l/m² 0,0 km/h (0 Bft) N 0 ° 0 min 0,000 mm 0,0 UV-I 0 W/m² 5,6 °C 6,5 °C 0,0 km/h (0 Bft) 100,00 %
08.05.2026 04:42 6,6 °C 94 % 1016,5 hPa 0,0 l/m² 0,0 km/h (0 Bft) N 0 ° 0 min 0,000 mm 0,0 UV-I 0 W/m² 5,7 °C 6,6 °C 0,0 km/h (0 Bft) 100,00 %
08.05.2026 04:41 6,6 °C 93 % 1016,6 hPa 0,0 l/m² 0,0 km/h (0 Bft) N 0 ° 0 min 0,000 mm 0,0 UV-I 0 W/m² 5,6 °C 6,6 °C 0,0 km/h (0 Bft) 100,00 %
08.05.2026 04:40 6,7 °C 93 % 1016,5 hPa 0,0 l/m² 0,0 km/h (0 Bft) N 0 ° 0 min 0,000 mm 0,0 UV-I 0 W/m² 5,6 °C 6,7 °C 0,0 km/h (0 Bft) 100,00 %
08.05.2026 04:39 6,7 °C 93 % 1016,5 hPa 0,0 l/m² 0,0 km/h (0 Bft) N 0 ° 0 min 0,000 mm 0,0 UV-I 0 W/m² 5,6 °C 6,7 °C 0,0 km/h (0 Bft) 100,00 %
08.05.2026 04:38 6,7 °C 93 % 1016,6 hPa 0,0 l/m² 0,0 km/h (0 Bft) N 0 ° 0 min 0,000 mm 0,0 UV-I 0 W/m² 5,6 °C 6,7 °C 0,0 km/h (0 Bft) 95,65 %
08.05.2026 04:37 6,7 °C 93 % 1016,6 hPa 0,0 l/m² 0,0 km/h (0 Bft) N 0 ° 0 min 0,000 mm 0,0 UV-I 0 W/m² 5,6 °C 6,7 °C 0,0 km/h (0 Bft) 100,00 %
08.05.2026 04:36 6,8 °C 93 % 1016,6 hPa 0,0 l/m² 0,0 km/h (0 Bft) N 0 ° 0 min 0,000 mm 0,0 UV-I 0 W/m² 5,7 °C 6,8 °C 0,0 km/h (0 Bft) 100,00 %
08.05.2026 04:35 6,9 °C 93 % 1016,6 hPa 0,0 l/m² 0,0 km/h (0 Bft) N 0 ° 0 min 0,000 mm 0,0 UV-I 0 W/m² 5,8 °C 6,9 °C 0,0 km/h (0 Bft) 100,00 %
08.05.2026 04:34 7,0 °C 93 % 1016,6 hPa 0,0 l/m² 0,0 km/h (0 Bft) N 0 ° 0 min 0,000 mm 0,0 UV-I 0 W/m² 5,9 °C 7,0 °C 0,0 km/h (0 Bft) 100,00 %
08.05.2026 04:33 7,1 °C 94 % 1016,6 hPa 0,0 l/m² 0,0 km/h (0 Bft) N 0 ° 0 min 0,000 mm 0,0 UV-I 0 W/m² 6,2 °C 7,1 °C 0,0 km/h (0 Bft) 100,00 %
08.05.2026 04:32 7,2 °C 94 % 1016,6 hPa 0,0 l/m² 0,0 km/h (0 Bft) N 0 ° 0 min 0,000 mm 0,0 UV-I 0 W/m² 6,3 °C 7,2 °C 0,0 km/h (0 Bft) 100,00 %
08.05.2026 04:31 7,2 °C 94 % 1016,6 hPa 0,0 l/m² 0,0 km/h (0 Bft) N 0 ° 0 min 0,000 mm 0,0 UV-I 0 W/m² 6,3 °C 7,2 °C 0,0 km/h (0 Bft) 95,65 %
08.05.2026 04:30 7,2 °C 93 % 1016,6 hPa 0,0 l/m² 0,0 km/h (0 Bft) N 0 ° 0 min 0,000 mm 0,0 UV-I 0 W/m² 6,1 °C 7,2 °C 0,0 km/h (0 Bft) 100,00 %
08.05.2026 04:29 7,2 °C 94 % 1016,6 hPa 0,0 l/m² 0,0 km/h (0 Bft) N 0 ° 0 min 0,000 mm 0,0 UV-I 0 W/m² 6,3 °C 7,2 °C 0,0 km/h (0 Bft) 100,00 %
08.05.2026 04:28 7,2 °C 94 % 1016,7 hPa 0,0 l/m² 0,0 km/h (0 Bft) N 0 ° 0 min 0,000 mm 0,0 UV-I 0 W/m² 6,3 °C 7,2 °C 0,0 km/h (0 Bft) 95,65 %
08.05.2026 04:27 7,3 °C 94 % 1016,7 hPa 0,0 l/m² 0,0 km/h (0 Bft) W 270 ° 0 min 0,000 mm 0,0 UV-I 0 W/m² 6,4 °C 7,3 °C 1,6 km/h (1 Bft) 100,00 %
08.05.2026 04:26 7,3 °C 94 % 1016,8 hPa 0,0 l/m² 0,0 km/h (0 Bft) W 270 ° 0 min 0,000 mm 0,0 UV-I 0 W/m² 6,4 °C 7,3 °C 1,6 km/h (1 Bft) 100,00 %
08.05.2026 04:25 7,3 °C 94 % 1016,8 hPa 0,0 l/m² 0,0 km/h (0 Bft) N 0 ° 0 min 0,000 mm 0,0 UV-I 0 W/m² 6,4 °C 7,3 °C 0,0 km/h (0 Bft) 100,00 %
08.05.2026 04:24 7,3 °C 94 % 1016,8 hPa 0,0 l/m² 0,0 km/h (0 Bft) N 0 ° 0 min 0,000 mm 0,0 UV-I 0 W/m² 6,4 °C 7,3 °C 0,0 km/h (0 Bft) 95,65 %
08.05.2026 04:23 7,3 °C 94 % 1016,7 hPa 0,0 l/m² 0,0 km/h (0 Bft) N 0 ° 0 min 0,000 mm 0,0 UV-I 0 W/m² 6,4 °C 7,3 °C 0,0 km/h (0 Bft) 100,00 %
08.05.2026 04:22 7,3 °C 94 % 1016,7 hPa 0,0 l/m² 0,0 km/h (0 Bft) W 270 ° 0 min 0,000 mm 0,0 UV-I 0 W/m² 6,4 °C 7,3 °C 1,6 km/h (1 Bft) 100,00 %
08.05.2026 04:21 7,3 °C 94 % 1016,8 hPa 0,0 l/m² 0,0 km/h (0 Bft) N 0 ° 0 min 0,000 mm 0,0 UV-I 0 W/m² 6,4 °C 7,3 °C 0,0 km/h (0 Bft) 95,65 %
08.05.2026 04:20 7,3 °C 94 % 1016,8 hPa 0,0 l/m² 0,0 km/h (0 Bft) W 270 ° 0 min 0,000 mm 0,0 UV-I 0 W/m² 6,4 °C 7,3 °C 1,6 km/h (1 Bft) 100,00 %
08.05.2026 04:19 7,3 °C 94 % 1016,8 hPa 0,0 l/m² 0,0 km/h (0 Bft) N 0 ° 0 min 0,000 mm 0,0 UV-I 0 W/m² 6,4 °C 7,3 °C 0,0 km/h (0 Bft) 100,00 %
08.05.2026 04:18 7,3 °C 94 % 1016,9 hPa 0,0 l/m² 0,0 km/h (0 Bft) W 270 ° 0 min 0,000 mm 0,0 UV-I 0 W/m² 6,4 °C 7,3 °C 1,6 km/h (1 Bft) 100,00 %
08.05.2026 04:17 7,3 °C 94 % 1016,8 hPa 0,0 l/m² 0,0 km/h (0 Bft) W 270 ° 0 min 0,000 mm 0,0 UV-I 0 W/m² 6,4 °C 7,3 °C 1,6 km/h (1 Bft) 95,65 %
08.05.2026 04:16 7,3 °C 94 % 1016,8 hPa 0,0 l/m² 0,0 km/h (0 Bft) N 0 ° 0 min 0,000 mm 0,0 UV-I 0 W/m² 6,4 °C 7,3 °C 0,0 km/h (0 Bft) 95,65 %
08.05.2026 04:15 7,3 °C 94 % 1016,9 hPa 0,0 l/m² 0,0 km/h (0 Bft) N 0 ° 0 min 0,000 mm 0,0 UV-I 0 W/m² 6,4 °C 7,3 °C 0,0 km/h (0 Bft) 100,00 %
08.05.2026 04:14 7,3 °C 94 % 1016,9 hPa 0,0 l/m² 0,0 km/h (0 Bft) N 0 ° 0 min 0,000 mm 0,0 UV-I 0 W/m² 6,4 °C 7,3 °C 0,0 km/h (0 Bft) 100,00 %
08.05.2026 04:13 7,3 °C 94 % 1016,8 hPa 0,0 l/m² 0,0 km/h (0 Bft) N 0 ° 0 min 0,000 mm 0,0 UV-I 0 W/m² 6,4 °C 7,3 °C 0,0 km/h (0 Bft) 100,00 %
08.05.2026 04:12 7,3 °C 93 % 1016,8 hPa 0,0 l/m² 0,0 km/h (0 Bft) N 0 ° 0 min 0,000 mm 0,0 UV-I 0 W/m² 6,2 °C 7,3 °C 0,0 km/h (0 Bft) 100,00 %
08.05.2026 04:11 7,3 °C 93 % 1016,8 hPa 0,0 l/m² 0,0 km/h (0 Bft) N 0 ° 0 min 0,000 mm 0,0 UV-I 0 W/m² 6,2 °C 7,3 °C 0,0 km/h (0 Bft) 100,00 %
08.05.2026 04:10 7,3 °C 93 % 1016,8 hPa 0,0 l/m² 0,0 km/h (0 Bft) N 0 ° 0 min 0,000 mm 0,0 UV-I 0 W/m² 6,2 °C 7,3 °C 0,0 km/h (0 Bft) 95,65 %
08.05.2026 04:09 7,4 °C 93 % 1016,8 hPa 0,0 l/m² 0,0 km/h (0 Bft) N 0 ° 0 min 0,000 mm 0,0 UV-I 0 W/m² 6,3 °C 7,4 °C 0,0 km/h (0 Bft) 95,65 %
08.05.2026 04:08 7,4 °C 93 % 1016,8 hPa 0,0 l/m² 0,0 km/h (0 Bft) N 0 ° 0 min 0,000 mm 0,0 UV-I 0 W/m² 6,3 °C 7,4 °C 0,0 km/h (0 Bft) 100,00 %
08.05.2026 04:07 7,5 °C 93 % 1016,8 hPa 0,0 l/m² 0,0 km/h (0 Bft) N 0 ° 0 min 0,000 mm 0,0 UV-I 0 W/m² 6,4 °C 7,5 °C 0,0 km/h (0 Bft) 95,65 %
08.05.2026 04:06 7,6 °C 93 % 1016,8 hPa 0,0 l/m² 0,0 km/h (0 Bft) N 0 ° 0 min 0,000 mm 0,0 UV-I 0 W/m² 6,5 °C 7,6 °C 0,0 km/h (0 Bft) 100,00 %
08.05.2026 04:05 7,6 °C 93 % 1016,8 hPa 0,0 l/m² 0,0 km/h (0 Bft) N 0 ° 0 min 0,000 mm 0,0 UV-I 0 W/m² 6,5 °C 7,6 °C 0,0 km/h (0 Bft) 100,00 %
08.05.2026 04:04 7,7 °C 93 % 1016,8 hPa 0,0 l/m² 0,0 km/h (0 Bft) N 0 ° 0 min 0,000 mm 0,0 UV-I 0 W/m² 6,6 °C 7,7 °C 0,0 km/h (0 Bft) 100,00 %
08.05.2026 04:03 7,7 °C 94 % 1016,8 hPa 0,0 l/m² 0,0 km/h (0 Bft) W 270 ° 0 min 0,000 mm 0,0 UV-I 0 W/m² 6,8 °C 7,7 °C 1,6 km/h (1 Bft) 100,00 %
08.05.2026 04:02 7,8 °C 94 % 1016,7 hPa 0,0 l/m² 1,6 km/h (1 Bft) W 270 ° 0 min 0,000 mm 0,0 UV-I 0 W/m² 6,9 °C 7,8 °C 3,2 km/h (1 Bft) 95,65 %
08.05.2026 04:01 7,8 °C 94 % 1016,7 hPa 0,0 l/m² 0,0 km/h (0 Bft) W 270 ° 0 min 0,000 mm 0,0 UV-I 0 W/m² 6,9 °C 7,8 °C 3,2 km/h (1 Bft) 100,00 %
08.05.2026 04:00 7,8 °C 94 % 1016,8 hPa 0,0 l/m² 0,0 km/h (0 Bft) N 0 ° 0 min 0,000 mm 0,0 UV-I 0 W/m² 6,9 °C 7,8 °C 0,0 km/h (0 Bft) 100,00 %
08.05.2026 03:59 7,8 °C 94 % 1016,8 hPa 0,0 l/m² 0,0 km/h (0 Bft) N 0 ° 0 min 0,000 mm 0,0 UV-I 0 W/m² 6,9 °C 7,8 °C 0,0 km/h (0 Bft) 100,00 %
08.05.2026 03:58 7,8 °C 94 % 1016,7 hPa 0,0 l/m² 0,0 km/h (0 Bft) N 0 ° 0 min 0,000 mm 0,0 UV-I 0 W/m² 6,9 °C 7,8 °C 0,0 km/h (0 Bft) 100,00 %
08.05.2026 03:57 7,8 °C 94 % 1016,8 hPa 0,0 l/m² 0,0 km/h (0 Bft) N 0 ° 0 min 0,000 mm 0,0 UV-I 0 W/m² 6,9 °C 7,8 °C 0,0 km/h (0 Bft) 100,00 %
08.05.2026 03:56 7,8 °C 94 % 1016,8 hPa 0,0 l/m² 0,0 km/h (0 Bft) N 0 ° 0 min 0,000 mm 0,0 UV-I 0 W/m² 6,9 °C 7,8 °C 0,0 km/h (0 Bft) 95,65 %
08.05.2026 03:55 7,8 °C 94 % 1016,7 hPa 0,0 l/m² 0,0 km/h (0 Bft) N 0 ° 0 min 0,000 mm 0,0 UV-I 0 W/m² 6,9 °C 7,8 °C 0,0 km/h (0 Bft) 95,65 %
08.05.2026 03:54 7,8 °C 94 % 1016,7 hPa 0,0 l/m² 0,0 km/h (0 Bft) N 0 ° 0 min 0,000 mm 0,0 UV-I 0 W/m² 6,9 °C 7,8 °C 0,0 km/h (0 Bft) 91,30 %
08.05.2026 03:53 7,8 °C 94 % 1016,8 hPa 0,0 l/m² 0,0 km/h (0 Bft) N 0 ° 0 min 0,000 mm 0,0 UV-I 0 W/m² 6,9 °C 7,8 °C 0,0 km/h (0 Bft) 100,00 %
08.05.2026 03:52 7,7 °C 94 % 1016,8 hPa 0,0 l/m² 0,0 km/h (0 Bft) N 0 ° 0 min 0,000 mm 0,0 UV-I 0 W/m² 6,8 °C 7,7 °C 0,0 km/h (0 Bft) 100,00 %
08.05.2026 03:51 7,7 °C 94 % 1016,8 hPa 0,0 l/m² 0,0 km/h (0 Bft) N 0 ° 0 min 0,000 mm 0,0 UV-I 0 W/m² 6,8 °C 7,7 °C 0,0 km/h (0 Bft) 95,65 %
08.05.2026 03:50 7,7 °C 94 % 1016,8 hPa 0,0 l/m² 0,0 km/h (0 Bft) N 0 ° 0 min 0,000 mm 0,0 UV-I 0 W/m² 6,8 °C 7,7 °C 0,0 km/h (0 Bft) 100,00 %
08.05.2026 03:49 7,7 °C 94 % 1016,8 hPa 0,0 l/m² 0,0 km/h (0 Bft) N 0 ° 0 min 0,000 mm 0,0 UV-I 0 W/m² 6,8 °C 7,7 °C 0,0 km/h (0 Bft) 100,00 %
08.05.2026 03:48 7,6 °C 94 % 1016,9 hPa 0,0 l/m² 0,0 km/h (0 Bft) N 0 ° 0 min 0,000 mm 0,0 UV-I 0 W/m² 6,7 °C 7,6 °C 0,0 km/h (0 Bft) 95,65 %
08.05.2026 03:47 7,7 °C 94 % 1016,8 hPa 0,0 l/m² 0,0 km/h (0 Bft) N 0 ° 0 min 0,000 mm 0,0 UV-I 0 W/m² 6,8 °C 7,7 °C 0,0 km/h (0 Bft) 95,65 %
08.05.2026 03:46 7,7 °C 93 % 1016,8 hPa 0,0 l/m² 0,0 km/h (0 Bft) N 0 ° 0 min 0,000 mm 0,0 UV-I 0 W/m² 6,6 °C 7,7 °C 0,0 km/h (0 Bft) 100,00 %
08.05.2026 03:45 7,7 °C 94 % 1016,9 hPa 0,0 l/m² 0,0 km/h (0 Bft) N 0 ° 0 min 0,000 mm 0,0 UV-I 0 W/m² 6,8 °C 7,7 °C 0,0 km/h (0 Bft) 95,65 %
08.05.2026 03:44 7,8 °C 94 % 1016,8 hPa 0,0 l/m² 0,0 km/h (0 Bft) N 0 ° 0 min 0,000 mm 0,0 UV-I 0 W/m² 6,9 °C 7,8 °C 0,0 km/h (0 Bft) 100,00 %
08.05.2026 03:43 7,8 °C 94 % 1016,9 hPa 0,0 l/m² 0,0 km/h (0 Bft) N 0 ° 0 min 0,000 mm 0,0 UV-I 0 W/m² 6,9 °C 7,8 °C 0,0 km/h (0 Bft) 95,65 %
08.05.2026 03:42 7,8 °C 94 % 1016,8 hPa 0,0 l/m² 0,0 km/h (0 Bft) N 0 ° 0 min 0,000 mm 0,0 UV-I 0 W/m² 6,9 °C 7,8 °C 0,0 km/h (0 Bft) 100,00 %
08.05.2026 03:41 7,7 °C 94 % 1016,9 hPa 0,0 l/m² 0,0 km/h (0 Bft) N 0 ° 0 min 0,000 mm 0,0 UV-I 0 W/m² 6,8 °C 7,7 °C 0,0 km/h (0 Bft) 95,65 %
08.05.2026 03:40 7,7 °C 94 % 1016,9 hPa 0,0 l/m² 0,0 km/h (0 Bft) N 0 ° 0 min 0,000 mm 0,0 UV-I 0 W/m² 6,8 °C 7,7 °C 0,0 km/h (0 Bft) 100,00 %
08.05.2026 03:39 7,7 °C 94 % 1016,8 hPa 0,0 l/m² 0,0 km/h (0 Bft) N 0 ° 0 min 0,000 mm 0,0 UV-I 0 W/m² 6,8 °C 7,7 °C 0,0 km/h (0 Bft) 95,65 %
08.05.2026 03:38 7,7 °C 94 % 1016,8 hPa 0,0 l/m² 0,0 km/h (0 Bft) N 0 ° 0 min 0,000 mm 0,0 UV-I 0 W/m² 6,8 °C 7,7 °C 0,0 km/h (0 Bft) 100,00 %
08.05.2026 03:37 7,7 °C 94 % 1016,8 hPa 0,0 l/m² 0,0 km/h (0 Bft) N 0 ° 0 min 0,000 mm 0,0 UV-I 0 W/m² 6,8 °C 7,7 °C 0,0 km/h (0 Bft) 100,00 %
08.05.2026 03:36 7,6 °C 94 % 1016,9 hPa 0,0 l/m² 0,0 km/h (0 Bft) N 0 ° 0 min 0,000 mm 0,0 UV-I 0 W/m² 6,7 °C 7,6 °C 0,0 km/h (0 Bft) 100,00 %
08.05.2026 03:35 7,6 °C 94 % 1016,8 hPa 0,0 l/m² 0,0 km/h (0 Bft) N 0 ° 0 min 0,000 mm 0,0 UV-I 0 W/m² 6,7 °C 7,6 °C 0,0 km/h (0 Bft) 100,00 %
08.05.2026 03:34 7,6 °C 94 % 1016,9 hPa 0,0 l/m² 0,0 km/h (0 Bft) N 0 ° 0 min 0,000 mm 0,0 UV-I 0 W/m² 6,7 °C 7,6 °C 0,0 km/h (0 Bft) 95,65 %
08.05.2026 03:33 7,6 °C 94 % 1016,8 hPa 0,0 l/m² 0,0 km/h (0 Bft) N 0 ° 0 min 0,000 mm 0,0 UV-I 0 W/m² 6,7 °C 7,6 °C 0,0 km/h (0 Bft) 100,00 %
08.05.2026 03:32 7,4 °C 94 % 1016,9 hPa 0,0 l/m² 0,0 km/h (0 Bft) N 0 ° 0 min 0,000 mm 0,0 UV-I 0 W/m² 6,5 °C 7,4 °C 0,0 km/h (0 Bft) 100,00 %
08.05.2026 03:31 7,4 °C 94 % 1016,9 hPa 0,0 l/m² 0,0 km/h (0 Bft) N 0 ° 0 min 0,000 mm 0,0 UV-I 0 W/m² 6,5 °C 7,4 °C 0,0 km/h (0 Bft) 100,00 %
08.05.2026 03:30 7,4 °C 94 % 1016,9 hPa 0,0 l/m² 0,0 km/h (0 Bft) N 0 ° 0 min 0,000 mm 0,0 UV-I 0 W/m² 6,5 °C 7,4 °C 0,0 km/h (0 Bft) 100,00 %
08.05.2026 03:29 7,4 °C 94 % 1016,8 hPa 0,0 l/m² 0,0 km/h (0 Bft) N 0 ° 0 min 0,000 mm 0,0 UV-I 0 W/m² 6,5 °C 7,4 °C 0,0 km/h (0 Bft) 100,00 %
08.05.2026 03:28 7,4 °C 94 % 1016,8 hPa 0,0 l/m² 0,0 km/h (0 Bft) N 0 ° 0 min 0,000 mm 0,0 UV-I 0 W/m² 6,5 °C 7,4 °C 0,0 km/h (0 Bft) 100,00 %
08.05.2026 03:27 7,4 °C 94 % 1016,8 hPa 0,0 l/m² 0,0 km/h (0 Bft) N 0 ° 0 min 0,000 mm 0,0 UV-I 0 W/m² 6,5 °C 7,4 °C 0,0 km/h (0 Bft) 95,65 %
08.05.2026 03:26 7,4 °C 94 % 1016,7 hPa 0,0 l/m² 0,0 km/h (0 Bft) N 0 ° 0 min 0,000 mm 0,0 UV-I 0 W/m² 6,5 °C 7,4 °C 0,0 km/h (0 Bft) 100,00 %
08.05.2026 03:25 7,3 °C 94 % 1016,7 hPa 0,0 l/m² 0,0 km/h (0 Bft) N 0 ° 0 min 0,000 mm 0,0 UV-I 0 W/m² 6,4 °C 7,3 °C 0,0 km/h (0 Bft) 100,00 %
08.05.2026 03:24 7,3 °C 94 % 1016,7 hPa 0,0 l/m² 0,0 km/h (0 Bft) N 0 ° 0 min 0,000 mm 0,0 UV-I 0 W/m² 6,4 °C 7,3 °C 0,0 km/h (0 Bft) 95,65 %
08.05.2026 03:23 7,3 °C 94 % 1016,7 hPa 0,0 l/m² 0,0 km/h (0 Bft) N 0 ° 0 min 0,000 mm 0,0 UV-I 0 W/m² 6,4 °C 7,3 °C 0,0 km/h (0 Bft) 95,65 %
08.05.2026 03:22 7,3 °C 94 % 1016,8 hPa 0,0 l/m² 0,0 km/h (0 Bft) N 0 ° 0 min 0,000 mm 0,0 UV-I 0 W/m² 6,4 °C 7,3 °C 0,0 km/h (0 Bft) 100,00 %
08.05.2026 03:21 7,2 °C 94 % 1016,8 hPa 0,0 l/m² 0,0 km/h (0 Bft) N 0 ° 0 min 0,000 mm 0,0 UV-I 0 W/m² 6,3 °C 7,2 °C 0,0 km/h (0 Bft) 100,00 %
08.05.2026 03:20 7,2 °C 94 % 1016,8 hPa 0,0 l/m² 0,0 km/h (0 Bft) N 0 ° 0 min 0,000 mm 0,0 UV-I 0 W/m² 6,3 °C 7,2 °C 0,0 km/h (0 Bft) 95,65 %
08.05.2026 03:19 7,2 °C 93 % 1016,7 hPa 0,0 l/m² 0,0 km/h (0 Bft) N 0 ° 0 min 0,000 mm 0,0 UV-I 0 W/m² 6,1 °C 7,2 °C 0,0 km/h (0 Bft) 100,00 %
08.05.2026 03:18 7,2 °C 93 % 1016,8 hPa 0,0 l/m² 0,0 km/h (0 Bft) N 0 ° 0 min 0,000 mm 0,0 UV-I 0 W/m² 6,1 °C 7,2 °C 0,0 km/h (0 Bft) 100,00 %
08.05.2026 03:17 7,1 °C 93 % 1016,8 hPa 0,0 l/m² 0,0 km/h (0 Bft) N 0 ° 0 min 0,000 mm 0,0 UV-I 0 W/m² 6,0 °C 7,1 °C 0,0 km/h (0 Bft) 100,00 %
08.05.2026 03:16 7,1 °C 93 % 1016,8 hPa 0,0 l/m² 0,0 km/h (0 Bft) N 0 ° 0 min 0,000 mm 0,0 UV-I 0 W/m² 6,0 °C 7,1 °C 0,0 km/h (0 Bft) 100,00 %
08.05.2026 03:15 7,1 °C 93 % 1016,7 hPa 0,0 l/m² 0,0 km/h (0 Bft) N 0 ° 0 min 0,000 mm 0,0 UV-I 0 W/m² 6,0 °C 7,1 °C 0,0 km/h (0 Bft) 100,00 %
08.05.2026 03:14 7,0 °C 93 % 1016,8 hPa 0,0 l/m² 0,0 km/h (0 Bft) N 0 ° 0 min 0,000 mm 0,0 UV-I 0 W/m² 5,9 °C 7,0 °C 0,0 km/h (0 Bft) 100,00 %
08.05.2026 03:13 7,1 °C 93 % 1016,7 hPa 0,0 l/m² 0,0 km/h (0 Bft) N 0 ° 0 min 0,000 mm 0,0 UV-I 0 W/m² 6,0 °C 7,1 °C 0,0 km/h (0 Bft) 95,65 %
08.05.2026 03:12 7,1 °C 93 % 1016,7 hPa 0,0 l/m² 0,0 km/h (0 Bft) N 0 ° 0 min 0,000 mm 0,0 UV-I 0 W/m² 6,0 °C 7,1 °C 0,0 km/h (0 Bft) 100,00 %
08.05.2026 03:11 7,1 °C 93 % 1016,7 hPa 0,0 l/m² 0,0 km/h (0 Bft) N 0 ° 0 min 0,000 mm 0,0 UV-I 0 W/m² 6,0 °C 7,1 °C 0,0 km/h (0 Bft) 100,00 %
08.05.2026 03:10 7,1 °C 93 % 1016,7 hPa 0,0 l/m² 0,0 km/h (0 Bft) N 0 ° 0 min 0,000 mm 0,0 UV-I 0 W/m² 6,0 °C 7,1 °C 0,0 km/h (0 Bft) 100,00 %
08.05.2026 03:09 7,2 °C 93 % 1016,7 hPa 0,0 l/m² 0,0 km/h (0 Bft) N 0 ° 0 min 0,000 mm 0,0 UV-I 0 W/m² 6,1 °C 7,2 °C 0,0 km/h (0 Bft) 100,00 %
08.05.2026 03:08 7,2 °C 93 % 1016,7 hPa 0,0 l/m² 0,0 km/h (0 Bft) N 0 ° 0 min 0,000 mm 0,0 UV-I 0 W/m² 6,1 °C 7,2 °C 0,0 km/h (0 Bft) 95,65 %
08.05.2026 03:07 7,2 °C 93 % 1016,6 hPa 0,0 l/m² 0,0 km/h (0 Bft) N 0 ° 0 min 0,000 mm 0,0 UV-I 0 W/m² 6,1 °C 7,2 °C 0,0 km/h (0 Bft) 95,65 %
08.05.2026 03:06 7,2 °C 93 % 1016,6 hPa 0,0 l/m² 0,0 km/h (0 Bft) N 0 ° 0 min 0,000 mm 0,0 UV-I 0 W/m² 6,1 °C 7,2 °C 0,0 km/h (0 Bft) 95,65 %
08.05.2026 03:05 7,2 °C 93 % 1016,7 hPa 0,0 l/m² 0,0 km/h (0 Bft) N 0 ° 0 min 0,000 mm 0,0 UV-I 0 W/m² 6,1 °C 7,2 °C 0,0 km/h (0 Bft) 100,00 %
08.05.2026 03:04 7,2 °C 93 % 1016,7 hPa 0,0 l/m² 0,0 km/h (0 Bft) N 0 ° 0 min 0,000 mm 0,0 UV-I 0 W/m² 6,1 °C 7,2 °C 0,0 km/h (0 Bft) 100,00 %
08.05.2026 03:03 7,3 °C 93 % 1016,7 hPa 0,0 l/m² 0,0 km/h (0 Bft) N 0 ° 0 min 0,000 mm 0,0 UV-I 0 W/m² 6,2 °C 7,3 °C 0,0 km/h (0 Bft) 100,00 %
08.05.2026 03:02 7,3 °C 93 % 1016,7 hPa 0,0 l/m² 0,0 km/h (0 Bft) N 0 ° 0 min 0,000 mm 0,0 UV-I 0 W/m² 6,2 °C 7,3 °C 0,0 km/h (0 Bft) 100,00 %
08.05.2026 03:01 7,4 °C 93 % 1016,7 hPa 0,0 l/m² 0,0 km/h (0 Bft) N 0 ° 0 min 0,000 mm 0,0 UV-I 0 W/m² 6,3 °C 7,4 °C 0,0 km/h (0 Bft) 100,00 %
08.05.2026 03:00 7,5 °C 93 % 1016,7 hPa 0,0 l/m² 0,0 km/h (0 Bft) N 0 ° 0 min 0,000 mm 0,0 UV-I 0 W/m² 6,4 °C 7,5 °C 0,0 km/h (0 Bft) 100,00 %
08.05.2026 02:59 7,6 °C 93 % 1016,6 hPa 0,0 l/m² 0,0 km/h (0 Bft) N 0 ° 0 min 0,000 mm 0,0 UV-I 0 W/m² 6,5 °C 7,6 °C 0,0 km/h (0 Bft) 95,65 %
08.05.2026 02:58 7,6 °C 93 % 1016,6 hPa 0,0 l/m² 0,0 km/h (0 Bft) N 0 ° 0 min 0,000 mm 0,0 UV-I 0 W/m² 6,5 °C 7,6 °C 0,0 km/h (0 Bft) 100,00 %
08.05.2026 02:57 7,7 °C 93 % 1016,6 hPa 0,0 l/m² 0,0 km/h (0 Bft) N 0 ° 0 min 0,000 mm 0,0 UV-I 0 W/m² 6,6 °C 7,7 °C 0,0 km/h (0 Bft) 100,00 %
08.05.2026 02:56 7,7 °C 93 % 1016,6 hPa 0,0 l/m² 0,0 km/h (0 Bft) N 0 ° 0 min 0,000 mm 0,0 UV-I 0 W/m² 6,6 °C 7,7 °C 0,0 km/h (0 Bft) 95,65 %
08.05.2026 02:55 7,6 °C 93 % 1016,7 hPa 0,0 l/m² 0,0 km/h (0 Bft) N 0 ° 0 min 0,000 mm 0,0 UV-I 0 W/m² 6,5 °C 7,6 °C 0,0 km/h (0 Bft) 95,65 %
08.05.2026 02:54 7,6 °C 93 % 1016,7 hPa 0,0 l/m² 0,0 km/h (0 Bft) N 0 ° 0 min 0,000 mm 0,0 UV-I 0 W/m² 6,5 °C 7,6 °C 0,0 km/h (0 Bft) 100,00 %
08.05.2026 02:53 7,6 °C 93 % 1016,7 hPa 0,0 l/m² 0,0 km/h (0 Bft) N 0 ° 0 min 0,000 mm 0,0 UV-I 0 W/m² 6,5 °C 7,6 °C 0,0 km/h (0 Bft) 95,65 %
08.05.2026 02:52 7,5 °C 93 % 1016,7 hPa 0,0 l/m² 0,0 km/h (0 Bft) N 0 ° 0 min 0,000 mm 0,0 UV-I 0 W/m² 6,4 °C 7,5 °C 0,0 km/h (0 Bft) 91,30 %
08.05.2026 02:51 7,4 °C 93 % 1016,7 hPa 0,0 l/m² 0,0 km/h (0 Bft) N 0 ° 0 min 0,000 mm 0,0 UV-I 0 W/m² 6,3 °C 7,4 °C 0,0 km/h (0 Bft) 100,00 %
08.05.2026 02:50 7,4 °C 93 % 1016,7 hPa 0,0 l/m² 0,0 km/h (0 Bft) N 0 ° 0 min 0,000 mm 0,0 UV-I 0 W/m² 6,3 °C 7,4 °C 0,0 km/h (0 Bft) 95,65 %
08.05.2026 02:49 7,4 °C 93 % 1016,7 hPa 0,0 l/m² 0,0 km/h (0 Bft) N 0 ° 0 min 0,000 mm 0,0 UV-I 0 W/m² 6,3 °C 7,4 °C 0,0 km/h (0 Bft) 100,00 %
08.05.2026 02:48 7,3 °C 93 % 1016,8 hPa 0,0 l/m² 0,0 km/h (0 Bft) N 0 ° 0 min 0,000 mm 0,0 UV-I 0 W/m² 6,2 °C 7,3 °C 0,0 km/h (0 Bft) 100,00 %
08.05.2026 02:47 7,4 °C 93 % 1016,7 hPa 0,0 l/m² 0,0 km/h (0 Bft) N 0 ° 0 min 0,000 mm 0,0 UV-I 0 W/m² 6,3 °C 7,4 °C 0,0 km/h (0 Bft) 100,00 %
08.05.2026 02:46 7,4 °C 93 % 1016,8 hPa 0,0 l/m² 0,0 km/h (0 Bft) N 0 ° 0 min 0,000 mm 0,0 UV-I 0 W/m² 6,3 °C 7,4 °C 0,0 km/h (0 Bft) 100,00 %
08.05.2026 02:45 7,4 °C 92 % 1016,7 hPa 0,0 l/m² 0,0 km/h (0 Bft) N 0 ° 0 min 0,000 mm 0,0 UV-I 0 W/m² 6,2 °C 7,4 °C 0,0 km/h (0 Bft) 95,65 %
08.05.2026 02:44 7,3 °C 92 % 1016,7 hPa 0,0 l/m² 0,0 km/h (0 Bft) N 0 ° 0 min 0,000 mm 0,0 UV-I 0 W/m² 6,1 °C 7,3 °C 0,0 km/h (0 Bft) 100,00 %
08.05.2026 02:43 7,4 °C 92 % 1016,7 hPa 0,0 l/m² 0,0 km/h (0 Bft) N 0 ° 0 min 0,000 mm 0,0 UV-I 0 W/m² 6,2 °C 7,4 °C 0,0 km/h (0 Bft) 95,65 %
08.05.2026 02:42 7,5 °C 92 % 1016,9 hPa 0,0 l/m² 0,0 km/h (0 Bft) N 0 ° 0 min 0,000 mm 0,0 UV-I 0 W/m² 6,3 °C 7,5 °C 0,0 km/h (0 Bft) 100,00 %
08.05.2026 02:41 7,6 °C 92 % 1016,8 hPa 0,0 l/m² 0,0 km/h (0 Bft) W 270 ° 0 min 0,000 mm 0,0 UV-I 0 W/m² 6,4 °C 7,6 °C 1,6 km/h (1 Bft) 100,00 %
08.05.2026 02:40 7,8 °C 93 % 1016,9 hPa 0,0 l/m² 0,0 km/h (0 Bft) W 270 ° 0 min 0,000 mm 0,0 UV-I 0 W/m² 6,7 °C 7,8 °C 1,6 km/h (1 Bft) 95,65 %
08.05.2026 02:39 7,9 °C 93 % 1016,8 hPa 0,0 l/m² 0,0 km/h (0 Bft) N 0 ° 0 min 0,000 mm 0,0 UV-I 0 W/m² 6,8 °C 7,9 °C 0,0 km/h (0 Bft) 100,00 %
08.05.2026 02:38 7,9 °C 93 % 1016,8 hPa 0,0 l/m² 0,0 km/h (0 Bft) N 0 ° 0 min 0,000 mm 0,0 UV-I 0 W/m² 6,8 °C 7,9 °C 0,0 km/h (0 Bft) 91,30 %
08.05.2026 02:37 7,9 °C 93 % 1016,8 hPa 0,0 l/m² 0,0 km/h (0 Bft) W 270 ° 0 min 0,000 mm 0,0 UV-I 0 W/m² 6,8 °C 7,9 °C 1,6 km/h (1 Bft) 100,00 %
08.05.2026 02:36 7,9 °C 93 % 1016,8 hPa 0,0 l/m² 0,0 km/h (0 Bft) N 0 ° 0 min 0,000 mm 0,0 UV-I 0 W/m² 6,8 °C 7,9 °C 0,0 km/h (0 Bft) 100,00 %
08.05.2026 02:35 7,8 °C 93 % 1016,8 hPa 0,0 l/m² 0,0 km/h (0 Bft) W 270 ° 0 min 0,000 mm 0,0 UV-I 0 W/m² 6,7 °C 7,8 °C 1,6 km/h (1 Bft) 100,00 %
08.05.2026 02:34 7,8 °C 93 % 1016,8 hPa 0,0 l/m² 0,0 km/h (0 Bft) W 270 ° 0 min 0,000 mm 0,0 UV-I 0 W/m² 6,7 °C 7,8 °C 1,6 km/h (1 Bft) 100,00 %
08.05.2026 02:33 7,8 °C 93 % 1016,8 hPa 0,0 l/m² 0,0 km/h (0 Bft) N 0 ° 0 min 0,000 mm 0,0 UV-I 0 W/m² 6,7 °C 7,8 °C 0,0 km/h (0 Bft) 100,00 %
08.05.2026 02:32 7,8 °C 93 % 1016,9 hPa 0,0 l/m² 0,0 km/h (0 Bft) N 0 ° 0 min 0,000 mm 0,0 UV-I 0 W/m² 6,7 °C 7,8 °C 0,0 km/h (0 Bft) 100,00 %
08.05.2026 02:31 7,8 °C 93 % 1016,8 hPa 0,0 l/m² 0,0 km/h (0 Bft) N 0 ° 0 min 0,000 mm 0,0 UV-I 0 W/m² 6,7 °C 7,8 °C 0,0 km/h (0 Bft) 95,65 %
08.05.2026 02:30 7,8 °C 93 % 1016,8 hPa 0,0 l/m² 0,0 km/h (0 Bft) N 0 ° 0 min 0,000 mm 0,0 UV-I 0 W/m² 6,7 °C 7,8 °C 0,0 km/h (0 Bft) 95,65 %
08.05.2026 02:29 7,9 °C 93 % 1016,8 hPa 0,0 l/m² 0,0 km/h (0 Bft) N 0 ° 0 min 0,000 mm 0,0 UV-I 0 W/m² 6,8 °C 7,9 °C 0,0 km/h (0 Bft) 100,00 %
08.05.2026 02:28 7,9 °C 93 % 1016,8 hPa 0,0 l/m² 0,0 km/h (0 Bft) N 0 ° 0 min 0,000 mm 0,0 UV-I 0 W/m² 6,8 °C 7,9 °C 0,0 km/h (0 Bft) 95,65 %
08.05.2026 02:27 7,9 °C 93 % 1016,8 hPa 0,0 l/m² 0,0 km/h (0 Bft) N 0 ° 0 min 0,000 mm 0,0 UV-I 0 W/m² 6,8 °C 7,9 °C 0,0 km/h (0 Bft) 100,00 %
08.05.2026 02:26 7,9 °C 93 % 1016,8 hPa 0,0 l/m² 0,0 km/h (0 Bft) N 0 ° 0 min 0,000 mm 0,0 UV-I 0 W/m² 6,8 °C 7,9 °C 0,0 km/h (0 Bft) 100,00 %
08.05.2026 02:25 7,9 °C 93 % 1016,8 hPa 0,0 l/m² 0,0 km/h (0 Bft) N 0 ° 0 min 0,000 mm 0,0 UV-I 0 W/m² 6,8 °C 7,9 °C 0,0 km/h (0 Bft) 95,65 %
08.05.2026 02:24 7,9 °C 93 % 1016,8 hPa 0,0 l/m² 0,0 km/h (0 Bft) N 0 ° 0 min 0,000 mm 0,0 UV-I 0 W/m² 6,8 °C 7,9 °C 0,0 km/h (0 Bft) 91,30 %
08.05.2026 02:23 7,9 °C 92 % 1016,8 hPa 0,0 l/m² 0,0 km/h (0 Bft) W 270 ° 0 min 0,000 mm 0,0 UV-I 0 W/m² 6,7 °C 7,9 °C 1,6 km/h (1 Bft) 100,00 %
08.05.2026 02:22 7,9 °C 92 % 1016,9 hPa 0,0 l/m² 0,0 km/h (0 Bft) W 270 ° 0 min 0,000 mm 0,0 UV-I 0 W/m² 6,7 °C 7,9 °C 1,6 km/h (1 Bft) 95,65 %
08.05.2026 02:21 7,9 °C 93 % 1016,9 hPa 0,0 l/m² 0,0 km/h (0 Bft) W 270 ° 0 min 0,000 mm 0,0 UV-I 0 W/m² 6,8 °C 7,9 °C 1,6 km/h (1 Bft) 100,00 %
08.05.2026 02:20 8,0 °C 93 % 1016,9 hPa 0,0 l/m² 0,0 km/h (0 Bft) W 270 ° 0 min 0,000 mm 0,0 UV-I 0 W/m² 6,9 °C 8,0 °C 1,6 km/h (1 Bft) 100,00 %
08.05.2026 02:19 8,0 °C 92 % 1016,9 hPa 0,0 l/m² 0,0 km/h (0 Bft) N 0 ° 0 min 0,000 mm 0,0 UV-I 0 W/m² 6,8 °C 8,0 °C 0,0 km/h (0 Bft) 95,65 %
08.05.2026 02:18 8,1 °C 93 % 1016,8 hPa 0,0 l/m² 0,0 km/h (0 Bft) N 0 ° 0 min 0,000 mm 0,0 UV-I 0 W/m² 7,0 °C 8,1 °C 0,0 km/h (0 Bft) 100,00 %
08.05.2026 02:17 8,1 °C 93 % 1016,8 hPa 0,0 l/m² 0,0 km/h (0 Bft) N 0 ° 0 min 0,000 mm 0,0 UV-I 0 W/m² 7,0 °C 8,1 °C 0,0 km/h (0 Bft) 91,30 %
08.05.2026 02:16 8,1 °C 93 % 1016,9 hPa 0,0 l/m² 0,0 km/h (0 Bft) N 0 ° 0 min 0,000 mm 0,0 UV-I 0 W/m² 7,0 °C 8,1 °C 0,0 km/h (0 Bft) 100,00 %
08.05.2026 02:15 8,0 °C 93 % 1016,8 hPa 0,0 l/m² 0,0 km/h (0 Bft) W 270 ° 0 min 0,000 mm 0,0 UV-I 0 W/m² 6,9 °C 8,0 °C 1,6 km/h (1 Bft) 100,00 %
08.05.2026 02:14 7,9 °C 93 % 1016,8 hPa 0,0 l/m² 0,0 km/h (0 Bft) N 0 ° 0 min 0,000 mm 0,0 UV-I 0 W/m² 6,8 °C 7,9 °C 0,0 km/h (0 Bft) 100,00 %
08.05.2026 02:13 8,0 °C 93 % 1016,8 hPa 0,0 l/m² 0,0 km/h (0 Bft) N 0 ° 0 min 0,000 mm 0,0 UV-I 0 W/m² 6,9 °C 8,0 °C 0,0 km/h (0 Bft) 100,00 %
08.05.2026 02:12 7,9 °C 93 % 1016,9 hPa 0,0 l/m² 0,0 km/h (0 Bft) N 0 ° 0 min 0,000 mm 0,0 UV-I 0 W/m² 6,8 °C 7,9 °C 0,0 km/h (0 Bft) 95,65 %
08.05.2026 02:11 7,9 °C 93 % 1016,9 hPa 0,0 l/m² 0,0 km/h (0 Bft) N 0 ° 0 min 0,000 mm 0,0 UV-I 0 W/m² 6,8 °C 7,9 °C 0,0 km/h (0 Bft) 100,00 %
08.05.2026 02:10 7,9 °C 93 % 1016,8 hPa 0,0 l/m² 0,0 km/h (0 Bft) N 0 ° 0 min 0,000 mm 0,0 UV-I 0 W/m² 6,8 °C 7,9 °C 0,0 km/h (0 Bft) 95,65 %
08.05.2026 02:09 7,9 °C 93 % 1016,8 hPa 0,0 l/m² 0,0 km/h (0 Bft) N 0 ° 0 min 0,000 mm 0,0 UV-I 0 W/m² 6,8 °C 7,9 °C 0,0 km/h (0 Bft) 100,00 %
08.05.2026 02:08 7,9 °C 92 % 1016,9 hPa 0,0 l/m² 0,0 km/h (0 Bft) N 0 ° 0 min 0,000 mm 0,0 UV-I 0 W/m² 6,7 °C 7,9 °C 0,0 km/h (0 Bft) 100,00 %
08.05.2026 02:07 7,9 °C 92 % 1016,9 hPa 0,0 l/m² 0,0 km/h (0 Bft) N 0 ° 0 min 0,000 mm 0,0 UV-I 0 W/m² 6,7 °C 7,9 °C 0,0 km/h (0 Bft) 100,00 %
08.05.2026 02:06 7,9 °C 92 % 1016,9 hPa 0,0 l/m² 0,0 km/h (0 Bft) W 270 ° 0 min 0,000 mm 0,0 UV-I 0 W/m² 6,7 °C 7,9 °C 1,6 km/h (1 Bft) 100,00 %
08.05.2026 02:05 8,0 °C 92 % 1016,8 hPa 0,0 l/m² 0,0 km/h (0 Bft) W 270 ° 0 min 0,000 mm 0,0 UV-I 0 W/m² 6,8 °C 8,0 °C 1,6 km/h (1 Bft) 100,00 %
08.05.2026 02:04 8,0 °C 92 % 1016,9 hPa 0,0 l/m² 0,0 km/h (0 Bft) W 270 ° 0 min 0,000 mm 0,0 UV-I 0 W/m² 6,8 °C 8,0 °C 1,6 km/h (1 Bft) 95,65 %
08.05.2026 02:03 8,1 °C 92 % 1016,9 hPa 0,0 l/m² 1,6 km/h (1 Bft) W 270 ° 0 min 0,000 mm 0,0 UV-I 0 W/m² 6,9 °C 8,1 °C 3,2 km/h (1 Bft) 95,65 %
08.05.2026 02:02 8,1 °C 92 % 1016,8 hPa 0,0 l/m² 1,6 km/h (1 Bft) W 270 ° 0 min 0,000 mm 0,0 UV-I 0 W/m² 6,9 °C 8,1 °C 1,6 km/h (1 Bft) 100,00 %
08.05.2026 02:01 8,1 °C 92 % 1016,8 hPa 0,0 l/m² 0,0 km/h (0 Bft) W 270 ° 0 min 0,000 mm 0,0 UV-I 0 W/m² 6,9 °C 8,1 °C 1,6 km/h (1 Bft) 100,00 %
08.05.2026 02:00 8,1 °C 92 % 1016,8 hPa 0,0 l/m² 0,0 km/h (0 Bft) N 0 ° 0 min 0,000 mm 0,0 UV-I 0 W/m² 6,9 °C 8,1 °C 0,0 km/h (0 Bft) 95,65 %
08.05.2026 01:59 8,1 °C 92 % 1016,8 hPa 0,0 l/m² 0,0 km/h (0 Bft) N 0 ° 0 min 0,000 mm 0,0 UV-I 0 W/m² 6,9 °C 8,1 °C 0,0 km/h (0 Bft) 100,00 %
08.05.2026 01:58 8,1 °C 92 % 1016,8 hPa 0,0 l/m² 0,0 km/h (0 Bft) N 0 ° 0 min 0,000 mm 0,0 UV-I 0 W/m² 6,9 °C 8,1 °C 0,0 km/h (0 Bft) 95,65 %
08.05.2026 01:57 8,0 °C 92 % 1016,8 hPa 0,0 l/m² 0,0 km/h (0 Bft) N 0 ° 0 min 0,000 mm 0,0 UV-I 0 W/m² 6,8 °C 8,0 °C 0,0 km/h (0 Bft) 100,00 %
08.05.2026 01:56 8,0 °C 92 % 1016,8 hPa 0,0 l/m² 0,0 km/h (0 Bft) N 0 ° 0 min 0,000 mm 0,0 UV-I 0 W/m² 6,8 °C 8,0 °C 0,0 km/h (0 Bft) 95,65 %
08.05.2026 01:55 8,0 °C 92 % 1016,8 hPa 0,0 l/m² 0,0 km/h (0 Bft) N 0 ° 0 min 0,000 mm 0,0 UV-I 0 W/m² 6,8 °C 8,0 °C 0,0 km/h (0 Bft) 100,00 %
08.05.2026 01:54 8,1 °C 92 % 1016,8 hPa 0,0 l/m² 0,0 km/h (0 Bft) N 0 ° 0 min 0,000 mm 0,0 UV-I 0 W/m² 6,9 °C 8,1 °C 0,0 km/h (0 Bft) 95,65 %
08.05.2026 01:53 8,2 °C 92 % 1016,9 hPa 0,0 l/m² 0,0 km/h (0 Bft) N 0 ° 0 min 0,000 mm 0,0 UV-I 0 W/m² 7,0 °C 8,2 °C 0,0 km/h (0 Bft) 100,00 %
08.05.2026 01:52 8,3 °C 92 % 1016,9 hPa 0,0 l/m² 0,0 km/h (0 Bft) N 0 ° 0 min 0,000 mm 0,0 UV-I 0 W/m² 7,1 °C 8,3 °C 0,0 km/h (0 Bft) 95,65 %
08.05.2026 01:51 8,3 °C 92 % 1016,9 hPa 0,0 l/m² 0,0 km/h (0 Bft) N 0 ° 0 min 0,000 mm 0,0 UV-I 0 W/m² 7,1 °C 8,3 °C 0,0 km/h (0 Bft) 100,00 %
08.05.2026 01:50 8,3 °C 92 % 1017,0 hPa 0,0 l/m² 0,0 km/h (0 Bft) N 0 ° 0 min 0,000 mm 0,0 UV-I 0 W/m² 7,1 °C 8,3 °C 0,0 km/h (0 Bft) 95,65 %
08.05.2026 01:49 8,3 °C 92 % 1017,0 hPa 0,0 l/m² 0,0 km/h (0 Bft) N 0 ° 0 min 0,000 mm 0,0 UV-I 0 W/m² 7,1 °C 8,3 °C 0,0 km/h (0 Bft) 95,65 %
08.05.2026 01:48 8,4 °C 92 % 1017,0 hPa 0,0 l/m² 0,0 km/h (0 Bft) N 0 ° 0 min 0,000 mm 0,0 UV-I 0 W/m² 7,2 °C 8,4 °C 0,0 km/h (0 Bft) 100,00 %
08.05.2026 01:47 8,4 °C 92 % 1017,0 hPa 0,0 l/m² 0,0 km/h (0 Bft) W 270 ° 0 min 0,000 mm 0,0 UV-I 0 W/m² 7,2 °C 8,4 °C 1,6 km/h (1 Bft) 95,65 %
08.05.2026 01:46 8,4 °C 92 % 1017,0 hPa 0,0 l/m² 0,0 km/h (0 Bft) N 0 ° 0 min 0,000 mm 0,0 UV-I 0 W/m² 7,2 °C 8,4 °C 0,0 km/h (0 Bft) 100,00 %
08.05.2026 01:45 8,5 °C 92 % 1017,1 hPa 0,0 l/m² 0,0 km/h (0 Bft) N 0 ° 0 min 0,000 mm 0,0 UV-I 0 W/m² 7,3 °C 8,5 °C 0,0 km/h (0 Bft) 100,00 %
08.05.2026 01:44 8,6 °C 92 % 1017,1 hPa 0,0 l/m² 0,0 km/h (0 Bft) N 0 ° 0 min 0,000 mm 0,0 UV-I 0 W/m² 7,4 °C 8,6 °C 0,0 km/h (0 Bft) 95,65 %
08.05.2026 01:43 8,6 °C 92 % 1017,0 hPa 0,0 l/m² 1,6 km/h (1 Bft) W 270 ° 0 min 0,000 mm 0,0 UV-I 0 W/m² 7,4 °C 8,6 °C 3,2 km/h (1 Bft) 95,65 %
08.05.2026 01:42 8,5 °C 92 % 1017,0 hPa 0,0 l/m² 1,6 km/h (1 Bft) W 270 ° 0 min 0,000 mm 0,0 UV-I 0 W/m² 7,3 °C 8,5 °C 3,2 km/h (1 Bft) 95,65 %
08.05.2026 01:41 8,4 °C 92 % 1017,1 hPa 0,0 l/m² 0,0 km/h (0 Bft) W 270 ° 0 min 0,000 mm 0,0 UV-I 0 W/m² 7,2 °C 8,4 °C 1,6 km/h (1 Bft) 95,65 %
08.05.2026 01:40 8,4 °C 92 % 1017,1 hPa 0,0 l/m² 0,0 km/h (0 Bft) N 0 ° 0 min 0,000 mm 0,0 UV-I 0 W/m² 7,2 °C 8,4 °C 0,0 km/h (0 Bft) 100,00 %
08.05.2026 01:39 8,4 °C 92 % 1017,1 hPa 0,0 l/m² 0,0 km/h (0 Bft) N 0 ° 0 min 0,000 mm 0,0 UV-I 0 W/m² 7,2 °C 8,4 °C 0,0 km/h (0 Bft) 100,00 %
08.05.2026 01:38 8,4 °C 92 % 1017,1 hPa 0,0 l/m² 0,0 km/h (0 Bft) N 0 ° 0 min 0,000 mm 0,0 UV-I 0 W/m² 7,2 °C 8,4 °C 0,0 km/h (0 Bft) 100,00 %
08.05.2026 01:37 8,5 °C 92 % 1017,1 hPa 0,0 l/m² 0,0 km/h (0 Bft) W 270 ° 0 min 0,000 mm 0,0 UV-I 0 W/m² 7,3 °C 8,5 °C 1,6 km/h (1 Bft) 95,65 %
08.05.2026 01:36 8,6 °C 92 % 1017,1 hPa 0,0 l/m² 0,0 km/h (0 Bft) N 0 ° 0 min 0,000 mm 0,0 UV-I 0 W/m² 7,4 °C 8,6 °C 0,0 km/h (0 Bft) 100,00 %
08.05.2026 01:35 8,6 °C 92 % 1017,1 hPa 0,0 l/m² 0,0 km/h (0 Bft) N 0 ° 0 min 0,000 mm 0,0 UV-I 0 W/m² 7,4 °C 8,6 °C 0,0 km/h (0 Bft) 91,30 %
08.05.2026 01:34 8,6 °C 92 % 1017,2 hPa 0,0 l/m² 0,0 km/h (0 Bft) N 0 ° 0 min 0,000 mm 0,0 UV-I 0 W/m² 7,4 °C 8,6 °C 0,0 km/h (0 Bft) 100,00 %
08.05.2026 01:33 8,6 °C 92 % 1017,2 hPa 0,0 l/m² 0,0 km/h (0 Bft) N 0 ° 0 min 0,000 mm 0,0 UV-I 0 W/m² 7,4 °C 8,6 °C 0,0 km/h (0 Bft) 100,00 %
08.05.2026 01:32 8,6 °C 92 % 1017,1 hPa 0,0 l/m² 0,0 km/h (0 Bft) N 0 ° 0 min 0,000 mm 0,0 UV-I 0 W/m² 7,4 °C 8,6 °C 0,0 km/h (0 Bft) 100,00 %
08.05.2026 01:31 8,6 °C 92 % 1017,1 hPa 0,0 l/m² 0,0 km/h (0 Bft) N 0 ° 0 min 0,000 mm 0,0 UV-I 0 W/m² 7,4 °C 8,6 °C 0,0 km/h (0 Bft) 100,00 %
08.05.2026 01:30 8,6 °C 92 % 1017,1 hPa 0,0 l/m² 0,0 km/h (0 Bft) N 0 ° 0 min 0,000 mm 0,0 UV-I 0 W/m² 7,4 °C 8,6 °C 0,0 km/h (0 Bft) 100,00 %
08.05.2026 01:29 8,5 °C 92 % 1017,1 hPa 0,0 l/m² 0,0 km/h (0 Bft) N 0 ° 0 min 0,000 mm 0,0 UV-I 0 W/m² 7,3 °C 8,5 °C 0,0 km/h (0 Bft) 100,00 %
08.05.2026 01:28 8,4 °C 91 % 1017,2 hPa 0,0 l/m² 0,0 km/h (0 Bft) N 0 ° 0 min 0,000 mm 0,0 UV-I 0 W/m² 7,0 °C 8,4 °C 0,0 km/h (0 Bft) 91,30 %
08.05.2026 01:27 8,4 °C 91 % 1017,1 hPa 0,0 l/m² 0,0 km/h (0 Bft) N 0 ° 0 min 0,000 mm 0,0 UV-I 0 W/m² 7,0 °C 8,4 °C 0,0 km/h (0 Bft) 100,00 %
08.05.2026 01:26 8,4 °C 91 % 1017,1 hPa 0,0 l/m² 0,0 km/h (0 Bft) N 0 ° 0 min 0,000 mm 0,0 UV-I 0 W/m² 7,0 °C 8,4 °C 0,0 km/h (0 Bft) 100,00 %
08.05.2026 01:25 8,4 °C 91 % 1017,1 hPa 0,0 l/m² 0,0 km/h (0 Bft) N 0 ° 0 min 0,000 mm 0,0 UV-I 0 W/m² 7,0 °C 8,4 °C 0,0 km/h (0 Bft) 95,65 %
08.05.2026 01:24 8,4 °C 91 % 1017,2 hPa 0,0 l/m² 0,0 km/h (0 Bft) N 0 ° 0 min 0,000 mm 0,0 UV-I 0 W/m² 7,0 °C 8,4 °C 0,0 km/h (0 Bft) 100,00 %
08.05.2026 01:23 8,4 °C 91 % 1017,2 hPa 0,0 l/m² 0,0 km/h (0 Bft) N 0 ° 0 min 0,000 mm 0,0 UV-I 0 W/m² 7,0 °C 8,4 °C 0,0 km/h (0 Bft) 100,00 %
08.05.2026 01:22 8,5 °C 91 % 1017,2 hPa 0,0 l/m² 0,0 km/h (0 Bft) N 0 ° 0 min 0,000 mm 0,0 UV-I 0 W/m² 7,1 °C 8,5 °C 0,0 km/h (0 Bft) 100,00 %
08.05.2026 01:21 8,5 °C 90 % 1017,3 hPa 0,0 l/m² 0,0 km/h (0 Bft) N 0 ° 0 min 0,000 mm 0,0 UV-I 0 W/m² 7,0 °C 8,5 °C 0,0 km/h (0 Bft) 95,65 %
08.05.2026 01:20 8,6 °C 90 % 1017,3 hPa 0,0 l/m² 0,0 km/h (0 Bft) N 0 ° 0 min 0,000 mm 0,0 UV-I 0 W/m² 7,1 °C 8,6 °C 0,0 km/h (0 Bft) 95,65 %
08.05.2026 01:19 8,7 °C 91 % 1017,2 hPa 0,0 l/m² 0,0 km/h (0 Bft) N 0 ° 0 min 0,000 mm 0,0 UV-I 0 W/m² 7,3 °C 8,7 °C 0,0 km/h (0 Bft) 91,30 %
08.05.2026 01:18 8,8 °C 91 % 1017,3 hPa 0,0 l/m² 0,0 km/h (0 Bft) N 0 ° 0 min 0,000 mm 0,0 UV-I 0 W/m² 7,4 °C 8,8 °C 0,0 km/h (0 Bft) 100,00 %
08.05.2026 01:17 9,0 °C 91 % 1017,2 hPa 0,0 l/m² 0,0 km/h (0 Bft) N 0 ° 0 min 0,000 mm 0,0 UV-I 0 W/m² 7,6 °C 9,0 °C 0,0 km/h (0 Bft) 95,65 %
08.05.2026 01:16 9,1 °C 91 % 1017,3 hPa 0,0 l/m² 0,0 km/h (0 Bft) N 0 ° 0 min 0,000 mm 0,0 UV-I 0 W/m² 7,7 °C 9,1 °C 0,0 km/h (0 Bft) 100,00 %
08.05.2026 01:15 9,0 °C 91 % 1017,3 hPa 0,0 l/m² 0,0 km/h (0 Bft) N 0 ° 0 min 0,000 mm 0,0 UV-I 0 W/m² 7,6 °C 9,0 °C 0,0 km/h (0 Bft) 100,00 %
08.05.2026 01:14 9,0 °C 91 % 1017,3 hPa 0,0 l/m² 0,0 km/h (0 Bft) N 0 ° 0 min 0,000 mm 0,0 UV-I 0 W/m² 7,6 °C 9,0 °C 0,0 km/h (0 Bft) 95,65 %
08.05.2026 01:13 9,0 °C 91 % 1017,3 hPa 0,0 l/m² 0,0 km/h (0 Bft) N 0 ° 0 min 0,000 mm 0,0 UV-I 0 W/m² 7,6 °C 9,0 °C 0,0 km/h (0 Bft) 100,00 %
08.05.2026 01:12 9,0 °C 91 % 1017,4 hPa 0,0 l/m² 0,0 km/h (0 Bft) N 0 ° 0 min 0,000 mm 0,0 UV-I 0 W/m² 7,6 °C 9,0 °C 0,0 km/h (0 Bft) 100,00 %
08.05.2026 01:11 8,9 °C 91 % 1017,4 hPa 0,0 l/m² 0,0 km/h (0 Bft) N 0 ° 0 min 0,000 mm 0,0 UV-I 0 W/m² 7,5 °C 8,9 °C 0,0 km/h (0 Bft) 100,00 %
08.05.2026 01:10 9,0 °C 91 % 1017,4 hPa 0,0 l/m² 0,0 km/h (0 Bft) N 0 ° 0 min 0,000 mm 0,0 UV-I 0 W/m² 7,6 °C 9,0 °C 0,0 km/h (0 Bft) 100,00 %
08.05.2026 01:09 8,9 °C 91 % 1017,4 hPa 0,0 l/m² 0,0 km/h (0 Bft) W 270 ° 0 min 0,000 mm 0,0 UV-I 0 W/m² 7,5 °C 8,9 °C 1,6 km/h (1 Bft) 100,00 %
08.05.2026 01:08 8,9 °C 91 % 1017,4 hPa 0,0 l/m² 0,0 km/h (0 Bft) N 0 ° 0 min 0,000 mm 0,0 UV-I 0 W/m² 7,5 °C 8,9 °C 0,0 km/h (0 Bft) 100,00 %
08.05.2026 01:07 8,9 °C 91 % 1017,4 hPa 0,0 l/m² 0,0 km/h (0 Bft) N 0 ° 0 min 0,000 mm 0,0 UV-I 0 W/m² 7,5 °C 8,9 °C 0,0 km/h (0 Bft) 95,65 %
08.05.2026 01:06 8,9 °C 91 % 1017,4 hPa 0,0 l/m² 0,0 km/h (0 Bft) N 0 ° 0 min 0,000 mm 0,0 UV-I 0 W/m² 7,5 °C 8,9 °C 0,0 km/h (0 Bft) 95,65 %
08.05.2026 01:05 8,9 °C 91 % 1017,4 hPa 0,0 l/m² 0,0 km/h (0 Bft) N 0 ° 0 min 0,000 mm 0,0 UV-I 0 W/m² 7,5 °C 8,9 °C 0,0 km/h (0 Bft) 100,00 %
08.05.2026 01:04 8,9 °C 91 % 1017,4 hPa 0,0 l/m² 0,0 km/h (0 Bft) N 0 ° 0 min 0,000 mm 0,0 UV-I 0 W/m² 7,5 °C 8,9 °C 0,0 km/h (0 Bft) 100,00 %
08.05.2026 01:03 9,0 °C 90 % 1017,4 hPa 0,0 l/m² 0,0 km/h (0 Bft) N 0 ° 0 min 0,000 mm 0,0 UV-I 0 W/m² 7,4 °C 9,0 °C 0,0 km/h (0 Bft) 100,00 %
08.05.2026 01:02 9,0 °C 91 % 1017,4 hPa 0,0 l/m² 0,0 km/h (0 Bft) N 0 ° 0 min 0,000 mm 0,0 UV-I 0 W/m² 7,6 °C 9,0 °C 0,0 km/h (0 Bft) 95,65 %
08.05.2026 01:01 9,1 °C 91 % 1017,4 hPa 0,0 l/m² 0,0 km/h (0 Bft) N 0 ° 0 min 0,000 mm 0,0 UV-I 0 W/m² 7,7 °C 9,1 °C 0,0 km/h (0 Bft) 95,65 %
08.05.2026 01:00 9,1 °C 90 % 1017,5 hPa 0,0 l/m² 0,0 km/h (0 Bft) N 0 ° 0 min 0,000 mm 0,0 UV-I 0 W/m² 7,5 °C 9,1 °C 0,0 km/h (0 Bft) 95,65 %
08.05.2026 00:59 9,2 °C 90 % 1017,4 hPa 0,0 l/m² 0,0 km/h (0 Bft) N 0 ° 0 min 0,000 mm 0,0 UV-I 0 W/m² 7,6 °C 9,2 °C 0,0 km/h (0 Bft) 100,00 %
08.05.2026 00:58 9,2 °C 90 % 1017,4 hPa 0,0 l/m² 0,0 km/h (0 Bft) N 0 ° 0 min 0,000 mm 0,0 UV-I 0 W/m² 7,6 °C 9,2 °C 0,0 km/h (0 Bft) 100,00 %
08.05.2026 00:57 9,3 °C 90 % 1017,5 hPa 0,0 l/m² 0,0 km/h (0 Bft) N 0 ° 0 min 0,000 mm 0,0 UV-I 0 W/m² 7,7 °C 9,3 °C 0,0 km/h (0 Bft) 100,00 %
08.05.2026 00:56 9,3 °C 90 % 1017,5 hPa 0,0 l/m² 0,0 km/h (0 Bft) N 0 ° 0 min 0,000 mm 0,0 UV-I 0 W/m² 7,7 °C 9,3 °C 0,0 km/h (0 Bft) 100,00 %
08.05.2026 00:55 9,4 °C 90 % 1017,5 hPa 0,0 l/m² 0,0 km/h (0 Bft) N 0 ° 0 min 0,000 mm 0,0 UV-I 0 W/m² 7,8 °C 9,4 °C 0,0 km/h (0 Bft) 95,65 %
08.05.2026 00:54 9,5 °C 90 % 1017,5 hPa 0,0 l/m² 0,0 km/h (0 Bft) N 0 ° 0 min 0,000 mm 0,0 UV-I 0 W/m² 7,9 °C 9,5 °C 0,0 km/h (0 Bft) 100,00 %
08.05.2026 00:53 9,6 °C 90 % 1017,6 hPa 0,0 l/m² 0,0 km/h (0 Bft) N 0 ° 0 min 0,000 mm 0,0 UV-I 0 W/m² 8,0 °C 9,6 °C 0,0 km/h (0 Bft) 91,30 %
08.05.2026 00:52 9,6 °C 90 % 1017,5 hPa 0,0 l/m² 0,0 km/h (0 Bft) N 0 ° 0 min 0,000 mm 0,0 UV-I 0 W/m² 8,0 °C 9,6 °C 0,0 km/h (0 Bft) 100,00 %
08.05.2026 00:51 9,6 °C 90 % 1017,6 hPa 0,0 l/m² 0,0 km/h (0 Bft) N 0 ° 0 min 0,000 mm 0,0 UV-I 0 W/m² 8,0 °C 9,6 °C 0,0 km/h (0 Bft) 100,00 %
08.05.2026 00:50 9,6 °C 90 % 1017,5 hPa 0,0 l/m² 0,0 km/h (0 Bft) N 0 ° 0 min 0,000 mm 0,0 UV-I 0 W/m² 8,0 °C 9,6 °C 0,0 km/h (0 Bft) 95,65 %
08.05.2026 00:49 9,7 °C 90 % 1017,6 hPa 0,0 l/m² 0,0 km/h (0 Bft) N 0 ° 0 min 0,000 mm 0,0 UV-I 0 W/m² 8,1 °C 9,7 °C 0,0 km/h (0 Bft) 100,00 %
08.05.2026 00:48 9,7 °C 90 % 1017,6 hPa 0,0 l/m² 0,0 km/h (0 Bft) N 0 ° 0 min 0,000 mm 0,0 UV-I 0 W/m² 8,1 °C 9,7 °C 0,0 km/h (0 Bft) 100,00 %
08.05.2026 00:47 9,7 °C 89 % 1017,5 hPa 0,0 l/m² 0,0 km/h (0 Bft) N 0 ° 0 min 0,000 mm 0,0 UV-I 0 W/m² 8,0 °C 9,7 °C 0,0 km/h (0 Bft) 100,00 %
08.05.2026 00:46 9,7 °C 89 % 1017,6 hPa 0,0 l/m² 0,0 km/h (0 Bft) N 0 ° 0 min 0,000 mm 0,0 UV-I 0 W/m² 8,0 °C 9,7 °C 0,0 km/h (0 Bft) 95,65 %
08.05.2026 00:45 9,8 °C 89 % 1017,6 hPa 0,0 l/m² 0,0 km/h (0 Bft) N 0 ° 0 min 0,000 mm 0,0 UV-I 0 W/m² 8,1 °C 9,8 °C 0,0 km/h (0 Bft) 95,65 %
08.05.2026 00:44 9,8 °C 89 % 1017,6 hPa 0,0 l/m² 0,0 km/h (0 Bft) N 0 ° 0 min 0,000 mm 0,0 UV-I 0 W/m² 8,1 °C 9,8 °C 0,0 km/h (0 Bft) 100,00 %
08.05.2026 00:43 9,9 °C 88 % 1017,6 hPa 0,0 l/m² 0,0 km/h (0 Bft) N 0 ° 0 min 0,000 mm 0,0 UV-I 0 W/m² 8,0 °C 9,9 °C 0,0 km/h (0 Bft) 100,00 %
08.05.2026 00:42 10,0 °C 89 % 1017,5 hPa 0,0 l/m² 0,0 km/h (0 Bft) N 0 ° 0 min 0,000 mm 0,0 UV-I 0 W/m² 8,3 °C 10,0 °C 0,0 km/h (0 Bft) 95,65 %
08.05.2026 00:41 10,1 °C 89 % 1017,5 hPa 0,0 l/m² 0,0 km/h (0 Bft) N 0 ° 0 min 0,000 mm 0,0 UV-I 0 W/m² 8,4 °C 10,1 °C 0,0 km/h (0 Bft) 100,00 %
08.05.2026 00:40 10,2 °C 89 % 1017,5 hPa 0,0 l/m² 0,0 km/h (0 Bft) N 0 ° 0 min 0,000 mm 0,0 UV-I 0 W/m² 8,5 °C 10,2 °C 0,0 km/h (0 Bft) 100,00 %
08.05.2026 00:39 10,2 °C 89 % 1017,7 hPa 0,0 l/m² 0,0 km/h (0 Bft) N 0 ° 0 min 0,000 mm 0,0 UV-I 0 W/m² 8,5 °C 10,2 °C 0,0 km/h (0 Bft) 86,96 %
08.05.2026 00:38 10,2 °C 89 % 1017,6 hPa 0,0 l/m² 0,0 km/h (0 Bft) N 0 ° 0 min 0,000 mm 0,0 UV-I 0 W/m² 8,5 °C 10,2 °C 0,0 km/h (0 Bft) 95,65 %
08.05.2026 00:37 10,2 °C 89 % 1017,6 hPa 0,0 l/m² 0,0 km/h (0 Bft) N 0 ° 0 min 0,000 mm 0,0 UV-I 0 W/m² 8,5 °C 10,2 °C 0,0 km/h (0 Bft) 100,00 %
08.05.2026 00:36 10,3 °C 89 % 1017,6 hPa 0,0 l/m² 0,0 km/h (0 Bft) N 0 ° 0 min 0,000 mm 0,0 UV-I 0 W/m² 8,6 °C 10,3 °C 0,0 km/h (0 Bft) 100,00 %
08.05.2026 00:35 10,3 °C 88 % 1017,6 hPa 0,0 l/m² 0,0 km/h (0 Bft) N 0 ° 0 min 0,000 mm 0,0 UV-I 0 W/m² 8,4 °C 10,3 °C 0,0 km/h (0 Bft) 95,65 %
08.05.2026 00:34 10,3 °C 89 % 1017,6 hPa 0,0 l/m² 0,0 km/h (0 Bft) N 0 ° 0 min 0,000 mm 0,0 UV-I 0 W/m² 8,6 °C 10,3 °C 0,0 km/h (0 Bft) 95,65 %
08.05.2026 00:33 10,3 °C 88 % 1017,6 hPa 0,0 l/m² 0,0 km/h (0 Bft) W 270 ° 0 min 0,000 mm 0,0 UV-I 0 W/m² 8,4 °C 10,3 °C 1,6 km/h (1 Bft) 100,00 %
08.05.2026 00:32 10,3 °C 88 % 1017,5 hPa 0,0 l/m² 0,0 km/h (0 Bft) W 270 ° 0 min 0,000 mm 0,0 UV-I 0 W/m² 8,4 °C 10,3 °C 1,6 km/h (1 Bft) 91,30 %
08.05.2026 00:31 10,4 °C 88 % 1017,6 hPa 0,0 l/m² 0,0 km/h (0 Bft) W 270 ° 0 min 0,000 mm 0,0 UV-I 0 W/m² 8,5 °C 10,4 °C 1,6 km/h (1 Bft) 100,00 %
08.05.2026 00:30 10,4 °C 88 % 1017,5 hPa 0,0 l/m² 0,0 km/h (0 Bft) W 270 ° 0 min 0,000 mm 0,0 UV-I 0 W/m² 8,5 °C 10,4 °C 1,6 km/h (1 Bft) 95,65 %
08.05.2026 00:29 10,5 °C 88 % 1017,5 hPa 0,0 l/m² 0,0 km/h (0 Bft) N 0 ° 0 min 0,000 mm 0,0 UV-I 0 W/m² 8,6 °C 10,5 °C 0,0 km/h (0 Bft) 100,00 %
08.05.2026 00:28 10,6 °C 88 % 1017,5 hPa 0,0 l/m² 0,0 km/h (0 Bft) N 0 ° 0 min 0,000 mm 0,0 UV-I 0 W/m² 8,7 °C 10,6 °C 0,0 km/h (0 Bft) 100,00 %
08.05.2026 00:27 10,6 °C 88 % 1017,6 hPa 0,0 l/m² 0,0 km/h (0 Bft) N 0 ° 0 min 0,000 mm 0,0 UV-I 0 W/m² 8,7 °C 10,6 °C 0,0 km/h (0 Bft) 100,00 %
08.05.2026 00:26 10,6 °C 88 % 1017,5 hPa 0,0 l/m² 0,0 km/h (0 Bft) N 0 ° 0 min 0,000 mm 0,0 UV-I 0 W/m² 8,7 °C 10,6 °C 0,0 km/h (0 Bft) 95,65 %
08.05.2026 00:25 10,6 °C 88 % 1017,5 hPa 0,0 l/m² 0,0 km/h (0 Bft) N 0 ° 0 min 0,000 mm 0,0 UV-I 0 W/m² 8,7 °C 10,6 °C 0,0 km/h (0 Bft) 95,65 %
08.05.2026 00:24 10,6 °C 88 % 1017,5 hPa 0,0 l/m² 0,0 km/h (0 Bft) N 0 ° 0 min 0,000 mm 0,0 UV-I 0 W/m² 8,7 °C 10,6 °C 0,0 km/h (0 Bft) 100,00 %
08.05.2026 00:23 10,6 °C 88 % 1017,5 hPa 0,0 l/m² 0,0 km/h (0 Bft) N 0 ° 0 min 0,000 mm 0,0 UV-I 0 W/m² 8,7 °C 10,6 °C 0,0 km/h (0 Bft) 95,65 %
08.05.2026 00:22 10,7 °C 88 % 1017,5 hPa 0,0 l/m² 0,0 km/h (0 Bft) N 0 ° 0 min 0,000 mm 0,0 UV-I 0 W/m² 8,8 °C 10,7 °C 0,0 km/h (0 Bft) 100,00 %
08.05.2026 00:21 10,7 °C 88 % 1017,5 hPa 0,0 l/m² 0,0 km/h (0 Bft) N 0 ° 0 min 0,000 mm 0,0 UV-I 0 W/m² 8,8 °C 10,7 °C 0,0 km/h (0 Bft) 100,00 %
08.05.2026 00:20 10,7 °C 88 % 1017,5 hPa 0,0 l/m² 0,0 km/h (0 Bft) W 270 ° 0 min 0,000 mm 0,0 UV-I 0 W/m² 8,8 °C 10,7 °C 1,6 km/h (1 Bft) 95,65 %
08.05.2026 00:19 10,6 °C 88 % 1017,5 hPa 0,0 l/m² 0,0 km/h (0 Bft) W 270 ° 0 min 0,000 mm 0,0 UV-I 0 W/m² 8,7 °C 10,6 °C 1,6 km/h (1 Bft) 100,00 %
08.05.2026 00:18 10,6 °C 88 % 1017,5 hPa 0,0 l/m² 0,0 km/h (0 Bft) W 270 ° 0 min 0,000 mm 0,0 UV-I 0 W/m² 8,7 °C 10,6 °C 1,6 km/h (1 Bft) 95,65 %
08.05.2026 00:17 10,6 °C 88 % 1017,5 hPa 0,0 l/m² 0,0 km/h (0 Bft) N 0 ° 0 min 0,000 mm 0,0 UV-I 0 W/m² 8,7 °C 10,6 °C 0,0 km/h (0 Bft) 100,00 %
08.05.2026 00:16 10,6 °C 88 % 1017,5 hPa 0,0 l/m² 0,0 km/h (0 Bft) N 0 ° 0 min 0,000 mm 0,0 UV-I 0 W/m² 8,7 °C 10,6 °C 0,0 km/h (0 Bft) 100,00 %
08.05.2026 00:15 10,6 °C 88 % 1017,5 hPa 0,0 l/m² 0,0 km/h (0 Bft) N 0 ° 0 min 0,000 mm 0,0 UV-I 0 W/m² 8,7 °C 10,6 °C 0,0 km/h (0 Bft) 100,00 %
08.05.2026 00:14 10,6 °C 88 % 1017,5 hPa 0,0 l/m² 0,0 km/h (0 Bft) N 0 ° 0 min 0,000 mm 0,0 UV-I 0 W/m² 8,7 °C 10,6 °C 0,0 km/h (0 Bft) 100,00 %
08.05.2026 00:13 10,6 °C 88 % 1017,5 hPa 0,0 l/m² 0,0 km/h (0 Bft) N 0 ° 0 min 0,000 mm 0,0 UV-I 0 W/m² 8,7 °C 10,6 °C 0,0 km/h (0 Bft) 100,00 %
08.05.2026 00:12 10,6 °C 88 % 1017,5 hPa 0,0 l/m² 0,0 km/h (0 Bft) N 0 ° 0 min 0,000 mm 0,0 UV-I 0 W/m² 8,7 °C 10,6 °C 0,0 km/h (0 Bft) 100,00 %
08.05.2026 00:11 10,6 °C 88 % 1017,5 hPa 0,0 l/m² 0,0 km/h (0 Bft) N 0 ° 0 min 0,000 mm 0,0 UV-I 0 W/m² 8,7 °C 10,6 °C 0,0 km/h (0 Bft) 95,65 %
08.05.2026 00:10 10,6 °C 88 % 1017,4 hPa 0,0 l/m² 0,0 km/h (0 Bft) W 270 ° 0 min 0,000 mm 0,0 UV-I 0 W/m² 8,7 °C 10,6 °C 1,6 km/h (1 Bft) 95,65 %
08.05.2026 00:09 10,6 °C 88 % 1017,5 hPa 0,0 l/m² 0,0 km/h (0 Bft) N 0 ° 0 min 0,000 mm 0,0 UV-I 0 W/m² 8,7 °C 10,6 °C 0,0 km/h (0 Bft) 100,00 %
08.05.2026 00:08 10,6 °C 88 % 1017,4 hPa 0,0 l/m² 0,0 km/h (0 Bft) N 0 ° 0 min 0,000 mm 0,0 UV-I 0 W/m² 8,7 °C 10,6 °C 0,0 km/h (0 Bft) 100,00 %
08.05.2026 00:07 10,6 °C 88 % 1017,4 hPa 0,0 l/m² 0,0 km/h (0 Bft) N 0 ° 0 min 0,000 mm 0,0 UV-I 0 W/m² 8,7 °C 10,6 °C 0,0 km/h (0 Bft) 95,65 %
08.05.2026 00:06 10,7 °C 88 % 1017,4 hPa 0,0 l/m² 0,0 km/h (0 Bft) N 0 ° 0 min 0,000 mm 0,0 UV-I 0 W/m² 8,8 °C 10,7 °C 0,0 km/h (0 Bft) 100,00 %
08.05.2026 00:05 10,7 °C 88 % 1017,4 hPa 0,0 l/m² 0,0 km/h (0 Bft) W 270 ° 0 min 0,000 mm 0,0 UV-I 0 W/m² 8,8 °C 10,7 °C 1,6 km/h (1 Bft) 100,00 %
08.05.2026 00:04 10,7 °C 88 % 1017,4 hPa 0,0 l/m² 0,0 km/h (0 Bft) N 0 ° 0 min 0,000 mm 0,0 UV-I 0 W/m² 8,8 °C 10,7 °C 0,0 km/h (0 Bft) 91,30 %
08.05.2026 00:03 10,7 °C 88 % 1017,4 hPa 0,0 l/m² 0,0 km/h (0 Bft) N 0 ° 0 min 0,000 mm 0,0 UV-I 0 W/m² 8,8 °C 10,7 °C 0,0 km/h (0 Bft) 100,00 %
08.05.2026 00:02 10,7 °C 88 % 1017,5 hPa 0,0 l/m² 0,0 km/h (0 Bft) N 0 ° 0 min 0,000 mm 0,0 UV-I 0 W/m² 8,8 °C 10,7 °C 0,0 km/h (0 Bft) 100,00 %
08.05.2026 00:01 10,8 °C 88 % 1017,4 hPa 0,0 l/m² 0,0 km/h (0 Bft) W 270 ° 0 min 0,000 mm 0,0 UV-I 0 W/m² 8,9 °C 10,8 °C 1,6 km/h (1 Bft) 95,65 %
08.05.2026 00:00 10,8 °C 88 % 1017,4 hPa 0,0 l/m² 0,0 km/h (0 Bft) W 270 ° 0 min 0,000 mm 0,0 UV-I 0 W/m² 8,9 °C 10,8 °C 1,6 km/h (1 Bft) 100,00 %
07.05.2026 23:59 10,8 °C 88 % 1017,4 hPa 0,0 l/m² 0,0 km/h (0 Bft) N 0 ° 0 min 0,000 mm 0,0 UV-I 0 W/m² 8,9 °C 10,8 °C 0,0 km/h (0 Bft) 100,00 %
07.05.2026 23:58 10,8 °C 88 % 1017,4 hPa 0,0 l/m² 0,0 km/h (0 Bft) N 0 ° 0 min 0,000 mm 0,0 UV-I 0 W/m² 8,9 °C 10,8 °C 0,0 km/h (0 Bft) 95,65 %
07.05.2026 23:57 10,8 °C 88 % 1017,5 hPa 0,0 l/m² 0,0 km/h (0 Bft) N 0 ° 0 min 0,000 mm 0,0 UV-I 0 W/m² 8,9 °C 10,8 °C 0,0 km/h (0 Bft) 100,00 %
07.05.2026 23:56 10,8 °C 88 % 1017,5 hPa 0,0 l/m² 0,0 km/h (0 Bft) W 270 ° 0 min 0,000 mm 0,0 UV-I 0 W/m² 8,9 °C 10,8 °C 1,6 km/h (1 Bft) 95,65 %
07.05.2026 23:55 10,8 °C 88 % 1017,5 hPa 0,0 l/m² 0,0 km/h (0 Bft) N 0 ° 0 min 0,000 mm 0,0 UV-I 0 W/m² 8,9 °C 10,8 °C 0,0 km/h (0 Bft) 95,65 %
07.05.2026 23:54 10,8 °C 88 % 1017,4 hPa 0,0 l/m² 0,0 km/h (0 Bft) N 0 ° 0 min 0,000 mm 0,0 UV-I 0 W/m² 8,9 °C 10,8 °C 0,0 km/h (0 Bft) 100,00 %
07.05.2026 23:53 10,8 °C 87 % 1017,4 hPa 0,0 l/m² 0,0 km/h (0 Bft) N 0 ° 0 min 0,000 mm 0,0 UV-I 0 W/m² 8,7 °C 10,8 °C 0,0 km/h (0 Bft) 100,00 %
07.05.2026 23:52 10,8 °C 87 % 1017,4 hPa 0,0 l/m² 0,0 km/h (0 Bft) W 270 ° 0 min 0,000 mm 0,0 UV-I 0 W/m² 8,7 °C 10,8 °C 1,6 km/h (1 Bft) 95,65 %
07.05.2026 23:51 10,8 °C 87 % 1017,4 hPa 0,0 l/m² 0,0 km/h (0 Bft) N 0 ° 0 min 0,000 mm 0,0 UV-I 0 W/m² 8,7 °C 10,8 °C 0,0 km/h (0 Bft) 95,65 %
07.05.2026 23:50 10,8 °C 87 % 1017,4 hPa 0,0 l/m² 0,0 km/h (0 Bft) N 0 ° 0 min 0,000 mm 0,0 UV-I 0 W/m² 8,7 °C 10,8 °C 0,0 km/h (0 Bft) 100,00 %
07.05.2026 23:49 10,8 °C 87 % 1017,4 hPa 0,0 l/m² 0,0 km/h (0 Bft) N 0 ° 0 min 0,000 mm 0,0 UV-I 0 W/m² 8,7 °C 10,8 °C 0,0 km/h (0 Bft) 91,30 %
07.05.2026 23:48 10,8 °C 87 % 1017,4 hPa 0,0 l/m² 0,0 km/h (0 Bft) N 0 ° 0 min 0,000 mm 0,0 UV-I 0 W/m² 8,7 °C 10,8 °C 0,0 km/h (0 Bft) 100,00 %
07.05.2026 23:47 10,8 °C 87 % 1017,4 hPa 0,0 l/m² 0,0 km/h (0 Bft) N 0 ° 0 min 0,000 mm 0,0 UV-I 0 W/m² 8,7 °C 10,8 °C 0,0 km/h (0 Bft) 100,00 %
07.05.2026 23:46 10,8 °C 87 % 1017,4 hPa 0,0 l/m² 0,0 km/h (0 Bft) N 0 ° 0 min 0,000 mm 0,0 UV-I 0 W/m² 8,7 °C 10,8 °C 0,0 km/h (0 Bft) 100,00 %
07.05.2026 23:45 10,8 °C 87 % 1017,3 hPa 0,0 l/m² 0,0 km/h (0 Bft) N 0 ° 0 min 0,000 mm 0,0 UV-I 0 W/m² 8,7 °C 10,8 °C 0,0 km/h (0 Bft) 95,65 %
07.05.2026 23:44 10,8 °C 87 % 1017,3 hPa 0,0 l/m² 0,0 km/h (0 Bft) N 0 ° 0 min 0,000 mm 0,0 UV-I 0 W/m² 8,7 °C 10,8 °C 0,0 km/h (0 Bft) 100,00 %
07.05.2026 23:43 10,8 °C 87 % 1017,2 hPa 0,0 l/m² 0,0 km/h (0 Bft) N 0 ° 0 min 0,000 mm 0,0 UV-I 0 W/m² 8,7 °C 10,8 °C 0,0 km/h (0 Bft) 100,00 %
07.05.2026 23:42 10,8 °C 87 % 1017,3 hPa 0,0 l/m² 0,0 km/h (0 Bft) N 0 ° 0 min 0,000 mm 0,0 UV-I 0 W/m² 8,7 °C 10,8 °C 0,0 km/h (0 Bft) 95,65 %
07.05.2026 23:41 10,8 °C 88 % 1017,3 hPa 0,0 l/m² 0,0 km/h (0 Bft) N 0 ° 0 min 0,000 mm 0,0 UV-I 0 W/m² 8,9 °C 10,8 °C 0,0 km/h (0 Bft) 100,00 %
07.05.2026 23:40 10,8 °C 88 % 1017,3 hPa 0,0 l/m² 0,0 km/h (0 Bft) N 0 ° 0 min 0,000 mm 0,0 UV-I 0 W/m² 8,9 °C 10,8 °C 0,0 km/h (0 Bft) 95,65 %
07.05.2026 23:39 10,8 °C 88 % 1017,3 hPa 0,0 l/m² 0,0 km/h (0 Bft) N 0 ° 0 min 0,000 mm 0,0 UV-I 0 W/m² 8,9 °C 10,8 °C 0,0 km/h (0 Bft) 100,00 %
07.05.2026 23:38 10,8 °C 88 % 1017,2 hPa 0,0 l/m² 0,0 km/h (0 Bft) N 0 ° 0 min 0,000 mm 0,0 UV-I 0 W/m² 8,9 °C 10,8 °C 0,0 km/h (0 Bft) 100,00 %
07.05.2026 23:37 10,8 °C 88 % 1017,2 hPa 0,0 l/m² 0,0 km/h (0 Bft) N 0 ° 0 min 0,000 mm 0,0 UV-I 0 W/m² 8,9 °C 10,8 °C 0,0 km/h (0 Bft) 100,00 %
07.05.2026 23:36 10,7 °C 88 % 1017,2 hPa 0,0 l/m² 0,0 km/h (0 Bft) N 0 ° 0 min 0,000 mm 0,0 UV-I 0 W/m² 8,8 °C 10,7 °C 0,0 km/h (0 Bft) 100,00 %
07.05.2026 23:35 10,7 °C 88 % 1017,2 hPa 0,0 l/m² 0,0 km/h (0 Bft) N 0 ° 0 min 0,000 mm 0,0 UV-I 0 W/m² 8,8 °C 10,7 °C 0,0 km/h (0 Bft) 95,65 %
07.05.2026 23:34 10,7 °C 88 % 1017,2 hPa 0,0 l/m² 0,0 km/h (0 Bft) N 0 ° 0 min 0,000 mm 0,0 UV-I 0 W/m² 8,8 °C 10,7 °C 0,0 km/h (0 Bft) 100,00 %
07.05.2026 23:33 10,6 °C 88 % 1017,2 hPa 0,0 l/m² 0,0 km/h (0 Bft) N 0 ° 0 min 0,000 mm 0,0 UV-I 0 W/m² 8,7 °C 10,6 °C 0,0 km/h (0 Bft) 100,00 %
07.05.2026 23:32 10,6 °C 88 % 1017,1 hPa 0,0 l/m² 0,0 km/h (0 Bft) N 0 ° 0 min 0,000 mm 0,0 UV-I 0 W/m² 8,7 °C 10,6 °C 0,0 km/h (0 Bft) 95,65 %
07.05.2026 23:31 10,6 °C 88 % 1017,2 hPa 0,0 l/m² 0,0 km/h (0 Bft) N 0 ° 0 min 0,000 mm 0,0 UV-I 0 W/m² 8,7 °C 10,6 °C 0,0 km/h (0 Bft) 100,00 %
07.05.2026 23:30 10,6 °C 89 % 1017,1 hPa 0,0 l/m² 0,0 km/h (0 Bft) N 0 ° 0 min 0,000 mm 0,0 UV-I 0 W/m² 8,9 °C 10,6 °C 0,0 km/h (0 Bft) 100,00 %
07.05.2026 23:29 10,5 °C 88 % 1017,2 hPa 0,0 l/m² 0,0 km/h (0 Bft) N 0 ° 0 min 0,000 mm 0,0 UV-I 0 W/m² 8,6 °C 10,5 °C 0,0 km/h (0 Bft) 100,00 %
07.05.2026 23:28 10,4 °C 89 % 1017,2 hPa 0,0 l/m² 0,0 km/h (0 Bft) N 0 ° 0 min 0,000 mm 0,0 UV-I 0 W/m² 8,7 °C 10,4 °C 0,0 km/h (0 Bft) 95,65 %
07.05.2026 23:27 10,4 °C 89 % 1017,1 hPa 0,0 l/m² 0,0 km/h (0 Bft) N 0 ° 0 min 0,000 mm 0,0 UV-I 0 W/m² 8,7 °C 10,4 °C 0,0 km/h (0 Bft) 100,00 %
07.05.2026 23:26 10,3 °C 89 % 1017,2 hPa 0,0 l/m² 0,0 km/h (0 Bft) N 0 ° 0 min 0,000 mm 0,0 UV-I 0 W/m² 8,6 °C 10,3 °C 0,0 km/h (0 Bft) 95,65 %
07.05.2026 23:25 10,3 °C 89 % 1017,2 hPa 0,0 l/m² 0,0 km/h (0 Bft) N 0 ° 0 min 0,000 mm 0,0 UV-I 0 W/m² 8,6 °C 10,3 °C 0,0 km/h (0 Bft) 100,00 %
07.05.2026 23:24 10,2 °C 89 % 1017,2 hPa 0,0 l/m² 0,0 km/h (0 Bft) N 0 ° 0 min 0,000 mm 0,0 UV-I 0 W/m² 8,5 °C 10,2 °C 0,0 km/h (0 Bft) 95,65 %
07.05.2026 23:23 10,2 °C 89 % 1017,2 hPa 0,0 l/m² 0,0 km/h (0 Bft) N 0 ° 0 min 0,000 mm 0,0 UV-I 0 W/m² 8,5 °C 10,2 °C 0,0 km/h (0 Bft) 100,00 %
07.05.2026 23:22 10,1 °C 89 % 1017,2 hPa 0,0 l/m² 0,0 km/h (0 Bft) N 0 ° 0 min 0,000 mm 0,0 UV-I 0 W/m² 8,4 °C 10,1 °C 0,0 km/h (0 Bft) 100,00 %
07.05.2026 23:21 10,1 °C 89 % 1017,2 hPa 0,0 l/m² 0,0 km/h (0 Bft) N 0 ° 0 min 0,000 mm 0,0 UV-I 0 W/m² 8,4 °C 10,1 °C 0,0 km/h (0 Bft) 95,65 %
07.05.2026 23:20 10,1 °C 89 % 1017,2 hPa 0,0 l/m² 0,0 km/h (0 Bft) N 0 ° 0 min 0,000 mm 0,0 UV-I 0 W/m² 8,4 °C 10,1 °C 0,0 km/h (0 Bft) 100,00 %
07.05.2026 23:19 10,0 °C 89 % 1017,2 hPa 0,0 l/m² 0,0 km/h (0 Bft) N 0 ° 0 min 0,000 mm 0,0 UV-I 0 W/m² 8,3 °C 10,0 °C 0,0 km/h (0 Bft) 100,00 %
07.05.2026 23:18 9,9 °C 88 % 1017,1 hPa 0,0 l/m² 0,0 km/h (0 Bft) N 0 ° 0 min 0,000 mm 0,0 UV-I 0 W/m² 8,0 °C 9,9 °C 0,0 km/h (0 Bft) 100,00 %
07.05.2026 23:17 9,9 °C 88 % 1017,1 hPa 0,0 l/m² 0,0 km/h (0 Bft) N 0 ° 0 min 0,000 mm 0,0 UV-I 0 W/m² 8,0 °C 9,9 °C 0,0 km/h (0 Bft) 100,00 %
07.05.2026 23:16 9,9 °C 88 % 1017,2 hPa 0,0 l/m² 0,0 km/h (0 Bft) N 0 ° 0 min 0,000 mm 0,0 UV-I 0 W/m² 8,0 °C 9,9 °C 0,0 km/h (0 Bft) 100,00 %
07.05.2026 23:15 10,0 °C 88 % 1017,2 hPa 0,0 l/m² 0,0 km/h (0 Bft) N 0 ° 0 min 0,000 mm 0,0 UV-I 0 W/m² 8,1 °C 10,0 °C 0,0 km/h (0 Bft) 100,00 %
07.05.2026 23:14 10,0 °C 88 % 1017,1 hPa 0,0 l/m² 0,0 km/h (0 Bft) N 0 ° 0 min 0,000 mm 0,0 UV-I 0 W/m² 8,1 °C 10,0 °C 0,0 km/h (0 Bft) 91,30 %
07.05.2026 23:13 10,1 °C 88 % 1017,1 hPa 0,0 l/m² 0,0 km/h (0 Bft) N 0 ° 0 min 0,000 mm 0,0 UV-I 0 W/m² 8,2 °C 10,1 °C 0,0 km/h (0 Bft) 95,65 %
07.05.2026 23:12 10,1 °C 88 % 1017,1 hPa 0,0 l/m² 0,0 km/h (0 Bft) N 0 ° 0 min 0,000 mm 0,0 UV-I 0 W/m² 8,2 °C 10,1 °C 0,0 km/h (0 Bft) 100,00 %
07.05.2026 23:11 10,1 °C 88 % 1017,1 hPa 0,0 l/m² 0,0 km/h (0 Bft) N 0 ° 0 min 0,000 mm 0,0 UV-I 0 W/m² 8,2 °C 10,1 °C 0,0 km/h (0 Bft) 100,00 %
07.05.2026 23:10 10,1 °C 88 % 1017,1 hPa 0,0 l/m² 0,0 km/h (0 Bft) N 0 ° 0 min 0,000 mm 0,0 UV-I 0 W/m² 8,2 °C 10,1 °C 0,0 km/h (0 Bft) 100,00 %
07.05.2026 23:09 10,1 °C 87 % 1017,1 hPa 0,0 l/m² 0,0 km/h (0 Bft) N 0 ° 0 min 0,000 mm 0,0 UV-I 0 W/m² 8,0 °C 10,1 °C 0,0 km/h (0 Bft) 100,00 %
07.05.2026 23:08 10,2 °C 88 % 1017,1 hPa 0,0 l/m² 0,0 km/h (0 Bft) N 0 ° 0 min 0,000 mm 0,0 UV-I 0 W/m² 8,3 °C 10,2 °C 0,0 km/h (0 Bft) 100,00 %
07.05.2026 23:07 10,2 °C 88 % 1017,1 hPa 0,0 l/m² 0,0 km/h (0 Bft) N 0 ° 0 min 0,000 mm 0,0 UV-I 0 W/m² 8,3 °C 10,2 °C 0,0 km/h (0 Bft) 91,30 %
07.05.2026 23:06 10,2 °C 88 % 1017,1 hPa 0,0 l/m² 0,0 km/h (0 Bft) N 0 ° 0 min 0,000 mm 0,0 UV-I 0 W/m² 8,3 °C 10,2 °C 0,0 km/h (0 Bft) 100,00 %
07.05.2026 23:05 10,2 °C 87 % 1017,1 hPa 0,0 l/m² 0,0 km/h (0 Bft) N 0 ° 0 min 0,000 mm 0,0 UV-I 0 W/m² 8,1 °C 10,2 °C 0,0 km/h (0 Bft) 100,00 %
07.05.2026 23:04 10,1 °C 87 % 1017,1 hPa 0,0 l/m² 0,0 km/h (0 Bft) N 0 ° 0 min 0,000 mm 0,0 UV-I 0 W/m² 8,0 °C 10,1 °C 0,0 km/h (0 Bft) 100,00 %
07.05.2026 23:03 10,1 °C 87 % 1017,0 hPa 0,0 l/m² 0,0 km/h (0 Bft) N 0 ° 0 min 0,000 mm 0,0 UV-I 0 W/m² 8,0 °C 10,1 °C 0,0 km/h (0 Bft) 100,00 %
07.05.2026 23:02 10,1 °C 87 % 1017,1 hPa 0,0 l/m² 0,0 km/h (0 Bft) N 0 ° 0 min 0,000 mm 0,0 UV-I 0 W/m² 8,0 °C 10,1 °C 0,0 km/h (0 Bft) 100,00 %
07.05.2026 23:01 10,2 °C 86 % 1017,0 hPa 0,0 l/m² 0,0 km/h (0 Bft) N 0 ° 0 min 0,000 mm 0,0 UV-I 0 W/m² 8,0 °C 10,2 °C 0,0 km/h (0 Bft) 95,65 %
07.05.2026 23:00 10,2 °C 86 % 1017,0 hPa 0,0 l/m² 0,0 km/h (0 Bft) N 0 ° 0 min 0,000 mm 0,0 UV-I 0 W/m² 8,0 °C 10,2 °C 0,0 km/h (0 Bft) 95,65 %
07.05.2026 22:59 10,3 °C 87 % 1016,9 hPa 0,0 l/m² 0,0 km/h (0 Bft) N 0 ° 0 min 0,000 mm 0,0 UV-I 0 W/m² 8,2 °C 10,3 °C 0,0 km/h (0 Bft) 100,00 %
07.05.2026 22:58 10,3 °C 86 % 1017,1 hPa 0,0 l/m² 0,0 km/h (0 Bft) N 0 ° 0 min 0,000 mm 0,0 UV-I 0 W/m² 8,1 °C 10,3 °C 0,0 km/h (0 Bft) 100,00 %
07.05.2026 22:57 10,3 °C 86 % 1017,0 hPa 0,0 l/m² 0,0 km/h (0 Bft) N 0 ° 0 min 0,000 mm 0,0 UV-I 0 W/m² 8,1 °C 10,3 °C 0,0 km/h (0 Bft) 95,65 %
07.05.2026 22:56 10,3 °C 86 % 1017,0 hPa 0,0 l/m² 0,0 km/h (0 Bft) N 0 ° 0 min 0,000 mm 0,0 UV-I 0 W/m² 8,1 °C 10,3 °C 0,0 km/h (0 Bft) 100,00 %
07.05.2026 22:55 10,3 °C 86 % 1016,9 hPa 0,0 l/m² 0,0 km/h (0 Bft) N 0 ° 0 min 0,000 mm 0,0 UV-I 0 W/m² 8,1 °C 10,3 °C 0,0 km/h (0 Bft) 100,00 %
07.05.2026 22:54 10,4 °C 86 % 1017,0 hPa 0,0 l/m² 0,0 km/h (0 Bft) N 0 ° 0 min 0,000 mm 0,0 UV-I 0 W/m² 8,2 °C 10,4 °C 0,0 km/h (0 Bft) 100,00 %
07.05.2026 22:53 10,4 °C 86 % 1016,9 hPa 0,0 l/m² 0,0 km/h (0 Bft) N 0 ° 0 min 0,000 mm 0,0 UV-I 0 W/m² 8,2 °C 10,4 °C 0,0 km/h (0 Bft) 95,65 %
07.05.2026 22:52 10,5 °C 85 % 1016,9 hPa 0,0 l/m² 0,0 km/h (0 Bft) N 0 ° 0 min 0,000 mm 0,0 UV-I 0 W/m² 8,1 °C 10,5 °C 0,0 km/h (0 Bft) 100,00 %
07.05.2026 22:51 10,6 °C 86 % 1017,0 hPa 0,0 l/m² 0,0 km/h (0 Bft) N 0 ° 0 min 0,000 mm 0,0 UV-I 0 W/m² 8,4 °C 10,6 °C 0,0 km/h (0 Bft) 95,65 %
07.05.2026 22:50 10,6 °C 86 % 1016,9 hPa 0,0 l/m² 0,0 km/h (0 Bft) N 0 ° 0 min 0,000 mm 0,0 UV-I 0 W/m² 8,4 °C 10,6 °C 0,0 km/h (0 Bft) 100,00 %
07.05.2026 22:49 10,6 °C 86 % 1016,9 hPa 0,0 l/m² 0,0 km/h (0 Bft) W 270 ° 0 min 0,000 mm 0,0 UV-I 0 W/m² 8,4 °C 10,6 °C 1,6 km/h (1 Bft) 100,00 %
07.05.2026 22:48 10,5 °C 85 % 1016,8 hPa 0,0 l/m² 0,0 km/h (0 Bft) N 0 ° 0 min 0,000 mm 0,0 UV-I 0 W/m² 8,1 °C 10,5 °C 0,0 km/h (0 Bft) 100,00 %
07.05.2026 22:47 10,5 °C 85 % 1016,9 hPa 0,0 l/m² 0,0 km/h (0 Bft) N 0 ° 0 min 0,000 mm 0,0 UV-I 0 W/m² 8,1 °C 10,5 °C 0,0 km/h (0 Bft) 100,00 %
07.05.2026 22:46 10,6 °C 85 % 1016,9 hPa 0,0 l/m² 0,0 km/h (0 Bft) N 0 ° 0 min 0,000 mm 0,0 UV-I 0 W/m² 8,2 °C 10,6 °C 0,0 km/h (0 Bft) 95,65 %
07.05.2026 22:45 10,6 °C 84 % 1016,9 hPa 0,0 l/m² 0,0 km/h (0 Bft) W 270 ° 0 min 0,000 mm 0,0 UV-I 0 W/m² 8,0 °C 10,6 °C 1,6 km/h (1 Bft) 100,00 %
07.05.2026 22:44 10,7 °C 84 % 1016,9 hPa 0,0 l/m² 1,6 km/h (1 Bft) W 270 ° 0 min 0,000 mm 0,0 UV-I 0 W/m² 8,1 °C 10,7 °C 1,6 km/h (1 Bft) 95,65 %
07.05.2026 22:43 10,8 °C 85 % 1016,7 hPa 0,0 l/m² 1,6 km/h (1 Bft) W 270 ° 0 min 0,000 mm 0,0 UV-I 0 W/m² 8,4 °C 10,8 °C 1,6 km/h (1 Bft) 100,00 %
07.05.2026 22:42 10,9 °C 86 % 1016,7 hPa 0,0 l/m² 0,0 km/h (0 Bft) N 0 ° 0 min 0,000 mm 0,0 UV-I 0 W/m² 8,7 °C 10,9 °C 0,0 km/h (0 Bft) 100,00 %
07.05.2026 22:41 10,8 °C 86 % 1016,8 hPa 0,0 l/m² 1,6 km/h (1 Bft) W 270 ° 0 min 0,000 mm 0,0 UV-I 0 W/m² 8,6 °C 10,8 °C 3,2 km/h (1 Bft) 95,65 %
07.05.2026 22:40 10,7 °C 85 % 1016,7 hPa 0,0 l/m² 1,6 km/h (1 Bft) W 270 ° 0 min 0,000 mm 0,0 UV-I 0 W/m² 8,3 °C 10,7 °C 1,6 km/h (1 Bft) 100,00 %
07.05.2026 22:39 10,7 °C 85 % 1016,8 hPa 0,0 l/m² 0,0 km/h (0 Bft) N 0 ° 0 min 0,000 mm 0,0 UV-I 0 W/m² 8,3 °C 10,7 °C 0,0 km/h (0 Bft) 91,30 %
07.05.2026 22:38 10,7 °C 85 % 1016,7 hPa 0,0 l/m² 0,0 km/h (0 Bft) N 0 ° 0 min 0,000 mm 0,0 UV-I 0 W/m² 8,3 °C 10,7 °C 0,0 km/h (0 Bft) 100,00 %
07.05.2026 22:37 10,8 °C 85 % 1016,8 hPa 0,0 l/m² 0,0 km/h (0 Bft) N 0 ° 0 min 0,000 mm 0,0 UV-I 0 W/m² 8,4 °C 10,8 °C 0,0 km/h (0 Bft) 100,00 %
07.05.2026 22:36 10,9 °C 85 % 1016,7 hPa 0,0 l/m² 0,0 km/h (0 Bft) N 0 ° 0 min 0,000 mm 0,0 UV-I 0 W/m² 8,5 °C 10,9 °C 0,0 km/h (0 Bft) 100,00 %
07.05.2026 22:35 10,9 °C 85 % 1016,7 hPa 0,0 l/m² 0,0 km/h (0 Bft) N 0 ° 0 min 0,000 mm 0,0 UV-I 0 W/m² 8,5 °C 10,9 °C 0,0 km/h (0 Bft) 95,65 %
07.05.2026 22:34 11,0 °C 84 % 1016,7 hPa 0,0 l/m² 0,0 km/h (0 Bft) W 270 ° 0 min 0,000 mm 0,0 UV-I 0 W/m² 8,4 °C 11,0 °C 1,6 km/h (1 Bft) 100,00 %
07.05.2026 22:33 11,1 °C 85 % 1016,7 hPa 0,0 l/m² 0,0 km/h (0 Bft) W 270 ° 0 min 0,000 mm 0,0 UV-I 0 W/m² 8,7 °C 11,1 °C 1,6 km/h (1 Bft) 100,00 %
07.05.2026 22:32 11,1 °C 85 % 1016,7 hPa 0,0 l/m² 0,0 km/h (0 Bft) N 0 ° 0 min 0,000 mm 0,0 UV-I 0 W/m² 8,7 °C 11,1 °C 0,0 km/h (0 Bft) 91,30 %
07.05.2026 22:31 11,1 °C 85 % 1016,7 hPa 0,0 l/m² 0,0 km/h (0 Bft) W 270 ° 0 min 0,000 mm 0,0 UV-I 0 W/m² 8,7 °C 11,1 °C 1,6 km/h (1 Bft) 100,00 %
07.05.2026 22:30 11,0 °C 85 % 1016,7 hPa 0,0 l/m² 0,0 km/h (0 Bft) N 0 ° 0 min 0,000 mm 0,0 UV-I 0 W/m² 8,6 °C 11,0 °C 0,0 km/h (0 Bft) 100,00 %
07.05.2026 22:29 10,9 °C 85 % 1016,6 hPa 0,0 l/m² 0,0 km/h (0 Bft) W 270 ° 0 min 0,000 mm 0,0 UV-I 0 W/m² 8,5 °C 10,9 °C 1,6 km/h (1 Bft) 100,00 %
07.05.2026 22:28 10,9 °C 85 % 1016,7 hPa 0,0 l/m² 0,0 km/h (0 Bft) N 0 ° 0 min 0,000 mm 0,0 UV-I 0 W/m² 8,5 °C 10,9 °C 0,0 km/h (0 Bft) 95,65 %
07.05.2026 22:27 10,9 °C 84 % 1016,6 hPa 0,0 l/m² 0,0 km/h (0 Bft) N 0 ° 0 min 0,000 mm 0,0 UV-I 0 W/m² 8,3 °C 10,9 °C 0,0 km/h (0 Bft) 95,65 %
07.05.2026 22:26 10,9 °C 84 % 1016,7 hPa 0,0 l/m² 0,0 km/h (0 Bft) N 0 ° 0 min 0,000 mm 0,0 UV-I 0 W/m² 8,3 °C 10,9 °C 0,0 km/h (0 Bft) 100,00 %
07.05.2026 22:25 10,9 °C 84 % 1016,6 hPa 0,0 l/m² 0,0 km/h (0 Bft) N 0 ° 0 min 0,000 mm 0,0 UV-I 0 W/m² 8,3 °C 10,9 °C 0,0 km/h (0 Bft) 100,00 %
07.05.2026 22:24 11,0 °C 84 % 1016,6 hPa 0,0 l/m² 0,0 km/h (0 Bft) N 0 ° 0 min 0,000 mm 0,0 UV-I 0 W/m² 8,4 °C 11,0 °C 0,0 km/h (0 Bft) 95,65 %
07.05.2026 22:23 11,1 °C 83 % 1016,6 hPa 0,0 l/m² 0,0 km/h (0 Bft) N 0 ° 0 min 0,000 mm 0,0 UV-I 0 W/m² 8,3 °C 11,1 °C 0,0 km/h (0 Bft) 100,00 %
07.05.2026 22:22 11,2 °C 83 % 1016,6 hPa 0,0 l/m² 0,0 km/h (0 Bft) N 0 ° 0 min 0,000 mm 0,0 UV-I 0 W/m² 8,4 °C 11,2 °C 0,0 km/h (0 Bft) 100,00 %
07.05.2026 22:21 11,2 °C 83 % 1016,6 hPa 0,0 l/m² 0,0 km/h (0 Bft) N 0 ° 0 min 0,000 mm 0,0 UV-I 0 W/m² 8,4 °C 11,2 °C 0,0 km/h (0 Bft) 100,00 %
07.05.2026 22:20 11,3 °C 83 % 1016,6 hPa 0,0 l/m² 0,0 km/h (0 Bft) N 0 ° 0 min 0,000 mm 0,0 UV-I 0 W/m² 8,5 °C 11,3 °C 0,0 km/h (0 Bft) 95,65 %
07.05.2026 22:19 11,4 °C 83 % 1016,6 hPa 0,0 l/m² 0,0 km/h (0 Bft) N 0 ° 0 min 0,000 mm 0,0 UV-I 0 W/m² 8,6 °C 11,4 °C 0,0 km/h (0 Bft) 100,00 %
07.05.2026 22:18 11,4 °C 83 % 1016,6 hPa 0,0 l/m² 0,0 km/h (0 Bft) N 0 ° 0 min 0,000 mm 0,0 UV-I 0 W/m² 8,6 °C 11,4 °C 0,0 km/h (0 Bft) 95,65 %
07.05.2026 22:17 11,5 °C 83 % 1016,5 hPa 0,0 l/m² 0,0 km/h (0 Bft) N 0 ° 0 min 0,000 mm 0,0 UV-I 0 W/m² 8,7 °C 11,5 °C 0,0 km/h (0 Bft) 95,65 %
07.05.2026 22:16 11,6 °C 83 % 1016,5 hPa 0,0 l/m² 0,0 km/h (0 Bft) N 0 ° 0 min 0,000 mm 0,0 UV-I 0 W/m² 8,8 °C 11,6 °C 0,0 km/h (0 Bft) 95,65 %
07.05.2026 22:15 11,6 °C 83 % 1016,5 hPa 0,0 l/m² 0,0 km/h (0 Bft) N 0 ° 0 min 0,000 mm 0,0 UV-I 0 W/m² 8,8 °C 11,6 °C 0,0 km/h (0 Bft) 100,00 %
07.05.2026 22:14 11,7 °C 83 % 1016,5 hPa 0,0 l/m² 0,0 km/h (0 Bft) N 0 ° 0 min 0,000 mm 0,0 UV-I 0 W/m² 8,9 °C 11,7 °C 0,0 km/h (0 Bft) 100,00 %
07.05.2026 22:13 11,7 °C 83 % 1016,5 hPa 0,0 l/m² 0,0 km/h (0 Bft) N 0 ° 0 min 0,000 mm 0,0 UV-I 0 W/m² 8,9 °C 11,7 °C 0,0 km/h (0 Bft) 95,65 %
07.05.2026 22:12 11,7 °C 83 % 1016,5 hPa 0,0 l/m² 0,0 km/h (0 Bft) N 0 ° 0 min 0,000 mm 0,0 UV-I 0 W/m² 8,9 °C 11,7 °C 0,0 km/h (0 Bft) 100,00 %
07.05.2026 22:11 11,8 °C 83 % 1016,5 hPa 0,0 l/m² 0,0 km/h (0 Bft) W 270 ° 0 min 0,000 mm 0,0 UV-I 0 W/m² 9,0 °C 11,8 °C 1,6 km/h (1 Bft) 95,65 %
07.05.2026 22:10 11,8 °C 83 % 1016,4 hPa 0,0 l/m² 0,0 km/h (0 Bft) W 270 ° 0 min 0,000 mm 0,0 UV-I 0 W/m² 9,0 °C 11,8 °C 1,6 km/h (1 Bft) 95,65 %
07.05.2026 22:09 11,9 °C 83 % 1016,4 hPa 0,0 l/m² 0,0 km/h (0 Bft) N 0 ° 0 min 0,000 mm 0,0 UV-I 0 W/m² 9,1 °C 11,9 °C 0,0 km/h (0 Bft) 100,00 %
07.05.2026 22:08 11,9 °C 83 % 1016,4 hPa 0,0 l/m² 1,6 km/h (1 Bft) W 270 ° 0 min 0,000 mm 0,0 UV-I 0 W/m² 9,1 °C 11,9 °C 3,2 km/h (1 Bft) 100,00 %
07.05.2026 22:07 11,9 °C 82 % 1016,4 hPa 0,0 l/m² 1,6 km/h (1 Bft) W 270 ° 0 min 0,000 mm 0,0 UV-I 0 W/m² 8,9 °C 11,9 °C 3,2 km/h (1 Bft) 95,65 %
07.05.2026 22:06 11,9 °C 82 % 1016,3 hPa 0,0 l/m² 1,6 km/h (1 Bft) W 270 ° 0 min 0,000 mm 0,0 UV-I 0 W/m² 8,9 °C 11,9 °C 3,2 km/h (1 Bft) 100,00 %
07.05.2026 22:05 12,0 °C 82 % 1016,4 hPa 0,0 l/m² 0,0 km/h (0 Bft) W 270 ° 0 min 0,000 mm 0,0 UV-I 0 W/m² 9,0 °C 12,0 °C 1,6 km/h (1 Bft) 95,65 %
07.05.2026 22:04 12,0 °C 82 % 1016,4 hPa 0,0 l/m² 0,0 km/h (0 Bft) N 0 ° 0 min 0,000 mm 0,0 UV-I 0 W/m² 9,0 °C 12,0 °C 0,0 km/h (0 Bft) 100,00 %
07.05.2026 22:03 12,0 °C 82 % 1016,4 hPa 0,0 l/m² 0,0 km/h (0 Bft) N 0 ° 0 min 0,000 mm 0,0 UV-I 0 W/m² 9,0 °C 12,0 °C 0,0 km/h (0 Bft) 95,65 %
07.05.2026 22:02 12,0 °C 82 % 1016,4 hPa 0,0 l/m² 0,0 km/h (0 Bft) N 0 ° 0 min 0,000 mm 0,0 UV-I 0 W/m² 9,0 °C 12,0 °C 0,0 km/h (0 Bft) 100,00 %
07.05.2026 22:01 12,1 °C 82 % 1016,4 hPa 0,0 l/m² 0,0 km/h (0 Bft) N 0 ° 0 min 0,000 mm 0,0 UV-I 0 W/m² 9,1 °C 12,1 °C 0,0 km/h (0 Bft) 95,65 %
07.05.2026 22:00 12,1 °C 82 % 1016,3 hPa 0,0 l/m² 0,0 km/h (0 Bft) N 0 ° 0 min 0,025 mm 0,0 UV-I 0 W/m² 9,1 °C 12,1 °C 0,0 km/h (0 Bft) 100,00 %
07.05.2026 21:59 12,1 °C 82 % 1016,3 hPa 0,0 l/m² 0,0 km/h (0 Bft) N 0 ° 0 min 0,000 mm 0,0 UV-I 0 W/m² 9,1 °C 12,1 °C 0,0 km/h (0 Bft) 91,30 %
07.05.2026 21:58 12,1 °C 82 % 1016,3 hPa 0,0 l/m² 0,0 km/h (0 Bft) N 0 ° 0 min 0,000 mm 0,0 UV-I 0 W/m² 9,1 °C 12,1 °C 0,0 km/h (0 Bft) 95,65 %
07.05.2026 21:57 12,1 °C 81 % 1016,3 hPa 0,0 l/m² 0,0 km/h (0 Bft) W 270 ° 0 min 0,000 mm 0,0 UV-I 0 W/m² 8,9 °C 12,1 °C 1,6 km/h (1 Bft) 100,00 %
07.05.2026 21:56 12,0 °C 81 % 1016,3 hPa 0,0 l/m² 0,0 km/h (0 Bft) N 0 ° 0 min 0,000 mm 0,0 UV-I 0 W/m² 8,8 °C 12,0 °C 0,0 km/h (0 Bft) 95,65 %
07.05.2026 21:55 12,1 °C 81 % 1016,3 hPa 0,0 l/m² 0,0 km/h (0 Bft) W 270 ° 0 min 0,000 mm 0,0 UV-I 0 W/m² 8,9 °C 12,1 °C 1,6 km/h (1 Bft) 100,00 %
07.05.2026 21:54 12,0 °C 81 % 1016,3 hPa 0,0 l/m² 0,0 km/h (0 Bft) N 0 ° 0 min 0,000 mm 0,0 UV-I 0 W/m² 8,8 °C 12,0 °C 0,0 km/h (0 Bft) 100,00 %
07.05.2026 21:53 12,0 °C 81 % 1016,2 hPa 0,0 l/m² 0,0 km/h (0 Bft) W 270 ° 0 min 0,000 mm 0,0 UV-I 0 W/m² 8,8 °C 12,0 °C 1,6 km/h (1 Bft) 100,00 %
07.05.2026 21:52 12,1 °C 80 % 1016,2 hPa 0,0 l/m² 0,0 km/h (0 Bft) N 0 ° 0 min 0,000 mm 0,0 UV-I 0 W/m² 8,8 °C 12,1 °C 0,0 km/h (0 Bft) 100,00 %
07.05.2026 21:51 12,1 °C 80 % 1016,2 hPa 0,0 l/m² 0,0 km/h (0 Bft) N 0 ° 0 min 0,000 mm 0,0 UV-I 0 W/m² 8,8 °C 12,1 °C 0,0 km/h (0 Bft) 100,00 %
07.05.2026 21:50 12,1 °C 80 % 1016,2 hPa 0,0 l/m² 0,0 km/h (0 Bft) W 270 ° 0 min 0,000 mm 0,0 UV-I 0 W/m² 8,8 °C 12,1 °C 1,6 km/h (1 Bft) 100,00 %
07.05.2026 21:49 12,2 °C 80 % 1016,2 hPa 0,0 l/m² 0,0 km/h (0 Bft) W 270 ° 0 min 0,000 mm 0,0 UV-I 0 W/m² 8,9 °C 12,2 °C 1,6 km/h (1 Bft) 95,65 %
07.05.2026 21:48 12,2 °C 79 % 1016,1 hPa 0,0 l/m² 0,0 km/h (0 Bft) N 0 ° 0 min 0,000 mm 0,0 UV-I 0 W/m² 8,7 °C 12,2 °C 0,0 km/h (0 Bft) 100,00 %
07.05.2026 21:47 12,3 °C 79 % 1016,1 hPa 0,0 l/m² 0,0 km/h (0 Bft) N 0 ° 0 min 0,000 mm 0,0 UV-I 0 W/m² 8,8 °C 12,3 °C 0,0 km/h (0 Bft) 100,00 %
07.05.2026 21:46 12,4 °C 79 % 1016,1 hPa 0,0 l/m² 0,0 km/h (0 Bft) N 0 ° 0 min 0,000 mm 0,0 UV-I 0 W/m² 8,9 °C 12,4 °C 0,0 km/h (0 Bft) 100,00 %
07.05.2026 21:45 12,4 °C 78 % 1016,1 hPa 0,0 l/m² 0,0 km/h (0 Bft) N 0 ° 0 min 0,000 mm 0,0 UV-I 0 W/m² 8,7 °C 12,4 °C 0,0 km/h (0 Bft) 100,00 %
07.05.2026 21:44 12,6 °C 78 % 1016,1 hPa 0,0 l/m² 0,0 km/h (0 Bft) W 270 ° 0 min 0,000 mm 0,0 UV-I 0 W/m² 8,9 °C 12,6 °C 1,6 km/h (1 Bft) 100,00 %
07.05.2026 21:43 12,6 °C 78 % 1016,1 hPa 0,0 l/m² 0,0 km/h (0 Bft) N 0 ° 0 min 0,000 mm 0,0 UV-I 0 W/m² 8,9 °C 12,6 °C 0,0 km/h (0 Bft) 100,00 %
07.05.2026 21:42 12,7 °C 78 % 1016,0 hPa 0,0 l/m² 0,0 km/h (0 Bft) N 0 ° 0 min 0,000 mm 0,0 UV-I 0 W/m² 9,0 °C 12,7 °C 0,0 km/h (0 Bft) 95,65 %
07.05.2026 21:41 12,7 °C 78 % 1016,1 hPa 0,0 l/m² 0,0 km/h (0 Bft) N 0 ° 0 min 0,000 mm 0,0 UV-I 0 W/m² 9,0 °C 12,7 °C 0,0 km/h (0 Bft) 100,00 %
07.05.2026 21:40 12,8 °C 78 % 1016,1 hPa 0,0 l/m² 0,0 km/h (0 Bft) W 270 ° 0 min 0,000 mm 0,0 UV-I 0 W/m² 9,1 °C 12,8 °C 1,6 km/h (1 Bft) 95,65 %
07.05.2026 21:39 12,8 °C 78 % 1016,0 hPa 0,0 l/m² 0,0 km/h (0 Bft) W 270 ° 0 min 0,000 mm 0,0 UV-I 0 W/m² 9,1 °C 12,8 °C 1,6 km/h (1 Bft) 100,00 %
07.05.2026 21:38 12,9 °C 77 % 1016,1 hPa 0,0 l/m² 0,0 km/h (0 Bft) W 270 ° 0 min 0,000 mm 0,0 UV-I 0 W/m² 9,0 °C 12,9 °C 1,6 km/h (1 Bft) 100,00 %
07.05.2026 21:37 13,0 °C 77 % 1015,9 hPa 0,0 l/m² 0,0 km/h (0 Bft) N 0 ° 0 min 0,000 mm 0,0 UV-I 0 W/m² 9,1 °C 13,0 °C 0,0 km/h (0 Bft) 100,00 %
07.05.2026 21:36 13,1 °C 77 % 1015,9 hPa 0,0 l/m² 0,0 km/h (0 Bft) W 270 ° 0 min 0,000 mm 0,0 UV-I 0 W/m² 9,2 °C 13,1 °C 1,6 km/h (1 Bft) 100,00 %
07.05.2026 21:35 13,1 °C 77 % 1016,0 hPa 0,0 l/m² 0,0 km/h (0 Bft) W 270 ° 0 min 0,000 mm 0,0 UV-I 0 W/m² 9,2 °C 13,1 °C 1,6 km/h (1 Bft) 95,65 %
07.05.2026 21:34 13,2 °C 77 % 1016,0 hPa 0,0 l/m² 0,0 km/h (0 Bft) W 270 ° 0 min 0,000 mm 0,0 UV-I 0 W/m² 9,3 °C 13,2 °C 1,6 km/h (1 Bft) 100,00 %
07.05.2026 21:33 13,2 °C 77 % 1015,9 hPa 0,0 l/m² 1,6 km/h (1 Bft) W 270 ° 0 min 0,000 mm 0,0 UV-I 0 W/m² 9,3 °C 13,2 °C 3,2 km/h (1 Bft) 100,00 %
07.05.2026 21:32 13,2 °C 77 % 1016,0 hPa 0,0 l/m² 1,6 km/h (1 Bft) W 270 ° 0 min 0,000 mm 0,0 UV-I 0 W/m² 9,3 °C 13,2 °C 3,2 km/h (1 Bft) 91,30 %
07.05.2026 21:31 13,2 °C 77 % 1015,9 hPa 0,0 l/m² 1,6 km/h (1 Bft) W 270 ° 0 min 0,000 mm 0,0 UV-I 0 W/m² 9,3 °C 13,2 °C 1,6 km/h (1 Bft) 100,00 %
07.05.2026 21:30 13,2 °C 77 % 1015,9 hPa 0,0 l/m² 3,2 km/h (1 Bft) W 270 ° 0 min 0,000 mm 0,0 UV-I 0 W/m² 9,3 °C 13,2 °C 4,8 km/h (1 Bft) 100,00 %
07.05.2026 21:29 13,2 °C 77 % 1015,9 hPa 0,0 l/m² 1,6 km/h (1 Bft) W 270 ° 0 min 0,000 mm 0,0 UV-I 0 W/m² 9,3 °C 13,2 °C 3,2 km/h (1 Bft) 100,00 %
07.05.2026 21:28 13,2 °C 77 % 1015,9 hPa 0,0 l/m² 1,6 km/h (1 Bft) W 270 ° 0 min 0,000 mm 0,0 UV-I 0 W/m² 9,3 °C 13,2 °C 1,6 km/h (1 Bft) 91,30 %
07.05.2026 21:27 13,2 °C 77 % 1015,9 hPa 0,0 l/m² 1,6 km/h (1 Bft) W 270 ° 0 min 0,000 mm 0,0 UV-I 0 W/m² 9,3 °C 13,2 °C 3,2 km/h (1 Bft) 100,00 %
07.05.2026 21:26 13,2 °C 77 % 1015,9 hPa 0,0 l/m² 1,6 km/h (1 Bft) W 270 ° 0 min 0,000 mm 0,0 UV-I 0 W/m² 9,3 °C 13,2 °C 3,2 km/h (1 Bft) 95,65 %
07.05.2026 21:25 13,2 °C 77 % 1015,9 hPa 0,0 l/m² 1,6 km/h (1 Bft) W 270 ° 0 min 0,000 mm 0,0 UV-I 0 W/m² 9,3 °C 13,2 °C 1,6 km/h (1 Bft) 95,65 %
07.05.2026 21:24 13,2 °C 78 % 1015,9 hPa 0,0 l/m² 1,6 km/h (1 Bft) W 270 ° 0 min 0,000 mm 0,0 UV-I 0 W/m² 9,4 °C 13,2 °C 3,2 km/h (1 Bft) 100,00 %
07.05.2026 21:23 13,2 °C 78 % 1015,9 hPa 0,0 l/m² 1,6 km/h (1 Bft) W 270 ° 0 min 0,000 mm 0,0 UV-I 0 W/m² 9,4 °C 13,2 °C 3,2 km/h (1 Bft) 100,00 %
07.05.2026 21:22 13,1 °C 79 % 1015,9 hPa 0,0 l/m² 0,0 km/h (0 Bft) W 270 ° 0 min 0,000 mm 0,0 UV-I 0 W/m² 9,5 °C 13,1 °C 1,6 km/h (1 Bft) 95,65 %
07.05.2026 21:21 13,1 °C 79 % 1015,8 hPa 0,0 l/m² 1,6 km/h (1 Bft) W 270 ° 0 min 0,000 mm 0,0 UV-I 0 W/m² 9,5 °C 13,1 °C 3,2 km/h (1 Bft) 95,65 %
07.05.2026 21:20 13,0 °C 79 % 1015,8 hPa 0,0 l/m² 1,6 km/h (1 Bft) W 270 ° 0 min 0,000 mm 0,0 UV-I 0 W/m² 9,4 °C 13,0 °C 3,2 km/h (1 Bft) 95,65 %
07.05.2026 21:19 13,0 °C 80 % 1015,9 hPa 0,0 l/m² 1,6 km/h (1 Bft) W 270 ° 0 min 0,000 mm 0,0 UV-I 0 W/m² 9,6 °C 13,0 °C 3,2 km/h (1 Bft) 100,00 %
07.05.2026 21:18 12,9 °C 80 % 1015,7 hPa 0,0 l/m² 1,6 km/h (1 Bft) W 270 ° 0 min 0,000 mm 0,0 UV-I 0 W/m² 9,5 °C 12,9 °C 3,2 km/h (1 Bft) 95,65 %
07.05.2026 21:17 12,8 °C 80 % 1015,8 hPa 0,0 l/m² 1,6 km/h (1 Bft) W 270 ° 0 min 0,000 mm 0,0 UV-I 0 W/m² 9,4 °C 12,8 °C 3,2 km/h (1 Bft) 100,00 %
07.05.2026 21:16 12,8 °C 80 % 1015,7 hPa 0,0 l/m² 0,0 km/h (0 Bft) W 270 ° 0 min 0,000 mm 0,0 UV-I 0 W/m² 9,4 °C 12,8 °C 3,2 km/h (1 Bft) 100,00 %
07.05.2026 21:15 12,7 °C 80 % 1015,8 hPa 0,0 l/m² 0,0 km/h (0 Bft) W 270 ° 0 min 0,000 mm 0,0 UV-I 0 W/m² 9,3 °C 12,7 °C 1,6 km/h (1 Bft) 95,65 %
07.05.2026 21:14 12,7 °C 80 % 1015,8 hPa 0,0 l/m² 0,0 km/h (0 Bft) N 0 ° 0 min 0,000 mm 0,0 UV-I 0 W/m² 9,3 °C 12,7 °C 0,0 km/h (0 Bft) 95,65 %
07.05.2026 21:13 12,8 °C 80 % 1015,7 hPa 0,0 l/m² 0,0 km/h (0 Bft) N 0 ° 0 min 0,000 mm 0,0 UV-I 0 W/m² 9,4 °C 12,8 °C 0,0 km/h (0 Bft) 100,00 %
07.05.2026 21:12 12,8 °C 80 % 1015,7 hPa 0,0 l/m² 0,0 km/h (0 Bft) N 0 ° 0 min 0,000 mm 0,0 UV-I 0 W/m² 9,4 °C 12,8 °C 0,0 km/h (0 Bft) 100,00 %
07.05.2026 21:11 12,9 °C 80 % 1015,7 hPa 0,0 l/m² 0,0 km/h (0 Bft) N 0 ° 0 min 0,000 mm 0,0 UV-I 0 W/m² 9,5 °C 12,9 °C 0,0 km/h (0 Bft) 100,00 %
07.05.2026 21:10 12,9 °C 80 % 1015,7 hPa 0,0 l/m² 0,0 km/h (0 Bft) N 0 ° 0 min 0,000 mm 0,0 UV-I 0 W/m² 9,5 °C 12,9 °C 0,0 km/h (0 Bft) 100,00 %
07.05.2026 21:09 12,9 °C 80 % 1015,7 hPa 0,0 l/m² 0,0 km/h (0 Bft) N 0 ° 0 min 0,000 mm 0,0 UV-I 0 W/m² 9,5 °C 12,9 °C 0,0 km/h (0 Bft) 95,65 %
07.05.2026 21:08 12,9 °C 80 % 1015,6 hPa 0,0 l/m² 0,0 km/h (0 Bft) N 0 ° 0 min 0,000 mm 0,0 UV-I 0 W/m² 9,5 °C 12,9 °C 0,0 km/h (0 Bft) 100,00 %
07.05.2026 21:07 12,9 °C 79 % 1015,7 hPa 0,0 l/m² 0,0 km/h (0 Bft) N 0 ° 0 min 0,000 mm 0,0 UV-I 0 W/m² 9,3 °C 12,9 °C 0,0 km/h (0 Bft) 95,65 %
07.05.2026 21:06 13,0 °C 79 % 1015,6 hPa 0,0 l/m² 0,0 km/h (0 Bft) W 270 ° 0 min 0,000 mm 0,0 UV-I 0 W/m² 9,4 °C 13,0 °C 1,6 km/h (1 Bft) 100,00 %
07.05.2026 21:05 13,1 °C 79 % 1015,6 hPa 0,0 l/m² 0,0 km/h (0 Bft) W 270 ° 0 min 0,000 mm 0,0 UV-I 0 W/m² 9,5 °C 13,1 °C 1,6 km/h (1 Bft) 95,65 %
07.05.2026 21:04 13,1 °C 78 % 1015,6 hPa 0,0 l/m² 0,0 km/h (0 Bft) N 0 ° 0 min 0,000 mm 0,0 UV-I 0 W/m² 9,4 °C 13,1 °C 0,0 km/h (0 Bft) 100,00 %
07.05.2026 21:03 13,3 °C 77 % 1015,6 hPa 0,0 l/m² 0,0 km/h (0 Bft) N 0 ° 0 min 0,000 mm 0,0 UV-I 0 W/m² 9,4 °C 13,3 °C 0,0 km/h (0 Bft) 100,00 %
07.05.2026 21:02 13,3 °C 77 % 1015,5 hPa 0,0 l/m² 1,6 km/h (1 Bft) W 270 ° 0 min 0,000 mm 0,0 UV-I 0 W/m² 9,4 °C 13,3 °C 1,6 km/h (1 Bft) 100,00 %
07.05.2026 21:01 13,5 °C 77 % 1015,6 hPa 0,0 l/m² 0,0 km/h (0 Bft) W 270 ° 0 min 0,000 mm 0,0 UV-I 0 W/m² 9,5 °C 13,5 °C 1,6 km/h (1 Bft) 100,00 %
07.05.2026 21:00 13,5 °C 78 % 1015,5 hPa 0,0 l/m² 0,0 km/h (0 Bft) N 0 ° 0 min 0,000 mm 0,0 UV-I 0 W/m² 9,7 °C 13,5 °C 0,0 km/h (0 Bft) 91,30 %
07.05.2026 20:59 13,6 °C 78 % 1015,5 hPa 0,0 l/m² 0,0 km/h (0 Bft) N 0 ° 0 min 0,000 mm 0,0 UV-I 0 W/m² 9,8 °C 13,6 °C 0,0 km/h (0 Bft) 100,00 %
07.05.2026 20:58 13,6 °C 78 % 1015,5 hPa 0,0 l/m² 0,0 km/h (0 Bft) N 0 ° 0 min 0,000 mm 0,0 UV-I 0 W/m² 9,8 °C 13,6 °C 0,0 km/h (0 Bft) 95,65 %
07.05.2026 20:57 13,6 °C 77 % 1015,5 hPa 0,0 l/m² 0,0 km/h (0 Bft) N 0 ° 0 min 0,000 mm 0,0 UV-I 0 W/m² 9,6 °C 13,6 °C 0,0 km/h (0 Bft) 100,00 %
07.05.2026 20:56 13,5 °C 77 % 1015,5 hPa 0,0 l/m² 0,0 km/h (0 Bft) N 0 ° 0 min 0,000 mm 0,0 UV-I 0 W/m² 9,5 °C 13,5 °C 0,0 km/h (0 Bft) 100,00 %
07.05.2026 20:55 13,6 °C 77 % 1015,5 hPa 0,0 l/m² 0,0 km/h (0 Bft) N 0 ° 0 min 0,000 mm 0,0 UV-I 0 W/m² 9,6 °C 13,6 °C 0,0 km/h (0 Bft) 100,00 %
07.05.2026 20:54 13,6 °C 77 % 1015,5 hPa 0,0 l/m² 0,0 km/h (0 Bft) N 0 ° 0 min 0,000 mm 0,0 UV-I 0 W/m² 9,6 °C 13,6 °C 0,0 km/h (0 Bft) 100,00 %
07.05.2026 20:53 13,6 °C 77 % 1015,4 hPa 0,0 l/m² 0,0 km/h (0 Bft) N 0 ° 0 min 0,000 mm 0,0 UV-I 0 W/m² 9,6 °C 13,6 °C 0,0 km/h (0 Bft) 95,65 %
07.05.2026 20:52 13,6 °C 78 % 1015,4 hPa 0,0 l/m² 0,0 km/h (0 Bft) N 0 ° 0 min 0,000 mm 0,0 UV-I 0 W/m² 9,8 °C 13,6 °C 0,0 km/h (0 Bft) 100,00 %
07.05.2026 20:51 13,5 °C 77 % 1015,4 hPa 0,0 l/m² 0,0 km/h (0 Bft) N 0 ° 0 min 0,000 mm 0,0 UV-I 0 W/m² 9,5 °C 13,5 °C 0,0 km/h (0 Bft) 100,00 %
07.05.2026 20:50 13,4 °C 77 % 1015,4 hPa 0,0 l/m² 0,0 km/h (0 Bft) N 0 ° 0 min 0,000 mm 0,0 UV-I 0 W/m² 9,5 °C 13,4 °C 0,0 km/h (0 Bft) 100,00 %
07.05.2026 20:49 13,4 °C 77 % 1015,5 hPa 0,0 l/m² 0,0 km/h (0 Bft) N 0 ° 0 min 0,000 mm 0,0 UV-I 0 W/m² 9,5 °C 13,4 °C 0,0 km/h (0 Bft) 95,65 %
07.05.2026 20:48 13,4 °C 77 % 1015,4 hPa 0,0 l/m² 0,0 km/h (0 Bft) N 0 ° 0 min 0,000 mm 0,0 UV-I 0 W/m² 9,5 °C 13,4 °C 0,0 km/h (0 Bft) 100,00 %
07.05.2026 20:47 13,4 °C 77 % 1015,4 hPa 0,0 l/m² 0,0 km/h (0 Bft) N 0 ° 0 min 0,000 mm 0,0 UV-I 0 W/m² 9,5 °C 13,4 °C 0,0 km/h (0 Bft) 100,00 %
07.05.2026 20:46 13,5 °C 77 % 1015,5 hPa 0,0 l/m² 0,0 km/h (0 Bft) N 0 ° 0 min 0,000 mm 0,0 UV-I 0 W/m² 9,5 °C 13,5 °C 0,0 km/h (0 Bft) 95,65 %
07.05.2026 20:45 13,6 °C 76 % 1015,5 hPa 0,0 l/m² 0,0 km/h (0 Bft) N 0 ° 0 min 0,000 mm 0,0 UV-I 0 W/m² 9,4 °C 13,6 °C 0,0 km/h (0 Bft) 100,00 %
07.05.2026 20:44 13,6 °C 76 % 1015,4 hPa 0,0 l/m² 0,0 km/h (0 Bft) W 270 ° 0 min 0,000 mm 0,0 UV-I 0 W/m² 9,4 °C 13,6 °C 1,6 km/h (1 Bft) 100,00 %
07.05.2026 20:43 13,7 °C 76 % 1015,4 hPa 0,0 l/m² 1,6 km/h (1 Bft) W 270 ° 0 min 0,000 mm 0,0 UV-I 0 W/m² 9,5 °C 13,7 °C 3,2 km/h (1 Bft) 95,65 %
07.05.2026 20:42 13,8 °C 76 % 1015,4 hPa 0,0 l/m² 0,0 km/h (0 Bft) W 270 ° 0 min 0,000 mm 0,0 UV-I 0 W/m² 9,6 °C 13,8 °C 1,6 km/h (1 Bft) 100,00 %
07.05.2026 20:41 13,9 °C 76 % 1015,4 hPa 0,0 l/m² 0,0 km/h (0 Bft) W 270 ° 0 min 0,000 mm 0,0 UV-I 0 W/m² 9,7 °C 13,9 °C 3,2 km/h (1 Bft) 100,00 %
07.05.2026 20:40 13,9 °C 75 % 1015,3 hPa 0,0 l/m² 0,0 km/h (0 Bft) W 270 ° 0 min 0,000 mm 0,0 UV-I 0 W/m² 9,5 °C 13,9 °C 1,6 km/h (1 Bft) 95,65 %
07.05.2026 20:39 13,9 °C 75 % 1015,3 hPa 0,0 l/m² 0,0 km/h (0 Bft) N 0 ° 0 min 0,000 mm 0,0 UV-I 0 W/m² 9,5 °C 13,9 °C 0,0 km/h (0 Bft) 95,65 %
07.05.2026 20:38 14,0 °C 75 % 1015,3 hPa 0,0 l/m² 0,0 km/h (0 Bft) N 0 ° 0 min 0,000 mm 0,0 UV-I 0 W/m² 9,6 °C 14,0 °C 0,0 km/h (0 Bft) 100,00 %
07.05.2026 20:37 14,1 °C 75 % 1015,3 hPa 0,0 l/m² 0,0 km/h (0 Bft) N 0 ° 0 min 0,000 mm 0,0 UV-I 0 W/m² 9,7 °C 14,1 °C 0,0 km/h (0 Bft) 100,00 %
07.05.2026 20:36 14,1 °C 75 % 1015,3 hPa 0,0 l/m² 0,0 km/h (0 Bft) N 0 ° 0 min 0,000 mm 0,0 UV-I 0 W/m² 9,7 °C 14,1 °C 0,0 km/h (0 Bft) 100,00 %
07.05.2026 20:35 14,2 °C 74 % 1015,3 hPa 0,0 l/m² 0,0 km/h (0 Bft) N 0 ° 0 min 0,000 mm 0,0 UV-I 0 W/m² 9,6 °C 14,2 °C 0,0 km/h (0 Bft) 95,65 %
07.05.2026 20:34 14,2 °C 74 % 1015,3 hPa 0,0 l/m² 1,6 km/h (1 Bft) W 270 ° 0 min 0,000 mm 0,0 UV-I 0 W/m² 9,6 °C 14,2 °C 1,6 km/h (1 Bft) 100,00 %
07.05.2026 20:33 14,3 °C 74 % 1015,2 hPa 0,0 l/m² 1,6 km/h (1 Bft) W 270 ° 0 min 0,000 mm 0,0 UV-I 0 W/m² 9,7 °C 14,3 °C 3,2 km/h (1 Bft) 95,65 %
07.05.2026 20:32 14,3 °C 74 % 1015,3 hPa 0,0 l/m² 1,6 km/h (1 Bft) W 270 ° 0 min 0,000 mm 0,0 UV-I 0 W/m² 9,7 °C 14,3 °C 3,2 km/h (1 Bft) 95,65 %
07.05.2026 20:31 14,3 °C 74 % 1015,2 hPa 0,0 l/m² 1,6 km/h (1 Bft) W 270 ° 0 min 0,000 mm 0,0 UV-I 0 W/m² 9,7 °C 14,3 °C 3,2 km/h (1 Bft) 100,00 %
07.05.2026 20:30 14,4 °C 74 % 1015,2 hPa 0,0 l/m² 1,6 km/h (1 Bft) W 270 ° 0 min 0,000 mm 0,0 UV-I 0 W/m² 9,8 °C 14,4 °C 3,2 km/h (1 Bft) 100,00 %
07.05.2026 20:29 14,4 °C 73 % 1015,2 hPa 0,0 l/m² 1,6 km/h (1 Bft) W 270 ° 0 min 0,000 mm 0,0 UV-I 0 W/m² 9,6 °C 14,4 °C 3,2 km/h (1 Bft) 100,00 %
07.05.2026 20:28 14,5 °C 73 % 1015,1 hPa 0,0 l/m² 1,6 km/h (1 Bft) W 270 ° 0 min 0,000 mm 0,0 UV-I 0 W/m² 9,7 °C 14,5 °C 3,2 km/h (1 Bft) 100,00 %
07.05.2026 20:27 14,6 °C 73 % 1015,2 hPa 0,0 l/m² 1,6 km/h (1 Bft) W 270 ° 0 min 0,000 mm 0,0 UV-I 0 W/m² 9,8 °C 14,6 °C 1,6 km/h (1 Bft) 95,65 %
07.05.2026 20:26 14,6 °C 73 % 1015,1 hPa 0,0 l/m² 1,6 km/h (1 Bft) W 270 ° 0 min 0,000 mm 0,0 UV-I 0 W/m² 9,8 °C 14,6 °C 3,2 km/h (1 Bft) 100,00 %
07.05.2026 20:25 14,6 °C 73 % 1015,2 hPa 0,0 l/m² 1,6 km/h (1 Bft) W 270 ° 0 min 0,000 mm 0,0 UV-I 0 W/m² 9,8 °C 14,6 °C 3,2 km/h (1 Bft) 95,65 %
07.05.2026 20:24 14,7 °C 73 % 1015,1 hPa 0,0 l/m² 0,0 km/h (0 Bft) W 270 ° 0 min 0,000 mm 0,0 UV-I 0 W/m² 9,9 °C 14,7 °C 1,6 km/h (1 Bft) 100,00 %
07.05.2026 20:23 14,7 °C 73 % 1015,2 hPa 0,0 l/m² 0,0 km/h (0 Bft) W 270 ° 0 min 0,000 mm 0,0 UV-I 0 W/m² 9,9 °C 14,7 °C 1,6 km/h (1 Bft) 100,00 %
07.05.2026 20:22 14,7 °C 73 % 1015,2 hPa 0,0 l/m² 1,6 km/h (1 Bft) W 270 ° 0 min 0,000 mm 0,0 UV-I 5 W/m² 9,9 °C 14,7 °C 3,2 km/h (1 Bft) 95,65 %
07.05.2026 20:21 14,8 °C 72 % 1015,2 hPa 0,0 l/m² 3,2 km/h (1 Bft) W 270 ° 0 min 0,000 mm 0,0 UV-I 5 W/m² 9,8 °C 14,8 °C 6,4 km/h (2 Bft) 100,00 %
07.05.2026 20:20 14,8 °C 72 % 1015,2 hPa 0,0 l/m² 1,6 km/h (1 Bft) W 270 ° 0 min 0,000 mm 0,0 UV-I 5 W/m² 9,8 °C 14,8 °C 3,2 km/h (1 Bft) 100,00 %
07.05.2026 20:19 14,8 °C 72 % 1015,2 hPa 0,0 l/m² 0,0 km/h (0 Bft) W 270 ° 0 min 0,000 mm 0,0 UV-I 5 W/m² 9,8 °C 14,8 °C 1,6 km/h (1 Bft) 100,00 %
07.05.2026 20:18 14,8 °C 72 % 1015,1 hPa 0,0 l/m² 1,6 km/h (1 Bft) W 270 ° 0 min 0,000 mm 0,0 UV-I 5 W/m² 9,8 °C 14,8 °C 3,2 km/h (1 Bft) 95,65 %
07.05.2026 20:17 14,9 °C 72 % 1015,2 hPa 0,0 l/m² 0,0 km/h (0 Bft) W 270 ° 0 min 0,000 mm 0,0 UV-I 5 W/m² 9,9 °C 14,9 °C 1,6 km/h (1 Bft) 100,00 %
07.05.2026 20:16 14,9 °C 72 % 1015,2 hPa 0,0 l/m² 1,6 km/h (1 Bft) W 270 ° 0 min 0,000 mm 0,0 UV-I 5 W/m² 9,9 °C 14,9 °C 3,2 km/h (1 Bft) 100,00 %
07.05.2026 20:15 15,0 °C 72 % 1015,1 hPa 0,0 l/m² 3,2 km/h (1 Bft) W 270 ° 0 min 0,000 mm 0,0 UV-I 5 W/m² 10,0 °C 15,0 °C 6,4 km/h (2 Bft) 100,00 %
07.05.2026 20:14 15,0 °C 72 % 1015,0 hPa 0,0 l/m² 4,8 km/h (1 Bft) W 270 ° 0 min 0,000 mm 0,0 UV-I 7 W/m² 10,0 °C 15,0 °C 9,7 km/h (2 Bft) 95,65 %
07.05.2026 20:13 15,1 °C 71 % 1015,0 hPa 0,0 l/m² 1,6 km/h (1 Bft) W 270 ° 0 min 0,000 mm 0,0 UV-I 7 W/m² 9,9 °C 15,1 °C 3,2 km/h (1 Bft) 100,00 %
07.05.2026 20:12 15,1 °C 71 % 1015,0 hPa 0,0 l/m² 3,2 km/h (1 Bft) W 270 ° 0 min 0,000 mm 0,0 UV-I 7 W/m² 9,9 °C 15,1 °C 4,8 km/h (1 Bft) 100,00 %
07.05.2026 20:11 15,1 °C 71 % 1015,0 hPa 0,0 l/m² 4,8 km/h (1 Bft) W 270 ° 0 min 0,000 mm 0,0 UV-I 7 W/m² 9,9 °C 15,1 °C 9,7 km/h (2 Bft) 95,65 %
07.05.2026 20:10 15,2 °C 71 % 1015,0 hPa 0,0 l/m² 4,8 km/h (1 Bft) W 270 ° 0 min 0,000 mm 0,0 UV-I 9 W/m² 10,0 °C 15,2 °C 9,7 km/h (2 Bft) 100,00 %
07.05.2026 20:09 15,2 °C 71 % 1015,0 hPa 0,0 l/m² 3,2 km/h (1 Bft) W-NW 292 ° 0 min 0,000 mm 0,0 UV-I 9 W/m² 10,0 °C 15,2 °C 4,8 km/h (1 Bft) 100,00 %
07.05.2026 20:08 15,3 °C 71 % 1015,0 hPa 0,0 l/m² 6,4 km/h (2 Bft) W-NW 292 ° 0 min 0,000 mm 0,0 UV-I 9 W/m² 10,1 °C 15,3 °C 11,3 km/h (2 Bft) 100,00 %
07.05.2026 20:07 15,3 °C 70 % 1015,0 hPa 0,0 l/m² 3,2 km/h (1 Bft) W-NW 292 ° 0 min 0,000 mm 0,0 UV-I 9 W/m² 9,9 °C 15,3 °C 8,0 km/h (2 Bft) 100,00 %
07.05.2026 20:06 15,3 °C 70 % 1015,0 hPa 0,0 l/m² 6,4 km/h (2 Bft) W-NW 292 ° 0 min 0,000 mm 0,0 UV-I 9 W/m² 9,9 °C 15,3 °C 11,3 km/h (2 Bft) 100,00 %
07.05.2026 20:05 15,3 °C 70 % 1015,0 hPa 0,0 l/m² 6,4 km/h (2 Bft) W-NW 292 ° 0 min 0,000 mm 0,0 UV-I 9 W/m² 9,9 °C 15,3 °C 11,3 km/h (2 Bft) 100,00 %
07.05.2026 20:04 15,4 °C 70 % 1014,9 hPa 0,0 l/m² 4,8 km/h (1 Bft) W-NW 292 ° 0 min 0,000 mm 0,0 UV-I 9 W/m² 10,0 °C 15,4 °C 6,4 km/h (2 Bft) 95,65 %
07.05.2026 20:03 15,4 °C 70 % 1015,0 hPa 0,0 l/m² 4,8 km/h (1 Bft) W-NW 292 ° 0 min 0,000 mm 0,0 UV-I 11 W/m² 10,0 °C 15,4 °C 6,4 km/h (2 Bft) 95,65 %
07.05.2026 20:02 15,4 °C 70 % 1015,0 hPa 0,0 l/m² 4,8 km/h (1 Bft) W-NW 292 ° 0 min 0,000 mm 0,0 UV-I 11 W/m² 10,0 °C 15,4 °C 9,7 km/h (2 Bft) 100,00 %
07.05.2026 20:01 15,5 °C 70 % 1015,0 hPa 0,0 l/m² 3,2 km/h (1 Bft) W 270 ° 0 min 0,000 mm 0,0 UV-I 12 W/m² 10,1 °C 15,5 °C 4,8 km/h (1 Bft) 95,65 %
07.05.2026 20:00 15,5 °C 70 % 1015,0 hPa 0,0 l/m² 4,8 km/h (1 Bft) W 270 ° 0 min 0,051 mm 0,0 UV-I 12 W/m² 10,1 °C 15,5 °C 6,4 km/h (2 Bft) 100,00 %
07.05.2026 19:59 15,6 °C 70 % 1015,0 hPa 0,0 l/m² 3,2 km/h (1 Bft) W-NW 292 ° 0 min 0,000 mm 0,0 UV-I 14 W/m² 10,1 °C 15,6 °C 4,8 km/h (1 Bft) 95,65 %
07.05.2026 19:58 15,6 °C 70 % 1014,9 hPa 0,0 l/m² 3,2 km/h (1 Bft) W 270 ° 0 min 0,000 mm 0,0 UV-I 18 W/m² 10,1 °C 15,6 °C 8,0 km/h (2 Bft) 100,00 %
07.05.2026 19:57 15,6 °C 70 % 1014,9 hPa 0,0 l/m² 1,6 km/h (1 Bft) W 270 ° 0 min 0,000 mm 0,0 UV-I 23 W/m² 10,1 °C 15,6 °C 3,2 km/h (1 Bft) 95,65 %
07.05.2026 19:56 15,7 °C 71 % 1014,9 hPa 0,0 l/m² 3,2 km/h (1 Bft) W 270 ° 0 min 0,000 mm 0,0 UV-I 23 W/m² 10,5 °C 15,7 °C 3,2 km/h (1 Bft) 100,00 %
07.05.2026 19:55 15,7 °C 70 % 1014,9 hPa 0,0 l/m² 6,4 km/h (2 Bft) W 270 ° 0 min 0,000 mm 0,0 UV-I 21 W/m² 10,2 °C 15,7 °C 11,3 km/h (2 Bft) 100,00 %
07.05.2026 19:54 15,7 °C 70 % 1014,9 hPa 0,0 l/m² 4,8 km/h (1 Bft) W 270 ° 0 min 0,000 mm 0,0 UV-I 23 W/m² 10,2 °C 15,7 °C 6,4 km/h (2 Bft) 100,00 %
07.05.2026 19:53 15,7 °C 70 % 1014,9 hPa 0,0 l/m² 4,8 km/h (1 Bft) W-SW 247 ° 0 min 0,000 mm 0,0 UV-I 26 W/m² 10,2 °C 15,7 °C 6,4 km/h (2 Bft) 100,00 %
07.05.2026 19:52 15,8 °C 71 % 1014,8 hPa 0,0 l/m² 3,2 km/h (1 Bft) SW 225 ° 0 min 0,000 mm 0,0 UV-I 30 W/m² 10,6 °C 15,8 °C 4,8 km/h (1 Bft) 100,00 %
07.05.2026 19:51 15,8 °C 71 % 1014,8 hPa 0,0 l/m² 1,6 km/h (1 Bft) W-SW 247 ° 0 min 0,000 mm 0,0 UV-I 30 W/m² 10,6 °C 15,8 °C 3,2 km/h (1 Bft) 100,00 %
07.05.2026 19:50 15,9 °C 71 % 1014,9 hPa 0,0 l/m² 1,6 km/h (1 Bft) W-SW 247 ° 0 min 0,000 mm 0,0 UV-I 28 W/m² 10,6 °C 15,9 °C 6,4 km/h (2 Bft) 95,65 %
07.05.2026 19:49 15,9 °C 70 % 1014,7 hPa 0,0 l/m² 3,2 km/h (1 Bft) W-SW 247 ° 0 min 0,000 mm 0,0 UV-I 30 W/m² 10,4 °C 15,9 °C 6,4 km/h (2 Bft) 100,00 %
07.05.2026 19:48 15,9 °C 71 % 1014,8 hPa 0,0 l/m² 3,2 km/h (1 Bft) S-SW 202 ° 0 min 0,000 mm 0,0 UV-I 32 W/m² 10,6 °C 15,9 °C 6,4 km/h (2 Bft) 100,00 %
07.05.2026 19:47 15,9 °C 71 % 1014,7 hPa 0,0 l/m² 0,0 km/h (0 Bft) S-SW 202 ° 0 min 0,000 mm 0,0 UV-I 33 W/m² 10,6 °C 15,9 °C 3,2 km/h (1 Bft) 100,00 %
07.05.2026 19:46 15,9 °C 70 % 1014,7 hPa 0,0 l/m² 3,2 km/h (1 Bft) SW 225 ° 0 min 0,000 mm 0,0 UV-I 40 W/m² 10,4 °C 15,9 °C 4,8 km/h (1 Bft) 100,00 %
07.05.2026 19:45 16,1 °C 70 % 1014,7 hPa 0,0 l/m² 3,2 km/h (1 Bft) W-SW 247 ° 0 min 0,000 mm 0,0 UV-I 46 W/m² 10,6 °C 16,1 °C 4,8 km/h (1 Bft) 100,00 %
07.05.2026 19:44 16,1 °C 70 % 1014,7 hPa 0,0 l/m² 3,2 km/h (1 Bft) W-SW 247 ° 0 min 0,000 mm 0,0 UV-I 49 W/m² 10,6 °C 16,1 °C 6,4 km/h (2 Bft) 100,00 %
07.05.2026 19:43 16,2 °C 70 % 1014,7 hPa 0,0 l/m² 4,8 km/h (1 Bft) W 270 ° 0 min 0,000 mm 0,0 UV-I 58 W/m² 10,7 °C 16,2 °C 9,7 km/h (2 Bft) 95,65 %
07.05.2026 19:42 16,2 °C 70 % 1014,6 hPa 0,0 l/m² 4,8 km/h (1 Bft) W 270 ° 0 min 0,000 mm 0,0 UV-I 67 W/m² 10,7 °C 16,2 °C 11,3 km/h (2 Bft) 100,00 %
07.05.2026 19:41 16,2 °C 71 % 1014,6 hPa 0,0 l/m² 3,2 km/h (1 Bft) W 270 ° 0 min 0,000 mm 0,0 UV-I 72 W/m² 10,9 °C 16,2 °C 4,8 km/h (1 Bft) 100,00 %
07.05.2026 19:40 16,3 °C 70 % 1014,7 hPa 0,0 l/m² 1,6 km/h (1 Bft) S-SW 202 ° 0 min 0,000 mm 0,0 UV-I 74 W/m² 10,8 °C 16,3 °C 3,2 km/h (1 Bft) 95,65 %
07.05.2026 19:39 16,3 °C 70 % 1014,6 hPa 0,0 l/m² 1,6 km/h (1 Bft) SW 225 ° 0 min 0,000 mm 0,0 UV-I 72 W/m² 10,8 °C 16,3 °C 3,2 km/h (1 Bft) 95,65 %
07.05.2026 19:38 16,3 °C 70 % 1014,5 hPa 0,0 l/m² 0,0 km/h (0 Bft) SW 225 ° 0 min 0,000 mm 0,0 UV-I 72 W/m² 10,8 °C 16,3 °C 3,2 km/h (1 Bft) 95,65 %
07.05.2026 19:37 16,3 °C 70 % 1014,5 hPa 0,0 l/m² 3,2 km/h (1 Bft) SW 225 ° 0 min 0,000 mm 0,0 UV-I 74 W/m² 10,8 °C 16,3 °C 4,8 km/h (1 Bft) 100,00 %
07.05.2026 19:36 16,3 °C 70 % 1014,5 hPa 0,0 l/m² 3,2 km/h (1 Bft) SW 225 ° 0 min 0,000 mm 0,0 UV-I 83 W/m² 10,8 °C 16,3 °C 6,4 km/h (2 Bft) 95,65 %
07.05.2026 19:35 16,3 °C 70 % 1014,5 hPa 0,0 l/m² 1,6 km/h (1 Bft) W-SW 247 ° 0 min 0,000 mm 0,0 UV-I 91 W/m² 10,8 °C 16,3 °C 3,2 km/h (1 Bft) 100,00 %
07.05.2026 19:34 16,3 °C 70 % 1014,5 hPa 0,0 l/m² 1,6 km/h (1 Bft) W-SW 247 ° 0 min 0,000 mm 0,0 UV-I 104 W/m² 10,8 °C 16,3 °C 3,2 km/h (1 Bft) 100,00 %
07.05.2026 19:33 16,3 °C 70 % 1014,5 hPa 0,0 l/m² 1,6 km/h (1 Bft) W-SW 247 ° 0 min 0,000 mm 0,0 UV-I 100 W/m² 10,8 °C 16,3 °C 3,2 km/h (1 Bft) 95,65 %
07.05.2026 19:32 16,3 °C 69 % 1014,5 hPa 0,0 l/m² 0,0 km/h (0 Bft) W 270 ° 0 min 0,000 mm 0,0 UV-I 84 W/m² 10,6 °C 16,3 °C 1,6 km/h (1 Bft) 100,00 %
07.05.2026 19:31 16,4 °C 69 % 1014,6 hPa 0,0 l/m² 1,6 km/h (1 Bft) W 270 ° 0 min 0,000 mm 0,0 UV-I 83 W/m² 10,7 °C 16,4 °C 3,2 km/h (1 Bft) 95,65 %
07.05.2026 19:30 16,4 °C 69 % 1014,5 hPa 0,0 l/m² 3,2 km/h (1 Bft) W 270 ° 0 min 0,000 mm 0,0 UV-I 83 W/m² 10,7 °C 16,4 °C 4,8 km/h (1 Bft) 95,65 %
07.05.2026 19:29 16,4 °C 69 % 1014,5 hPa 0,0 l/m² 3,2 km/h (1 Bft) W 270 ° 0 min 0,000 mm 0,0 UV-I 88 W/m² 10,7 °C 16,4 °C 4,8 km/h (1 Bft) 95,65 %
07.05.2026 19:28 16,4 °C 69 % 1014,5 hPa 0,0 l/m² 3,2 km/h (1 Bft) W-SW 247 ° 0 min 0,000 mm 0,0 UV-I 95 W/m² 10,7 °C 16,4 °C 6,4 km/h (2 Bft) 100,00 %
07.05.2026 19:27 16,4 °C 69 % 1014,5 hPa 0,0 l/m² 3,2 km/h (1 Bft) W-SW 247 ° 0 min 0,000 mm 0,0 UV-I 97 W/m² 10,7 °C 16,4 °C 4,8 km/h (1 Bft) 95,65 %
07.05.2026 19:26 16,4 °C 69 % 1014,4 hPa 0,0 l/m² 1,6 km/h (1 Bft) W-SW 247 ° 0 min 0,000 mm 0,0 UV-I 98 W/m² 10,7 °C 16,4 °C 3,2 km/h (1 Bft) 100,00 %
07.05.2026 19:25 16,3 °C 69 % 1014,4 hPa 0,0 l/m² 1,6 km/h (1 Bft) W-SW 247 ° 0 min 0,000 mm 0,0 UV-I 97 W/m² 10,6 °C 16,3 °C 3,2 km/h (1 Bft) 100,00 %
07.05.2026 19:24 16,3 °C 69 % 1014,4 hPa 0,0 l/m² 3,2 km/h (1 Bft) W-SW 247 ° 0 min 0,000 mm 0,0 UV-I 97 W/m² 10,6 °C 16,3 °C 4,8 km/h (1 Bft) 95,65 %
07.05.2026 19:23 16,3 °C 69 % 1014,4 hPa 0,0 l/m² 1,6 km/h (1 Bft) W-SW 247 ° 0 min 0,000 mm 0,0 UV-I 100 W/m² 10,6 °C 16,3 °C 3,2 km/h (1 Bft) 100,00 %
07.05.2026 19:22 16,3 °C 68 % 1014,4 hPa 0,0 l/m² 3,2 km/h (1 Bft) W-SW 247 ° 0 min 0,000 mm 0,0 UV-I 81 W/m² 10,4 °C 16,3 °C 4,8 km/h (1 Bft) 95,65 %
07.05.2026 19:21 16,3 °C 69 % 1014,4 hPa 0,0 l/m² 3,2 km/h (1 Bft) W-SW 247 ° 0 min 0,000 mm 0,0 UV-I 77 W/m² 10,6 °C 16,3 °C 6,4 km/h (2 Bft) 100,00 %
07.05.2026 19:20 16,4 °C 68 % 1014,4 hPa 0,0 l/m² 3,2 km/h (1 Bft) W 270 ° 0 min 0,000 mm 0,0 UV-I 86 W/m² 10,5 °C 16,4 °C 6,4 km/h (2 Bft) 100,00 %
07.05.2026 19:19 16,4 °C 68 % 1014,4 hPa 0,0 l/m² 3,2 km/h (1 Bft) W 270 ° 0 min 0,000 mm 0,0 UV-I 74 W/m² 10,5 °C 16,4 °C 4,8 km/h (1 Bft) 100,00 %
07.05.2026 19:18 16,4 °C 68 % 1014,3 hPa 0,0 l/m² 1,6 km/h (1 Bft) W 270 ° 0 min 0,000 mm 0,0 UV-I 74 W/m² 10,5 °C 16,4 °C 4,8 km/h (1 Bft) 100,00 %
07.05.2026 19:17 16,3 °C 69 % 1014,3 hPa 0,0 l/m² 0,0 km/h (0 Bft) W 270 ° 0 min 0,000 mm 0,0 UV-I 74 W/m² 10,6 °C 16,3 °C 1,6 km/h (1 Bft) 100,00 %
07.05.2026 19:16 16,3 °C 68 % 1014,3 hPa 0,0 l/m² 1,6 km/h (1 Bft) W 270 ° 0 min 0,000 mm 0,0 UV-I 74 W/m² 10,4 °C 16,3 °C 3,2 km/h (1 Bft) 95,65 %
07.05.2026 19:15 16,3 °C 68 % 1014,3 hPa 0,0 l/m² 3,2 km/h (1 Bft) W 270 ° 0 min 0,000 mm 0,0 UV-I 74 W/m² 10,4 °C 16,3 °C 6,4 km/h (2 Bft) 95,65 %
07.05.2026 19:14 16,4 °C 68 % 1014,3 hPa 0,0 l/m² 1,6 km/h (1 Bft) W-SW 247 ° 0 min 0,000 mm 0,0 UV-I 77 W/m² 10,5 °C 16,4 °C 6,4 km/h (2 Bft) 95,65 %
07.05.2026 19:13 16,4 °C 68 % 1014,3 hPa 0,0 l/m² 1,6 km/h (1 Bft) SW 225 ° 0 min 0,000 mm 0,0 UV-I 83 W/m² 10,5 °C 16,4 °C 4,8 km/h (1 Bft) 100,00 %
07.05.2026 19:12 16,4 °C 68 % 1014,3 hPa 0,0 l/m² 0,0 km/h (0 Bft) SW 225 ° 0 min 0,000 mm 0,0 UV-I 84 W/m² 10,5 °C 16,4 °C 3,2 km/h (1 Bft) 95,65 %
07.05.2026 19:11 16,4 °C 68 % 1014,3 hPa 0,0 l/m² 0,0 km/h (0 Bft) N 0 ° 0 min 0,000 mm 0,0 UV-I 86 W/m² 10,5 °C 16,4 °C 0,0 km/h (0 Bft) 100,00 %
07.05.2026 19:10 16,4 °C 68 % 1014,3 hPa 0,0 l/m² 0,0 km/h (0 Bft) S-SW 202 ° 0 min 0,000 mm 0,0 UV-I 91 W/m² 10,5 °C 16,4 °C 1,6 km/h (1 Bft) 100,00 %
07.05.2026 19:09 16,4 °C 68 % 1014,3 hPa 0,0 l/m² 0,0 km/h (0 Bft) S-SW 202 ° 0 min 0,000 mm 0,0 UV-I 95 W/m² 10,5 °C 16,4 °C 1,6 km/h (1 Bft) 100,00 %
07.05.2026 19:08 16,4 °C 67 % 1014,3 hPa 0,0 l/m² 0,0 km/h (0 Bft) S-SW 202 ° 0 min 0,000 mm 0,0 UV-I 97 W/m² 10,3 °C 16,4 °C 1,6 km/h (1 Bft) 91,30 %
07.05.2026 19:07 16,4 °C 68 % 1014,3 hPa 0,0 l/m² 0,0 km/h (0 Bft) S-SW 202 ° 0 min 0,000 mm 0,0 UV-I 97 W/m² 10,5 °C 16,4 °C 1,6 km/h (1 Bft) 95,65 %
07.05.2026 19:06 16,4 °C 68 % 1014,3 hPa 0,0 l/m² 0,0 km/h (0 Bft) S-SW 202 ° 0 min 0,000 mm 0,0 UV-I 97 W/m² 10,5 °C 16,4 °C 1,6 km/h (1 Bft) 100,00 %
07.05.2026 19:05 16,5 °C 68 % 1014,2 hPa 0,0 l/m² 1,6 km/h (1 Bft) S-SW 202 ° 0 min 0,000 mm 0,0 UV-I 98 W/m² 10,6 °C 16,5 °C 3,2 km/h (1 Bft) 100,00 %
07.05.2026 19:04 16,5 °C 67 % 1014,2 hPa 0,0 l/m² 1,6 km/h (1 Bft) S-SW 202 ° 0 min 0,000 mm 0,0 UV-I 98 W/m² 10,4 °C 16,5 °C 3,2 km/h (1 Bft) 100,00 %
07.05.2026 19:03 16,6 °C 67 % 1014,3 hPa 0,0 l/m² 1,6 km/h (1 Bft) S-SW 202 ° 0 min 0,000 mm 0,0 UV-I 100 W/m² 10,4 °C 16,6 °C 3,2 km/h (1 Bft) 100,00 %
07.05.2026 19:02 16,6 °C 68 % 1014,2 hPa 0,0 l/m² 0,0 km/h (0 Bft) N 0 ° 0 min 0,000 mm 0,0 UV-I 98 W/m² 10,7 °C 16,6 °C 0,0 km/h (0 Bft) 100,00 %
07.05.2026 19:01 16,6 °C 67 % 1014,2 hPa 0,0 l/m² 1,6 km/h (1 Bft) S-SW 202 ° 0 min 0,000 mm 0,0 UV-I 102 W/m² 10,4 °C 16,6 °C 3,2 km/h (1 Bft) 95,65 %
07.05.2026 19:00 16,7 °C 67 % 1014,2 hPa 0,0 l/m² 1,6 km/h (1 Bft) S-SW 202 ° 0 min 0,102 mm 0,0 UV-I 105 W/m² 10,5 °C 16,7 °C 4,8 km/h (1 Bft) 100,00 %
07.05.2026 18:59 16,8 °C 66 % 1014,2 hPa 0,0 l/m² 1,6 km/h (1 Bft) S-SW 202 ° 0 min 0,000 mm 0,0 UV-I 107 W/m² 10,4 °C 16,8 °C 4,8 km/h (1 Bft) 100,00 %
07.05.2026 18:58 16,8 °C 66 % 1014,2 hPa 0,0 l/m² 4,8 km/h (1 Bft) S-SW 202 ° 0 min 0,000 mm 0,0 UV-I 111 W/m² 10,4 °C 16,8 °C 8,0 km/h (2 Bft) 100,00 %
07.05.2026 18:57 16,9 °C 65 % 1014,2 hPa 0,0 l/m² 1,6 km/h (1 Bft) S-SW 202 ° 0 min 0,000 mm 0,0 UV-I 114 W/m² 10,3 °C 16,9 °C 3,2 km/h (1 Bft) 100,00 %
07.05.2026 18:56 17,1 °C 65 % 1014,2 hPa 0,0 l/m² 1,6 km/h (1 Bft) S-SW 202 ° 0 min 0,000 mm 0,0 UV-I 116 W/m² 10,5 °C 17,1 °C 4,8 km/h (1 Bft) 100,00 %
07.05.2026 18:55 17,2 °C 65 % 1014,1 hPa 0,0 l/m² 3,2 km/h (1 Bft) W 270 ° 0 min 0,000 mm 0,0 UV-I 116 W/m² 10,6 °C 17,2 °C 6,4 km/h (2 Bft) 100,00 %
07.05.2026 18:54 17,2 °C 65 % 1014,0 hPa 0,0 l/m² 3,2 km/h (1 Bft) W 270 ° 1 min 0,000 mm 0,0 UV-I 158 W/m² 10,6 °C 17,2 °C 8,0 km/h (2 Bft) 95,65 %
07.05.2026 18:53 17,3 °C 66 % 1014,1 hPa 0,0 l/m² 1,6 km/h (1 Bft) SW 225 ° 1 min 0,000 mm 0,0 UV-I 163 W/m² 10,9 °C 17,3 °C 3,2 km/h (1 Bft) 100,00 %
07.05.2026 18:52 17,1 °C 67 % 1014,1 hPa 0,0 l/m² 1,6 km/h (1 Bft) S-SW 202 ° 1 min 0,000 mm 0,0 UV-I 257 W/m² 10,9 °C 17,1 °C 3,2 km/h (1 Bft) 100,00 %
07.05.2026 18:51 16,9 °C 67 % 1014,1 hPa 0,0 l/m² 1,6 km/h (1 Bft) S-SW 202 ° 1 min 0,000 mm 0,0 UV-I 260 W/m² 10,7 °C 16,9 °C 3,2 km/h (1 Bft) 95,65 %
07.05.2026 18:50 16,7 °C 68 % 1014,2 hPa 0,0 l/m² 1,6 km/h (1 Bft) S-SW 202 ° 1 min 0,000 mm 0,0 UV-I 262 W/m² 10,8 °C 16,7 °C 4,8 km/h (1 Bft) 100,00 %
07.05.2026 18:49 16,6 °C 67 % 1014,1 hPa 0,0 l/m² 1,6 km/h (1 Bft) W-NW 292 ° 1 min 0,000 mm 0,0 UV-I 265 W/m² 10,4 °C 16,6 °C 3,2 km/h (1 Bft) 95,65 %
07.05.2026 18:48 16,6 °C 68 % 1014,1 hPa 0,0 l/m² 1,6 km/h (1 Bft) S-SW 202 ° 1 min 0,000 mm 0,0 UV-I 267 W/m² 10,7 °C 16,6 °C 3,2 km/h (1 Bft) 100,00 %
07.05.2026 18:47 16,4 °C 68 % 1014,1 hPa 0,0 l/m² 3,2 km/h (1 Bft) S-SW 202 ° 1 min 0,000 mm 0,0 UV-I 272 W/m² 10,5 °C 16,4 °C 4,8 km/h (1 Bft) 95,65 %
07.05.2026 18:46 16,2 °C 69 % 1014,1 hPa 0,0 l/m² 1,6 km/h (1 Bft) S-SW 202 ° 1 min 0,000 mm 0,0 UV-I 276 W/m² 10,5 °C 16,2 °C 4,8 km/h (1 Bft) 100,00 %
07.05.2026 18:45 16,0 °C 69 % 1014,1 hPa 0,0 l/m² 1,6 km/h (1 Bft) SW 225 ° 1 min 0,000 mm 0,0 UV-I 279 W/m² 10,3 °C 16,0 °C 3,2 km/h (1 Bft) 100,00 %
07.05.2026 18:44 15,9 °C 69 % 1014,1 hPa 0,0 l/m² 1,6 km/h (1 Bft) SW 225 ° 1 min 0,000 mm 0,0 UV-I 278 W/m² 10,2 °C 15,9 °C 4,8 km/h (1 Bft) 100,00 %
07.05.2026 18:43 15,8 °C 69 % 1014,1 hPa 0,0 l/m² 1,6 km/h (1 Bft) SW 225 ° 1 min 0,000 mm 0,0 UV-I 258 W/m² 10,1 °C 15,8 °C 4,8 km/h (1 Bft) 100,00 %
07.05.2026 18:42 15,8 °C 69 % 1014,2 hPa 0,0 l/m² 1,6 km/h (1 Bft) S-SW 202 ° 1 min 0,000 mm 0,0 UV-I 162 W/m² 10,1 °C 15,8 °C 1,6 km/h (1 Bft) 100,00 %
07.05.2026 18:41 15,8 °C 70 % 1014,0 hPa 0,0 l/m² 0,0 km/h (0 Bft) S-SW 202 ° 0 min 0,000 mm 0,0 UV-I 123 W/m² 10,3 °C 15,8 °C 1,6 km/h (1 Bft) 100,00 %
07.05.2026 18:40 15,7 °C 70 % 1014,0 hPa 0,0 l/m² 1,6 km/h (1 Bft) S-SW 202 ° 1 min 0,000 mm 0,0 UV-I 230 W/m² 10,2 °C 15,7 °C 3,2 km/h (1 Bft) 95,65 %
07.05.2026 18:39 15,5 °C 71 % 1014,1 hPa 0,0 l/m² 3,2 km/h (1 Bft) S-SW 202 ° 1 min 0,000 mm 0,5 UV-I 244 W/m² 10,3 °C 15,5 °C 4,8 km/h (1 Bft) 100,00 %
07.05.2026 18:38 15,3 °C 71 % 1014,1 hPa 0,0 l/m² 1,6 km/h (1 Bft) W 270 ° 1 min 0,000 mm 0,5 UV-I 209 W/m² 10,1 °C 15,3 °C 3,2 km/h (1 Bft) 100,00 %
07.05.2026 18:37 15,2 °C 71 % 1014,1 hPa 0,0 l/m² 1,6 km/h (1 Bft) W 270 ° 1 min 0,000 mm 0,5 UV-I 176 W/m² 10,0 °C 15,2 °C 3,2 km/h (1 Bft) 100,00 %
07.05.2026 18:36 15,1 °C 72 % 1014,1 hPa 0,0 l/m² 0,0 km/h (0 Bft) W 270 ° 1 min 0,000 mm 0,5 UV-I 200 W/m² 10,1 °C 15,1 °C 1,6 km/h (1 Bft) 100,00 %
07.05.2026 18:35 14,9 °C 72 % 1014,1 hPa 0,0 l/m² 0,0 km/h (0 Bft) W 270 ° 1 min 0,000 mm 0,5 UV-I 200 W/m² 9,9 °C 14,9 °C 1,6 km/h (1 Bft) 100,00 %
07.05.2026 18:34 14,8 °C 72 % 1014,1 hPa 0,0 l/m² 1,6 km/h (1 Bft) W 270 ° 1 min 0,000 mm 0,5 UV-I 171 W/m² 9,8 °C 14,8 °C 3,2 km/h (1 Bft) 100,00 %
07.05.2026 18:33 14,9 °C 72 % 1014,1 hPa 0,0 l/m² 1,6 km/h (1 Bft) W 270 ° 1 min 0,000 mm 0,5 UV-I 176 W/m² 9,9 °C 14,9 °C 3,2 km/h (1 Bft) 95,65 %
07.05.2026 18:32 14,9 °C 71 % 1014,1 hPa 0,0 l/m² 3,2 km/h (1 Bft) W 270 ° 1 min 0,000 mm 0,5 UV-I 176 W/m² 9,7 °C 14,9 °C 3,2 km/h (1 Bft) 95,65 %
07.05.2026 18:31 15,1 °C 70 % 1014,1 hPa 0,0 l/m² 3,2 km/h (1 Bft) W 270 ° 1 min 0,000 mm 0,5 UV-I 185 W/m² 9,7 °C 15,1 °C 3,2 km/h (1 Bft) 100,00 %
07.05.2026 18:30 15,3 °C 69 % 1014,1 hPa 0,0 l/m² 1,6 km/h (1 Bft) W 270 ° 1 min 0,000 mm 0,5 UV-I 186 W/m² 9,6 °C 15,3 °C 3,2 km/h (1 Bft) 95,65 %
07.05.2026 18:29 15,6 °C 69 % 1014,1 hPa 0,0 l/m² 1,6 km/h (1 Bft) W 270 ° 1 min 0,000 mm 0,5 UV-I 171 W/m² 9,9 °C 15,6 °C 4,8 km/h (1 Bft) 100,00 %
07.05.2026 18:28 15,7 °C 68 % 1014,1 hPa 0,0 l/m² 1,6 km/h (1 Bft) W-SW 247 ° 1 min 0,000 mm 0,5 UV-I 213 W/m² 9,8 °C 15,7 °C 6,4 km/h (2 Bft) 100,00 %
07.05.2026 18:27 15,9 °C 68 % 1014,1 hPa 0,0 l/m² 3,2 km/h (1 Bft) W-SW 247 ° 1 min 0,000 mm 0,5 UV-I 213 W/m² 10,0 °C 15,9 °C 4,8 km/h (1 Bft) 100,00 %
07.05.2026 18:26 16,1 °C 67 % 1014,2 hPa 0,0 l/m² 3,2 km/h (1 Bft) W 270 ° 0 min 0,000 mm 0,5 UV-I 149 W/m² 10,0 °C 16,1 °C 4,8 km/h (1 Bft) 95,65 %
07.05.2026 18:25 16,4 °C 66 % 1014,1 hPa 0,0 l/m² 3,2 km/h (1 Bft) W 270 ° 1 min 0,000 mm 0,5 UV-I 153 W/m² 10,0 °C 16,4 °C 4,8 km/h (1 Bft) 100,00 %
07.05.2026 18:24 16,6 °C 66 % 1014,1 hPa 0,0 l/m² 4,8 km/h (1 Bft) W 270 ° 0 min 0,000 mm 0,5 UV-I 144 W/m² 10,2 °C 16,6 °C 6,4 km/h (2 Bft) 100,00 %
07.05.2026 18:23 16,7 °C 66 % 1014,2 hPa 0,0 l/m² 3,2 km/h (1 Bft) W 270 ° 1 min 0,000 mm 0,6 UV-I 200 W/m² 10,3 °C 16,7 °C 6,4 km/h (2 Bft) 95,65 %
07.05.2026 18:22 16,8 °C 66 % 1014,1 hPa 0,0 l/m² 1,6 km/h (1 Bft) S 180 ° 1 min 0,000 mm 0,6 UV-I 260 W/m² 10,4 °C 16,8 °C 3,2 km/h (1 Bft) 100,00 %
07.05.2026 18:21 16,9 °C 66 % 1014,2 hPa 0,0 l/m² 3,2 km/h (1 Bft) S-SW 202 ° 1 min 0,000 mm 0,6 UV-I 162 W/m² 10,5 °C 16,9 °C 8,0 km/h (2 Bft) 100,00 %
07.05.2026 18:20 16,9 °C 67 % 1014,2 hPa 0,0 l/m² 1,6 km/h (1 Bft) W-SW 247 ° 0 min 0,000 mm 0,6 UV-I 149 W/m² 10,7 °C 16,9 °C 4,8 km/h (1 Bft) 100,00 %
07.05.2026 18:19 16,8 °C 68 % 1014,2 hPa 0,0 l/m² 3,2 km/h (1 Bft) W 270 ° 1 min 0,000 mm 0,7 UV-I 250 W/m² 10,9 °C 16,8 °C 4,8 km/h (1 Bft) 95,65 %
07.05.2026 18:18 16,7 °C 67 % 1014,1 hPa 0,0 l/m² 0,0 km/h (0 Bft) W 270 ° 1 min 0,000 mm 0,6 UV-I 262 W/m² 10,5 °C 16,7 °C 1,6 km/h (1 Bft) 100,00 %
07.05.2026 18:17 16,7 °C 68 % 1014,2 hPa 0,0 l/m² 0,0 km/h (0 Bft) W 270 ° 1 min 0,000 mm 0,7 UV-I 192 W/m² 10,8 °C 16,7 °C 1,6 km/h (1 Bft) 100,00 %
07.05.2026 18:16 16,6 °C 67 % 1014,1 hPa 0,0 l/m² 3,2 km/h (1 Bft) SW 225 ° 1 min 0,000 mm 0,6 UV-I 204 W/m² 10,4 °C 16,6 °C 4,8 km/h (1 Bft) 100,00 %
07.05.2026 18:15 16,6 °C 68 % 1014,1 hPa 0,0 l/m² 1,6 km/h (1 Bft) W 270 ° 1 min 0,000 mm 0,7 UV-I 223 W/m² 10,7 °C 16,6 °C 3,2 km/h (1 Bft) 100,00 %
07.05.2026 18:14 16,6 °C 69 % 1014,1 hPa 0,0 l/m² 3,2 km/h (1 Bft) W 270 ° 1 min 0,000 mm 0,7 UV-I 183 W/m² 10,9 °C 16,6 °C 6,4 km/h (2 Bft) 100,00 %
07.05.2026 18:13 16,4 °C 69 % 1014,1 hPa 0,0 l/m² 1,6 km/h (1 Bft) SW 225 ° 1 min 0,000 mm 0,7 UV-I 190 W/m² 10,7 °C 16,4 °C 4,8 km/h (1 Bft) 100,00 %
07.05.2026 18:12 16,4 °C 69 % 1014,2 hPa 0,0 l/m² 1,6 km/h (1 Bft) SW 225 ° 1 min 0,000 mm 0,7 UV-I 221 W/m² 10,7 °C 16,4 °C 3,2 km/h (1 Bft) 95,65 %
07.05.2026 18:11 16,3 °C 69 % 1014,1 hPa 0,0 l/m² 1,6 km/h (1 Bft) SW 225 ° 1 min 0,000 mm 0,7 UV-I 246 W/m² 10,6 °C 16,3 °C 4,8 km/h (1 Bft) 95,65 %
07.05.2026 18:10 16,2 °C 69 % 1014,2 hPa 0,0 l/m² 0,0 km/h (0 Bft) SW 225 ° 0 min 0,000 mm 0,7 UV-I 149 W/m² 10,5 °C 16,2 °C 1,6 km/h (1 Bft) 100,00 %
07.05.2026 18:09 16,3 °C 69 % 1014,2 hPa 0,0 l/m² 1,6 km/h (1 Bft) SW 225 ° 0 min 0,000 mm 0,7 UV-I 151 W/m² 10,6 °C 16,3 °C 4,8 km/h (1 Bft) 100,00 %
07.05.2026 18:08 16,3 °C 68 % 1014,2 hPa 0,0 l/m² 1,6 km/h (1 Bft) SW 225 ° 1 min 0,000 mm 0,7 UV-I 156 W/m² 10,4 °C 16,3 °C 4,8 km/h (1 Bft) 100,00 %
07.05.2026 18:07 16,3 °C 68 % 1014,2 hPa 0,0 l/m² 3,2 km/h (1 Bft) SW 225 ° 1 min 0,000 mm 0,7 UV-I 156 W/m² 10,4 °C 16,3 °C 6,4 km/h (2 Bft) 100,00 %
07.05.2026 18:06 16,3 °C 68 % 1014,1 hPa 0,0 l/m² 4,8 km/h (1 Bft) SW 225 ° 1 min 0,000 mm 0,7 UV-I 162 W/m² 10,4 °C 16,3 °C 8,0 km/h (2 Bft) 100,00 %
07.05.2026 18:05 16,4 °C 69 % 1014,1 hPa 0,0 l/m² 3,2 km/h (1 Bft) W-NW 292 ° 1 min 0,000 mm 0,7 UV-I 163 W/m² 10,7 °C 16,4 °C 8,0 km/h (2 Bft) 100,00 %
07.05.2026 18:04 16,4 °C 69 % 1014,1 hPa 0,0 l/m² 1,6 km/h (1 Bft) W-SW 247 ° 1 min 0,000 mm 0,7 UV-I 158 W/m² 10,7 °C 16,4 °C 3,2 km/h (1 Bft) 95,65 %
07.05.2026 18:03 16,4 °C 69 % 1014,1 hPa 0,0 l/m² 1,6 km/h (1 Bft) W-SW 247 ° 1 min 0,000 mm 0,7 UV-I 165 W/m² 10,7 °C 16,4 °C 3,2 km/h (1 Bft) 91,30 %
07.05.2026 18:02 16,5 °C 70 % 1014,1 hPa 0,0 l/m² 1,6 km/h (1 Bft) W 270 ° 1 min 0,000 mm 0,7 UV-I 172 W/m² 11,0 °C 16,5 °C 1,6 km/h (1 Bft) 100,00 %
07.05.2026 18:01 16,5 °C 70 % 1014,1 hPa 0,0 l/m² 3,2 km/h (1 Bft) W 270 ° 1 min 0,000 mm 0,7 UV-I 179 W/m² 11,0 °C 16,5 °C 6,4 km/h (2 Bft) 91,30 %
07.05.2026 18:00 16,5 °C 69 % 1014,2 hPa 0,0 l/m² 3,2 km/h (1 Bft) W 270 ° 1 min 0,127 mm 0,7 UV-I 190 W/m² 10,8 °C 16,5 °C 4,8 km/h (1 Bft) 100,00 %
07.05.2026 17:59 16,6 °C 69 % 1014,1 hPa 0,0 l/m² 3,2 km/h (1 Bft) W-SW 247 ° 1 min 0,000 mm 0,8 UV-I 207 W/m² 10,9 °C 16,6 °C 6,4 km/h (2 Bft) 100,00 %
07.05.2026 17:58 16,6 °C 69 % 1014,2 hPa 0,0 l/m² 3,2 km/h (1 Bft) W-SW 247 ° 1 min 0,000 mm 0,8 UV-I 355 W/m² 10,9 °C 16,6 °C 9,7 km/h (2 Bft) 100,00 %
07.05.2026 17:57 16,6 °C 70 % 1014,1 hPa 0,0 l/m² 1,6 km/h (1 Bft) W-SW 247 ° 1 min 0,000 mm 0,8 UV-I 274 W/m² 11,1 °C 16,6 °C 6,4 km/h (2 Bft) 95,65 %
07.05.2026 17:56 16,5 °C 70 % 1014,2 hPa 0,0 l/m² 1,6 km/h (1 Bft) W-SW 247 ° 1 min 0,000 mm 0,8 UV-I 221 W/m² 11,0 °C 16,5 °C 3,2 km/h (1 Bft) 100,00 %
07.05.2026 17:55 16,5 °C 70 % 1014,1 hPa 0,0 l/m² 1,6 km/h (1 Bft) W-SW 247 ° 1 min 0,000 mm 0,7 UV-I 218 W/m² 11,0 °C 16,5 °C 3,2 km/h (1 Bft) 100,00 %
07.05.2026 17:54 16,5 °C 70 % 1014,1 hPa 0,0 l/m² 0,0 km/h (0 Bft) W-SW 247 ° 1 min 0,000 mm 0,7 UV-I 227 W/m² 11,0 °C 16,5 °C 1,6 km/h (1 Bft) 95,65 %
07.05.2026 17:53 16,6 °C 70 % 1014,2 hPa 0,0 l/m² 1,6 km/h (1 Bft) W-SW 247 ° 1 min 0,000 mm 0,7 UV-I 214 W/m² 11,1 °C 16,6 °C 6,4 km/h (2 Bft) 100,00 %
07.05.2026 17:52 16,6 °C 70 % 1014,1 hPa 0,0 l/m² 4,8 km/h (1 Bft) S-SW 202 ° 1 min 0,000 mm 0,8 UV-I 295 W/m² 11,1 °C 16,6 °C 9,7 km/h (2 Bft) 100,00 %
07.05.2026 17:51 16,6 °C 70 % 1014,1 hPa 0,0 l/m² 3,2 km/h (1 Bft) S-SW 202 ° 1 min 0,000 mm 0,8 UV-I 313 W/m² 11,1 °C 16,6 °C 6,4 km/h (2 Bft) 100,00 %
07.05.2026 17:50 16,7 °C 70 % 1014,2 hPa 0,0 l/m² 1,6 km/h (1 Bft) S-SW 202 ° 1 min 0,000 mm 0,8 UV-I 330 W/m² 11,2 °C 16,7 °C 4,8 km/h (1 Bft) 95,65 %
07.05.2026 17:49 16,6 °C 71 % 1014,1 hPa 0,0 l/m² 3,2 km/h (1 Bft) W 270 ° 1 min 0,000 mm 0,8 UV-I 323 W/m² 11,3 °C 16,6 °C 6,4 km/h (2 Bft) 100,00 %
07.05.2026 17:48 16,6 °C 72 % 1014,2 hPa 0,0 l/m² 1,6 km/h (1 Bft) SW 225 ° 1 min 0,000 mm 0,8 UV-I 343 W/m² 11,5 °C 16,6 °C 3,2 km/h (1 Bft) 100,00 %
07.05.2026 17:47 16,5 °C 71 % 1014,1 hPa 0,0 l/m² 1,6 km/h (1 Bft) SW 225 ° 1 min 0,000 mm 0,8 UV-I 350 W/m² 11,2 °C 16,5 °C 4,8 km/h (1 Bft) 95,65 %
07.05.2026 17:46 16,4 °C 72 % 1014,1 hPa 0,0 l/m² 3,2 km/h (1 Bft) SW 225 ° 1 min 0,000 mm 0,8 UV-I 343 W/m² 11,3 °C 16,4 °C 4,8 km/h (1 Bft) 95,65 %
07.05.2026 17:45 16,3 °C 72 % 1014,1 hPa 0,0 l/m² 1,6 km/h (1 Bft) SW 225 ° 1 min 0,000 mm 0,8 UV-I 341 W/m² 11,2 °C 16,3 °C 3,2 km/h (1 Bft) 100,00 %
07.05.2026 17:44 16,2 °C 72 % 1014,1 hPa 0,0 l/m² 1,6 km/h (1 Bft) SW 225 ° 1 min 0,000 mm 0,8 UV-I 345 W/m² 11,1 °C 16,2 °C 3,2 km/h (1 Bft) 100,00 %
07.05.2026 17:43 16,1 °C 72 % 1014,2 hPa 0,0 l/m² 1,6 km/h (1 Bft) SW 225 ° 1 min 0,000 mm 0,7 UV-I 174 W/m² 11,0 °C 16,1 °C 3,2 km/h (1 Bft) 95,65 %
07.05.2026 17:42 16,2 °C 72 % 1014,1 hPa 0,0 l/m² 1,6 km/h (1 Bft) W-SW 247 ° 1 min 0,000 mm 0,7 UV-I 165 W/m² 11,1 °C 16,2 °C 3,2 km/h (1 Bft) 95,65 %
07.05.2026 17:41 16,1 °C 71 % 1014,1 hPa 0,0 l/m² 3,2 km/h (1 Bft) W-SW 247 ° 1 min 0,000 mm 0,7 UV-I 162 W/m² 10,8 °C 16,1 °C 6,4 km/h (2 Bft) 100,00 %
07.05.2026 17:40 16,1 °C 71 % 1014,2 hPa 0,0 l/m² 1,6 km/h (1 Bft) S-SW 202 ° 1 min 0,000 mm 0,7 UV-I 160 W/m² 10,8 °C 16,1 °C 3,2 km/h (1 Bft) 95,65 %
07.05.2026 17:39 16,0 °C 71 % 1014,2 hPa 0,0 l/m² 1,6 km/h (1 Bft) S-SW 202 ° 1 min 0,000 mm 0,7 UV-I 160 W/m² 10,7 °C 16,0 °C 1,6 km/h (1 Bft) 95,65 %
07.05.2026 17:38 15,9 °C 71 % 1014,2 hPa 0,0 l/m² 0,0 km/h (0 Bft) S-SW 202 ° 1 min 0,000 mm 0,7 UV-I 163 W/m² 10,6 °C 15,9 °C 1,6 km/h (1 Bft) 100,00 %
07.05.2026 17:37 16,0 °C 71 % 1014,1 hPa 0,0 l/m² 3,2 km/h (1 Bft) S-SW 202 ° 1 min 0,000 mm 0,7 UV-I 181 W/m² 10,7 °C 16,0 °C 4,8 km/h (1 Bft) 100,00 %
07.05.2026 17:36 16,0 °C 71 % 1014,0 hPa 0,0 l/m² 1,6 km/h (1 Bft) S 180 ° 1 min 0,000 mm 0,8 UV-I 190 W/m² 10,7 °C 16,0 °C 3,2 km/h (1 Bft) 91,30 %
07.05.2026 17:35 16,0 °C 70 % 1014,0 hPa 0,0 l/m² 3,2 km/h (1 Bft) SW 225 ° 1 min 0,000 mm 0,8 UV-I 195 W/m² 10,5 °C 16,0 °C 4,8 km/h (1 Bft) 100,00 %
07.05.2026 17:34 16,0 °C 70 % 1014,0 hPa 0,0 l/m² 4,8 km/h (1 Bft) S 180 ° 1 min 0,000 mm 0,8 UV-I 199 W/m² 10,5 °C 16,0 °C 9,7 km/h (2 Bft) 95,65 %
07.05.2026 17:33 16,1 °C 70 % 1014,0 hPa 0,0 l/m² 3,2 km/h (1 Bft) S 180 ° 1 min 0,000 mm 0,8 UV-I 200 W/m² 10,6 °C 16,1 °C 6,4 km/h (2 Bft) 95,65 %
07.05.2026 17:32 16,1 °C 70 % 1014,0 hPa 0,0 l/m² 3,2 km/h (1 Bft) NW 315 ° 1 min 0,000 mm 0,9 UV-I 202 W/m² 10,6 °C 16,1 °C 8,0 km/h (2 Bft) 100,00 %
07.05.2026 17:31 16,1 °C 71 % 1014,0 hPa 0,0 l/m² 1,6 km/h (1 Bft) SW 225 ° 1 min 0,000 mm 0,9 UV-I 199 W/m² 10,8 °C 16,1 °C 4,8 km/h (1 Bft) 100,00 %
07.05.2026 17:30 16,1 °C 71 % 1013,9 hPa 0,0 l/m² 1,6 km/h (1 Bft) SW 225 ° 1 min 0,000 mm 0,9 UV-I 195 W/m² 10,8 °C 16,1 °C 3,2 km/h (1 Bft) 95,65 %
07.05.2026 17:29 16,1 °C 71 % 1013,9 hPa 0,0 l/m² 1,6 km/h (1 Bft) SW 225 ° 1 min 0,000 mm 0,9 UV-I 197 W/m² 10,8 °C 16,1 °C 3,2 km/h (1 Bft) 95,65 %
07.05.2026 17:28 16,0 °C 71 % 1013,9 hPa 0,0 l/m² 0,0 km/h (0 Bft) SW 225 ° 1 min 0,000 mm 0,9 UV-I 199 W/m² 10,7 °C 16,0 °C 1,6 km/h (1 Bft) 95,65 %
07.05.2026 17:27 16,0 °C 70 % 1013,9 hPa 0,0 l/m² 0,0 km/h (0 Bft) SW 225 ° 1 min 0,000 mm 0,8 UV-I 202 W/m² 10,5 °C 16,0 °C 1,6 km/h (1 Bft) 95,65 %
07.05.2026 17:26 15,9 °C 69 % 1013,9 hPa 0,0 l/m² 1,6 km/h (1 Bft) SW 225 ° 1 min 0,000 mm 0,8 UV-I 202 W/m² 10,2 °C 15,9 °C 3,2 km/h (1 Bft) 100,00 %
07.05.2026 17:25 16,0 °C 69 % 1014,0 hPa 0,0 l/m² 1,6 km/h (1 Bft) S-SW 202 ° 1 min 0,000 mm 0,8 UV-I 197 W/m² 10,3 °C 16,0 °C 4,8 km/h (1 Bft) 100,00 %
07.05.2026 17:24 15,9 °C 68 % 1014,0 hPa 0,0 l/m² 1,6 km/h (1 Bft) S-SW 202 ° 1 min 0,000 mm 0,7 UV-I 183 W/m² 10,0 °C 15,9 °C 3,2 km/h (1 Bft) 95,65 %
07.05.2026 17:23 15,9 °C 67 % 1014,1 hPa 0,0 l/m² 3,2 km/h (1 Bft) S-SW 202 ° 1 min 0,000 mm 0,5 UV-I 171 W/m² 9,8 °C 15,9 °C 4,8 km/h (1 Bft) 95,65 %
07.05.2026 17:22 15,9 °C 67 % 1014,1 hPa 0,0 l/m² 1,6 km/h (1 Bft) S 180 ° 0 min 0,000 mm 0,5 UV-I 130 W/m² 9,8 °C 15,9 °C 4,8 km/h (1 Bft) 95,65 %
07.05.2026 17:21 15,9 °C 67 % 1014,1 hPa 0,0 l/m² 1,6 km/h (1 Bft) S 180 ° 0 min 0,000 mm 0,5 UV-I 121 W/m² 9,8 °C 15,9 °C 3,2 km/h (1 Bft) 100,00 %
07.05.2026 17:20 16,0 °C 66 % 1014,0 hPa 0,0 l/m² 1,6 km/h (1 Bft) S 180 ° 0 min 0,000 mm 0,5 UV-I 116 W/m² 9,7 °C 16,0 °C 4,8 km/h (1 Bft) 95,65 %
07.05.2026 17:19 16,0 °C 67 % 1014,1 hPa 0,0 l/m² 1,6 km/h (1 Bft) SW 225 ° 0 min 0,000 mm 0,5 UV-I 114 W/m² 9,9 °C 16,0 °C 3,2 km/h (1 Bft) 95,65 %
07.05.2026 17:18 16,0 °C 67 % 1014,1 hPa 0,0 l/m² 1,6 km/h (1 Bft) SW 225 ° 0 min 0,000 mm 0,5 UV-I 114 W/m² 9,9 °C 16,0 °C 3,2 km/h (1 Bft) 95,65 %
07.05.2026 17:17 16,0 °C 66 % 1014,0 hPa 0,0 l/m² 1,6 km/h (1 Bft) SW 225 ° 0 min 0,000 mm 0,5 UV-I 116 W/m² 9,7 °C 16,0 °C 3,2 km/h (1 Bft) 100,00 %
07.05.2026 17:16 16,0 °C 66 % 1014,0 hPa 0,0 l/m² 3,2 km/h (1 Bft) S 180 ° 0 min 0,000 mm 0,6 UV-I 123 W/m² 9,7 °C 16,0 °C 4,8 km/h (1 Bft) 95,65 %
07.05.2026 17:15 16,0 °C 66 % 1014,0 hPa 0,0 l/m² 3,2 km/h (1 Bft) S-SW 202 ° 0 min 0,000 mm 0,6 UV-I 127 W/m² 9,7 °C 16,0 °C 6,4 km/h (2 Bft) 95,65 %
07.05.2026 17:14 16,1 °C 66 % 1014,0 hPa 0,0 l/m² 3,2 km/h (1 Bft) SW 225 ° 0 min 0,000 mm 0,7 UV-I 132 W/m² 9,7 °C 16,1 °C 4,8 km/h (1 Bft) 100,00 %
07.05.2026 17:13 16,1 °C 66 % 1014,0 hPa 0,0 l/m² 1,6 km/h (1 Bft) S-SW 202 ° 0 min 0,000 mm 0,7 UV-I 134 W/m² 9,7 °C 16,1 °C 4,8 km/h (1 Bft) 100,00 %
07.05.2026 17:12 16,2 °C 66 % 1014,0 hPa 0,0 l/m² 3,2 km/h (1 Bft) S-SW 202 ° 0 min 0,000 mm 0,7 UV-I 137 W/m² 9,8 °C 16,2 °C 4,8 km/h (1 Bft) 100,00 %
07.05.2026 17:11 16,2 °C 65 % 1014,1 hPa 0,0 l/m² 3,2 km/h (1 Bft) S 180 ° 0 min 0,000 mm 0,7 UV-I 141 W/m² 9,6 °C 16,2 °C 8,0 km/h (2 Bft) 91,30 %
07.05.2026 17:10 16,3 °C 66 % 1014,1 hPa 0,0 l/m² 3,2 km/h (1 Bft) S 180 ° 0 min 0,000 mm 0,8 UV-I 146 W/m² 9,9 °C 16,3 °C 6,4 km/h (2 Bft) 100,00 %
07.05.2026 17:09 16,4 °C 65 % 1014,1 hPa 0,0 l/m² 1,6 km/h (1 Bft) S 180 ° 1 min 0,000 mm 0,8 UV-I 160 W/m² 9,8 °C 16,4 °C 1,6 km/h (1 Bft) 95,65 %
07.05.2026 17:08 16,4 °C 66 % 1014,1 hPa 0,0 l/m² 3,2 km/h (1 Bft) S-SW 202 ° 1 min 0,000 mm 0,9 UV-I 169 W/m² 10,0 °C 16,4 °C 6,4 km/h (2 Bft) 95,65 %
07.05.2026 17:07 16,4 °C 66 % 1014,1 hPa 0,0 l/m² 1,6 km/h (1 Bft) W-SW 247 ° 1 min 0,000 mm 0,9 UV-I 176 W/m² 10,0 °C 16,4 °C 3,2 km/h (1 Bft) 100,00 %
07.05.2026 17:06 16,4 °C 66 % 1014,1 hPa 0,0 l/m² 1,6 km/h (1 Bft) W-SW 247 ° 1 min 0,000 mm 0,9 UV-I 183 W/m² 10,0 °C 16,4 °C 1,6 km/h (1 Bft) 95,65 %
07.05.2026 17:05 16,4 °C 66 % 1013,9 hPa 0,0 l/m² 1,6 km/h (1 Bft) W-SW 247 ° 1 min 0,000 mm 0,9 UV-I 190 W/m² 10,0 °C 16,4 °C 3,2 km/h (1 Bft) 100,00 %
07.05.2026 17:04 16,3 °C 67 % 1014,0 hPa 0,0 l/m² 1,6 km/h (1 Bft) W-SW 247 ° 1 min 0,000 mm 0,9 UV-I 195 W/m² 10,2 °C 16,3 °C 3,2 km/h (1 Bft) 91,30 %
07.05.2026 17:03 16,2 °C 66 % 1014,0 hPa 0,0 l/m² 1,6 km/h (1 Bft) W-SW 247 ° 1 min 0,000 mm 1,0 UV-I 202 W/m² 9,8 °C 16,2 °C 4,8 km/h (1 Bft) 95,65 %
07.05.2026 17:02 16,2 °C 66 % 1014,0 hPa 0,0 l/m² 1,6 km/h (1 Bft) W-SW 247 ° 1 min 0,000 mm 1,0 UV-I 214 W/m² 9,8 °C 16,2 °C 4,8 km/h (1 Bft) 100,00 %
07.05.2026 17:01 16,2 °C 66 % 1014,0 hPa 0,0 l/m² 1,6 km/h (1 Bft) W-SW 247 ° 1 min 0,000 mm 1,0 UV-I 221 W/m² 9,8 °C 16,2 °C 3,2 km/h (1 Bft) 95,65 %
07.05.2026 17:00 16,2 °C 67 % 1014,0 hPa 0,0 l/m² 3,2 km/h (1 Bft) SW 225 ° 1 min 0,102 mm 1,0 UV-I 227 W/m² 10,1 °C 16,2 °C 4,8 km/h (1 Bft) 95,65 %
07.05.2026 16:59 16,1 °C 66 % 1013,9 hPa 0,0 l/m² 1,6 km/h (1 Bft) SW 225 ° 1 min 0,000 mm 1,0 UV-I 230 W/m² 9,7 °C 16,1 °C 4,8 km/h (1 Bft) 100,00 %
07.05.2026 16:58 16,0 °C 66 % 1014,0 hPa 0,0 l/m² 3,2 km/h (1 Bft) SW 225 ° 1 min 0,000 mm 1,0 UV-I 232 W/m² 9,7 °C 16,0 °C 4,8 km/h (1 Bft) 95,65 %
07.05.2026 16:57 16,0 °C 67 % 1014,0 hPa 0,0 l/m² 3,2 km/h (1 Bft) W 270 ° 1 min 0,000 mm 1,0 UV-I 230 W/m² 9,9 °C 16,0 °C 4,8 km/h (1 Bft) 100,00 %
07.05.2026 16:56 15,9 °C 66 % 1014,1 hPa 0,0 l/m² 3,2 km/h (1 Bft) W 270 ° 1 min 0,000 mm 0,9 UV-I 223 W/m² 9,6 °C 15,9 °C 6,4 km/h (2 Bft) 100,00 %
07.05.2026 16:55 15,9 °C 66 % 1013,9 hPa 0,0 l/m² 3,2 km/h (1 Bft) S 180 ° 1 min 0,000 mm 0,8 UV-I 216 W/m² 9,6 °C 15,9 °C 6,4 km/h (2 Bft) 100,00 %
07.05.2026 16:54 15,8 °C 67 % 1014,0 hPa 0,0 l/m² 4,8 km/h (1 Bft) W 270 ° 1 min 0,000 mm 0,8 UV-I 202 W/m² 9,7 °C 15,8 °C 9,7 km/h (2 Bft) 95,65 %
07.05.2026 16:53 15,8 °C 67 % 1014,0 hPa 0,0 l/m² 3,2 km/h (1 Bft) W-SW 247 ° 1 min 0,000 mm 0,7 UV-I 183 W/m² 9,7 °C 15,8 °C 6,4 km/h (2 Bft) 100,00 %
07.05.2026 16:52 15,7 °C 67 % 1013,9 hPa 0,0 l/m² 3,2 km/h (1 Bft) SW 225 ° 1 min 0,000 mm 0,7 UV-I 169 W/m² 9,6 °C 15,7 °C 4,8 km/h (1 Bft) 91,30 %
07.05.2026 16:51 15,7 °C 66 % 1013,9 hPa 0,0 l/m² 4,8 km/h (1 Bft) W-SW 247 ° 1 min 0,000 mm 0,6 UV-I 155 W/m² 9,4 °C 15,7 °C 6,4 km/h (2 Bft) 100,00 %
07.05.2026 16:50 15,7 °C 66 % 1013,9 hPa 0,0 l/m² 3,2 km/h (1 Bft) W-SW 247 ° 0 min 0,000 mm 0,6 UV-I 142 W/m² 9,4 °C 15,7 °C 4,8 km/h (1 Bft) 95,65 %
07.05.2026 16:49 15,7 °C 65 % 1013,9 hPa 0,0 l/m² 4,8 km/h (1 Bft) W 270 ° 0 min 0,000 mm 0,5 UV-I 128 W/m² 9,1 °C 15,7 °C 9,7 km/h (2 Bft) 100,00 %
07.05.2026 16:48 15,7 °C 65 % 1013,9 hPa 0,0 l/m² 8,0 km/h (2 Bft) W 270 ° 0 min 0,000 mm 0,0 UV-I 116 W/m² 9,1 °C 14,8 °C 12,9 km/h (3 Bft) 95,65 %
07.05.2026 16:47 15,7 °C 65 % 1013,9 hPa 0,0 l/m² 4,8 km/h (1 Bft) W 270 ° 0 min 0,000 mm 0,0 UV-I 95 W/m² 9,1 °C 15,7 °C 11,3 km/h (2 Bft) 95,65 %
07.05.2026 16:46 15,8 °C 65 % 1013,9 hPa 0,0 l/m² 8,0 km/h (2 Bft) W 270 ° 0 min 0,000 mm 0,0 UV-I 88 W/m² 9,2 °C 14,9 °C 16,1 km/h (3 Bft) 100,00 %
07.05.2026 16:45 15,9 °C 65 % 1014,0 hPa 0,0 l/m² 3,2 km/h (1 Bft) W 270 ° 0 min 0,000 mm 0,0 UV-I 81 W/m² 9,3 °C 15,9 °C 6,4 km/h (2 Bft) 95,65 %
07.05.2026 16:44 15,9 °C 66 % 1013,9 hPa 0,0 l/m² 9,7 km/h (2 Bft) W 270 ° 0 min 0,000 mm 0,0 UV-I 77 W/m² 9,6 °C 14,2 °C 20,9 km/h (4 Bft) 100,00 %
07.05.2026 16:43 16,1 °C 66 % 1013,9 hPa 0,0 l/m² 11,3 km/h (2 Bft) W 270 ° 0 min 0,000 mm 0,0 UV-I 72 W/m² 9,7 °C 13,8 °C 19,3 km/h (3 Bft) 95,65 %
07.05.2026 16:42 16,2 °C 67 % 1013,8 hPa 0,0 l/m² 12,9 km/h (3 Bft) W 270 ° 0 min 0,000 mm 0,0 UV-I 67 W/m² 10,1 °C 13,3 °C 19,3 km/h (3 Bft) 100,00 %
07.05.2026 16:41 16,3 °C 67 % 1013,8 hPa 0,0 l/m² 8,0 km/h (2 Bft) W-NW 292 ° 0 min 0,000 mm 0,0 UV-I 62 W/m² 10,2 °C 15,5 °C 14,5 km/h (3 Bft) 95,65 %
07.05.2026 16:40 16,4 °C 67 % 1013,8 hPa 0,0 l/m² 6,4 km/h (2 Bft) W 270 ° 0 min 0,000 mm 0,0 UV-I 51 W/m² 10,3 °C 16,4 °C 14,5 km/h (3 Bft) 95,65 %
07.05.2026 16:39 16,5 °C 66 % 1013,8 hPa 0,0 l/m² 6,4 km/h (2 Bft) W 270 ° 0 min 0,000 mm 0,0 UV-I 46 W/m² 10,1 °C 16,5 °C 12,9 km/h (3 Bft) 91,30 %
07.05.2026 16:38 16,6 °C 66 % 1013,7 hPa 0,0 l/m² 6,4 km/h (2 Bft) W 270 ° 0 min 0,000 mm 0,0 UV-I 42 W/m² 10,2 °C 16,6 °C 11,3 km/h (2 Bft) 100,00 %
07.05.2026 16:37 16,7 °C 66 % 1013,8 hPa 0,0 l/m² 8,0 km/h (2 Bft) W 270 ° 0 min 0,000 mm 0,0 UV-I 37 W/m² 10,3 °C 15,9 °C 14,5 km/h (3 Bft) 100,00 %
07.05.2026 16:36 16,9 °C 65 % 1013,7 hPa 0,0 l/m² 3,2 km/h (1 Bft) SW 225 ° 0 min 0,000 mm 0,0 UV-I 33 W/m² 10,3 °C 16,9 °C 6,4 km/h (2 Bft) 95,65 %
07.05.2026 16:35 17,0 °C 64 % 1013,7 hPa 0,0 l/m² 3,2 km/h (1 Bft) SW 225 ° 0 min 0,000 mm 0,0 UV-I 30 W/m² 10,1 °C 17,0 °C 11,3 km/h (2 Bft) 100,00 %
07.05.2026 16:34 17,1 °C 63 % 1013,7 hPa 0,0 l/m² 4,8 km/h (1 Bft) W 270 ° 0 min 0,000 mm 0,0 UV-I 26 W/m² 10,0 °C 17,1 °C 14,5 km/h (3 Bft) 100,00 %
07.05.2026 16:33 17,2 °C 61 % 1013,7 hPa 0,0 l/m² 1,6 km/h (1 Bft) S-SW 202 ° 0 min 0,000 mm 0,0 UV-I 26 W/m² 9,6 °C 17,2 °C 8,0 km/h (2 Bft) 95,65 %
07.05.2026 16:32 17,2 °C 61 % 1013,7 hPa 0,0 l/m² 1,6 km/h (1 Bft) W-SW 247 ° 0 min 0,000 mm 0,0 UV-I 25 W/m² 9,6 °C 17,2 °C 4,8 km/h (1 Bft) 95,65 %
07.05.2026 16:31 17,2 °C 60 % 1013,7 hPa 0,0 l/m² 1,6 km/h (1 Bft) W-SW 247 ° 0 min 0,000 mm 0,0 UV-I 26 W/m² 9,4 °C 17,2 °C 3,2 km/h (1 Bft) 95,65 %
07.05.2026 16:30 17,2 °C 61 % 1013,7 hPa 0,0 l/m² 1,6 km/h (1 Bft) W-SW 247 ° 0 min 0,000 mm 0,0 UV-I 26 W/m² 9,6 °C 17,2 °C 3,2 km/h (1 Bft) 100,00 %
07.05.2026 16:29 17,3 °C 60 % 1013,7 hPa 0,0 l/m² 1,6 km/h (1 Bft) SW 225 ° 0 min 0,000 mm 0,0 UV-I 28 W/m² 9,5 °C 17,3 °C 4,8 km/h (1 Bft) 95,65 %
07.05.2026 16:28 17,3 °C 60 % 1013,7 hPa 0,0 l/m² 0,0 km/h (0 Bft) SW 225 ° 0 min 0,000 mm 0,0 UV-I 28 W/m² 9,5 °C 17,3 °C 1,6 km/h (1 Bft) 100,00 %
07.05.2026 16:27 17,3 °C 60 % 1013,7 hPa 0,0 l/m² 1,6 km/h (1 Bft) SW 225 ° 0 min 0,000 mm 0,0 UV-I 33 W/m² 9,5 °C 17,3 °C 3,2 km/h (1 Bft) 95,65 %
07.05.2026 16:26 17,3 °C 60 % 1013,7 hPa 0,0 l/m² 1,6 km/h (1 Bft) SW 225 ° 0 min 0,000 mm 0,0 UV-I 37 W/m² 9,5 °C 17,3 °C 3,2 km/h (1 Bft) 95,65 %
07.05.2026 16:25 17,3 °C 60 % 1013,6 hPa 0,0 l/m² 1,6 km/h (1 Bft) SW 225 ° 0 min 0,000 mm 0,0 UV-I 40 W/m² 9,5 °C 17,3 °C 1,6 km/h (1 Bft) 95,65 %
07.05.2026 16:24 17,4 °C 60 % 1013,6 hPa 0,0 l/m² 3,2 km/h (1 Bft) SW 225 ° 0 min 0,000 mm 0,0 UV-I 46 W/m² 9,6 °C 17,4 °C 4,8 km/h (1 Bft) 100,00 %
07.05.2026 16:23 17,4 °C 60 % 1013,7 hPa 0,0 l/m² 3,2 km/h (1 Bft) S 180 ° 0 min 0,000 mm 0,0 UV-I 54 W/m² 9,6 °C 17,4 °C 8,0 km/h (2 Bft) 100,00 %
07.05.2026 16:22 17,5 °C 59 % 1013,6 hPa 0,0 l/m² 1,6 km/h (1 Bft) W 270 ° 0 min 0,000 mm 0,0 UV-I 62 W/m² 9,4 °C 17,5 °C 3,2 km/h (1 Bft) 100,00 %
07.05.2026 16:21 17,6 °C 59 % 1013,6 hPa 0,0 l/m² 3,2 km/h (1 Bft) W 270 ° 0 min 0,000 mm 0,0 UV-I 70 W/m² 9,5 °C 17,6 °C 4,8 km/h (1 Bft) 100,00 %
07.05.2026 16:20 17,6 °C 59 % 1013,6 hPa 0,0 l/m² 4,8 km/h (1 Bft) W 270 ° 0 min 0,000 mm 0,0 UV-I 84 W/m² 9,5 °C 17,6 °C 9,7 km/h (2 Bft) 100,00 %
07.05.2026 16:19 17,6 °C 59 % 1013,7 hPa 0,0 l/m² 3,2 km/h (1 Bft) W-SW 247 ° 0 min 0,000 mm 0,5 UV-I 90 W/m² 9,5 °C 17,6 °C 6,4 km/h (2 Bft) 91,30 %
07.05.2026 16:18 17,7 °C 60 % 1013,7 hPa 0,0 l/m² 1,6 km/h (1 Bft) W-SW 247 ° 0 min 0,000 mm 0,5 UV-I 97 W/m² 9,8 °C 17,7 °C 3,2 km/h (1 Bft) 100,00 %
07.05.2026 16:17 17,7 °C 60 % 1013,6 hPa 0,0 l/m² 1,6 km/h (1 Bft) W-SW 247 ° 0 min 0,000 mm 0,5 UV-I 102 W/m² 9,8 °C 17,7 °C 3,2 km/h (1 Bft) 100,00 %
07.05.2026 16:16 17,7 °C 59 % 1013,6 hPa 0,0 l/m² 4,8 km/h (1 Bft) W 270 ° 0 min 0,000 mm 0,5 UV-I 104 W/m² 9,6 °C 17,7 °C 9,7 km/h (2 Bft) 100,00 %
07.05.2026 16:15 17,7 °C 59 % 1013,7 hPa 0,0 l/m² 1,6 km/h (1 Bft) S-SW 202 ° 0 min 0,000 mm 0,6 UV-I 105 W/m² 9,6 °C 17,7 °C 3,2 km/h (1 Bft) 100,00 %
07.05.2026 16:14 17,8 °C 59 % 1013,7 hPa 0,0 l/m² 1,6 km/h (1 Bft) S-SW 202 ° 0 min 0,000 mm 0,6 UV-I 109 W/m² 9,7 °C 17,8 °C 3,2 km/h (1 Bft) 100,00 %
07.05.2026 16:13 17,8 °C 58 % 1013,7 hPa 0,0 l/m² 4,8 km/h (1 Bft) S-SW 202 ° 0 min 0,000 mm 0,7 UV-I 135 W/m² 9,4 °C 17,8 °C 8,0 km/h (2 Bft) 100,00 %
07.05.2026 16:12 17,9 °C 58 % 1013,7 hPa 0,0 l/m² 1,6 km/h (1 Bft) SW 225 ° 1 min 0,000 mm 0,8 UV-I 156 W/m² 9,5 °C 17,9 °C 4,8 km/h (1 Bft) 91,30 %
07.05.2026 16:11 17,8 °C 58 % 1013,7 hPa 0,0 l/m² 1,6 km/h (1 Bft) W-SW 247 ° 1 min 0,000 mm 0,9 UV-I 176 W/m² 9,4 °C 17,8 °C 3,2 km/h (1 Bft) 100,00 %
07.05.2026 16:10 17,8 °C 59 % 1013,7 hPa 0,0 l/m² 0,0 km/h (0 Bft) S-SW 202 ° 1 min 0,000 mm 1,1 UV-I 195 W/m² 9,7 °C 17,8 °C 3,2 km/h (1 Bft) 95,65 %
07.05.2026 16:09 17,8 °C 57 % 1013,6 hPa 0,0 l/m² 1,6 km/h (1 Bft) S-SW 202 ° 1 min 0,000 mm 1,2 UV-I 213 W/m² 9,2 °C 17,8 °C 3,2 km/h (1 Bft) 100,00 %
07.05.2026 16:08 17,9 °C 58 % 1013,7 hPa 0,0 l/m² 3,2 km/h (1 Bft) S-SW 202 ° 1 min 0,000 mm 1,2 UV-I 223 W/m² 9,5 °C 17,9 °C 4,8 km/h (1 Bft) 95,65 %
07.05.2026 16:07 18,0 °C 58 % 1013,6 hPa 0,0 l/m² 1,6 km/h (1 Bft) S-SW 202 ° 1 min 0,000 mm 1,3 UV-I 232 W/m² 9,6 °C 18,0 °C 4,8 km/h (1 Bft) 100,00 %
07.05.2026 16:06 18,1 °C 58 % 1013,6 hPa 0,0 l/m² 1,6 km/h (1 Bft) W 270 ° 1 min 0,000 mm 1,3 UV-I 239 W/m² 9,7 °C 18,1 °C 3,2 km/h (1 Bft) 91,30 %
07.05.2026 16:05 18,0 °C 59 % 1013,7 hPa 0,0 l/m² 1,6 km/h (1 Bft) W 270 ° 1 min 0,000 mm 1,3 UV-I 241 W/m² 9,9 °C 18,0 °C 3,2 km/h (1 Bft) 95,65 %
07.05.2026 16:04 18,0 °C 59 % 1013,6 hPa 0,0 l/m² 1,6 km/h (1 Bft) W-NW 292 ° 1 min 0,000 mm 1,3 UV-I 244 W/m² 9,9 °C 18,0 °C 3,2 km/h (1 Bft) 100,00 %
07.05.2026 16:03 18,0 °C 58 % 1013,6 hPa 0,0 l/m² 3,2 km/h (1 Bft) W 270 ° 1 min 0,000 mm 1,3 UV-I 246 W/m² 9,6 °C 18,0 °C 8,0 km/h (2 Bft) 95,65 %
07.05.2026 16:02 17,9 °C 59 % 1013,6 hPa 0,0 l/m² 1,6 km/h (1 Bft) W 270 ° 1 min 0,000 mm 1,3 UV-I 250 W/m² 9,8 °C 17,9 °C 3,2 km/h (1 Bft) 95,65 %
07.05.2026 16:01 17,9 °C 58 % 1013,6 hPa 0,0 l/m² 1,6 km/h (1 Bft) W 270 ° 1 min 0,000 mm 1,4 UV-I 251 W/m² 9,5 °C 17,9 °C 3,2 km/h (1 Bft) 95,65 %
07.05.2026 16:00 17,9 °C 58 % 1013,6 hPa 0,0 l/m² 1,6 km/h (1 Bft) W 270 ° 1 min 0,203 mm 1,4 UV-I 255 W/m² 9,5 °C 17,9 °C 1,6 km/h (1 Bft) 95,65 %
07.05.2026 15:59 18,0 °C 57 % 1013,6 hPa 0,0 l/m² 3,2 km/h (1 Bft) W 270 ° 1 min 0,000 mm 1,4 UV-I 258 W/m² 9,4 °C 18,0 °C 6,4 km/h (2 Bft) 91,30 %
07.05.2026 15:58 18,1 °C 58 % 1013,7 hPa 0,0 l/m² 1,6 km/h (1 Bft) SW 225 ° 1 min 0,000 mm 1,4 UV-I 262 W/m² 9,7 °C 18,1 °C 4,8 km/h (1 Bft) 91,30 %
07.05.2026 15:57 18,1 °C 58 % 1013,6 hPa 0,0 l/m² 3,2 km/h (1 Bft) SW 225 ° 1 min 0,000 mm 1,4 UV-I 264 W/m² 9,7 °C 18,1 °C 4,8 km/h (1 Bft) 100,00 %
07.05.2026 15:56 18,2 °C 58 % 1013,5 hPa 0,0 l/m² 1,6 km/h (1 Bft) W 270 ° 1 min 0,000 mm 1,4 UV-I 264 W/m² 9,8 °C 18,2 °C 6,4 km/h (2 Bft) 95,65 %
07.05.2026 15:55 18,2 °C 57 % 1013,6 hPa 0,0 l/m² 3,2 km/h (1 Bft) W-NW 292 ° 1 min 0,000 mm 1,4 UV-I 265 W/m² 9,5 °C 18,2 °C 4,8 km/h (1 Bft) 95,65 %
07.05.2026 15:54 18,2 °C 57 % 1013,6 hPa 0,0 l/m² 4,8 km/h (1 Bft) S-SW 202 ° 1 min 0,000 mm 1,4 UV-I 265 W/m² 9,5 °C 18,2 °C 9,7 km/h (2 Bft) 95,65 %
07.05.2026 15:53 18,2 °C 57 % 1013,6 hPa 0,0 l/m² 3,2 km/h (1 Bft) W-SW 247 ° 1 min 0,000 mm 1,4 UV-I 265 W/m² 9,5 °C 18,2 °C 11,3 km/h (2 Bft) 95,65 %
07.05.2026 15:52 18,1 °C 57 % 1013,6 hPa 0,0 l/m² 3,2 km/h (1 Bft) SW 225 ° 1 min 0,000 mm 1,4 UV-I 267 W/m² 9,4 °C 18,1 °C 4,8 km/h (1 Bft) 91,30 %
07.05.2026 15:51 18,1 °C 58 % 1013,6 hPa 0,0 l/m² 1,6 km/h (1 Bft) W 270 ° 1 min 0,000 mm 1,4 UV-I 265 W/m² 9,7 °C 18,1 °C 3,2 km/h (1 Bft) 95,65 %
07.05.2026 15:50 18,0 °C 57 % 1013,6 hPa 0,0 l/m² 3,2 km/h (1 Bft) W 270 ° 1 min 0,000 mm 1,4 UV-I 265 W/m² 9,4 °C 18,0 °C 6,4 km/h (2 Bft) 100,00 %
07.05.2026 15:49 18,0 °C 58 % 1013,5 hPa 0,0 l/m² 1,6 km/h (1 Bft) W-NW 292 ° 1 min 0,000 mm 1,4 UV-I 264 W/m² 9,6 °C 18,0 °C 3,2 km/h (1 Bft) 100,00 %
07.05.2026 15:48 17,9 °C 57 % 1013,6 hPa 0,0 l/m² 0,0 km/h (0 Bft) W-NW 292 ° 1 min 0,000 mm 1,4 UV-I 265 W/m² 9,3 °C 17,9 °C 3,2 km/h (1 Bft) 95,65 %
07.05.2026 15:47 18,0 °C 57 % 1013,6 hPa 0,0 l/m² 3,2 km/h (1 Bft) W-NW 292 ° 1 min 0,000 mm 1,5 UV-I 267 W/m² 9,4 °C 18,0 °C 8,0 km/h (2 Bft) 100,00 %
07.05.2026 15:46 18,1 °C 57 % 1013,6 hPa 0,0 l/m² 4,8 km/h (1 Bft) W-SW 247 ° 1 min 0,000 mm 1,5 UV-I 267 W/m² 9,4 °C 18,1 °C 6,4 km/h (2 Bft) 91,30 %
07.05.2026 15:45 18,2 °C 56 % 1013,6 hPa 0,0 l/m² 4,8 km/h (1 Bft) W-SW 247 ° 1 min 0,000 mm 1,5 UV-I 269 W/m² 9,3 °C 18,2 °C 8,0 km/h (2 Bft) 100,00 %
07.05.2026 15:44 18,2 °C 57 % 1013,6 hPa 0,0 l/m² 4,8 km/h (1 Bft) SW 225 ° 1 min 0,000 mm 1,5 UV-I 271 W/m² 9,5 °C 18,2 °C 11,3 km/h (2 Bft) 95,65 %
07.05.2026 15:43 18,2 °C 58 % 1013,6 hPa 0,0 l/m² 1,6 km/h (1 Bft) SW 225 ° 1 min 0,000 mm 1,5 UV-I 272 W/m² 9,8 °C 18,2 °C 3,2 km/h (1 Bft) 95,65 %
07.05.2026 15:42 18,2 °C 58 % 1013,6 hPa 0,0 l/m² 1,6 km/h (1 Bft) SW 225 ° 1 min 0,000 mm 1,5 UV-I 274 W/m² 9,8 °C 18,2 °C 4,8 km/h (1 Bft) 100,00 %
07.05.2026 15:41 18,1 °C 58 % 1013,6 hPa 0,0 l/m² 3,2 km/h (1 Bft) SW 225 ° 1 min 0,000 mm 1,5 UV-I 276 W/m² 9,7 °C 18,1 °C 9,7 km/h (2 Bft) 100,00 %
07.05.2026 15:40 18,0 °C 58 % 1013,6 hPa 0,0 l/m² 1,6 km/h (1 Bft) W-SW 247 ° 1 min 0,000 mm 1,6 UV-I 279 W/m² 9,6 °C 18,0 °C 3,2 km/h (1 Bft) 100,00 %
07.05.2026 15:39 17,9 °C 57 % 1013,5 hPa 0,0 l/m² 1,6 km/h (1 Bft) W-SW 247 ° 1 min 0,000 mm 1,6 UV-I 283 W/m² 9,3 °C 17,9 °C 4,8 km/h (1 Bft) 100,00 %
07.05.2026 15:38 17,9 °C 57 % 1013,6 hPa 0,0 l/m² 4,8 km/h (1 Bft) W-SW 247 ° 1 min 0,000 mm 1,6 UV-I 287 W/m² 9,3 °C 17,9 °C 11,3 km/h (2 Bft) 100,00 %
07.05.2026 15:37 17,9 °C 56 % 1013,5 hPa 0,0 l/m² 8,0 km/h (2 Bft) W 270 ° 1 min 0,000 mm 1,6 UV-I 288 W/m² 9,0 °C 17,1 °C 11,3 km/h (2 Bft) 95,65 %
07.05.2026 15:36 18,1 °C 56 % 1013,7 hPa 0,0 l/m² 6,4 km/h (2 Bft) W 270 ° 1 min 0,000 mm 1,6 UV-I 290 W/m² 9,2 °C 18,1 °C 11,3 km/h (2 Bft) 100,00 %
07.05.2026 15:35 18,0 °C 57 % 1013,6 hPa 0,0 l/m² 1,6 km/h (1 Bft) W-SW 247 ° 1 min 0,000 mm 1,6 UV-I 292 W/m² 9,4 °C 18,0 °C 4,8 km/h (1 Bft) 95,65 %
07.05.2026 15:34 18,0 °C 57 % 1013,6 hPa 0,0 l/m² 3,2 km/h (1 Bft) SW 225 ° 1 min 0,000 mm 1,6 UV-I 292 W/m² 9,4 °C 18,0 °C 6,4 km/h (2 Bft) 100,00 %
07.05.2026 15:33 18,1 °C 56 % 1013,6 hPa 0,0 l/m² 1,6 km/h (1 Bft) SW 225 ° 1 min 0,000 mm 1,7 UV-I 294 W/m² 9,2 °C 18,1 °C 3,2 km/h (1 Bft) 100,00 %
07.05.2026 15:32 18,1 °C 57 % 1013,6 hPa 0,0 l/m² 3,2 km/h (1 Bft) SW 225 ° 1 min 0,000 mm 1,7 UV-I 294 W/m² 9,4 °C 18,1 °C 4,8 km/h (1 Bft) 95,65 %
07.05.2026 15:31 18,2 °C 56 % 1013,6 hPa 0,0 l/m² 4,8 km/h (1 Bft) W 270 ° 1 min 0,000 mm 1,7 UV-I 295 W/m² 9,3 °C 18,2 °C 9,7 km/h (2 Bft) 100,00 %
07.05.2026 15:30 18,1 °C 57 % 1013,5 hPa 0,0 l/m² 3,2 km/h (1 Bft) W-SW 247 ° 1 min 0,000 mm 1,7 UV-I 297 W/m² 9,4 °C 18,1 °C 6,4 km/h (2 Bft) 91,30 %
07.05.2026 15:29 18,1 °C 56 % 1013,6 hPa 0,0 l/m² 4,8 km/h (1 Bft) W-SW 247 ° 1 min 0,000 mm 1,7 UV-I 297 W/m² 9,2 °C 18,1 °C 6,4 km/h (2 Bft) 100,00 %
07.05.2026 15:28 18,1 °C 56 % 1013,5 hPa 0,0 l/m² 4,8 km/h (1 Bft) W-SW 247 ° 1 min 0,000 mm 1,7 UV-I 299 W/m² 9,2 °C 18,1 °C 12,9 km/h (3 Bft) 91,30 %
07.05.2026 15:27 18,2 °C 55 % 1013,5 hPa 0,0 l/m² 4,8 km/h (1 Bft) W-SW 247 ° 1 min 0,000 mm 1,7 UV-I 299 W/m² 9,0 °C 18,2 °C 9,7 km/h (2 Bft) 100,00 %
07.05.2026 15:26 18,2 °C 55 % 1013,5 hPa 0,0 l/m² 3,2 km/h (1 Bft) S 180 ° 1 min 0,000 mm 1,7 UV-I 299 W/m² 9,0 °C 18,2 °C 9,7 km/h (2 Bft) 100,00 %
07.05.2026 15:25 18,3 °C 55 % 1013,5 hPa 0,0 l/m² 4,8 km/h (1 Bft) SW 225 ° 1 min 0,000 mm 1,7 UV-I 297 W/m² 9,1 °C 18,3 °C 14,5 km/h (3 Bft) 95,65 %
07.05.2026 15:24 18,3 °C 57 % 1013,6 hPa 0,0 l/m² 3,2 km/h (1 Bft) W-SW 247 ° 1 min 0,000 mm 1,7 UV-I 297 W/m² 9,6 °C 18,3 °C 6,4 km/h (2 Bft) 100,00 %
07.05.2026 15:23 18,2 °C 57 % 1013,5 hPa 0,0 l/m² 3,2 km/h (1 Bft) SW 225 ° 1 min 0,000 mm 1,8 UV-I 297 W/m² 9,5 °C 18,2 °C 6,4 km/h (2 Bft) 91,30 %
07.05.2026 15:22 17,9 °C 56 % 1013,5 hPa 0,0 l/m² 4,8 km/h (1 Bft) W 270 ° 1 min 0,000 mm 1,8 UV-I 301 W/m² 9,0 °C 17,9 °C 8,0 km/h (2 Bft) 95,65 %
07.05.2026 15:21 17,9 °C 55 % 1013,5 hPa 0,0 l/m² 6,4 km/h (2 Bft) W 270 ° 1 min 0,000 mm 1,8 UV-I 304 W/m² 8,7 °C 17,9 °C 11,3 km/h (2 Bft) 95,65 %
07.05.2026 15:20 18,0 °C 55 % 1013,5 hPa 0,0 l/m² 1,6 km/h (1 Bft) S-SW 202 ° 1 min 0,000 mm 1,8 UV-I 309 W/m² 8,8 °C 18,0 °C 4,8 km/h (1 Bft) 100,00 %
07.05.2026 15:19 18,1 °C 55 % 1013,5 hPa 0,0 l/m² 4,8 km/h (1 Bft) S-SW 202 ° 1 min 0,000 mm 1,9 UV-I 316 W/m² 8,9 °C 18,1 °C 9,7 km/h (2 Bft) 100,00 %
07.05.2026 15:18 18,1 °C 55 % 1013,5 hPa 0,0 l/m² 6,4 km/h (2 Bft) W 270 ° 1 min 0,000 mm 2,0 UV-I 320 W/m² 8,9 °C 18,1 °C 16,1 km/h (3 Bft) 95,65 %
07.05.2026 15:17 18,2 °C 55 % 1013,5 hPa 0,0 l/m² 3,2 km/h (1 Bft) SW 225 ° 1 min 0,000 mm 2,0 UV-I 330 W/m² 9,0 °C 18,2 °C 4,8 km/h (1 Bft) 100,00 %
07.05.2026 15:16 18,2 °C 55 % 1013,4 hPa 0,0 l/m² 3,2 km/h (1 Bft) W-SW 247 ° 1 min 0,000 mm 2,0 UV-I 332 W/m² 9,0 °C 18,2 °C 8,0 km/h (2 Bft) 91,30 %
07.05.2026 15:15 18,2 °C 55 % 1013,5 hPa 0,0 l/m² 1,6 km/h (1 Bft) W-SW 247 ° 1 min 0,000 mm 2,0 UV-I 334 W/m² 9,0 °C 18,2 °C 4,8 km/h (1 Bft) 100,00 %
07.05.2026 15:14 18,3 °C 55 % 1013,5 hPa 0,0 l/m² 6,4 km/h (2 Bft) W 270 ° 1 min 0,000 mm 2,0 UV-I 332 W/m² 9,1 °C 18,3 °C 11,3 km/h (2 Bft) 95,65 %
07.05.2026 15:13 18,3 °C 55 % 1013,5 hPa 0,0 l/m² 3,2 km/h (1 Bft) W 270 ° 1 min 0,000 mm 2,0 UV-I 334 W/m² 9,1 °C 18,3 °C 6,4 km/h (2 Bft) 100,00 %
07.05.2026 15:12 18,4 °C 54 % 1013,5 hPa 0,0 l/m² 3,2 km/h (1 Bft) S-SW 202 ° 1 min 0,000 mm 2,1 UV-I 334 W/m² 8,9 °C 18,4 °C 6,4 km/h (2 Bft) 95,65 %
07.05.2026 15:11 18,6 °C 54 % 1013,5 hPa 0,0 l/m² 6,4 km/h (2 Bft) W 270 ° 1 min 0,000 mm 2,1 UV-I 332 W/m² 9,1 °C 18,6 °C 12,9 km/h (3 Bft) 95,65 %
07.05.2026 15:10 18,8 °C 55 % 1013,4 hPa 0,0 l/m² 4,8 km/h (1 Bft) W-SW 247 ° 1 min 0,000 mm 2,1 UV-I 343 W/m² 9,6 °C 18,8 °C 9,7 km/h (2 Bft) 95,65 %
07.05.2026 15:09 18,7 °C 55 % 1013,4 hPa 0,0 l/m² 3,2 km/h (1 Bft) W 270 ° 1 min 0,000 mm 2,1 UV-I 346 W/m² 9,5 °C 18,7 °C 4,8 km/h (1 Bft) 95,65 %
07.05.2026 15:08 18,6 °C 55 % 1013,4 hPa 0,0 l/m² 3,2 km/h (1 Bft) W-SW 247 ° 1 min 0,000 mm 2,2 UV-I 357 W/m² 9,4 °C 18,6 °C 6,4 km/h (2 Bft) 100,00 %
07.05.2026 15:07 18,6 °C 55 % 1013,5 hPa 0,0 l/m² 1,6 km/h (1 Bft) SO 135 ° 1 min 0,000 mm 2,2 UV-I 359 W/m² 9,4 °C 18,6 °C 3,2 km/h (1 Bft) 100,00 %
07.05.2026 15:06 18,5 °C 55 % 1013,4 hPa 0,0 l/m² 1,6 km/h (1 Bft) SW 225 ° 1 min 0,000 mm 2,2 UV-I 364 W/m² 9,3 °C 18,5 °C 4,8 km/h (1 Bft) 100,00 %
07.05.2026 15:05 18,6 °C 54 % 1013,4 hPa 0,0 l/m² 3,2 km/h (1 Bft) S 180 ° 1 min 0,000 mm 2,3 UV-I 371 W/m² 9,1 °C 18,6 °C 6,4 km/h (2 Bft) 100,00 %
07.05.2026 15:04 18,6 °C 55 % 1013,4 hPa 0,0 l/m² 3,2 km/h (1 Bft) S 180 ° 1 min 0,000 mm 2,4 UV-I 378 W/m² 9,4 °C 18,6 °C 8,0 km/h (2 Bft) 100,00 %
07.05.2026 15:03 18,5 °C 55 % 1013,4 hPa 0,0 l/m² 3,2 km/h (1 Bft) S-SW 202 ° 1 min 0,000 mm 2,3 UV-I 367 W/m² 9,3 °C 18,5 °C 6,4 km/h (2 Bft) 100,00 %
07.05.2026 15:02 18,5 °C 55 % 1013,3 hPa 0,0 l/m² 4,8 km/h (1 Bft) W-SW 247 ° 1 min 0,000 mm 2,4 UV-I 385 W/m² 9,3 °C 18,5 °C 9,7 km/h (2 Bft) 95,65 %
07.05.2026 15:01 18,5 °C 55 % 1013,5 hPa 0,0 l/m² 3,2 km/h (1 Bft) W-SW 247 ° 1 min 0,000 mm 2,4 UV-I 373 W/m² 9,3 °C 18,5 °C 6,4 km/h (2 Bft) 100,00 %
07.05.2026 15:00 18,6 °C 54 % 1013,4 hPa 0,0 l/m² 6,4 km/h (2 Bft) W-SW 247 ° 1 min 0,305 mm 2,5 UV-I 394 W/m² 9,1 °C 18,6 °C 14,5 km/h (3 Bft) 100,00 %
07.05.2026 14:59 18,7 °C 54 % 1013,5 hPa 0,0 l/m² 6,4 km/h (2 Bft) W-SW 247 ° 1 min 0,000 mm 2,6 UV-I 406 W/m² 9,2 °C 18,7 °C 12,9 km/h (3 Bft) 100,00 %
07.05.2026 14:58 18,7 °C 55 % 1013,5 hPa 0,0 l/m² 4,8 km/h (1 Bft) W-SW 247 ° 1 min 0,000 mm 2,6 UV-I 446 W/m² 9,5 °C 18,7 °C 9,7 km/h (2 Bft) 100,00 %
07.05.2026 14:57 18,6 °C 55 % 1013,5 hPa 0,0 l/m² 4,8 km/h (1 Bft) W 270 ° 1 min 0,000 mm 2,8 UV-I 490 W/m² 9,4 °C 18,6 °C 11,3 km/h (2 Bft) 100,00 %
07.05.2026 14:56 18,5 °C 55 % 1013,5 hPa 0,0 l/m² 3,2 km/h (1 Bft) W-SW 247 ° 1 min 0,000 mm 3,0 UV-I 541 W/m² 9,3 °C 18,5 °C 6,4 km/h (2 Bft) 100,00 %
07.05.2026 14:55 18,5 °C 56 % 1013,5 hPa 0,0 l/m² 6,4 km/h (2 Bft) W 270 ° 1 min 0,000 mm 3,1 UV-I 417 W/m² 9,6 °C 18,5 °C 12,9 km/h (3 Bft) 95,65 %
07.05.2026 14:54 18,4 °C 54 % 1013,5 hPa 0,0 l/m² 6,4 km/h (2 Bft) W 270 ° 1 min 0,000 mm 2,6 UV-I 417 W/m² 8,9 °C 18,4 °C 14,5 km/h (3 Bft) 100,00 %
07.05.2026 14:53 18,6 °C 54 % 1013,5 hPa 0,0 l/m² 4,8 km/h (1 Bft) W 270 ° 1 min 0,000 mm 2,6 UV-I 422 W/m² 9,1 °C 18,6 °C 9,7 km/h (2 Bft) 100,00 %
07.05.2026 14:52 18,5 °C 54 % 1013,5 hPa 0,0 l/m² 11,3 km/h (2 Bft) W-NW 292 ° 1 min 0,000 mm 2,7 UV-I 439 W/m² 9,0 °C 16,5 °C 19,3 km/h (3 Bft) 100,00 %
07.05.2026 14:51 18,4 °C 55 % 1013,5 hPa 0,0 l/m² 8,0 km/h (2 Bft) W 270 ° 1 min 0,000 mm 2,8 UV-I 406 W/m² 9,2 °C 17,7 °C 14,5 km/h (3 Bft) 100,00 %
07.05.2026 14:50 18,3 °C 54 % 1013,5 hPa 0,0 l/m² 11,3 km/h (2 Bft) W 270 ° 1 min 0,000 mm 3,1 UV-I 406 W/m² 8,8 °C 16,3 °C 16,1 km/h (3 Bft) 95,65 %
07.05.2026 14:49 18,3 °C 54 % 1013,4 hPa 0,0 l/m² 9,7 km/h (2 Bft) W-NW 292 ° 1 min 0,000 mm 2,4 UV-I 406 W/m² 8,8 °C 16,9 °C 16,1 km/h (3 Bft) 100,00 %
07.05.2026 14:48 18,3 °C 54 % 1013,5 hPa 0,0 l/m² 9,7 km/h (2 Bft) W 270 ° 1 min 0,000 mm 2,3 UV-I 355 W/m² 8,8 °C 16,9 °C 16,1 km/h (3 Bft) 95,65 %
07.05.2026 14:47 18,4 °C 54 % 1013,4 hPa 0,0 l/m² 6,4 km/h (2 Bft) W 270 ° 1 min 0,000 mm 2,2 UV-I 348 W/m² 8,9 °C 18,4 °C 12,9 km/h (3 Bft) 100,00 %
07.05.2026 14:46 18,6 °C 53 % 1013,4 hPa 0,0 l/m² 8,0 km/h (2 Bft) W 270 ° 1 min 0,000 mm 2,2 UV-I 339 W/m² 8,8 °C 17,9 °C 12,9 km/h (3 Bft) 100,00 %
07.05.2026 14:45 18,7 °C 54 % 1013,4 hPa 0,0 l/m² 9,7 km/h (2 Bft) W 270 ° 1 min 0,000 mm 2,1 UV-I 332 W/m² 9,2 °C 17,3 °C 17,7 km/h (3 Bft) 95,65 %
07.05.2026 14:44 18,8 °C 54 % 1013,3 hPa 0,0 l/m² 8,0 km/h (2 Bft) W 270 ° 1 min 0,000 mm 2,0 UV-I 323 W/m² 9,3 °C 18,1 °C 17,7 km/h (3 Bft) 95,65 %
07.05.2026 14:43 18,8 °C 54 % 1013,4 hPa 0,0 l/m² 6,4 km/h (2 Bft) W-SW 247 ° 1 min 0,000 mm 2,0 UV-I 315 W/m² 9,3 °C 18,8 °C 12,9 km/h (3 Bft) 100,00 %
07.05.2026 14:42 18,9 °C 54 % 1013,3 hPa 0,0 l/m² 8,0 km/h (2 Bft) W-SW 247 ° 1 min 0,000 mm 2,1 UV-I 348 W/m² 9,4 °C 18,2 °C 14,5 km/h (3 Bft) 100,00 %
07.05.2026 14:41 18,9 °C 54 % 1013,3 hPa 0,0 l/m² 6,4 km/h (2 Bft) S-SO 157 ° 1 min 0,000 mm 2,3 UV-I 503 W/m² 9,4 °C 18,9 °C 17,7 km/h (3 Bft) 95,65 %
07.05.2026 14:40 18,8 °C 56 % 1013,3 hPa 0,0 l/m² 3,2 km/h (1 Bft) SW 225 ° 1 min 0,000 mm 2,8 UV-I 503 W/m² 9,8 °C 18,8 °C 14,5 km/h (3 Bft) 95,65 %
07.05.2026 14:39 18,7 °C 55 % 1013,3 hPa 0,0 l/m² 4,8 km/h (1 Bft) SW 225 ° 1 min 0,000 mm 2,8 UV-I 503 W/m² 9,5 °C 18,7 °C 6,4 km/h (2 Bft) 100,00 %
07.05.2026 14:38 18,7 °C 54 % 1013,3 hPa 0,0 l/m² 6,4 km/h (2 Bft) W 270 ° 1 min 0,000 mm 2,7 UV-I 448 W/m² 9,2 °C 18,7 °C 14,5 km/h (3 Bft) 95,65 %
07.05.2026 14:37 18,7 °C 54 % 1013,3 hPa 0,0 l/m² 4,8 km/h (1 Bft) S 180 ° 1 min 0,000 mm 2,6 UV-I 446 W/m² 9,2 °C 18,7 °C 11,3 km/h (2 Bft) 100,00 %
07.05.2026 14:36 18,8 °C 54 % 1013,3 hPa 0,0 l/m² 4,8 km/h (1 Bft) W 270 ° 1 min 0,000 mm 2,6 UV-I 441 W/m² 9,3 °C 18,8 °C 9,7 km/h (2 Bft) 95,65 %
07.05.2026 14:35 18,9 °C 54 % 1013,3 hPa 0,0 l/m² 6,4 km/h (2 Bft) W-NW 292 ° 1 min 0,000 mm 2,3 UV-I 374 W/m² 9,4 °C 18,9 °C 12,9 km/h (3 Bft) 100,00 %
07.05.2026 14:34 19,1 °C 54 % 1013,3 hPa 0,0 l/m² 6,4 km/h (2 Bft) W-NW 292 ° 1 min 0,000 mm 2,2 UV-I 330 W/m² 9,6 °C 19,1 °C 12,9 km/h (3 Bft) 100,00 %
07.05.2026 14:33 19,1 °C 54 % 1013,3 hPa 0,0 l/m² 6,4 km/h (2 Bft) W-NW 292 ° 1 min 0,000 mm 2,2 UV-I 327 W/m² 9,6 °C 19,1 °C 11,3 km/h (2 Bft) 95,65 %
07.05.2026 14:32 19,0 °C 55 % 1013,4 hPa 0,0 l/m² 6,4 km/h (2 Bft) W-NW 292 ° 1 min 0,000 mm 2,2 UV-I 309 W/m² 9,8 °C 19,0 °C 12,9 km/h (3 Bft) 100,00 %
07.05.2026 14:31 18,9 °C 54 % 1013,3 hPa 0,0 l/m² 6,4 km/h (2 Bft) W 270 ° 1 min 0,000 mm 2,1 UV-I 297 W/m² 9,4 °C 18,9 °C 11,3 km/h (2 Bft) 100,00 %
07.05.2026 14:30 18,9 °C 55 % 1013,3 hPa 0,0 l/m² 4,8 km/h (1 Bft) W-NW 292 ° 1 min 0,000 mm 2,1 UV-I 292 W/m² 9,7 °C 18,9 °C 11,3 km/h (2 Bft) 95,65 %
07.05.2026 14:29 19,0 °C 54 % 1013,3 hPa 0,0 l/m² 6,4 km/h (2 Bft) W 270 ° 1 min 0,000 mm 2,2 UV-I 292 W/m² 9,5 °C 19,0 °C 9,7 km/h (2 Bft) 100,00 %
07.05.2026 14:28 19,0 °C 55 % 1013,3 hPa 0,0 l/m² 4,8 km/h (1 Bft) W 270 ° 1 min 0,000 mm 2,4 UV-I 381 W/m² 9,8 °C 19,0 °C 9,7 km/h (2 Bft) 100,00 %
07.05.2026 14:27 19,0 °C 54 % 1013,3 hPa 0,0 l/m² 9,7 km/h (2 Bft) W-NW 292 ° 1 min 0,000 mm 2,3 UV-I 318 W/m² 9,5 °C 17,6 °C 12,9 km/h (3 Bft) 100,00 %
07.05.2026 14:26 19,1 °C 54 % 1013,2 hPa 0,0 l/m² 12,9 km/h (3 Bft) W-NW 292 ° 1 min 0,000 mm 2,5 UV-I 341 W/m² 9,6 °C 16,7 °C 16,1 km/h (3 Bft) 95,65 %
07.05.2026 14:25 19,2 °C 54 % 1013,3 hPa 0,0 l/m² 6,4 km/h (2 Bft) S-SW 202 ° 1 min 0,000 mm 2,6 UV-I 357 W/m² 9,7 °C 19,2 °C 11,3 km/h (2 Bft) 100,00 %
07.05.2026 14:24 19,3 °C 53 % 1013,3 hPa 0,0 l/m² 1,6 km/h (1 Bft) W-SW 247 ° 1 min 0,000 mm 2,7 UV-I 376 W/m² 9,5 °C 19,3 °C 3,2 km/h (1 Bft) 95,65 %
07.05.2026 14:23 19,5 °C 53 % 1013,3 hPa 0,0 l/m² 3,2 km/h (1 Bft) W 270 ° 1 min 0,000 mm 3,1 UV-I 1035 W/m² 9,7 °C 19,5 °C 9,7 km/h (2 Bft) 100,00 %
07.05.2026 14:22 19,6 °C 53 % 1013,4 hPa 0,0 l/m² 9,7 km/h (2 Bft) W 270 ° 1 min 0,000 mm 5,0 UV-I 1035 W/m² 9,8 °C 18,3 °C 16,1 km/h (3 Bft) 100,00 %
07.05.2026 14:21 19,4 °C 54 % 1013,3 hPa 0,0 l/m² 3,2 km/h (1 Bft) W 270 ° 1 min 0,000 mm 5,0 UV-I 1035 W/m² 9,8 °C 19,4 °C 8,0 km/h (2 Bft) 100,00 %
07.05.2026 14:20 19,3 °C 57 % 1013,3 hPa 0,0 l/m² 3,2 km/h (1 Bft) W-SW 247 ° 1 min 0,000 mm 4,5 UV-I 998 W/m² 10,6 °C 19,3 °C 4,8 km/h (1 Bft) 95,65 %
07.05.2026 14:19 19,2 °C 56 % 1013,3 hPa 0,0 l/m² 4,8 km/h (1 Bft) SW 225 ° 1 min 0,000 mm 4,7 UV-I 998 W/m² 10,2 °C 19,2 °C 6,4 km/h (2 Bft) 95,65 %
07.05.2026 14:18 18,9 °C 55 % 1013,3 hPa 0,0 l/m² 4,8 km/h (1 Bft) W-NW 292 ° 1 min 0,000 mm 5,0 UV-I 313 W/m² 9,7 °C 18,9 °C 11,3 km/h (2 Bft) 100,00 %
07.05.2026 14:17 18,8 °C 55 % 1013,3 hPa 0,0 l/m² 11,3 km/h (2 Bft) W-NW 292 ° 1 min 0,000 mm 2,7 UV-I 313 W/m² 9,6 °C 16,9 °C 19,3 km/h (3 Bft) 100,00 %
07.05.2026 14:16 18,7 °C 54 % 1013,3 hPa 0,0 l/m² 12,9 km/h (3 Bft) W-NW 292 ° 1 min 0,000 mm 2,7 UV-I 647 W/m² 9,2 °C 16,3 °C 17,7 km/h (3 Bft) 100,00 %
07.05.2026 14:15 18,7 °C 55 % 1013,3 hPa 0,0 l/m² 12,9 km/h (3 Bft) W-NW 292 ° 1 min 0,000 mm 2,9 UV-I 647 W/m² 9,5 °C 16,3 °C 16,1 km/h (3 Bft) 100,00 %
07.05.2026 14:14 18,6 °C 55 % 1013,3 hPa 0,0 l/m² 6,4 km/h (2 Bft) W 270 ° 1 min 0,000 mm 2,7 UV-I 367 W/m² 9,4 °C 18,6 °C 12,9 km/h (3 Bft) 95,65 %
07.05.2026 14:13 18,6 °C 54 % 1013,3 hPa 0,0 l/m² 9,7 km/h (2 Bft) W 270 ° 1 min 0,000 mm 2,6 UV-I 737 W/m² 9,1 °C 17,2 °C 12,9 km/h (3 Bft) 100,00 %
07.05.2026 14:12 18,7 °C 55 % 1013,3 hPa 0,0 l/m² 8,0 km/h (2 Bft) W-SW 247 ° 1 min 0,000 mm 3,7 UV-I 737 W/m² 9,5 °C 18,0 °C 14,5 km/h (3 Bft) 91,30 %
07.05.2026 14:11 18,5 °C 55 % 1013,3 hPa 0,0 l/m² 8,0 km/h (2 Bft) W 270 ° 1 min 0,000 mm 4,2 UV-I 329 W/m² 9,3 °C 17,8 °C 12,9 km/h (3 Bft) 100,00 %
07.05.2026 14:10 18,4 °C 54 % 1013,3 hPa 0,0 l/m² 6,4 km/h (2 Bft) W 270 ° 1 min 0,000 mm 2,7 UV-I 329 W/m² 8,9 °C 18,4 °C 12,9 km/h (3 Bft) 100,00 %
07.05.2026 14:09 18,4 °C 54 % 1013,3 hPa 0,0 l/m² 3,2 km/h (1 Bft) SW 225 ° 1 min 0,000 mm 2,4 UV-I 294 W/m² 8,9 °C 18,4 °C 4,8 km/h (1 Bft) 95,65 %
07.05.2026 14:08 18,7 °C 53 % 1013,3 hPa 0,0 l/m² 4,8 km/h (1 Bft) W-SW 247 ° 1 min 0,000 mm 2,4 UV-I 274 W/m² 8,9 °C 18,7 °C 8,0 km/h (2 Bft) 100,00 %
07.05.2026 14:07 18,9 °C 52 % 1013,3 hPa 0,0 l/m² 3,2 km/h (1 Bft) W-SW 247 ° 1 min 0,000 mm 2,4 UV-I 264 W/m² 8,8 °C 18,9 °C 8,0 km/h (2 Bft) 100,00 %
07.05.2026 14:06 19,2 °C 52 % 1013,3 hPa 0,0 l/m² 12,9 km/h (3 Bft) W 270 ° 1 min 0,000 mm 2,5 UV-I 438 W/m² 9,1 °C 16,8 °C 17,7 km/h (3 Bft) 100,00 %
07.05.2026 14:05 19,3 °C 53 % 1013,3 hPa 0,0 l/m² 6,4 km/h (2 Bft) W 270 ° 1 min 0,000 mm 3,2 UV-I 438 W/m² 9,5 °C 19,3 °C 11,3 km/h (2 Bft) 95,65 %
07.05.2026 14:04 19,2 °C 53 % 1013,3 hPa 0,0 l/m² 11,3 km/h (2 Bft) W-NW 292 ° 1 min 0,000 mm 3,8 UV-I 926 W/m² 9,4 °C 17,3 °C 19,3 km/h (3 Bft) 100,00 %
07.05.2026 14:03 19,3 °C 52 % 1013,3 hPa 0,0 l/m² 4,8 km/h (1 Bft) W-NW 292 ° 1 min 0,000 mm 3,3 UV-I 926 W/m² 9,2 °C 19,3 °C 8,0 km/h (2 Bft) 95,65 %
07.05.2026 14:02 19,4 °C 52 % 1013,4 hPa 0,0 l/m² 4,8 km/h (1 Bft) W-SW 247 ° 1 min 0,000 mm 2,7 UV-I 926 W/m² 9,3 °C 19,4 °C 11,3 km/h (2 Bft) 95,65 %
07.05.2026 14:01 19,5 °C 52 % 1013,4 hPa 0,0 l/m² 12,9 km/h (3 Bft) W-NW 292 ° 1 min 0,000 mm 4,9 UV-I 926 W/m² 9,4 °C 17,2 °C 16,1 km/h (3 Bft) 100,00 %
07.05.2026 14:00 19,5 °C 53 % 1013,4 hPa 0,0 l/m² 6,4 km/h (2 Bft) W-NW 292 ° 1 min 0,483 mm 5,1 UV-I 926 W/m² 9,7 °C 19,5 °C 12,9 km/h (3 Bft) 95,65 %
07.05.2026 13:59 19,4 °C 53 % 1013,3 hPa 0,0 l/m² 8,0 km/h (2 Bft) W-NW 292 ° 1 min 0,000 mm 4,8 UV-I 860 W/m² 9,6 °C 18,7 °C 16,1 km/h (3 Bft) 100,00 %
07.05.2026 13:58 19,4 °C 52 % 1013,4 hPa 0,0 l/m² 9,7 km/h (2 Bft) W-NW 292 ° 1 min 0,000 mm 5,1 UV-I 860 W/m² 9,3 °C 18,1 °C 14,5 km/h (3 Bft) 95,65 %
07.05.2026 13:57 19,6 °C 53 % 1013,3 hPa 0,0 l/m² 9,7 km/h (2 Bft) W 270 ° 1 min 0,000 mm 4,4 UV-I 860 W/m² 9,8 °C 18,3 °C 16,1 km/h (3 Bft) 100,00 %
07.05.2026 13:56 19,4 °C 56 % 1013,3 hPa 0,0 l/m² 3,2 km/h (1 Bft) S-SW 202 ° 1 min 0,000 mm 4,8 UV-I 860 W/m² 10,4 °C 19,4 °C 4,8 km/h (1 Bft) 95,65 %
07.05.2026 13:55 19,2 °C 54 % 1013,4 hPa 0,0 l/m² 4,8 km/h (1 Bft) W-NW 292 ° 1 min 0,000 mm 5,2 UV-I 904 W/m² 9,7 °C 19,2 °C 9,7 km/h (2 Bft) 100,00 %
07.05.2026 13:54 19,2 °C 53 % 1013,4 hPa 0,0 l/m² 8,0 km/h (2 Bft) W 270 ° 1 min 0,000 mm 5,2 UV-I 889 W/m² 9,4 °C 18,5 °C 12,9 km/h (3 Bft) 95,65 %
07.05.2026 13:53 19,3 °C 52 % 1013,4 hPa 0,0 l/m² 12,9 km/h (3 Bft) W 270 ° 1 min 0,000 mm 4,9 UV-I 888 W/m² 9,2 °C 17,0 °C 16,1 km/h (3 Bft) 100,00 %
07.05.2026 13:52 19,4 °C 53 % 1013,4 hPa 0,0 l/m² 9,7 km/h (2 Bft) W-NW 292 ° 1 min 0,000 mm 5,2 UV-I 745 W/m² 9,6 °C 18,1 °C 20,9 km/h (4 Bft) 100,00 %
07.05.2026 13:51 19,5 °C 54 % 1013,4 hPa 0,0 l/m² 6,4 km/h (2 Bft) W 270 ° 1 min 0,000 mm 5,3 UV-I 701 W/m² 9,9 °C 19,5 °C 11,3 km/h (2 Bft) 95,65 %
07.05.2026 13:50 19,6 °C 53 % 1013,4 hPa 0,0 l/m² 4,8 km/h (1 Bft) W-SW 247 ° 1 min 0,000 mm 4,5 UV-I 752 W/m² 9,8 °C 19,6 °C 14,5 km/h (3 Bft) 100,00 %
07.05.2026 13:49 19,7 °C 54 % 1013,4 hPa 0,0 l/m² 6,4 km/h (2 Bft) S-SW 202 ° 1 min 0,000 mm 4,6 UV-I 1055 W/m² 10,1 °C 19,7 °C 11,3 km/h (2 Bft) 100,00 %
07.05.2026 13:48 19,6 °C 53 % 1013,4 hPa 0,0 l/m² 6,4 km/h (2 Bft) S 180 ° 1 min 0,000 mm 5,6 UV-I 1055 W/m² 9,8 °C 19,6 °C 14,5 km/h (3 Bft) 100,00 %
07.05.2026 13:47 19,4 °C 52 % 1013,4 hPa 0,0 l/m² 3,2 km/h (1 Bft) NW 315 ° 1 min 0,000 mm 5,4 UV-I 708 W/m² 9,3 °C 19,4 °C 4,8 km/h (1 Bft) 100,00 %
07.05.2026 13:46 19,4 °C 51 % 1013,5 hPa 0,0 l/m² 6,4 km/h (2 Bft) W 270 ° 1 min 0,000 mm 4,4 UV-I 708 W/m² 9,0 °C 19,4 °C 12,9 km/h (3 Bft) 100,00 %
07.05.2026 13:45 19,6 °C 50 % 1013,4 hPa 0,0 l/m² 8,0 km/h (2 Bft) W 270 ° 1 min 0,000 mm 4,9 UV-I 990 W/m² 8,9 °C 18,9 °C 16,1 km/h (3 Bft) 100,00 %
07.05.2026 13:44 19,8 °C 52 % 1013,4 hPa 0,0 l/m² 9,7 km/h (2 Bft) W 270 ° 1 min 0,000 mm 5,0 UV-I 990 W/m² 9,7 °C 18,5 °C 16,1 km/h (3 Bft) 95,65 %
07.05.2026 13:43 19,8 °C 54 % 1013,4 hPa 0,0 l/m² 3,2 km/h (1 Bft) W 270 ° 1 min 0,000 mm 5,5 UV-I 990 W/m² 10,2 °C 19,8 °C 6,4 km/h (2 Bft) 100,00 %
07.05.2026 13:42 19,8 °C 52 % 1013,5 hPa 0,0 l/m² 6,4 km/h (2 Bft) W 270 ° 1 min 0,000 mm 5,4 UV-I 965 W/m² 9,7 °C 19,8 °C 11,3 km/h (2 Bft) 100,00 %
07.05.2026 13:41 19,9 °C 53 % 1013,4 hPa 0,0 l/m² 9,7 km/h (2 Bft) W-NW 292 ° 1 min 0,000 mm 5,5 UV-I 953 W/m² 10,0 °C 18,6 °C 16,1 km/h (3 Bft) 100,00 %
07.05.2026 13:40 19,7 °C 55 % 1013,3 hPa 0,0 l/m² 4,8 km/h (1 Bft) SW 225 ° 1 min 0,000 mm 5,5 UV-I 949 W/m² 10,4 °C 19,7 °C 12,9 km/h (3 Bft) 100,00 %
07.05.2026 13:39 19,5 °C 54 % 1013,4 hPa 0,0 l/m² 8,0 km/h (2 Bft) W-NW 292 ° 1 min 0,000 mm 5,5 UV-I 974 W/m² 9,9 °C 18,8 °C 14,5 km/h (3 Bft) 100,00 %
07.05.2026 13:38 19,6 °C 54 % 1013,4 hPa 0,0 l/m² 8,0 km/h (2 Bft) W 270 ° 1 min 0,000 mm 5,5 UV-I 983 W/m² 10,0 °C 18,9 °C 16,1 km/h (3 Bft) 95,65 %
07.05.2026 13:37 19,4 °C 54 % 1013,4 hPa 0,0 l/m² 8,0 km/h (2 Bft) W-NW 292 ° 1 min 0,000 mm 5,5 UV-I 960 W/m² 9,8 °C 18,7 °C 12,9 km/h (3 Bft) 95,65 %
07.05.2026 13:36 19,4 °C 55 % 1013,5 hPa 0,0 l/m² 4,8 km/h (1 Bft) W-NW 292 ° 1 min 0,000 mm 5,5 UV-I 956 W/m² 10,1 °C 19,4 °C 9,7 km/h (2 Bft) 100,00 %
07.05.2026 13:35 19,5 °C 56 % 1013,5 hPa 0,0 l/m² 6,4 km/h (2 Bft) SW 225 ° 1 min 0,000 mm 5,5 UV-I 953 W/m² 10,5 °C 19,5 °C 9,7 km/h (2 Bft) 100,00 %
07.05.2026 13:34 19,4 °C 57 % 1013,4 hPa 0,0 l/m² 4,8 km/h (1 Bft) S 180 ° 1 min 0,000 mm 5,5 UV-I 970 W/m² 10,7 °C 19,4 °C 9,7 km/h (2 Bft) 100,00 %
07.05.2026 13:33 19,6 °C 55 % 1013,4 hPa 0,0 l/m² 4,8 km/h (1 Bft) S 180 ° 1 min 0,000 mm 5,6 UV-I 373 W/m² 10,3 °C 19,6 °C 14,5 km/h (3 Bft) 100,00 %
07.05.2026 13:32 19,7 °C 56 % 1013,4 hPa 0,0 l/m² 4,8 km/h (1 Bft) SW 225 ° 1 min 0,000 mm 3,7 UV-I 373 W/m² 10,7 °C 19,7 °C 6,4 km/h (2 Bft) 95,65 %
07.05.2026 13:31 19,6 °C 56 % 1013,5 hPa 0,0 l/m² 3,2 km/h (1 Bft) S-SW 202 ° 1 min 0,000 mm 5,5 UV-I 895 W/m² 10,6 °C 19,6 °C 6,4 km/h (2 Bft) 100,00 %
07.05.2026 13:30 19,5 °C 58 % 1013,4 hPa 0,0 l/m² 1,6 km/h (1 Bft) SW 225 ° 1 min 0,000 mm 5,3 UV-I 960 W/m² 11,0 °C 19,5 °C 3,2 km/h (1 Bft) 95,65 %
07.05.2026 13:29 19,3 °C 58 % 1013,5 hPa 0,0 l/m² 1,6 km/h (1 Bft) SW 225 ° 1 min 0,000 mm 4,5 UV-I 842 W/m² 10,8 °C 19,3 °C 3,2 km/h (1 Bft) 100,00 %
07.05.2026 13:28 19,3 °C 55 % 1013,5 hPa 0,0 l/m² 8,0 km/h (2 Bft) W 270 ° 1 min 0,000 mm 5,2 UV-I 842 W/m² 10,0 °C 18,6 °C 12,9 km/h (3 Bft) 100,00 %
07.05.2026 13:27 19,4 °C 56 % 1013,5 hPa 0,0 l/m² 6,4 km/h (2 Bft) W-NW 292 ° 1 min 0,000 mm 5,1 UV-I 842 W/m² 10,4 °C 19,4 °C 11,3 km/h (2 Bft) 95,65 %
07.05.2026 13:26 19,3 °C 57 % 1013,5 hPa 0,0 l/m² 4,8 km/h (1 Bft) W-SW 247 ° 1 min 0,000 mm 5,4 UV-I 896 W/m² 10,6 °C 19,3 °C 6,4 km/h (2 Bft) 100,00 %
07.05.2026 13:25 19,0 °C 57 % 1013,6 hPa 0,0 l/m² 4,8 km/h (1 Bft) W 270 ° 1 min 0,000 mm 5,4 UV-I 919 W/m² 10,3 °C 19,0 °C 8,0 km/h (2 Bft) 95,65 %
07.05.2026 13:24 18,9 °C 57 % 1013,6 hPa 0,0 l/m² 4,8 km/h (1 Bft) W-SW 247 ° 1 min 0,000 mm 5,4 UV-I 925 W/m² 10,2 °C 18,9 °C 9,7 km/h (2 Bft) 100,00 %
07.05.2026 13:23 18,9 °C 56 % 1013,6 hPa 0,0 l/m² 3,2 km/h (1 Bft) S-SW 202 ° 1 min 0,000 mm 5,5 UV-I 933 W/m² 9,9 °C 18,9 °C 11,3 km/h (2 Bft) 91,30 %
07.05.2026 13:22 19,0 °C 57 % 1013,6 hPa 0,0 l/m² 3,2 km/h (1 Bft) SW 225 ° 1 min 0,000 mm 5,5 UV-I 939 W/m² 10,3 °C 19,0 °C 6,4 km/h (2 Bft) 100,00 %
07.05.2026 13:21 18,9 °C 55 % 1013,7 hPa 0,0 l/m² 3,2 km/h (1 Bft) W 270 ° 1 min 0,000 mm 5,5 UV-I 928 W/m² 9,7 °C 18,9 °C 4,8 km/h (1 Bft) 95,65 %
07.05.2026 13:20 19,1 °C 56 % 1013,6 hPa 0,0 l/m² 9,7 km/h (2 Bft) W 270 ° 1 min 0,000 mm 5,5 UV-I 928 W/m² 10,1 °C 17,8 °C 16,1 km/h (3 Bft) 100,00 %
07.05.2026 13:19 19,0 °C 58 % 1013,6 hPa 0,0 l/m² 4,8 km/h (1 Bft) W-SW 247 ° 1 min 0,000 mm 5,5 UV-I 963 W/m² 10,5 °C 19,0 °C 8,0 km/h (2 Bft) 100,00 %
07.05.2026 13:18 18,8 °C 58 % 1013,7 hPa 0,0 l/m² 3,2 km/h (1 Bft) S 180 ° 1 min 0,000 mm 5,6 UV-I 979 W/m² 10,4 °C 18,8 °C 8,0 km/h (2 Bft) 100,00 %
07.05.2026 13:17 18,8 °C 59 % 1013,6 hPa 0,0 l/m² 8,0 km/h (2 Bft) W 270 ° 1 min 0,000 mm 5,5 UV-I 983 W/m² 10,6 °C 18,1 °C 12,9 km/h (3 Bft) 100,00 %
07.05.2026 13:16 18,6 °C 58 % 1013,7 hPa 0,0 l/m² 8,0 km/h (2 Bft) W 270 ° 1 min 0,000 mm 5,8 UV-I 1042 W/m² 10,2 °C 17,9 °C 16,1 km/h (3 Bft) 95,65 %
07.05.2026 13:15 18,2 °C 60 % 1013,6 hPa 0,0 l/m² 9,7 km/h (2 Bft) W 270 ° 1 min 0,000 mm 5,9 UV-I 610 W/m² 10,3 °C 16,8 °C 14,5 km/h (3 Bft) 95,65 %
07.05.2026 13:14 17,8 °C 60 % 1013,7 hPa 0,0 l/m² 8,0 km/h (2 Bft) W-NW 292 ° 1 min 0,000 mm 5,4 UV-I 610 W/m² 9,9 °C 17,0 °C 12,9 km/h (3 Bft) 95,65 %
07.05.2026 13:13 17,6 °C 59 % 1013,7 hPa 0,0 l/m² 8,0 km/h (2 Bft) W-NW 292 ° 1 min 0,000 mm 6,2 UV-I 610 W/m² 9,5 °C 16,8 °C 11,3 km/h (2 Bft) 100,00 %
07.05.2026 13:12 17,4 °C 60 % 1013,7 hPa 0,0 l/m² 11,3 km/h (2 Bft) W-NW 292 ° 1 min 0,000 mm 4,2 UV-I 610 W/m² 9,6 °C 15,3 °C 14,5 km/h (3 Bft) 100,00 %
07.05.2026 13:11 17,2 °C 59 % 1013,6 hPa 0,0 l/m² 4,8 km/h (1 Bft) W 270 ° 1 min 0,000 mm 4,0 UV-I 610 W/m² 9,1 °C 17,2 °C 11,3 km/h (2 Bft) 100,00 %
07.05.2026 13:10 17,3 °C 60 % 1013,7 hPa 0,0 l/m² 4,8 km/h (1 Bft) W 270 ° 1 min 0,000 mm 3,5 UV-I 459 W/m² 9,5 °C 17,3 °C 9,7 km/h (2 Bft) 100,00 %
07.05.2026 13:09 17,3 °C 59 % 1013,7 hPa 0,0 l/m² 11,3 km/h (2 Bft) W 270 ° 1 min 0,000 mm 3,4 UV-I 415 W/m² 9,2 °C 15,2 °C 20,9 km/h (4 Bft) 91,30 %
07.05.2026 13:08 17,5 °C 59 % 1013,6 hPa 0,0 l/m² 9,7 km/h (2 Bft) W-NW 292 ° 1 min 0,000 mm 3,1 UV-I 381 W/m² 9,4 °C 16,0 °C 20,9 km/h (4 Bft) 100,00 %
07.05.2026 13:07 17,6 °C 59 % 1013,6 hPa 0,0 l/m² 4,8 km/h (1 Bft) SW 225 ° 1 min 0,000 mm 3,0 UV-I 371 W/m² 9,5 °C 17,6 °C 6,4 km/h (2 Bft) 95,65 %
07.05.2026 13:06 17,6 °C 59 % 1013,6 hPa 0,0 l/m² 6,4 km/h (2 Bft) W 270 ° 1 min 0,000 mm 3,0 UV-I 371 W/m² 9,5 °C 17,6 °C 9,7 km/h (2 Bft) 100,00 %
07.05.2026 13:05 17,6 °C 59 % 1013,7 hPa 0,0 l/m² 9,7 km/h (2 Bft) W-NW 292 ° 1 min 0,000 mm 3,0 UV-I 376 W/m² 9,5 °C 16,1 °C 14,5 km/h (3 Bft) 100,00 %
07.05.2026 13:04 17,6 °C 60 % 1013,6 hPa 0,0 l/m² 4,8 km/h (1 Bft) NW 315 ° 1 min 0,000 mm 3,0 UV-I 387 W/m² 9,7 °C 17,6 °C 8,0 km/h (2 Bft) 100,00 %
07.05.2026 13:03 17,6 °C 59 % 1013,6 hPa 0,0 l/m² 3,2 km/h (1 Bft) S-SW 202 ° 1 min 0,000 mm 3,1 UV-I 394 W/m² 9,5 °C 17,6 °C 8,0 km/h (2 Bft) 100,00 %
07.05.2026 13:02 17,6 °C 59 % 1013,6 hPa 0,0 l/m² 4,8 km/h (1 Bft) S-SW 202 ° 1 min 0,000 mm 3,1 UV-I 404 W/m² 9,5 °C 17,6 °C 8,0 km/h (2 Bft) 95,65 %
07.05.2026 13:01 17,6 °C 60 % 1013,6 hPa 0,0 l/m² 4,8 km/h (1 Bft) W-SW 247 ° 1 min 0,000 mm 3,1 UV-I 415 W/m² 9,7 °C 17,6 °C 6,4 km/h (2 Bft) 100,00 %
07.05.2026 13:00 17,6 °C 59 % 1013,6 hPa 0,0 l/m² 4,8 km/h (1 Bft) W 270 ° 1 min 0,406 mm 3,2 UV-I 429 W/m² 9,5 °C 17,6 °C 9,7 km/h (2 Bft) 100,00 %
07.05.2026 12:59 17,6 °C 59 % 1013,6 hPa 0,0 l/m² 6,4 km/h (2 Bft) W 270 ° 1 min 0,000 mm 3,4 UV-I 526 W/m² 9,5 °C 17,6 °C 14,5 km/h (3 Bft) 100,00 %
07.05.2026 12:58 17,6 °C 60 % 1013,7 hPa 0,0 l/m² 4,8 km/h (1 Bft) W 270 ° 1 min 0,000 mm 3,6 UV-I 452 W/m² 9,7 °C 17,6 °C 11,3 km/h (2 Bft) 95,65 %
07.05.2026 12:57 17,5 °C 58 % 1013,7 hPa 0,0 l/m² 6,4 km/h (2 Bft) W 270 ° 1 min 0,000 mm 3,4 UV-I 452 W/m² 9,1 °C 17,5 °C 11,3 km/h (2 Bft) 100,00 %
07.05.2026 12:56 17,6 °C 59 % 1013,7 hPa 0,0 l/m² 9,7 km/h (2 Bft) W 270 ° 1 min 0,000 mm 3,5 UV-I 480 W/m² 9,5 °C 16,1 °C 17,7 km/h (3 Bft) 95,65 %
07.05.2026 12:55 17,6 °C 58 % 1013,6 hPa 0,0 l/m² 9,7 km/h (2 Bft) W 270 ° 1 min 0,000 mm 3,4 UV-I 462 W/m² 9,2 °C 16,1 °C 16,1 km/h (3 Bft) 95,65 %
07.05.2026 12:54 17,6 °C 58 % 1013,6 hPa 0,0 l/m² 4,8 km/h (1 Bft) W 270 ° 1 min 0,000 mm 3,3 UV-I 431 W/m² 9,2 °C 17,6 °C 8,0 km/h (2 Bft) 100,00 %
07.05.2026 12:53 17,7 °C 59 % 1013,6 hPa 0,0 l/m² 6,4 km/h (2 Bft) W-SW 247 ° 1 min 0,000 mm 3,3 UV-I 450 W/m² 9,6 °C 17,7 °C 19,3 km/h (3 Bft) 100,00 %
07.05.2026 12:52 17,7 °C 60 % 1013,6 hPa 0,0 l/m² 3,2 km/h (1 Bft) W 270 ° 1 min 0,000 mm 3,3 UV-I 436 W/m² 9,8 °C 17,7 °C 12,9 km/h (3 Bft) 100,00 %
07.05.2026 12:51 17,6 °C 60 % 1013,7 hPa 0,0 l/m² 3,2 km/h (1 Bft) W 270 ° 1 min 0,000 mm 3,3 UV-I 432 W/m² 9,7 °C 17,6 °C 9,7 km/h (2 Bft) 100,00 %
07.05.2026 12:50 17,4 °C 60 % 1013,7 hPa 0,0 l/m² 3,2 km/h (1 Bft) W 270 ° 1 min 0,000 mm 3,1 UV-I 394 W/m² 9,6 °C 17,4 °C 6,4 km/h (2 Bft) 100,00 %
07.05.2026 12:49 17,4 °C 59 % 1013,6 hPa 0,0 l/m² 4,8 km/h (1 Bft) W 270 ° 1 min 0,000 mm 3,1 UV-I 381 W/m² 9,3 °C 17,4 °C 9,7 km/h (2 Bft) 100,00 %
07.05.2026 12:48 17,6 °C 59 % 1013,7 hPa 0,0 l/m² 4,8 km/h (1 Bft) S-SW 202 ° 1 min 0,000 mm 3,1 UV-I 387 W/m² 9,5 °C 17,6 °C 11,3 km/h (2 Bft) 95,65 %
07.05.2026 12:47 17,6 °C 59 % 1013,8 hPa 0,0 l/m² 6,4 km/h (2 Bft) W-NW 292 ° 1 min 0,000 mm 3,1 UV-I 385 W/m² 9,5 °C 17,6 °C 12,9 km/h (3 Bft) 100,00 %
07.05.2026 12:46 17,6 °C 58 % 1013,7 hPa 0,0 l/m² 6,4 km/h (2 Bft) W 270 ° 1 min 0,000 mm 3,1 UV-I 390 W/m² 9,2 °C 17,6 °C 11,3 km/h (2 Bft) 100,00 %
07.05.2026 12:45 17,6 °C 59 % 1013,7 hPa 0,0 l/m² 6,4 km/h (2 Bft) W 270 ° 1 min 0,000 mm 3,1 UV-I 366 W/m² 9,5 °C 17,6 °C 14,5 km/h (3 Bft) 100,00 %
07.05.2026 12:44 17,6 °C 60 % 1013,7 hPa 0,0 l/m² 1,6 km/h (1 Bft) SW 225 ° 1 min 0,000 mm 3,0 UV-I 346 W/m² 9,7 °C 17,6 °C 3,2 km/h (1 Bft) 100,00 %
07.05.2026 12:43 17,6 °C 60 % 1013,6 hPa 0,0 l/m² 3,2 km/h (1 Bft) N 360 ° 1 min 0,000 mm 3,0 UV-I 346 W/m² 9,7 °C 17,6 °C 4,8 km/h (1 Bft) 100,00 %
07.05.2026 12:42 17,6 °C 59 % 1013,7 hPa 0,0 l/m² 4,8 km/h (1 Bft) SW 225 ° 1 min 0,000 mm 3,7 UV-I 413 W/m² 9,5 °C 17,6 °C 9,7 km/h (2 Bft) 100,00 %
07.05.2026 12:41 17,7 °C 59 % 1013,7 hPa 0,0 l/m² 4,8 km/h (1 Bft) W 270 ° 1 min 0,000 mm 3,1 UV-I 345 W/m² 9,6 °C 17,7 °C 9,7 km/h (2 Bft) 91,30 %
07.05.2026 12:40 17,8 °C 59 % 1013,7 hPa 0,0 l/m² 6,4 km/h (2 Bft) W-SW 247 ° 1 min 0,000 mm 3,3 UV-I 366 W/m² 9,7 °C 17,8 °C 14,5 km/h (3 Bft) 100,00 %
07.05.2026 12:39 17,8 °C 58 % 1013,7 hPa 0,0 l/m² 6,4 km/h (2 Bft) W 270 ° 1 min 0,000 mm 3,4 UV-I 387 W/m² 9,4 °C 17,8 °C 11,3 km/h (2 Bft) 100,00 %
07.05.2026 12:38 18,1 °C 58 % 1013,7 hPa 0,0 l/m² 6,4 km/h (2 Bft) S 180 ° 1 min 0,000 mm 3,6 UV-I 424 W/m² 9,7 °C 18,1 °C 8,0 km/h (2 Bft) 95,65 %
07.05.2026 12:37 18,2 °C 58 % 1013,7 hPa 0,0 l/m² 4,8 km/h (1 Bft) S-SW 202 ° 1 min 0,000 mm 3,9 UV-I 478 W/m² 9,8 °C 18,2 °C 6,4 km/h (2 Bft) 100,00 %
07.05.2026 12:36 18,1 °C 58 % 1013,7 hPa 0,0 l/m² 4,8 km/h (1 Bft) S-SW 202 ° 1 min 0,000 mm 4,0 UV-I 554 W/m² 9,7 °C 18,1 °C 11,3 km/h (2 Bft) 100,00 %
07.05.2026 12:35 18,1 °C 58 % 1013,6 hPa 0,0 l/m² 4,8 km/h (1 Bft) W-SW 247 ° 1 min 0,000 mm 4,1 UV-I 547 W/m² 9,7 °C 18,1 °C 8,0 km/h (2 Bft) 100,00 %
07.05.2026 12:34 18,2 °C 57 % 1013,7 hPa 0,0 l/m² 6,4 km/h (2 Bft) S-SW 202 ° 1 min 0,000 mm 4,2 UV-I 504 W/m² 9,5 °C 18,2 °C 11,3 km/h (2 Bft) 95,65 %
07.05.2026 12:33 18,4 °C 57 % 1013,7 hPa 0,0 l/m² 8,0 km/h (2 Bft) W-SW 247 ° 1 min 0,000 mm 3,5 UV-I 415 W/m² 9,7 °C 17,7 °C 14,5 km/h (3 Bft) 100,00 %
07.05.2026 12:32 18,5 °C 56 % 1013,7 hPa 0,0 l/m² 9,7 km/h (2 Bft) W-NW 292 ° 1 min 0,000 mm 3,5 UV-I 422 W/m² 9,6 °C 17,1 °C 14,5 km/h (3 Bft) 100,00 %
07.05.2026 12:31 18,6 °C 56 % 1013,8 hPa 0,0 l/m² 12,9 km/h (3 Bft) W-NW 292 ° 1 min 0,000 mm 4,3 UV-I 1020 W/m² 9,6 °C 16,1 °C 17,7 km/h (3 Bft) 95,65 %
07.05.2026 12:30 18,7 °C 56 % 1013,8 hPa 0,0 l/m² 11,3 km/h (2 Bft) W-NW 292 ° 1 min 0,000 mm 5,6 UV-I 1020 W/m² 9,7 °C 16,8 °C 17,7 km/h (3 Bft) 100,00 %
07.05.2026 12:29 18,7 °C 56 % 1013,9 hPa 0,0 l/m² 12,9 km/h (3 Bft) W 270 ° 1 min 0,000 mm 5,5 UV-I 972 W/m² 9,7 °C 16,3 °C 22,5 km/h (4 Bft) 95,65 %
07.05.2026 12:28 18,8 °C 57 % 1013,7 hPa 0,0 l/m² 8,0 km/h (2 Bft) W 270 ° 1 min 0,000 mm 5,5 UV-I 953 W/m² 10,1 °C 18,1 °C 14,5 km/h (3 Bft) 95,65 %
07.05.2026 12:27 18,7 °C 57 % 1013,7 hPa 0,0 l/m² 8,0 km/h (2 Bft) W 270 ° 1 min 0,000 mm 5,4 UV-I 960 W/m² 10,0 °C 18,0 °C 14,5 km/h (3 Bft) 95,65 %
07.05.2026 12:26 18,6 °C 58 % 1013,7 hPa 0,0 l/m² 4,8 km/h (1 Bft) W 270 ° 1 min 0,000 mm 4,8 UV-I 960 W/m² 10,2 °C 18,6 °C 11,3 km/h (2 Bft) 100,00 %
07.05.2026 12:25 18,7 °C 56 % 1013,7 hPa 0,0 l/m² 12,9 km/h (3 Bft) W-NW 292 ° 1 min 0,000 mm 5,5 UV-I 960 W/m² 9,7 °C 16,3 °C 17,7 km/h (3 Bft) 100,00 %
07.05.2026 12:24 18,8 °C 55 % 1013,8 hPa 0,0 l/m² 9,7 km/h (2 Bft) W 270 ° 1 min 0,000 mm 5,3 UV-I 944 W/m² 9,6 °C 17,4 °C 16,1 km/h (3 Bft) 95,65 %
07.05.2026 12:23 19,1 °C 56 % 1013,8 hPa 0,0 l/m² 6,4 km/h (2 Bft) W-SW 247 ° 1 min 0,000 mm 5,5 UV-I 958 W/m² 10,1 °C 19,1 °C 16,1 km/h (3 Bft) 100,00 %
07.05.2026 12:22 19,3 °C 54 % 1013,9 hPa 0,0 l/m² 6,4 km/h (2 Bft) W-SW 247 ° 1 min 0,000 mm 5,5 UV-I 956 W/m² 9,8 °C 19,3 °C 16,1 km/h (3 Bft) 100,00 %
07.05.2026 12:21 19,6 °C 57 % 1013,8 hPa 0,0 l/m² 8,0 km/h (2 Bft) W-NW 292 ° 1 min 0,000 mm 5,4 UV-I 956 W/m² 10,8 °C 18,9 °C 16,1 km/h (3 Bft) 95,65 %
07.05.2026 12:20 19,4 °C 57 % 1013,8 hPa 0,0 l/m² 3,2 km/h (1 Bft) W-NW 292 ° 1 min 0,000 mm 5,4 UV-I 960 W/m² 10,7 °C 19,4 °C 6,4 km/h (2 Bft) 95,65 %
07.05.2026 12:19 19,4 °C 57 % 1013,9 hPa 0,0 l/m² 3,2 km/h (1 Bft) W 270 ° 1 min 0,000 mm 5,1 UV-I 977 W/m² 10,7 °C 19,4 °C 6,4 km/h (2 Bft) 100,00 %
07.05.2026 12:18 19,4 °C 56 % 1013,8 hPa 0,0 l/m² 4,8 km/h (1 Bft) W-SW 247 ° 1 min 0,000 mm 5,2 UV-I 977 W/m² 10,4 °C 19,4 °C 14,5 km/h (3 Bft) 100,00 %
07.05.2026 12:17 19,5 °C 57 % 1013,7 hPa 0,0 l/m² 6,4 km/h (2 Bft) SW 225 ° 1 min 0,000 mm 4,5 UV-I 977 W/m² 10,8 °C 19,5 °C 11,3 km/h (2 Bft) 100,00 %
07.05.2026 12:16 19,4 °C 56 % 1013,9 hPa 0,0 l/m² 4,8 km/h (1 Bft) W 270 ° 1 min 0,000 mm 5,5 UV-I 977 W/m² 10,4 °C 19,4 °C 12,9 km/h (3 Bft) 100,00 %
07.05.2026 12:15 19,5 °C 57 % 1013,8 hPa 0,0 l/m² 3,2 km/h (1 Bft) S 180 ° 1 min 0,000 mm 5,5 UV-I 986 W/m² 10,8 °C 19,5 °C 6,4 km/h (2 Bft) 100,00 %
07.05.2026 12:14 19,6 °C 58 % 1013,8 hPa 0,0 l/m² 4,8 km/h (1 Bft) S 180 ° 1 min 0,000 mm 5,5 UV-I 984 W/m² 11,1 °C 19,6 °C 9,7 km/h (2 Bft) 95,65 %
07.05.2026 12:13 19,4 °C 58 % 1013,9 hPa 0,0 l/m² 3,2 km/h (1 Bft) S 180 ° 1 min 0,000 mm 5,5 UV-I 993 W/m² 10,9 °C 19,4 °C 6,4 km/h (2 Bft) 95,65 %
07.05.2026 12:12 19,0 °C 61 % 1013,9 hPa 0,0 l/m² 1,6 km/h (1 Bft) S-SW 202 ° 1 min 0,000 mm 5,5 UV-I 998 W/m² 11,3 °C 19,0 °C 3,2 km/h (1 Bft) 95,65 %
07.05.2026 12:11 18,4 °C 59 % 1013,9 hPa 0,0 l/m² 4,8 km/h (1 Bft) S-SW 202 ° 1 min 0,000 mm 5,5 UV-I 1009 W/m² 10,2 °C 18,4 °C 16,1 km/h (3 Bft) 100,00 %
07.05.2026 12:10 18,1 °C 59 % 1013,9 hPa 0,0 l/m² 9,7 km/h (2 Bft) W 270 ° 1 min 0,000 mm 5,5 UV-I 1020 W/m² 10,0 °C 16,7 °C 14,5 km/h (3 Bft) 100,00 %
07.05.2026 12:09 17,8 °C 60 % 1013,9 hPa 0,0 l/m² 6,4 km/h (2 Bft) W 270 ° 1 min 0,000 mm 5,2 UV-I 946 W/m² 9,9 °C 17,8 °C 12,9 km/h (3 Bft) 100,00 %
07.05.2026 12:08 17,7 °C 59 % 1013,9 hPa 0,0 l/m² 6,4 km/h (2 Bft) W 270 ° 1 min 0,000 mm 5,6 UV-I 1041 W/m² 9,6 °C 17,7 °C 12,9 km/h (3 Bft) 100,00 %
07.05.2026 12:07 17,5 °C 60 % 1013,9 hPa 0,0 l/m² 3,2 km/h (1 Bft) SW 225 ° 1 min 0,000 mm 5,1 UV-I 624 W/m² 9,6 °C 17,5 °C 6,4 km/h (2 Bft) 100,00 %
07.05.2026 12:06 17,4 °C 60 % 1013,9 hPa 0,0 l/m² 4,8 km/h (1 Bft) S 180 ° 1 min 0,000 mm 5,6 UV-I 624 W/m² 9,6 °C 17,4 °C 11,3 km/h (2 Bft) 95,65 %
07.05.2026 12:05 17,3 °C 59 % 1013,9 hPa 0,0 l/m² 8,0 km/h (2 Bft) W 270 ° 1 min 0,000 mm 4,6 UV-I 624 W/m² 9,2 °C 16,5 °C 12,9 km/h (3 Bft) 100,00 %
07.05.2026 12:04 17,4 °C 59 % 1014,0 hPa 0,0 l/m² 11,3 km/h (2 Bft) W-NW 292 ° 1 min 0,000 mm 3,8 UV-I 432 W/m² 9,3 °C 15,3 °C 14,5 km/h (3 Bft) 100,00 %
07.05.2026 12:03 17,6 °C 60 % 1013,9 hPa 0,0 l/m² 4,8 km/h (1 Bft) S 180 ° 1 min 0,000 mm 3,4 UV-I 432 W/m² 9,7 °C 17,6 °C 11,3 km/h (2 Bft) 100,00 %
07.05.2026 12:02 17,6 °C 59 % 1013,9 hPa 0,0 l/m² 6,4 km/h (2 Bft) W 270 ° 1 min 0,000 mm 5,4 UV-I 622 W/m² 9,5 °C 17,6 °C 12,9 km/h (3 Bft) 95,65 %
07.05.2026 12:01 17,6 °C 60 % 1013,9 hPa 0,0 l/m² 4,8 km/h (1 Bft) W 270 ° 1 min 0,000 mm 3,8 UV-I 622 W/m² 9,7 °C 17,6 °C 9,7 km/h (2 Bft) 100,00 %
07.05.2026 12:00 17,4 °C 61 % 1013,9 hPa 0,0 l/m² 3,2 km/h (1 Bft) SW 225 ° 1 min 0,305 mm 3,6 UV-I 527 W/m² 9,8 °C 17,4 °C 6,4 km/h (2 Bft) 100,00 %
07.05.2026 11:59 17,3 °C 60 % 1013,9 hPa 0,0 l/m² 4,8 km/h (1 Bft) W 270 ° 1 min 0,000 mm 3,5 UV-I 483 W/m² 9,5 °C 17,3 °C 8,0 km/h (2 Bft) 95,65 %
07.05.2026 11:58 17,3 °C 60 % 1014,0 hPa 0,0 l/m² 6,4 km/h (2 Bft) W-NW 292 ° 1 min 0,000 mm 3,5 UV-I 471 W/m² 9,5 °C 17,3 °C 12,9 km/h (3 Bft) 100,00 %
07.05.2026 11:57 17,3 °C 59 % 1014,0 hPa 0,0 l/m² 8,0 km/h (2 Bft) W 270 ° 1 min 0,000 mm 3,4 UV-I 452 W/m² 9,2 °C 16,5 °C 14,5 km/h (3 Bft) 100,00 %
07.05.2026 11:56 17,4 °C 58 % 1014,0 hPa 0,0 l/m² 9,7 km/h (2 Bft) W-SW 247 ° 1 min 0,000 mm 3,5 UV-I 485 W/m² 9,1 °C 15,9 °C 16,1 km/h (3 Bft) 95,65 %
07.05.2026 11:55 17,5 °C 60 % 1014,0 hPa 0,0 l/m² 6,4 km/h (2 Bft) S-SW 202 ° 1 min 0,000 mm 3,8 UV-I 547 W/m² 9,6 °C 17,5 °C 12,9 km/h (3 Bft) 100,00 %
07.05.2026 11:54 17,5 °C 59 % 1014,0 hPa 0,0 l/m² 6,4 km/h (2 Bft) W 270 ° 1 min 0,000 mm 4,1 UV-I 773 W/m² 9,4 °C 17,5 °C 14,5 km/h (3 Bft) 100,00 %
07.05.2026 11:53 17,3 °C 60 % 1014,0 hPa 0,0 l/m² 6,4 km/h (2 Bft) W 270 ° 1 min 0,000 mm 4,8 UV-I 606 W/m² 9,5 °C 17,3 °C 12,9 km/h (3 Bft) 100,00 %
07.05.2026 11:52 17,2 °C 60 % 1014,0 hPa 0,0 l/m² 11,3 km/h (2 Bft) W-NW 292 ° 1 min 0,000 mm 4,1 UV-I 606 W/m² 9,4 °C 15,1 °C 19,3 km/h (3 Bft) 95,65 %
07.05.2026 11:51 17,1 °C 60 % 1013,9 hPa 0,0 l/m² 6,4 km/h (2 Bft) W-NW 292 ° 1 min 0,000 mm 3,7 UV-I 580 W/m² 9,3 °C 17,1 °C 8,0 km/h (2 Bft) 100,00 %
07.05.2026 11:50 17,1 °C 59 % 1014,1 hPa 0,0 l/m² 3,2 km/h (1 Bft) S-SW 202 ° 1 min 0,000 mm 3,6 UV-I 555 W/m² 9,0 °C 17,1 °C 6,4 km/h (2 Bft) 95,65 %
07.05.2026 11:49 17,1 °C 59 % 1014,1 hPa 0,0 l/m² 8,0 km/h (2 Bft) W 270 ° 1 min 0,000 mm 3,6 UV-I 536 W/m² 9,0 °C 16,3 °C 16,1 km/h (3 Bft) 100,00 %
07.05.2026 11:48 17,2 °C 59 % 1014,1 hPa 0,0 l/m² 9,7 km/h (2 Bft) W 270 ° 1 min 0,000 mm 3,5 UV-I 503 W/m² 9,1 °C 15,7 °C 14,5 km/h (3 Bft) 100,00 %
07.05.2026 11:47 17,2 °C 59 % 1014,1 hPa 0,0 l/m² 8,0 km/h (2 Bft) W 270 ° 1 min 0,000 mm 3,4 UV-I 533 W/m² 9,1 °C 16,4 °C 19,3 km/h (3 Bft) 95,65 %
07.05.2026 11:46 17,2 °C 59 % 1014,1 hPa 0,0 l/m² 11,3 km/h (2 Bft) W 270 ° 1 min 0,000 mm 3,4 UV-I 533 W/m² 9,1 °C 15,1 °C 17,7 km/h (3 Bft) 95,65 %
07.05.2026 11:45 17,2 °C 59 % 1014,1 hPa 0,0 l/m² 6,4 km/h (2 Bft) W-SW 247 ° 1 min 0,000 mm 3,4 UV-I 582 W/m² 9,1 °C 17,2 °C 14,5 km/h (3 Bft) 95,65 %
07.05.2026 11:44 17,2 °C 61 % 1014,0 hPa 0,0 l/m² 4,8 km/h (1 Bft) S-SW 202 ° 1 min 0,000 mm 3,5 UV-I 582 W/m² 9,6 °C 17,2 °C 11,3 km/h (2 Bft) 100,00 %
07.05.2026 11:43 17,0 °C 60 % 1014,1 hPa 0,0 l/m² 6,4 km/h (2 Bft) W-SW 247 ° 1 min 0,000 mm 3,8 UV-I 582 W/m² 9,2 °C 17,0 °C 12,9 km/h (3 Bft) 100,00 %
07.05.2026 11:42 17,0 °C 60 % 1014,1 hPa 0,0 l/m² 8,0 km/h (2 Bft) W-SW 247 ° 1 min 0,000 mm 3,6 UV-I 499 W/m² 9,2 °C 16,2 °C 12,9 km/h (3 Bft) 100,00 %
07.05.2026 11:41 16,9 °C 60 % 1014,0 hPa 0,0 l/m² 6,4 km/h (2 Bft) W-SW 247 ° 1 min 0,000 mm 3,3 UV-I 499 W/m² 9,1 °C 16,9 °C 17,7 km/h (3 Bft) 95,65 %
07.05.2026 11:40 16,9 °C 59 % 1014,0 hPa 0,0 l/m² 3,2 km/h (1 Bft) W-SW 247 ° 1 min 0,000 mm 3,1 UV-I 497 W/m² 8,8 °C 16,9 °C 6,4 km/h (2 Bft) 100,00 %
07.05.2026 11:39 16,9 °C 60 % 1014,0 hPa 0,0 l/m² 6,4 km/h (2 Bft) SW 225 ° 1 min 0,000 mm 3,0 UV-I 452 W/m² 9,1 °C 16,9 °C 14,5 km/h (3 Bft) 100,00 %
07.05.2026 11:38 16,9 °C 60 % 1013,9 hPa 0,0 l/m² 8,0 km/h (2 Bft) SW 225 ° 1 min 0,000 mm 2,9 UV-I 436 W/m² 9,1 °C 16,1 °C 12,9 km/h (3 Bft) 91,30 %
07.05.2026 11:37 17,0 °C 61 % 1014,0 hPa 0,0 l/m² 4,8 km/h (1 Bft) W 270 ° 1 min 0,000 mm 2,9 UV-I 432 W/m² 9,4 °C 17,0 °C 11,3 km/h (2 Bft) 100,00 %
07.05.2026 11:36 17,1 °C 60 % 1013,9 hPa 0,0 l/m² 3,2 km/h (1 Bft) S-SW 202 ° 1 min 0,000 mm 2,9 UV-I 431 W/m² 9,3 °C 17,1 °C 8,0 km/h (2 Bft) 100,00 %
07.05.2026 11:35 17,1 °C 60 % 1013,9 hPa 0,0 l/m² 6,4 km/h (2 Bft) W 270 ° 1 min 0,000 mm 2,9 UV-I 427 W/m² 9,3 °C 17,1 °C 14,5 km/h (3 Bft) 100,00 %
07.05.2026 11:34 17,0 °C 60 % 1013,9 hPa 0,0 l/m² 4,8 km/h (1 Bft) W 270 ° 1 min 0,000 mm 2,9 UV-I 422 W/m² 9,2 °C 17,0 °C 9,7 km/h (2 Bft) 100,00 %
07.05.2026 11:33 17,1 °C 59 % 1014,0 hPa 0,0 l/m² 9,7 km/h (2 Bft) W 270 ° 1 min 0,000 mm 2,8 UV-I 415 W/m² 9,0 °C 15,6 °C 12,9 km/h (3 Bft) 100,00 %
07.05.2026 11:32 17,2 °C 60 % 1014,0 hPa 0,0 l/m² 6,4 km/h (2 Bft) SW 225 ° 1 min 0,000 mm 2,8 UV-I 408 W/m² 9,4 °C 17,2 °C 12,9 km/h (3 Bft) 95,65 %
07.05.2026 11:31 17,1 °C 61 % 1013,9 hPa 0,0 l/m² 6,4 km/h (2 Bft) W-SW 247 ° 1 min 0,000 mm 2,8 UV-I 417 W/m² 9,5 °C 17,1 °C 11,3 km/h (2 Bft) 95,65 %
07.05.2026 11:30 17,1 °C 61 % 1014,0 hPa 0,0 l/m² 4,8 km/h (1 Bft) W-NW 292 ° 1 min 0,000 mm 2,8 UV-I 422 W/m² 9,5 °C 17,1 °C 9,7 km/h (2 Bft) 100,00 %
07.05.2026 11:29 17,1 °C 61 % 1014,0 hPa 0,0 l/m² 4,8 km/h (1 Bft) W 270 ° 1 min 0,000 mm 2,9 UV-I 436 W/m² 9,5 °C 17,1 °C 9,7 km/h (2 Bft) 100,00 %
07.05.2026 11:28 17,0 °C 60 % 1014,0 hPa 0,0 l/m² 3,2 km/h (1 Bft) S-SW 202 ° 1 min 0,000 mm 3,0 UV-I 445 W/m² 9,2 °C 17,0 °C 6,4 km/h (2 Bft) 100,00 %
07.05.2026 11:27 17,1 °C 59 % 1013,9 hPa 0,0 l/m² 9,7 km/h (2 Bft) SW 225 ° 1 min 0,000 mm 3,0 UV-I 441 W/m² 9,0 °C 15,6 °C 16,1 km/h (3 Bft) 95,65 %
07.05.2026 11:26 17,1 °C 59 % 1013,9 hPa 0,0 l/m² 9,7 km/h (2 Bft) W 270 ° 1 min 0,000 mm 3,0 UV-I 438 W/m² 9,0 °C 15,6 °C 14,5 km/h (3 Bft) 100,00 %
07.05.2026 11:25 17,0 °C 59 % 1014,0 hPa 0,0 l/m² 11,3 km/h (2 Bft) W-NW 292 ° 1 min 0,000 mm 3,0 UV-I 432 W/m² 8,9 °C 14,8 °C 16,1 km/h (3 Bft) 100,00 %
07.05.2026 11:24 17,1 °C 59 % 1013,9 hPa 0,0 l/m² 8,0 km/h (2 Bft) W 270 ° 1 min 0,000 mm 3,0 UV-I 434 W/m² 9,0 °C 16,3 °C 14,5 km/h (3 Bft) 95,65 %
07.05.2026 11:23 17,2 °C 58 % 1013,9 hPa 0,0 l/m² 8,0 km/h (2 Bft) W-NW 292 ° 1 min 0,000 mm 3,0 UV-I 439 W/m² 8,9 °C 16,4 °C 16,1 km/h (3 Bft) 100,00 %
07.05.2026 11:22 17,4 °C 59 % 1013,9 hPa 0,0 l/m² 4,8 km/h (1 Bft) S 180 ° 1 min 0,000 mm 3,1 UV-I 448 W/m² 9,3 °C 17,4 °C 11,3 km/h (2 Bft) 100,00 %
07.05.2026 11:21 17,6 °C 60 % 1013,8 hPa 0,0 l/m² 8,0 km/h (2 Bft) W 270 ° 1 min 0,000 mm 3,1 UV-I 469 W/m² 9,7 °C 16,8 °C 12,9 km/h (3 Bft) 95,65 %
07.05.2026 11:20 17,6 °C 60 % 1013,9 hPa 0,0 l/m² 4,8 km/h (1 Bft) S 180 ° 1 min 0,000 mm 3,3 UV-I 494 W/m² 9,7 °C 17,6 °C 9,7 km/h (2 Bft) 100,00 %
07.05.2026 11:19 17,4 °C 60 % 1013,9 hPa 0,0 l/m² 4,8 km/h (1 Bft) W 270 ° 1 min 0,000 mm 3,6 UV-I 520 W/m² 9,6 °C 17,4 °C 6,4 km/h (2 Bft) 100,00 %
07.05.2026 11:18 17,4 °C 59 % 1013,8 hPa 0,0 l/m² 6,4 km/h (2 Bft) W 270 ° 1 min 0,000 mm 3,1 UV-I 473 W/m² 9,3 °C 17,4 °C 11,3 km/h (2 Bft) 100,00 %
07.05.2026 11:17 17,4 °C 59 % 1013,8 hPa 0,0 l/m² 1,6 km/h (1 Bft) SW 225 ° 1 min 0,000 mm 3,2 UV-I 524 W/m² 9,3 °C 17,4 °C 4,8 km/h (1 Bft) 95,65 %
07.05.2026 11:16 17,6 °C 59 % 1013,8 hPa 0,0 l/m² 8,0 km/h (2 Bft) W 270 ° 1 min 0,000 mm 3,2 UV-I 490 W/m² 9,5 °C 16,8 °C 14,5 km/h (3 Bft) 100,00 %
07.05.2026 11:15 17,6 °C 61 % 1013,8 hPa 0,0 l/m² 6,4 km/h (2 Bft) W-SW 247 ° 1 min 0,000 mm 3,1 UV-I 489 W/m² 10,0 °C 17,6 °C 17,7 km/h (3 Bft) 100,00 %
07.05.2026 11:14 17,4 °C 62 % 1013,8 hPa 0,0 l/m² 3,2 km/h (1 Bft) W-NW 292 ° 1 min 0,000 mm 3,2 UV-I 489 W/m² 10,0 °C 17,4 °C 4,8 km/h (1 Bft) 95,65 %
07.05.2026 11:13 17,1 °C 62 % 1013,7 hPa 0,0 l/m² 4,8 km/h (1 Bft) W 270 ° 1 min 0,000 mm 3,1 UV-I 520 W/m² 9,8 °C 17,1 °C 11,3 km/h (2 Bft) 100,00 %
07.05.2026 11:12 17,0 °C 61 % 1013,7 hPa 0,0 l/m² 3,2 km/h (1 Bft) S-SW 202 ° 1 min 0,000 mm 3,0 UV-I 497 W/m² 9,4 °C 17,0 °C 8,0 km/h (2 Bft) 100,00 %
07.05.2026 11:11 17,0 °C 61 % 1013,7 hPa 0,0 l/m² 3,2 km/h (1 Bft) W-SW 247 ° 1 min 0,000 mm 3,1 UV-I 455 W/m² 9,4 °C 17,0 °C 6,4 km/h (2 Bft) 100,00 %
07.05.2026 11:10 17,1 °C 60 % 1013,7 hPa 0,0 l/m² 4,8 km/h (1 Bft) S-SO 157 ° 1 min 0,000 mm 3,1 UV-I 487 W/m² 9,3 °C 17,1 °C 9,7 km/h (2 Bft) 95,65 %
07.05.2026 11:09 17,1 °C 60 % 1013,7 hPa 0,0 l/m² 9,7 km/h (2 Bft) W 270 ° 1 min 0,000 mm 3,0 UV-I 469 W/m² 9,3 °C 15,6 °C 17,7 km/h (3 Bft) 100,00 %
07.05.2026 11:08 17,2 °C 61 % 1013,7 hPa 0,0 l/m² 6,4 km/h (2 Bft) S-SW 202 ° 1 min 0,000 mm 4,5 UV-I 469 W/m² 9,6 °C 17,2 °C 11,3 km/h (2 Bft) 100,00 %
07.05.2026 11:07 17,2 °C 61 % 1013,7 hPa 0,0 l/m² 4,8 km/h (1 Bft) S-SW 202 ° 1 min 0,000 mm 3,0 UV-I 469 W/m² 9,6 °C 17,2 °C 14,5 km/h (3 Bft) 100,00 %
07.05.2026 11:06 17,1 °C 61 % 1013,7 hPa 0,0 l/m² 6,4 km/h (2 Bft) W-SW 247 ° 1 min 0,000 mm 3,2 UV-I 464 W/m² 9,5 °C 17,1 °C 14,5 km/h (3 Bft) 100,00 %
07.05.2026 11:05 17,0 °C 62 % 1013,6 hPa 0,0 l/m² 6,4 km/h (2 Bft) W 270 ° 1 min 0,000 mm 3,0 UV-I 536 W/m² 9,7 °C 17,0 °C 17,7 km/h (3 Bft) 100,00 %
07.05.2026 11:04 16,9 °C 62 % 1013,7 hPa 0,0 l/m² 6,4 km/h (2 Bft) W-NW 292 ° 1 min 0,000 mm 3,0 UV-I 494 W/m² 9,6 °C 16,9 °C 14,5 km/h (3 Bft) 100,00 %
07.05.2026 11:03 16,8 °C 62 % 1013,7 hPa 0,0 l/m² 6,4 km/h (2 Bft) W 270 ° 1 min 0,000 mm 3,4 UV-I 526 W/m² 9,5 °C 16,8 °C 11,3 km/h (2 Bft) 100,00 %
07.05.2026 11:02 16,9 °C 62 % 1013,7 hPa 0,0 l/m² 4,8 km/h (1 Bft) SW 225 ° 1 min 0,000 mm 2,9 UV-I 483 W/m² 9,6 °C 16,9 °C 11,3 km/h (2 Bft) 95,65 %
07.05.2026 11:01 16,8 °C 62 % 1013,7 hPa 0,0 l/m² 3,2 km/h (1 Bft) SW 225 ° 1 min 0,000 mm 2,8 UV-I 455 W/m² 9,5 °C 16,8 °C 11,3 km/h (2 Bft) 95,65 %
07.05.2026 11:00 16,8 °C 62 % 1013,6 hPa 0,0 l/m² 4,8 km/h (1 Bft) W-SW 247 ° 1 min 0,279 mm 2,6 UV-I 411 W/m² 9,5 °C 16,8 °C 9,7 km/h (2 Bft) 100,00 %
07.05.2026 10:59 16,8 °C 62 % 1013,6 hPa 0,0 l/m² 8,0 km/h (2 Bft) W-SW 247 ° 1 min 0,000 mm 2,5 UV-I 406 W/m² 9,5 °C 16,0 °C 16,1 km/h (3 Bft) 95,65 %
07.05.2026 10:58 16,8 °C 62 % 1013,6 hPa 0,0 l/m² 3,2 km/h (1 Bft) S 180 ° 1 min 0,000 mm 2,5 UV-I 436 W/m² 9,5 °C 16,8 °C 8,0 km/h (2 Bft) 100,00 %
07.05.2026 10:57 16,8 °C 62 % 1013,7 hPa 0,0 l/m² 3,2 km/h (1 Bft) W 270 ° 1 min 0,000 mm 3,1 UV-I 519 W/m² 9,5 °C 16,8 °C 6,4 km/h (2 Bft) 100,00 %
07.05.2026 10:56 16,8 °C 62 % 1013,6 hPa 0,0 l/m² 3,2 km/h (1 Bft) S 180 ° 1 min 0,000 mm 2,6 UV-I 429 W/m² 9,5 °C 16,8 °C 6,4 km/h (2 Bft) 100,00 %
07.05.2026 10:55 16,9 °C 62 % 1013,6 hPa 0,0 l/m² 6,4 km/h (2 Bft) W-SW 247 ° 1 min 0,000 mm 2,6 UV-I 397 W/m² 9,6 °C 16,9 °C 12,9 km/h (3 Bft) 91,30 %
07.05.2026 10:54 16,9 °C 60 % 1013,6 hPa 0,0 l/m² 6,4 km/h (2 Bft) W 270 ° 1 min 0,000 mm 2,6 UV-I 411 W/m² 9,1 °C 16,9 °C 11,3 km/h (2 Bft) 95,65 %
07.05.2026 10:53 16,9 °C 60 % 1013,6 hPa 0,0 l/m² 8,0 km/h (2 Bft) W-SW 247 ° 1 min 0,000 mm 2,6 UV-I 431 W/m² 9,1 °C 16,1 °C 12,9 km/h (3 Bft) 95,65 %
07.05.2026 10:52 17,1 °C 62 % 1013,6 hPa 0,0 l/m² 9,7 km/h (2 Bft) W 270 ° 1 min 0,000 mm 2,8 UV-I 459 W/m² 9,8 °C 15,6 °C 17,7 km/h (3 Bft) 95,65 %
07.05.2026 10:51 17,0 °C 61 % 1013,7 hPa 0,0 l/m² 3,2 km/h (1 Bft) S-SW 202 ° 1 min 0,000 mm 2,6 UV-I 441 W/m² 9,4 °C 17,0 °C 6,4 km/h (2 Bft) 100,00 %
07.05.2026 10:50 17,1 °C 61 % 1013,6 hPa 0,0 l/m² 6,4 km/h (2 Bft) W-SW 247 ° 1 min 0,000 mm 2,7 UV-I 427 W/m² 9,5 °C 17,1 °C 12,9 km/h (3 Bft) 100,00 %
07.05.2026 10:49 17,1 °C 61 % 1013,6 hPa 0,0 l/m² 8,0 km/h (2 Bft) W 270 ° 1 min 0,000 mm 2,5 UV-I 397 W/m² 9,5 °C 16,3 °C 14,5 km/h (3 Bft) 100,00 %
07.05.2026 10:48 17,1 °C 61 % 1013,6 hPa 0,0 l/m² 4,8 km/h (1 Bft) W-NW 292 ° 1 min 0,000 mm 2,6 UV-I 438 W/m² 9,5 °C 17,1 °C 6,4 km/h (2 Bft) 95,65 %
07.05.2026 10:47 17,0 °C 62 % 1013,6 hPa 0,0 l/m² 4,8 km/h (1 Bft) W 270 ° 1 min 0,000 mm 2,7 UV-I 420 W/m² 9,7 °C 17,0 °C 6,4 km/h (2 Bft) 95,65 %
07.05.2026 10:46 16,8 °C 62 % 1013,6 hPa 0,0 l/m² 3,2 km/h (1 Bft) W-NW 292 ° 1 min 0,000 mm 3,2 UV-I 420 W/m² 9,5 °C 16,8 °C 6,4 km/h (2 Bft) 95,65 %
07.05.2026 10:45 16,8 °C 61 % 1013,6 hPa 0,0 l/m² 9,7 km/h (2 Bft) W 270 ° 1 min 0,000 mm 4,2 UV-I 420 W/m² 9,2 °C 15,2 °C 24,1 km/h (4 Bft) 100,00 %
07.05.2026 10:44 16,8 °C 60 % 1013,6 hPa 0,0 l/m² 11,3 km/h (2 Bft) W 270 ° 1 min 0,000 mm 2,8 UV-I 420 W/m² 9,0 °C 14,6 °C 19,3 km/h (3 Bft) 100,00 %
07.05.2026 10:43 16,9 °C 61 % 1013,6 hPa 0,0 l/m² 11,3 km/h (2 Bft) W-NW 292 ° 1 min 0,000 mm 3,0 UV-I 445 W/m² 9,3 °C 14,7 °C 24,1 km/h (4 Bft) 100,00 %
07.05.2026 10:42 16,9 °C 62 % 1013,5 hPa 0,0 l/m² 8,0 km/h (2 Bft) W-NW 292 ° 1 min 0,000 mm 2,7 UV-I 429 W/m² 9,6 °C 16,1 °C 17,7 km/h (3 Bft) 95,65 %
07.05.2026 10:41 16,9 °C 61 % 1013,6 hPa 0,0 l/m² 9,7 km/h (2 Bft) W 270 ° 1 min 0,000 mm 3,1 UV-I 429 W/m² 9,3 °C 15,3 °C 17,7 km/h (3 Bft) 95,65 %
07.05.2026 10:40 17,0 °C 63 % 1013,6 hPa 0,0 l/m² 8,0 km/h (2 Bft) SW 225 ° 1 min 0,000 mm 2,7 UV-I 429 W/m² 9,9 °C 16,2 °C 16,1 km/h (3 Bft) 95,65 %
07.05.2026 10:39 16,9 °C 63 % 1013,5 hPa 0,0 l/m² 6,4 km/h (2 Bft) W-NW 292 ° 1 min 0,000 mm 2,6 UV-I 418 W/m² 9,8 °C 16,9 °C 11,3 km/h (2 Bft) 100,00 %
07.05.2026 10:38 16,8 °C 64 % 1013,5 hPa 0,0 l/m² 8,0 km/h (2 Bft) W-NW 292 ° 1 min 0,000 mm 2,8 UV-I 424 W/m² 10,0 °C 16,0 °C 16,1 km/h (3 Bft) 100,00 %
07.05.2026 10:37 16,7 °C 62 % 1013,5 hPa 0,0 l/m² 4,8 km/h (1 Bft) W-SW 247 ° 1 min 0,000 mm 3,7 UV-I 424 W/m² 9,4 °C 16,7 °C 11,3 km/h (2 Bft) 100,00 %
07.05.2026 10:36 16,8 °C 62 % 1013,5 hPa 0,0 l/m² 8,0 km/h (2 Bft) W 270 ° 1 min 0,000 mm 4,1 UV-I 424 W/m² 9,5 °C 16,0 °C 16,1 km/h (3 Bft) 100,00 %
07.05.2026 10:35 16,8 °C 63 % 1013,5 hPa 0,0 l/m² 6,4 km/h (2 Bft) S 180 ° 1 min 0,000 mm 3,0 UV-I 424 W/m² 9,7 °C 16,8 °C 11,3 km/h (2 Bft) 100,00 %
07.05.2026 10:34 16,7 °C 64 % 1013,5 hPa 0,0 l/m² 3,2 km/h (1 Bft) SW 225 ° 1 min 0,000 mm 2,8 UV-I 976 W/m² 9,9 °C 16,7 °C 8,0 km/h (2 Bft) 95,65 %
07.05.2026 10:33 16,4 °C 63 % 1013,4 hPa 0,0 l/m² 4,8 km/h (1 Bft) W 270 ° 1 min 0,000 mm 4,2 UV-I 976 W/m² 9,3 °C 16,4 °C 6,4 km/h (2 Bft) 100,00 %
07.05.2026 10:32 16,4 °C 63 % 1013,5 hPa 0,0 l/m² 4,8 km/h (1 Bft) W-SW 247 ° 1 min 0,000 mm 4,0 UV-I 336 W/m² 9,3 °C 16,4 °C 17,7 km/h (3 Bft) 100,00 %
07.05.2026 10:31 16,5 °C 62 % 1013,5 hPa 0,0 l/m² 8,0 km/h (2 Bft) W-SW 247 ° 1 min 0,000 mm 2,8 UV-I 336 W/m² 9,2 °C 15,7 °C 17,7 km/h (3 Bft) 100,00 %
07.05.2026 10:30 16,6 °C 64 % 1013,5 hPa 0,0 l/m² 6,4 km/h (2 Bft) NW 315 ° 1 min 0,000 mm 2,8 UV-I 336 W/m² 9,8 °C 16,6 °C 12,9 km/h (3 Bft) 100,00 %
07.05.2026 10:29 16,6 °C 63 % 1013,5 hPa 0,0 l/m² 4,8 km/h (1 Bft) W 270 ° 1 min 0,000 mm 2,5 UV-I 336 W/m² 9,5 °C 16,6 °C 6,4 km/h (2 Bft) 100,00 %
07.05.2026 10:28 16,6 °C 62 % 1013,5 hPa 0,0 l/m² 8,0 km/h (2 Bft) W 270 ° 1 min 0,000 mm 2,4 UV-I 343 W/m² 9,3 °C 15,8 °C 12,9 km/h (3 Bft) 100,00 %
07.05.2026 10:27 16,7 °C 62 % 1013,5 hPa 0,0 l/m² 8,0 km/h (2 Bft) W-SW 247 ° 1 min 0,000 mm 2,5 UV-I 330 W/m² 9,4 °C 15,9 °C 16,1 km/h (3 Bft) 95,65 %
07.05.2026 10:26 16,8 °C 65 % 1013,5 hPa 0,0 l/m² 3,2 km/h (1 Bft) W-SW 247 ° 1 min 0,000 mm 2,4 UV-I 338 W/m² 10,2 °C 16,8 °C 6,4 km/h (2 Bft) 100,00 %
07.05.2026 10:25 16,6 °C 65 % 1013,5 hPa 0,0 l/m² 3,2 km/h (1 Bft) W 270 ° 1 min 0,000 mm 2,5 UV-I 436 W/m² 10,0 °C 16,6 °C 4,8 km/h (1 Bft) 100,00 %
07.05.2026 10:24 16,4 °C 65 % 1013,5 hPa 0,0 l/m² 1,6 km/h (1 Bft) W-SW 247 ° 1 min 0,000 mm 2,7 UV-I 476 W/m² 9,8 °C 16,4 °C 3,2 km/h (1 Bft) 100,00 %
07.05.2026 10:23 16,3 °C 64 % 1013,5 hPa 0,0 l/m² 4,8 km/h (1 Bft) SW 225 ° 1 min 0,000 mm 3,0 UV-I 336 W/m² 9,5 °C 16,3 °C 8,0 km/h (2 Bft) 100,00 %
07.05.2026 10:22 16,2 °C 65 % 1013,5 hPa 0,0 l/m² 3,2 km/h (1 Bft) S-SW 202 ° 1 min 0,000 mm 2,3 UV-I 336 W/m² 9,6 °C 16,2 °C 6,4 km/h (2 Bft) 100,00 %
07.05.2026 10:21 16,2 °C 65 % 1013,5 hPa 0,0 l/m² 1,6 km/h (1 Bft) S-SW 202 ° 1 min 0,000 mm 2,3 UV-I 352 W/m² 9,6 °C 16,2 °C 3,2 km/h (1 Bft) 95,65 %
07.05.2026 10:20 16,3 °C 64 % 1013,5 hPa 0,0 l/m² 4,8 km/h (1 Bft) W-SW 247 ° 1 min 0,000 mm 2,3 UV-I 350 W/m² 9,5 °C 16,3 °C 9,7 km/h (2 Bft) 95,65 %
07.05.2026 10:19 16,4 °C 64 % 1013,5 hPa 0,0 l/m² 4,8 km/h (1 Bft) W 270 ° 1 min 0,000 mm 2,3 UV-I 345 W/m² 9,6 °C 16,4 °C 11,3 km/h (2 Bft) 100,00 %
07.05.2026 10:18 16,4 °C 65 % 1013,4 hPa 0,0 l/m² 6,4 km/h (2 Bft) W 270 ° 1 min 0,000 mm 2,3 UV-I 352 W/m² 9,8 °C 16,4 °C 11,3 km/h (2 Bft) 100,00 %
07.05.2026 10:17 16,3 °C 65 % 1013,4 hPa 0,0 l/m² 3,2 km/h (1 Bft) SW 225 ° 1 min 0,000 mm 2,3 UV-I 373 W/m² 9,7 °C 16,3 °C 6,4 km/h (2 Bft) 100,00 %
07.05.2026 10:16 16,3 °C 65 % 1013,4 hPa 0,0 l/m² 3,2 km/h (1 Bft) S-SW 202 ° 1 min 0,000 mm 2,2 UV-I 362 W/m² 9,7 °C 16,3 °C 6,4 km/h (2 Bft) 100,00 %
07.05.2026 10:15 16,2 °C 65 % 1013,5 hPa 0,0 l/m² 3,2 km/h (1 Bft) W-SW 247 ° 1 min 0,000 mm 2,2 UV-I 359 W/m² 9,6 °C 16,2 °C 6,4 km/h (2 Bft) 95,65 %
07.05.2026 10:14 16,1 °C 64 % 1013,5 hPa 0,0 l/m² 4,8 km/h (1 Bft) W-SW 247 ° 1 min 0,000 mm 2,2 UV-I 357 W/m² 9,3 °C 16,1 °C 11,3 km/h (2 Bft) 100,00 %
07.05.2026 10:13 16,1 °C 65 % 1013,4 hPa 0,0 l/m² 3,2 km/h (1 Bft) SW 225 ° 1 min 0,000 mm 2,2 UV-I 362 W/m² 9,5 °C 16,1 °C 4,8 km/h (1 Bft) 95,65 %
07.05.2026 10:12 16,1 °C 64 % 1013,4 hPa 0,0 l/m² 3,2 km/h (1 Bft) S 180 ° 1 min 0,000 mm 2,2 UV-I 364 W/m² 9,3 °C 16,1 °C 9,7 km/h (2 Bft) 100,00 %
07.05.2026 10:11 16,1 °C 63 % 1013,5 hPa 0,0 l/m² 8,0 km/h (2 Bft) W 270 ° 1 min 0,000 mm 2,2 UV-I 373 W/m² 9,1 °C 15,3 °C 14,5 km/h (3 Bft) 95,65 %
07.05.2026 10:10 16,3 °C 64 % 1013,4 hPa 0,0 l/m² 6,4 km/h (2 Bft) SW 225 ° 1 min 0,000 mm 2,1 UV-I 380 W/m² 9,5 °C 16,3 °C 14,5 km/h (3 Bft) 100,00 %
07.05.2026 10:09 16,4 °C 64 % 1013,4 hPa 0,0 l/m² 4,8 km/h (1 Bft) S-SO 157 ° 1 min 0,000 mm 2,1 UV-I 373 W/m² 9,6 °C 16,4 °C 8,0 km/h (2 Bft) 100,00 %
07.05.2026 10:08 16,5 °C 65 % 1013,4 hPa 0,0 l/m² 1,6 km/h (1 Bft) W-SW 247 ° 1 min 0,000 mm 2,1 UV-I 376 W/m² 9,9 °C 16,5 °C 4,8 km/h (1 Bft) 100,00 %
07.05.2026 10:07 16,4 °C 65 % 1013,4 hPa 0,0 l/m² 3,2 km/h (1 Bft) W 270 ° 1 min 0,000 mm 2,5 UV-I 431 W/m² 9,8 °C 16,4 °C 4,8 km/h (1 Bft) 100,00 %
07.05.2026 10:06 16,4 °C 65 % 1013,4 hPa 0,0 l/m² 3,2 km/h (1 Bft) W-SW 247 ° 1 min 0,000 mm 2,0 UV-I 367 W/m² 9,8 °C 16,4 °C 6,4 km/h (2 Bft) 95,65 %
07.05.2026 10:05 16,4 °C 65 % 1013,4 hPa 0,0 l/m² 1,6 km/h (1 Bft) W-SW 247 ° 1 min 0,000 mm 2,0 UV-I 366 W/m² 9,8 °C 16,4 °C 3,2 km/h (1 Bft) 100,00 %
07.05.2026 10:04 16,4 °C 64 % 1013,4 hPa 0,0 l/m² 3,2 km/h (1 Bft) W 270 ° 1 min 0,000 mm 2,0 UV-I 362 W/m² 9,6 °C 16,4 °C 6,4 km/h (2 Bft) 100,00 %
07.05.2026 10:03 16,4 °C 65 % 1013,4 hPa 0,0 l/m² 3,2 km/h (1 Bft) S 180 ° 1 min 0,000 mm 2,0 UV-I 362 W/m² 9,8 °C 16,4 °C 4,8 km/h (1 Bft) 100,00 %
07.05.2026 10:02 16,5 °C 65 % 1013,3 hPa 0,0 l/m² 1,6 km/h (1 Bft) W-SW 247 ° 1 min 0,000 mm 2,1 UV-I 371 W/m² 9,9 °C 16,5 °C 4,8 km/h (1 Bft) 100,00 %
07.05.2026 10:01 16,5 °C 64 % 1013,4 hPa 0,0 l/m² 3,2 km/h (1 Bft) W 270 ° 1 min 0,000 mm 2,0 UV-I 373 W/m² 9,7 °C 16,5 °C 6,4 km/h (2 Bft) 100,00 %
07.05.2026 10:00 16,6 °C 64 % 1013,4 hPa 0,0 l/m² 4,8 km/h (1 Bft) W-SW 247 ° 1 min 0,254 mm 2,1 UV-I 387 W/m² 9,8 °C 16,6 °C 8,0 km/h (2 Bft) 95,65 %
07.05.2026 09:59 16,5 °C 64 % 1013,4 hPa 0,0 l/m² 4,8 km/h (1 Bft) W 270 ° 1 min 0,000 mm 2,2 UV-I 427 W/m² 9,7 °C 16,5 °C 6,4 km/h (2 Bft) 95,65 %
07.05.2026 09:58 16,6 °C 64 % 1013,4 hPa 0,0 l/m² 6,4 km/h (2 Bft) W-NW 292 ° 1 min 0,000 mm 2,1 UV-I 411 W/m² 9,8 °C 16,6 °C 11,3 km/h (2 Bft) 100,00 %
07.05.2026 09:57 16,6 °C 64 % 1013,3 hPa 0,0 l/m² 6,4 km/h (2 Bft) W 270 ° 1 min 0,000 mm 2,2 UV-I 603 W/m² 9,8 °C 16,6 °C 11,3 km/h (2 Bft) 100,00 %
07.05.2026 09:56 16,5 °C 64 % 1013,4 hPa 0,0 l/m² 3,2 km/h (1 Bft) W 270 ° 1 min 0,000 mm 3,1 UV-I 603 W/m² 9,7 °C 16,5 °C 6,4 km/h (2 Bft) 95,65 %
07.05.2026 09:55 16,6 °C 63 % 1013,4 hPa 0,0 l/m² 3,2 km/h (1 Bft) SW 225 ° 1 min 0,000 mm 2,4 UV-I 603 W/m² 9,5 °C 16,6 °C 6,4 km/h (2 Bft) 100,00 %
07.05.2026 09:54 16,7 °C 63 % 1013,4 hPa 0,0 l/m² 6,4 km/h (2 Bft) W 270 ° 1 min 0,000 mm 2,4 UV-I 545 W/m² 9,6 °C 16,7 °C 11,3 km/h (2 Bft) 95,65 %
07.05.2026 09:53 16,7 °C 63 % 1013,4 hPa 0,0 l/m² 6,4 km/h (2 Bft) W 270 ° 1 min 0,000 mm 2,5 UV-I 506 W/m² 9,6 °C 16,7 °C 9,7 km/h (2 Bft) 100,00 %
07.05.2026 09:52 16,7 °C 63 % 1013,4 hPa 0,0 l/m² 6,4 km/h (2 Bft) W 270 ° 1 min 0,000 mm 2,5 UV-I 780 W/m² 9,6 °C 16,7 °C 9,7 km/h (2 Bft) 95,65 %
07.05.2026 09:51 16,8 °C 63 % 1013,3 hPa 0,0 l/m² 8,0 km/h (2 Bft) W 270 ° 1 min 0,000 mm 2,6 UV-I 780 W/m² 9,7 °C 16,0 °C 12,9 km/h (3 Bft) 100,00 %
07.05.2026 09:50 16,9 °C 63 % 1013,4 hPa 0,0 l/m² 3,2 km/h (1 Bft) W 270 ° 1 min 0,000 mm 3,3 UV-I 780 W/m² 9,8 °C 16,9 °C 6,4 km/h (2 Bft) 95,65 %
07.05.2026 09:49 16,9 °C 63 % 1013,4 hPa 0,0 l/m² 6,4 km/h (2 Bft) W-SW 247 ° 1 min 0,000 mm 3,2 UV-I 640 W/m² 9,8 °C 16,9 °C 11,3 km/h (2 Bft) 100,00 %
07.05.2026 09:48 16,9 °C 65 % 1013,4 hPa 0,0 l/m² 3,2 km/h (1 Bft) W-SW 247 ° 1 min 0,000 mm 2,5 UV-I 640 W/m² 10,3 °C 16,9 °C 8,0 km/h (2 Bft) 100,00 %
07.05.2026 09:47 16,7 °C 64 % 1013,4 hPa 0,0 l/m² 4,8 km/h (1 Bft) W 270 ° 1 min 0,000 mm 3,0 UV-I 640 W/m² 9,9 °C 16,7 °C 9,7 km/h (2 Bft) 100,00 %
07.05.2026 09:46 16,6 °C 63 % 1013,4 hPa 0,0 l/m² 3,2 km/h (1 Bft) SW 225 ° 1 min 0,000 mm 2,5 UV-I 640 W/m² 9,5 °C 16,6 °C 6,4 km/h (2 Bft) 100,00 %
07.05.2026 09:45 16,7 °C 63 % 1013,4 hPa 0,0 l/m² 3,2 km/h (1 Bft) SW 225 ° 1 min 0,000 mm 2,8 UV-I 489 W/m² 9,6 °C 16,7 °C 6,4 km/h (2 Bft) 95,65 %
07.05.2026 09:44 16,7 °C 64 % 1013,3 hPa 0,0 l/m² 3,2 km/h (1 Bft) S-SW 202 ° 1 min 0,000 mm 2,7 UV-I 489 W/m² 9,9 °C 16,7 °C 6,4 km/h (2 Bft) 100,00 %
07.05.2026 09:43 16,6 °C 65 % 1013,4 hPa 0,0 l/m² 3,2 km/h (1 Bft) S-SW 202 ° 1 min 0,000 mm 3,1 UV-I 489 W/m² 10,0 °C 16,6 °C 6,4 km/h (2 Bft) 100,00 %
07.05.2026 09:42 16,5 °C 66 % 1013,4 hPa 0,0 l/m² 3,2 km/h (1 Bft) SW 225 ° 1 min 0,000 mm 3,2 UV-I 489 W/m² 10,1 °C 16,5 °C 6,4 km/h (2 Bft) 100,00 %
07.05.2026 09:41 16,4 °C 67 % 1013,4 hPa 0,0 l/m² 3,2 km/h (1 Bft) W 270 ° 1 min 0,000 mm 2,6 UV-I 489 W/m² 10,3 °C 16,4 °C 4,8 km/h (1 Bft) 100,00 %
07.05.2026 09:40 16,2 °C 65 % 1013,4 hPa 0,0 l/m² 4,8 km/h (1 Bft) W 270 ° 1 min 0,000 mm 3,1 UV-I 856 W/m² 9,6 °C 16,2 °C 12,9 km/h (3 Bft) 100,00 %
07.05.2026 09:39 16,1 °C 66 % 1013,4 hPa 0,0 l/m² 4,8 km/h (1 Bft) W 270 ° 1 min 0,000 mm 3,0 UV-I 856 W/m² 9,7 °C 16,1 °C 6,4 km/h (2 Bft) 100,00 %
07.05.2026 09:38 15,8 °C 67 % 1013,4 hPa 0,0 l/m² 1,6 km/h (1 Bft) W 270 ° 1 min 0,000 mm 3,0 UV-I 457 W/m² 9,7 °C 15,8 °C 3,2 km/h (1 Bft) 91,30 %
07.05.2026 09:37 15,8 °C 66 % 1013,4 hPa 0,0 l/m² 4,8 km/h (1 Bft) W 270 ° 1 min 0,000 mm 2,3 UV-I 457 W/m² 9,5 °C 15,8 °C 9,7 km/h (2 Bft) 100,00 %
07.05.2026 09:36 15,8 °C 68 % 1013,4 hPa 0,0 l/m² 4,8 km/h (1 Bft) W 270 ° 1 min 0,000 mm 2,1 UV-I 466 W/m² 9,9 °C 15,8 °C 8,0 km/h (2 Bft) 100,00 %
07.05.2026 09:35 15,6 °C 69 % 1013,4 hPa 0,0 l/m² 3,2 km/h (1 Bft) SW 225 ° 1 min 0,000 mm 2,6 UV-I 401 W/m² 9,9 °C 15,6 °C 4,8 km/h (1 Bft) 100,00 %
07.05.2026 09:34 15,4 °C 69 % 1013,4 hPa 0,0 l/m² 3,2 km/h (1 Bft) SW 225 ° 1 min 0,000 mm 2,1 UV-I 401 W/m² 9,7 °C 15,4 °C 6,4 km/h (2 Bft) 100,00 %
07.05.2026 09:33 15,3 °C 70 % 1013,4 hPa 0,0 l/m² 1,6 km/h (1 Bft) SW 225 ° 1 min 0,000 mm 1,9 UV-I 383 W/m² 9,9 °C 15,3 °C 4,8 km/h (1 Bft) 100,00 %
07.05.2026 09:32 15,1 °C 69 % 1013,4 hPa 0,0 l/m² 1,6 km/h (1 Bft) SW 225 ° 1 min 0,000 mm 2,0 UV-I 396 W/m² 9,5 °C 15,1 °C 1,6 km/h (1 Bft) 100,00 %
07.05.2026 09:31 15,1 °C 69 % 1013,4 hPa 0,0 l/m² 3,2 km/h (1 Bft) W-SW 247 ° 1 min 0,000 mm 1,9 UV-I 346 W/m² 9,5 °C 15,1 °C 6,4 km/h (2 Bft) 95,65 %
07.05.2026 09:30 15,1 °C 69 % 1013,4 hPa 0,0 l/m² 4,8 km/h (1 Bft) W-SW 247 ° 1 min 0,000 mm 1,9 UV-I 338 W/m² 9,5 °C 15,1 °C 14,5 km/h (3 Bft) 95,65 %
07.05.2026 09:29 15,1 °C 69 % 1013,4 hPa 0,0 l/m² 3,2 km/h (1 Bft) S-SW 202 ° 1 min 0,000 mm 1,9 UV-I 373 W/m² 9,5 °C 15,1 °C 4,8 km/h (1 Bft) 100,00 %
07.05.2026 09:28 15,1 °C 69 % 1013,4 hPa 0,0 l/m² 3,2 km/h (1 Bft) W-SW 247 ° 1 min 0,000 mm 1,8 UV-I 336 W/m² 9,5 °C 15,1 °C 4,8 km/h (1 Bft) 95,65 %
07.05.2026 09:27 15,1 °C 69 % 1013,4 hPa 0,0 l/m² 1,6 km/h (1 Bft) W 270 ° 1 min 0,000 mm 1,8 UV-I 320 W/m² 9,5 °C 15,1 °C 6,4 km/h (2 Bft) 100,00 %
07.05.2026 09:26 15,0 °C 70 % 1013,4 hPa 0,0 l/m² 1,6 km/h (1 Bft) W 270 ° 1 min 0,000 mm 1,7 UV-I 294 W/m² 9,6 °C 15,0 °C 4,8 km/h (1 Bft) 100,00 %
07.05.2026 09:25 14,9 °C 69 % 1013,4 hPa 0,0 l/m² 4,8 km/h (1 Bft) W 270 ° 1 min 0,000 mm 1,7 UV-I 313 W/m² 9,3 °C 14,9 °C 9,7 km/h (2 Bft) 100,00 %
07.05.2026 09:24 15,0 °C 68 % 1013,5 hPa 0,0 l/m² 4,8 km/h (1 Bft) W 270 ° 1 min 0,000 mm 1,7 UV-I 299 W/m² 9,1 °C 15,0 °C 9,7 km/h (2 Bft) 91,30 %
07.05.2026 09:23 15,1 °C 69 % 1013,4 hPa 0,0 l/m² 3,2 km/h (1 Bft) SW 225 ° 1 min 0,000 mm 1,6 UV-I 294 W/m² 9,5 °C 15,1 °C 11,3 km/h (2 Bft) 100,00 %
07.05.2026 09:22 15,1 °C 69 % 1013,5 hPa 0,0 l/m² 3,2 km/h (1 Bft) W 270 ° 1 min 0,000 mm 1,6 UV-I 294 W/m² 9,5 °C 15,1 °C 9,7 km/h (2 Bft) 100,00 %
07.05.2026 09:21 15,0 °C 70 % 1013,4 hPa 0,0 l/m² 4,8 km/h (1 Bft) W 270 ° 1 min 0,000 mm 1,8 UV-I 320 W/m² 9,6 °C 15,0 °C 11,3 km/h (2 Bft) 100,00 %
07.05.2026 09:20 14,9 °C 70 % 1013,4 hPa 0,0 l/m² 3,2 km/h (1 Bft) W 270 ° 1 min 0,000 mm 1,6 UV-I 411 W/m² 9,5 °C 14,9 °C 6,4 km/h (2 Bft) 100,00 %
07.05.2026 09:19 14,9 °C 69 % 1013,4 hPa 0,0 l/m² 4,8 km/h (1 Bft) W 270 ° 1 min 0,000 mm 1,7 UV-I 341 W/m² 9,3 °C 14,9 °C 11,3 km/h (2 Bft) 100,00 %
07.05.2026 09:18 14,9 °C 70 % 1013,3 hPa 0,0 l/m² 3,2 km/h (1 Bft) W-SW 247 ° 1 min 0,000 mm 2,0 UV-I 329 W/m² 9,5 °C 14,9 °C 6,4 km/h (2 Bft) 100,00 %
07.05.2026 09:17 14,8 °C 71 % 1013,4 hPa 0,0 l/m² 3,2 km/h (1 Bft) W-NW 292 ° 1 min 0,000 mm 1,9 UV-I 323 W/m² 9,6 °C 14,8 °C 4,8 km/h (1 Bft) 95,65 %
07.05.2026 09:16 14,7 °C 70 % 1013,4 hPa 0,0 l/m² 3,2 km/h (1 Bft) SW 225 ° 1 min 0,000 mm 1,6 UV-I 313 W/m² 9,3 °C 14,7 °C 6,4 km/h (2 Bft) 100,00 %
07.05.2026 09:15 14,7 °C 70 % 1013,4 hPa 0,0 l/m² 4,8 km/h (1 Bft) S-SW 202 ° 1 min 0,000 mm 1,5 UV-I 297 W/m² 9,3 °C 14,7 °C 12,9 km/h (3 Bft) 100,00 %
07.05.2026 09:14 14,7 °C 70 % 1013,4 hPa 0,0 l/m² 3,2 km/h (1 Bft) W-NW 292 ° 1 min 0,000 mm 1,5 UV-I 304 W/m² 9,3 °C 14,7 °C 6,4 km/h (2 Bft) 100,00 %
07.05.2026 09:13 14,7 °C 70 % 1013,4 hPa 0,0 l/m² 3,2 km/h (1 Bft) W 270 ° 1 min 0,000 mm 1,4 UV-I 281 W/m² 9,3 °C 14,7 °C 6,4 km/h (2 Bft) 95,65 %
07.05.2026 09:12 14,6 °C 71 % 1013,4 hPa 0,0 l/m² 3,2 km/h (1 Bft) W-SW 247 ° 1 min 0,000 mm 1,4 UV-I 250 W/m² 9,4 °C 14,6 °C 4,8 km/h (1 Bft) 100,00 %
07.05.2026 09:11 14,6 °C 71 % 1013,4 hPa 0,0 l/m² 1,6 km/h (1 Bft) W-SW 247 ° 1 min 0,000 mm 1,4 UV-I 246 W/m² 9,4 °C 14,6 °C 4,8 km/h (1 Bft) 100,00 %
07.05.2026 09:10 14,6 °C 71 % 1013,4 hPa 0,0 l/m² 1,6 km/h (1 Bft) W-SW 247 ° 1 min 0,000 mm 1,4 UV-I 243 W/m² 9,4 °C 14,6 °C 4,8 km/h (1 Bft) 95,65 %
07.05.2026 09:09 14,6 °C 71 % 1013,4 hPa 0,0 l/m² 1,6 km/h (1 Bft) W-SW 247 ° 1 min 0,000 mm 1,3 UV-I 244 W/m² 9,4 °C 14,6 °C 4,8 km/h (1 Bft) 100,00 %
07.05.2026 09:08 14,6 °C 71 % 1013,4 hPa 0,0 l/m² 1,6 km/h (1 Bft) W-SW 247 ° 1 min 0,000 mm 1,3 UV-I 237 W/m² 9,4 °C 14,6 °C 4,8 km/h (1 Bft) 100,00 %
07.05.2026 09:07 14,5 °C 71 % 1013,4 hPa 0,0 l/m² 1,6 km/h (1 Bft) SW 225 ° 1 min 0,000 mm 1,3 UV-I 239 W/m² 9,3 °C 14,5 °C 3,2 km/h (1 Bft) 100,00 %
07.05.2026 09:06 14,4 °C 72 % 1013,4 hPa 0,0 l/m² 3,2 km/h (1 Bft) W 270 ° 1 min 0,000 mm 1,3 UV-I 243 W/m² 9,4 °C 14,4 °C 9,7 km/h (2 Bft) 100,00 %
07.05.2026 09:05 14,3 °C 71 % 1013,4 hPa 0,0 l/m² 3,2 km/h (1 Bft) W 270 ° 1 min 0,000 mm 1,2 UV-I 234 W/m² 9,1 °C 14,3 °C 6,4 km/h (2 Bft) 95,65 %
07.05.2026 09:04 14,3 °C 71 % 1013,3 hPa 0,0 l/m² 6,4 km/h (2 Bft) W 270 ° 1 min 0,000 mm 1,2 UV-I 229 W/m² 9,1 °C 14,3 °C 9,7 km/h (2 Bft) 100,00 %
07.05.2026 09:03 14,2 °C 71 % 1013,3 hPa 0,0 l/m² 4,8 km/h (1 Bft) W-NW 292 ° 1 min 0,000 mm 1,2 UV-I 227 W/m² 9,0 °C 14,2 °C 6,4 km/h (2 Bft) 95,65 %
07.05.2026 09:02 14,2 °C 71 % 1013,3 hPa 0,0 l/m² 3,2 km/h (1 Bft) W-SW 247 ° 1 min 0,000 mm 1,2 UV-I 229 W/m² 9,0 °C 14,2 °C 3,2 km/h (1 Bft) 100,00 %
07.05.2026 09:01 14,2 °C 70 % 1013,3 hPa 0,0 l/m² 8,0 km/h (2 Bft) W-SW 247 ° 1 min 0,127 mm 1,1 UV-I 220 W/m² 8,8 °C 13,3 °C 11,3 km/h (2 Bft) 95,65 %
07.05.2026 09:00 14,2 °C 70 % 1013,3 hPa 0,0 l/m² 6,4 km/h (2 Bft) W 270 ° 1 min 0,000 mm 1,1 UV-I 213 W/m² 8,8 °C 14,2 °C 12,9 km/h (3 Bft) 100,00 %
07.05.2026 08:59 14,2 °C 70 % 1013,3 hPa 0,0 l/m² 4,8 km/h (1 Bft) S 180 ° 1 min 0,000 mm 1,0 UV-I 207 W/m² 8,8 °C 14,2 °C 11,3 km/h (2 Bft) 100,00 %
07.05.2026 08:58 14,3 °C 70 % 1013,3 hPa 0,0 l/m² 6,4 km/h (2 Bft) W 270 ° 1 min 0,000 mm 1,0 UV-I 204 W/m² 8,9 °C 14,3 °C 12,9 km/h (3 Bft) 100,00 %
07.05.2026 08:57 14,3 °C 71 % 1013,3 hPa 0,0 l/m² 1,6 km/h (1 Bft) S-SW 202 ° 1 min 0,000 mm 1,0 UV-I 207 W/m² 9,1 °C 14,3 °C 6,4 km/h (2 Bft) 100,00 %
07.05.2026 08:56 14,4 °C 71 % 1013,2 hPa 0,0 l/m² 4,8 km/h (1 Bft) W 270 ° 1 min 0,000 mm 1,0 UV-I 211 W/m² 9,2 °C 14,4 °C 11,3 km/h (2 Bft) 95,65 %
07.05.2026 08:55 14,4 °C 70 % 1013,2 hPa 0,0 l/m² 6,4 km/h (2 Bft) W 270 ° 1 min 0,000 mm 1,0 UV-I 216 W/m² 9,0 °C 14,4 °C 12,9 km/h (3 Bft) 100,00 %
07.05.2026 08:54 14,4 °C 71 % 1013,2 hPa 0,0 l/m² 4,8 km/h (1 Bft) S-SW 202 ° 1 min 0,000 mm 1,0 UV-I 220 W/m² 9,2 °C 14,4 °C 11,3 km/h (2 Bft) 100,00 %
07.05.2026 08:53 14,4 °C 71 % 1013,2 hPa 0,0 l/m² 3,2 km/h (1 Bft) W 270 ° 1 min 0,000 mm 1,0 UV-I 223 W/m² 9,2 °C 14,4 °C 6,4 km/h (2 Bft) 95,65 %
07.05.2026 08:52 14,4 °C 72 % 1013,2 hPa 0,0 l/m² 3,2 km/h (1 Bft) SW 225 ° 1 min 0,000 mm 1,0 UV-I 227 W/m² 9,4 °C 14,4 °C 16,1 km/h (3 Bft) 100,00 %
07.05.2026 08:51 14,3 °C 70 % 1013,2 hPa 0,0 l/m² 6,4 km/h (2 Bft) W 270 ° 1 min 0,000 mm 1,0 UV-I 229 W/m² 8,9 °C 14,3 °C 14,5 km/h (3 Bft) 100,00 %
07.05.2026 08:50 14,3 °C 71 % 1013,2 hPa 0,0 l/m² 4,8 km/h (1 Bft) W-NW 292 ° 1 min 0,000 mm 1,0 UV-I 229 W/m² 9,1 °C 14,3 °C 8,0 km/h (2 Bft) 100,00 %
07.05.2026 08:49 14,3 °C 72 % 1013,2 hPa 0,0 l/m² 4,8 km/h (1 Bft) W-SW 247 ° 1 min 0,000 mm 1,0 UV-I 230 W/m² 9,3 °C 14,3 °C 12,9 km/h (3 Bft) 95,65 %
07.05.2026 08:48 14,4 °C 72 % 1013,2 hPa 0,0 l/m² 3,2 km/h (1 Bft) W 270 ° 1 min 0,000 mm 1,0 UV-I 230 W/m² 9,4 °C 14,4 °C 9,7 km/h (2 Bft) 95,65 %
07.05.2026 08:47 14,3 °C 72 % 1013,3 hPa 0,0 l/m² 3,2 km/h (1 Bft) W 270 ° 1 min 0,000 mm 1,0 UV-I 230 W/m² 9,3 °C 14,3 °C 9,7 km/h (2 Bft) 95,65 %
07.05.2026 08:46 14,3 °C 72 % 1013,3 hPa 0,0 l/m² 3,2 km/h (1 Bft) W-SW 247 ° 1 min 0,000 mm 1,0 UV-I 230 W/m² 9,3 °C 14,3 °C 6,4 km/h (2 Bft) 100,00 %
07.05.2026 08:45 14,2 °C 72 % 1013,3 hPa 0,0 l/m² 3,2 km/h (1 Bft) W-SW 247 ° 1 min 0,000 mm 1,0 UV-I 234 W/m² 9,2 °C 14,2 °C 8,0 km/h (2 Bft) 100,00 %
07.05.2026 08:44 14,3 °C 72 % 1013,3 hPa 0,0 l/m² 1,6 km/h (1 Bft) W-NW 292 ° 1 min 0,000 mm 1,0 UV-I 239 W/m² 9,3 °C 14,3 °C 3,2 km/h (1 Bft) 91,30 %
07.05.2026 08:43 14,3 °C 71 % 1013,3 hPa 0,0 l/m² 6,4 km/h (2 Bft) W-SW 247 ° 1 min 0,000 mm 1,0 UV-I 239 W/m² 9,1 °C 14,3 °C 11,3 km/h (2 Bft) 100,00 %
07.05.2026 08:42 14,3 °C 72 % 1013,3 hPa 0,0 l/m² 4,8 km/h (1 Bft) W-SW 247 ° 1 min 0,000 mm 1,0 UV-I 234 W/m² 9,3 °C 14,3 °C 9,7 km/h (2 Bft) 95,65 %
07.05.2026 08:41 14,3 °C 72 % 1013,3 hPa 0,0 l/m² 3,2 km/h (1 Bft) W-SW 247 ° 1 min 0,000 mm 1,0 UV-I 229 W/m² 9,3 °C 14,3 °C 11,3 km/h (2 Bft) 100,00 %
07.05.2026 08:40 14,3 °C 73 % 1013,3 hPa 0,0 l/m² 3,2 km/h (1 Bft) W 270 ° 1 min 0,000 mm 1,0 UV-I 223 W/m² 9,5 °C 14,3 °C 6,4 km/h (2 Bft) 100,00 %
07.05.2026 08:39 14,3 °C 72 % 1013,3 hPa 0,0 l/m² 1,6 km/h (1 Bft) W-SW 247 ° 1 min 0,000 mm 1,0 UV-I 221 W/m² 9,3 °C 14,3 °C 6,4 km/h (2 Bft) 100,00 %
07.05.2026 08:38 14,3 °C 73 % 1013,3 hPa 0,0 l/m² 3,2 km/h (1 Bft) W-SW 247 ° 1 min 0,000 mm 1,0 UV-I 227 W/m² 9,5 °C 14,3 °C 4,8 km/h (1 Bft) 91,30 %
07.05.2026 08:37 14,3 °C 73 % 1013,4 hPa 0,0 l/m² 4,8 km/h (1 Bft) W 270 ° 1 min 0,000 mm 0,9 UV-I 229 W/m² 9,5 °C 14,3 °C 11,3 km/h (2 Bft) 100,00 %
07.05.2026 08:36 14,2 °C 74 % 1013,4 hPa 0,0 l/m² 1,6 km/h (1 Bft) W 270 ° 1 min 0,000 mm 0,9 UV-I 229 W/m² 9,6 °C 14,2 °C 3,2 km/h (1 Bft) 91,30 %
07.05.2026 08:35 14,1 °C 74 % 1013,3 hPa 0,0 l/m² 1,6 km/h (1 Bft) W 270 ° 1 min 0,000 mm 0,9 UV-I 229 W/m² 9,5 °C 14,1 °C 3,2 km/h (1 Bft) 95,65 %
07.05.2026 08:34 14,1 °C 73 % 1013,3 hPa 0,0 l/m² 1,6 km/h (1 Bft) W-SW 247 ° 1 min 0,000 mm 0,9 UV-I 225 W/m² 9,3 °C 14,1 °C 4,8 km/h (1 Bft) 100,00 %
07.05.2026 08:33 14,0 °C 73 % 1013,4 hPa 0,0 l/m² 1,6 km/h (1 Bft) W-SW 247 ° 1 min 0,000 mm 0,9 UV-I 218 W/m² 9,2 °C 14,0 °C 4,8 km/h (1 Bft) 100,00 %
07.05.2026 08:32 14,0 °C 73 % 1013,3 hPa 0,0 l/m² 1,6 km/h (1 Bft) S-SW 202 ° 1 min 0,000 mm 0,9 UV-I 207 W/m² 9,2 °C 14,0 °C 4,8 km/h (1 Bft) 100,00 %
07.05.2026 08:31 13,9 °C 72 % 1013,3 hPa 0,0 l/m² 1,6 km/h (1 Bft) S-SW 202 ° 1 min 0,000 mm 0,8 UV-I 197 W/m² 8,9 °C 13,9 °C 3,2 km/h (1 Bft) 100,00 %
07.05.2026 08:30 13,9 °C 73 % 1013,4 hPa 0,0 l/m² 3,2 km/h (1 Bft) W 270 ° 1 min 0,000 mm 0,8 UV-I 178 W/m² 9,1 °C 13,9 °C 6,4 km/h (2 Bft) 100,00 %
07.05.2026 08:29 13,9 °C 73 % 1013,3 hPa 0,0 l/m² 3,2 km/h (1 Bft) W-SW 247 ° 1 min 0,000 mm 0,8 UV-I 171 W/m² 9,1 °C 13,9 °C 6,4 km/h (2 Bft) 100,00 %
07.05.2026 08:28 14,0 °C 72 % 1013,3 hPa 0,0 l/m² 6,4 km/h (2 Bft) W 270 ° 1 min 0,000 mm 0,8 UV-I 167 W/m² 9,0 °C 14,0 °C 8,0 km/h (2 Bft) 95,65 %
07.05.2026 08:27 14,1 °C 71 % 1013,3 hPa 0,0 l/m² 1,6 km/h (1 Bft) S-SW 202 ° 1 min 0,000 mm 0,7 UV-I 163 W/m² 8,9 °C 14,1 °C 9,7 km/h (2 Bft) 100,00 %
07.05.2026 08:26 14,1 °C 71 % 1013,3 hPa 0,0 l/m² 4,8 km/h (1 Bft) S-SW 202 ° 1 min 0,000 mm 0,7 UV-I 162 W/m² 8,9 °C 14,1 °C 6,4 km/h (2 Bft) 100,00 %
07.05.2026 08:25 14,2 °C 71 % 1013,3 hPa 0,0 l/m² 4,8 km/h (1 Bft) W 270 ° 1 min 0,000 mm 0,7 UV-I 160 W/m² 9,0 °C 14,2 °C 6,4 km/h (2 Bft) 100,00 %
07.05.2026 08:24 14,3 °C 72 % 1013,3 hPa 0,0 l/m² 3,2 km/h (1 Bft) S 180 ° 1 min 0,000 mm 0,7 UV-I 165 W/m² 9,3 °C 14,3 °C 9,7 km/h (2 Bft) 100,00 %
07.05.2026 08:23 14,3 °C 72 % 1013,3 hPa 0,0 l/m² 3,2 km/h (1 Bft) W-SW 247 ° 1 min 0,000 mm 0,7 UV-I 162 W/m² 9,3 °C 14,3 °C 8,0 km/h (2 Bft) 100,00 %
07.05.2026 08:22 14,4 °C 72 % 1013,3 hPa 0,0 l/m² 3,2 km/h (1 Bft) W 270 ° 1 min 0,000 mm 0,7 UV-I 163 W/m² 9,4 °C 14,4 °C 6,4 km/h (2 Bft) 100,00 %
07.05.2026 08:21 14,4 °C 71 % 1013,3 hPa 0,0 l/m² 1,6 km/h (1 Bft) W 270 ° 1 min 0,000 mm 0,7 UV-I 165 W/m² 9,2 °C 14,4 °C 4,8 km/h (1 Bft) 95,65 %
07.05.2026 08:20 14,5 °C 70 % 1013,2 hPa 0,0 l/m² 3,2 km/h (1 Bft) W-SW 247 ° 1 min 0,000 mm 0,7 UV-I 169 W/m² 9,1 °C 14,5 °C 16,1 km/h (3 Bft) 100,00 %
07.05.2026 08:19 14,6 °C 70 % 1013,2 hPa 0,0 l/m² 4,8 km/h (1 Bft) W-SW 247 ° 1 min 0,000 mm 0,7 UV-I 171 W/m² 9,2 °C 14,6 °C 16,1 km/h (3 Bft) 100,00 %
07.05.2026 08:18 14,7 °C 70 % 1013,2 hPa 0,0 l/m² 3,2 km/h (1 Bft) S-SW 202 ° 1 min 0,000 mm 0,8 UV-I 174 W/m² 9,3 °C 14,7 °C 9,7 km/h (2 Bft) 100,00 %
07.05.2026 08:17 14,8 °C 70 % 1013,3 hPa 0,0 l/m² 1,6 km/h (1 Bft) S-SW 202 ° 1 min 0,000 mm 0,8 UV-I 186 W/m² 9,4 °C 14,8 °C 3,2 km/h (1 Bft) 100,00 %
07.05.2026 08:16 14,9 °C 71 % 1013,4 hPa 0,0 l/m² 3,2 km/h (1 Bft) SW 225 ° 1 min 0,000 mm 0,8 UV-I 188 W/m² 9,7 °C 14,9 °C 6,4 km/h (2 Bft) 100,00 %
07.05.2026 08:15 15,1 °C 71 % 1013,3 hPa 0,0 l/m² 1,6 km/h (1 Bft) W-SW 247 ° 1 min 0,000 mm 0,8 UV-I 192 W/m² 9,9 °C 15,1 °C 4,8 km/h (1 Bft) 95,65 %
07.05.2026 08:14 15,2 °C 71 % 1013,2 hPa 0,0 l/m² 1,6 km/h (1 Bft) W-SW 247 ° 1 min 0,000 mm 0,8 UV-I 221 W/m² 10,0 °C 15,2 °C 3,2 km/h (1 Bft) 95,65 %
07.05.2026 08:13 15,2 °C 72 % 1013,3 hPa 0,0 l/m² 3,2 km/h (1 Bft) W-SW 247 ° 1 min 0,000 mm 0,9 UV-I 327 W/m² 10,2 °C 15,2 °C 6,4 km/h (2 Bft) 95,65 %
07.05.2026 08:12 15,2 °C 72 % 1013,3 hPa 0,0 l/m² 1,6 km/h (1 Bft) W 270 ° 1 min 0,000 mm 1,1 UV-I 327 W/m² 10,2 °C 15,2 °C 3,2 km/h (1 Bft) 100,00 %
07.05.2026 08:11 15,1 °C 71 % 1013,3 hPa 0,0 l/m² 1,6 km/h (1 Bft) W 270 ° 1 min 0,000 mm 1,1 UV-I 320 W/m² 9,9 °C 15,1 °C 4,8 km/h (1 Bft) 100,00 %
07.05.2026 08:10 15,1 °C 72 % 1013,3 hPa 0,0 l/m² 1,6 km/h (1 Bft) W 270 ° 1 min 0,000 mm 1,1 UV-I 469 W/m² 10,1 °C 15,1 °C 4,8 km/h (1 Bft) 100,00 %
07.05.2026 08:09 14,8 °C 72 % 1013,3 hPa 0,0 l/m² 3,2 km/h (1 Bft) W 270 ° 1 min 0,000 mm 1,1 UV-I 471 W/m² 9,8 °C 14,8 °C 4,8 km/h (1 Bft) 100,00 %
07.05.2026 08:08 14,8 °C 72 % 1013,3 hPa 0,0 l/m² 3,2 km/h (1 Bft) W 270 ° 1 min 0,000 mm 1,1 UV-I 468 W/m² 9,8 °C 14,8 °C 4,8 km/h (1 Bft) 100,00 %
07.05.2026 08:07 14,7 °C 73 % 1013,2 hPa 0,0 l/m² 3,2 km/h (1 Bft) SW 225 ° 1 min 0,000 mm 1,1 UV-I 425 W/m² 9,9 °C 14,7 °C 6,4 km/h (2 Bft) 91,30 %
07.05.2026 08:06 14,6 °C 75 % 1013,3 hPa 0,0 l/m² 1,6 km/h (1 Bft) W 270 ° 1 min 0,000 mm 1,1 UV-I 429 W/m² 10,2 °C 14,6 °C 3,2 km/h (1 Bft) 100,00 %
07.05.2026 08:05 14,4 °C 74 % 1013,2 hPa 0,0 l/m² 3,2 km/h (1 Bft) W 270 ° 1 min 0,000 mm 1,1 UV-I 367 W/m² 9,8 °C 14,4 °C 6,4 km/h (2 Bft) 100,00 %
07.05.2026 08:04 14,3 °C 76 % 1013,3 hPa 0,0 l/m² 3,2 km/h (1 Bft) W 270 ° 1 min 0,000 mm 1,0 UV-I 367 W/m² 10,1 °C 14,3 °C 6,4 km/h (2 Bft) 100,00 %
07.05.2026 08:03 14,2 °C 76 % 1013,2 hPa 0,0 l/m² 0,0 km/h (0 Bft) W 270 ° 1 min 0,000 mm 1,0 UV-I 367 W/m² 10,0 °C 14,2 °C 1,6 km/h (1 Bft) 100,00 %
07.05.2026 08:02 13,9 °C 77 % 1013,2 hPa 0,0 l/m² 1,6 km/h (1 Bft) W 270 ° 1 min 0,000 mm 1,0 UV-I 288 W/m² 9,9 °C 13,9 °C 3,2 km/h (1 Bft) 100,00 %
07.05.2026 08:01 13,6 °C 78 % 1013,2 hPa 0,0 l/m² 1,6 km/h (1 Bft) W 270 ° 1 min 0,000 mm 1,0 UV-I 350 W/m² 9,8 °C 13,6 °C 3,2 km/h (1 Bft) 95,65 %
07.05.2026 08:00 13,4 °C 78 % 1013,2 hPa 0,0 l/m² 1,6 km/h (1 Bft) W 270 ° 0 min 0,051 mm 1,0 UV-I 90 W/m² 9,6 °C 13,4 °C 1,6 km/h (1 Bft) 95,65 %
07.05.2026 07:59 13,3 °C 77 % 1013,2 hPa 0,0 l/m² 1,6 km/h (1 Bft) W 270 ° 0 min 0,000 mm 0,8 UV-I 90 W/m² 9,4 °C 13,3 °C 6,4 km/h (2 Bft) 91,30 %
07.05.2026 07:58 13,3 °C 78 % 1013,2 hPa 0,0 l/m² 1,6 km/h (1 Bft) W 270 ° 0 min 0,000 mm 0,7 UV-I 77 W/m² 9,5 °C 13,3 °C 3,2 km/h (1 Bft) 100,00 %
07.05.2026 07:57 13,2 °C 78 % 1013,2 hPa 0,0 l/m² 1,6 km/h (1 Bft) W 270 ° 0 min 0,000 mm 0,8 UV-I 139 W/m² 9,4 °C 13,2 °C 6,4 km/h (2 Bft) 100,00 %
07.05.2026 07:56 13,2 °C 79 % 1013,2 hPa 0,0 l/m² 1,6 km/h (1 Bft) W-SW 247 ° 1 min 0,000 mm 0,9 UV-I 311 W/m² 9,6 °C 13,2 °C 4,8 km/h (1 Bft) 100,00 %
07.05.2026 07:55 13,0 °C 79 % 1013,2 hPa 0,0 l/m² 3,2 km/h (1 Bft) W 270 ° 0 min 0,000 mm 0,9 UV-I 88 W/m² 9,4 °C 13,0 °C 4,8 km/h (1 Bft) 100,00 %
07.05.2026 07:54 13,0 °C 80 % 1013,2 hPa 0,0 l/m² 1,6 km/h (1 Bft) W-SW 247 ° 0 min 0,000 mm 0,7 UV-I 88 W/m² 9,6 °C 13,0 °C 4,8 km/h (1 Bft) 100,00 %
07.05.2026 07:53 12,9 °C 80 % 1013,1 hPa 0,0 l/m² 3,2 km/h (1 Bft) SW 225 ° 0 min 0,000 mm 0,7 UV-I 63 W/m² 9,5 °C 12,9 °C 8,0 km/h (2 Bft) 95,65 %
07.05.2026 07:52 12,8 °C 81 % 1013,1 hPa 0,0 l/m² 1,6 km/h (1 Bft) W-SW 247 ° 1 min 0,000 mm 0,7 UV-I 290 W/m² 9,6 °C 12,8 °C 3,2 km/h (1 Bft) 95,65 %
07.05.2026 07:51 12,6 °C 81 % 1013,2 hPa 0,0 l/m² 1,6 km/h (1 Bft) W-SW 247 ° 1 min 0,000 mm 0,8 UV-I 290 W/m² 9,4 °C 12,6 °C 4,8 km/h (1 Bft) 95,65 %
07.05.2026 07:50 12,4 °C 81 % 1013,2 hPa 0,0 l/m² 0,0 km/h (0 Bft) SW 225 ° 1 min 0,000 mm 0,8 UV-I 195 W/m² 9,2 °C 12,4 °C 1,6 km/h (1 Bft) 100,00 %
07.05.2026 07:49 12,2 °C 81 % 1013,1 hPa 0,0 l/m² 1,6 km/h (1 Bft) SW 225 ° 0 min 0,000 mm 0,6 UV-I 102 W/m² 9,0 °C 12,2 °C 3,2 km/h (1 Bft) 100,00 %
07.05.2026 07:48 12,2 °C 81 % 1013,1 hPa 0,0 l/m² 0,0 km/h (0 Bft) S-SW 202 ° 0 min 0,000 mm 0,6 UV-I 67 W/m² 9,0 °C 12,2 °C 3,2 km/h (1 Bft) 95,65 %
07.05.2026 07:47 12,2 °C 81 % 1013,1 hPa 0,0 l/m² 1,6 km/h (1 Bft) S-SW 202 ° 0 min 0,000 mm 0,6 UV-I 69 W/m² 9,0 °C 12,2 °C 3,2 km/h (1 Bft) 100,00 %
07.05.2026 07:46 12,2 °C 81 % 1013,1 hPa 0,0 l/m² 1,6 km/h (1 Bft) S-SW 202 ° 0 min 0,000 mm 0,6 UV-I 65 W/m² 9,0 °C 12,2 °C 3,2 km/h (1 Bft) 95,65 %
07.05.2026 07:45 12,2 °C 83 % 1013,1 hPa 0,0 l/m² 1,6 km/h (1 Bft) SW 225 ° 0 min 0,000 mm 0,6 UV-I 79 W/m² 9,4 °C 12,2 °C 1,6 km/h (1 Bft) 100,00 %
07.05.2026 07:44 12,1 °C 83 % 1013,2 hPa 0,0 l/m² 1,6 km/h (1 Bft) SW 225 ° 0 min 0,000 mm 0,6 UV-I 91 W/m² 9,3 °C 12,1 °C 3,2 km/h (1 Bft) 100,00 %
07.05.2026 07:43 11,9 °C 83 % 1013,1 hPa 0,0 l/m² 0,0 km/h (0 Bft) SW 225 ° 0 min 0,000 mm 0,7 UV-I 132 W/m² 9,1 °C 11,9 °C 1,6 km/h (1 Bft) 95,65 %
07.05.2026 07:42 11,8 °C 83 % 1013,1 hPa 0,0 l/m² 1,6 km/h (1 Bft) SW 225 ° 0 min 0,000 mm 0,6 UV-I 123 W/m² 9,0 °C 11,8 °C 3,2 km/h (1 Bft) 100,00 %
07.05.2026 07:41 11,8 °C 83 % 1013,1 hPa 0,0 l/m² 1,6 km/h (1 Bft) SW 225 ° 0 min 0,000 mm 0,6 UV-I 77 W/m² 9,0 °C 11,8 °C 3,2 km/h (1 Bft) 100,00 %
07.05.2026 07:40 11,8 °C 83 % 1013,1 hPa 0,0 l/m² 1,6 km/h (1 Bft) SW 225 ° 0 min 0,000 mm 0,6 UV-I 74 W/m² 9,0 °C 11,8 °C 1,6 km/h (1 Bft) 95,65 %
07.05.2026 07:39 11,7 °C 83 % 1013,1 hPa 0,0 l/m² 0,0 km/h (0 Bft) SW 225 ° 0 min 0,000 mm 0,6 UV-I 77 W/m² 8,9 °C 11,7 °C 1,6 km/h (1 Bft) 95,65 %
07.05.2026 07:38 11,7 °C 83 % 1013,1 hPa 0,0 l/m² 0,0 km/h (0 Bft) SW 225 ° 0 min 0,000 mm 0,6 UV-I 77 W/m² 8,9 °C 11,7 °C 1,6 km/h (1 Bft) 100,00 %
07.05.2026 07:37 11,7 °C 83 % 1013,1 hPa 0,0 l/m² 0,0 km/h (0 Bft) SW 225 ° 0 min 0,000 mm 0,5 UV-I 79 W/m² 8,9 °C 11,7 °C 1,6 km/h (1 Bft) 100,00 %
07.05.2026 07:36 11,6 °C 83 % 1013,1 hPa 0,0 l/m² 1,6 km/h (1 Bft) SW 225 ° 0 min 0,000 mm 0,5 UV-I 81 W/m² 8,8 °C 11,6 °C 4,8 km/h (1 Bft) 95,65 %
07.05.2026 07:35 11,6 °C 83 % 1013,1 hPa 0,0 l/m² 0,0 km/h (0 Bft) SW 225 ° 0 min 0,000 mm 0,5 UV-I 81 W/m² 8,8 °C 11,6 °C 1,6 km/h (1 Bft) 100,00 %
07.05.2026 07:34 11,6 °C 83 % 1013,1 hPa 0,0 l/m² 1,6 km/h (1 Bft) SW 225 ° 0 min 0,000 mm 0,5 UV-I 79 W/m² 8,8 °C 11,6 °C 3,2 km/h (1 Bft) 100,00 %
07.05.2026 07:33 11,6 °C 83 % 1013,1 hPa 0,0 l/m² 1,6 km/h (1 Bft) SW 225 ° 0 min 0,000 mm 0,5 UV-I 84 W/m² 8,8 °C 11,6 °C 4,8 km/h (1 Bft) 100,00 %
07.05.2026 07:32 11,6 °C 84 % 1013,1 hPa 0,0 l/m² 1,6 km/h (1 Bft) W-SW 247 ° 0 min 0,000 mm 0,5 UV-I 88 W/m² 9,0 °C 11,6 °C 3,2 km/h (1 Bft) 95,65 %
07.05.2026 07:31 11,6 °C 84 % 1013,1 hPa 0,0 l/m² 1,6 km/h (1 Bft) W-SW 247 ° 0 min 0,000 mm 0,5 UV-I 88 W/m² 9,0 °C 11,6 °C 3,2 km/h (1 Bft) 100,00 %
07.05.2026 07:30 11,5 °C 84 % 1013,0 hPa 0,0 l/m² 1,6 km/h (1 Bft) W 270 ° 0 min 0,000 mm 0,5 UV-I 86 W/m² 8,9 °C 11,5 °C 4,8 km/h (1 Bft) 95,65 %
07.05.2026 07:29 11,5 °C 85 % 1013,1 hPa 0,0 l/m² 1,6 km/h (1 Bft) W 270 ° 0 min 0,000 mm 0,5 UV-I 86 W/m² 9,1 °C 11,5 °C 3,2 km/h (1 Bft) 100,00 %
07.05.2026 07:28 11,4 °C 85 % 1013,1 hPa 0,0 l/m² 1,6 km/h (1 Bft) W 270 ° 0 min 0,000 mm 0,5 UV-I 93 W/m² 9,0 °C 11,4 °C 3,2 km/h (1 Bft) 95,65 %
07.05.2026 07:27 11,4 °C 85 % 1013,1 hPa 0,0 l/m² 1,6 km/h (1 Bft) W 270 ° 0 min 0,000 mm 0,5 UV-I 95 W/m² 9,0 °C 11,4 °C 3,2 km/h (1 Bft) 100,00 %
07.05.2026 07:26 11,4 °C 85 % 1013,1 hPa 0,0 l/m² 0,0 km/h (0 Bft) W 270 ° 0 min 0,000 mm 0,5 UV-I 95 W/m² 9,0 °C 11,4 °C 1,6 km/h (1 Bft) 95,65 %
07.05.2026 07:25 11,4 °C 85 % 1013,1 hPa 0,0 l/m² 1,6 km/h (1 Bft) W 270 ° 0 min 0,000 mm 0,0 UV-I 95 W/m² 9,0 °C 11,4 °C 3,2 km/h (1 Bft) 95,65 %
07.05.2026 07:24 11,4 °C 85 % 1013,1 hPa 0,0 l/m² 1,6 km/h (1 Bft) W 270 ° 0 min 0,000 mm 0,0 UV-I 95 W/m² 9,0 °C 11,4 °C 4,8 km/h (1 Bft) 100,00 %
07.05.2026 07:23 11,4 °C 85 % 1013,1 hPa 0,0 l/m² 3,2 km/h (1 Bft) W 270 ° 0 min 0,000 mm 0,0 UV-I 95 W/m² 9,0 °C 11,4 °C 4,8 km/h (1 Bft) 95,65 %
07.05.2026 07:22 11,3 °C 85 % 1013,0 hPa 0,0 l/m² 1,6 km/h (1 Bft) W 270 ° 0 min 0,000 mm 0,0 UV-I 93 W/m² 8,9 °C 11,3 °C 3,2 km/h (1 Bft) 95,65 %
07.05.2026 07:21 11,3 °C 85 % 1013,0 hPa 0,0 l/m² 4,8 km/h (1 Bft) W 270 ° 0 min 0,000 mm 0,0 UV-I 91 W/m² 8,9 °C 11,3 °C 9,7 km/h (2 Bft) 100,00 %
07.05.2026 07:20 11,3 °C 85 % 1013,0 hPa 0,0 l/m² 1,6 km/h (1 Bft) W-SW 247 ° 0 min 0,000 mm 0,0 UV-I 86 W/m² 8,9 °C 11,3 °C 3,2 km/h (1 Bft) 100,00 %
07.05.2026 07:19 11,3 °C 85 % 1013,0 hPa 0,0 l/m² 3,2 km/h (1 Bft) W-SW 247 ° 0 min 0,000 mm 0,0 UV-I 81 W/m² 8,9 °C 11,3 °C 4,8 km/h (1 Bft) 100,00 %
07.05.2026 07:18 11,3 °C 85 % 1013,0 hPa 0,0 l/m² 1,6 km/h (1 Bft) W-SW 247 ° 0 min 0,000 mm 0,0 UV-I 76 W/m² 8,9 °C 11,3 °C 3,2 km/h (1 Bft) 95,65 %
07.05.2026 07:17 11,3 °C 84 % 1012,9 hPa 0,0 l/m² 3,2 km/h (1 Bft) W 270 ° 0 min 0,000 mm 0,0 UV-I 72 W/m² 8,7 °C 11,3 °C 4,8 km/h (1 Bft) 100,00 %
07.05.2026 07:16 11,3 °C 84 % 1012,9 hPa 0,0 l/m² 3,2 km/h (1 Bft) W 270 ° 0 min 0,000 mm 0,0 UV-I 74 W/m² 8,7 °C 11,3 °C 6,4 km/h (2 Bft) 100,00 %
07.05.2026 07:15 11,3 °C 84 % 1012,9 hPa 0,0 l/m² 3,2 km/h (1 Bft) W 270 ° 0 min 0,000 mm 0,0 UV-I 72 W/m² 8,7 °C 11,3 °C 4,8 km/h (1 Bft) 95,65 %
07.05.2026 07:14 11,3 °C 84 % 1012,9 hPa 0,0 l/m² 3,2 km/h (1 Bft) W 270 ° 0 min 0,000 mm 0,0 UV-I 69 W/m² 8,7 °C 11,3 °C 4,8 km/h (1 Bft) 95,65 %
07.05.2026 07:13 11,3 °C 84 % 1012,9 hPa 0,0 l/m² 1,6 km/h (1 Bft) W 270 ° 0 min 0,000 mm 0,0 UV-I 62 W/m² 8,7 °C 11,3 °C 3,2 km/h (1 Bft) 100,00 %
07.05.2026 07:12 11,4 °C 84 % 1012,9 hPa 0,0 l/m² 1,6 km/h (1 Bft) W 270 ° 0 min 0,000 mm 0,0 UV-I 62 W/m² 8,8 °C 11,4 °C 4,8 km/h (1 Bft) 100,00 %
07.05.2026 07:11 11,4 °C 84 % 1012,9 hPa 0,0 l/m² 3,2 km/h (1 Bft) W 270 ° 0 min 0,000 mm 0,0 UV-I 60 W/m² 8,8 °C 11,4 °C 4,8 km/h (1 Bft) 95,65 %
07.05.2026 07:10 11,4 °C 84 % 1012,8 hPa 0,0 l/m² 1,6 km/h (1 Bft) W-SW 247 ° 0 min 0,000 mm 0,0 UV-I 60 W/m² 8,8 °C 11,4 °C 3,2 km/h (1 Bft) 100,00 %
07.05.2026 07:09 11,5 °C 83 % 1012,8 hPa 0,0 l/m² 1,6 km/h (1 Bft) W-SW 247 ° 0 min 0,000 mm 0,0 UV-I 62 W/m² 8,7 °C 11,5 °C 1,6 km/h (1 Bft) 95,65 %
07.05.2026 07:08 11,5 °C 83 % 1012,8 hPa 0,0 l/m² 1,6 km/h (1 Bft) W-SW 247 ° 0 min 0,000 mm 0,0 UV-I 60 W/m² 8,7 °C 11,5 °C 3,2 km/h (1 Bft) 100,00 %
07.05.2026 07:07 11,5 °C 83 % 1012,8 hPa 0,0 l/m² 1,6 km/h (1 Bft) W-SW 247 ° 0 min 0,000 mm 0,0 UV-I 65 W/m² 8,7 °C 11,5 °C 3,2 km/h (1 Bft) 100,00 %
07.05.2026 07:06 11,5 °C 83 % 1012,8 hPa 0,0 l/m² 1,6 km/h (1 Bft) W-SW 247 ° 0 min 0,000 mm 0,0 UV-I 63 W/m² 8,7 °C 11,5 °C 4,8 km/h (1 Bft) 100,00 %
07.05.2026 07:05 11,5 °C 84 % 1012,8 hPa 0,0 l/m² 1,6 km/h (1 Bft) W 270 ° 0 min 0,000 mm 0,0 UV-I 60 W/m² 8,9 °C 11,5 °C 4,8 km/h (1 Bft) 100,00 %
07.05.2026 07:04 11,5 °C 84 % 1012,8 hPa 0,0 l/m² 0,0 km/h (0 Bft) W 270 ° 0 min 0,000 mm 0,0 UV-I 62 W/m² 8,9 °C 11,5 °C 1,6 km/h (1 Bft) 100,00 %
07.05.2026 07:03 11,4 °C 85 % 1012,8 hPa 0,0 l/m² 0,0 km/h (0 Bft) W 270 ° 0 min 0,000 mm 0,0 UV-I 58 W/m² 9,0 °C 11,4 °C 1,6 km/h (1 Bft) 95,65 %
07.05.2026 07:02 11,4 °C 85 % 1012,7 hPa 0,0 l/m² 0,0 km/h (0 Bft) W-SW 247 ° 0 min 0,000 mm 0,0 UV-I 56 W/m² 9,0 °C 11,4 °C 1,6 km/h (1 Bft) 100,00 %
07.05.2026 07:01 11,4 °C 85 % 1012,7 hPa 0,0 l/m² 0,0 km/h (0 Bft) N 0 ° 0 min 0,025 mm 0,0 UV-I 62 W/m² 9,0 °C 11,4 °C 0,0 km/h (0 Bft) 100,00 %
07.05.2026 07:00 11,3 °C 85 % 1012,8 hPa 0,0 l/m² 0,0 km/h (0 Bft) N 0 ° 0 min 0,000 mm 0,0 UV-I 70 W/m² 8,9 °C 11,3 °C 0,0 km/h (0 Bft) 100,00 %
_ Min-Zeit 05:36 13:45 07:01 - 07:00 - - - - - - 05:36 05:36 07:00 00:39
Minimum _ 5,9 °C 50 % 1012,7 hPa - 0,0 km/h (0 Bft) - - - - - - 4,9 °C 5,9 °C 0,0 km/h (0 Bft) 86,96 %
_ Max-Zeit 13:41 03:20 00:39 07:00 12:25 - - 07:50 14:00 13:13 13:48 17:48 13:42 10:43 07:00
Maximum _ 19,9 °C 94 % 1017,7 hPa 0,0 l/m² 12,9 km/h
W-NW (3 Bft)
- - 1 min 0,483 mm 6,2 UV-I 1055 W/m² 11,5 °C 19,8 °C 24,1 km/h
W-SW (4 Bft)
100,00 %
Durchschnitt _ 13,3 °C 76 % 1014,8 hPa #0,0 l/m² 2,2 km/h (1 Bft) W - #0 min. #0,000 mm 0,0 UV-I 12 W/m² 8,8 °C 13,2 °C 4,4 km/h (1 Bft) 98,39 %